<?xml version='1.0' encoding='UTF-8'?><gpx version="1.1" creator="JPX - https://github.com/jenetics/jpx" xmlns="http://www.topografix.com/GPX/1/1"><trk><trkseg><trkpt lat="44.0314284" lon="12.0117897"><ele>377.0</ele><time>2026-05-02T13:51:06.868Z</time></trkpt><trkpt lat="44.0313827" lon="12.0118634"><ele>377.0</ele><time>2026-05-02T13:52:04.043Z</time></trkpt><trkpt lat="44.0313183" lon="12.0119489"><ele>377.0</ele><time>2026-05-02T13:52:06.043Z</time></trkpt><trkpt lat="44.0312307" lon="12.0120738"><ele>377.0</ele><time>2026-05-02T13:52:08.043Z</time></trkpt><trkpt lat="44.0311809" lon="12.0121393"><ele>377.0</ele><time>2026-05-02T13:52:09.043Z</time></trkpt><trkpt lat="44.0311228" lon="12.0122168"><ele>377.0</ele><time>2026-05-02T13:52:10.043Z</time></trkpt><trkpt lat="44.0310639" lon="12.012301"><ele>377.0</ele><time>2026-05-02T13:52:11.043Z</time></trkpt><trkpt lat="44.0310253" lon="12.0123829"><ele>377.0</ele><time>2026-05-02T13:52:12.043Z</time></trkpt><trkpt lat="44.030994" lon="12.01247"><ele>377.0</ele><time>2026-05-02T13:52:13.044Z</time></trkpt><trkpt lat="44.0309655" lon="12.0125493"><ele>377.0</ele><time>2026-05-02T13:52:14.043Z</time></trkpt><trkpt lat="44.0309139" lon="12.0126685"><ele>377.0</ele><time>2026-05-02T13:52:16.043Z</time></trkpt><trkpt lat="44.0308599" lon="12.0127529"><ele>377.0</ele><time>2026-05-02T13:52:18.044Z</time></trkpt><trkpt lat="44.0308168" lon="12.0128328"><ele>378.20000000000005</ele><time>2026-05-02T13:52:20.043Z</time></trkpt><trkpt lat="44.030773" lon="12.0129145"><ele>379.4</ele><time>2026-05-02T13:52:22.043Z</time></trkpt><trkpt lat="44.0307097" lon="12.01303"><ele>380.6</ele><time>2026-05-02T13:52:24.043Z</time></trkpt><trkpt lat="44.030666" lon="12.0131586"><ele>381.79999999999995</ele><time>2026-05-02T13:52:26.044Z</time></trkpt><trkpt lat="44.0306267" lon="12.0133347"><ele>383.0</ele><time>2026-05-02T13:52:28.043Z</time></trkpt><trkpt lat="44.0306017" lon="12.0134286"><ele>383.0</ele><time>2026-05-02T13:52:29.044Z</time></trkpt><trkpt lat="44.0305826" lon="12.0135176"><ele>383.0</ele><time>2026-05-02T13:52:30.043Z</time></trkpt><trkpt lat="44.0305534" lon="12.0136498"><ele>383.0</ele><time>2026-05-02T13:52:32.044Z</time></trkpt><trkpt lat="44.0305388" lon="12.0137748"><ele>383.0</ele><time>2026-05-02T13:52:34.043Z</time></trkpt><trkpt lat="44.0305469" lon="12.0138816"><ele>383.0</ele><time>2026-05-02T13:52:36.044Z</time></trkpt><trkpt lat="44.030631" lon="12.0139043"><ele>383.0</ele><time>2026-05-02T13:52:40.044Z</time></trkpt><trkpt lat="44.0307184" lon="12.013868"><ele>381.5</ele><time>2026-05-02T13:52:42.044Z</time></trkpt><trkpt lat="44.0308169" lon="12.0138526"><ele>380.0</ele><time>2026-05-02T13:52:44.043Z</time></trkpt><trkpt lat="44.0309193" lon="12.0139086"><ele>378.5</ele><time>2026-05-02T13:52:46.043Z</time></trkpt><trkpt lat="44.0309737" lon="12.0139876"><ele>377.0</ele><time>2026-05-02T13:52:47.043Z</time></trkpt><trkpt lat="44.031027" lon="12.0140779"><ele>375.5</ele><time>2026-05-02T13:52:48.044Z</time></trkpt><trkpt lat="44.0310724" lon="12.014161"><ele>374.0</ele><time>2026-05-02T13:52:49.044Z</time></trkpt><trkpt lat="44.0311387" lon="12.0142783"><ele>372.2</ele><time>2026-05-02T13:52:51.043Z</time></trkpt><trkpt lat="44.0312029" lon="12.0143764"><ele>370.4</ele><time>2026-05-02T13:52:53.043Z</time></trkpt><trkpt lat="44.0312335" lon="12.0144928"><ele>368.6</ele><time>2026-05-02T13:52:55.043Z</time></trkpt><trkpt lat="44.0312331" lon="12.0146206"><ele>366.8</ele><time>2026-05-02T13:52:57.043Z</time></trkpt><trkpt lat="44.0312485" lon="12.0147845"><ele>365.0</ele><time>2026-05-02T13:52:59.044Z</time></trkpt><trkpt lat="44.0312682" lon="12.0148752"><ele>365.00000000000006</ele><time>2026-05-02T13:53:00.043Z</time></trkpt><trkpt lat="44.0312961" lon="12.0149677"><ele>365.0</ele><time>2026-05-02T13:53:01.043Z</time></trkpt><trkpt lat="44.0313386" lon="12.0150477"><ele>365.0</ele><time>2026-05-02T13:53:02.043Z</time></trkpt><trkpt lat="44.0313904" lon="12.0151156"><ele>365.0</ele><time>2026-05-02T13:53:03.043Z</time></trkpt><trkpt lat="44.0314512" lon="12.0151619"><ele>365.0</ele><time>2026-05-02T13:53:04.043Z</time></trkpt><trkpt lat="44.0315127" lon="12.0152032"><ele>365.00000000000006</ele><time>2026-05-02T13:53:05.043Z</time></trkpt><trkpt lat="44.0315718" lon="12.0152544"><ele>365.0</ele><time>2026-05-02T13:53:06.043Z</time></trkpt><trkpt lat="44.0316273" lon="12.0153139"><ele>362.5714285714286</ele><time>2026-05-02T13:53:07.043Z</time></trkpt><trkpt lat="44.0316765" lon="12.015369"><ele>360.14285714285717</ele><time>2026-05-02T13:53:08.043Z</time></trkpt><trkpt lat="44.0317234" lon="12.0154403"><ele>357.7142857142857</ele><time>2026-05-02T13:53:09.043Z</time></trkpt><trkpt lat="44.031765" lon="12.0155213"><ele>355.28571428571433</ele><time>2026-05-02T13:53:10.043Z</time></trkpt><trkpt lat="44.0318049" lon="12.0156076"><ele>352.8571428571429</ele><time>2026-05-02T13:53:11.043Z</time></trkpt><trkpt lat="44.0318424" lon="12.0156946"><ele>350.42857142857144</ele><time>2026-05-02T13:53:12.043Z</time></trkpt><trkpt lat="44.0318845" lon="12.0157809"><ele>348.0</ele><time>2026-05-02T13:53:13.043Z</time></trkpt><trkpt lat="44.0319212" lon="12.0158583"><ele>347.3333333333333</ele><time>2026-05-02T13:53:14.043Z</time></trkpt><trkpt lat="44.0319495" lon="12.0159368"><ele>346.6666666666667</ele><time>2026-05-02T13:53:15.043Z</time></trkpt><trkpt lat="44.0319898" lon="12.0161181"><ele>346.0</ele><time>2026-05-02T13:53:17.043Z</time></trkpt><trkpt lat="44.0320085" lon="12.0162237"><ele>345.33333333333337</ele><time>2026-05-02T13:53:18.043Z</time></trkpt><trkpt lat="44.032024" lon="12.0163232"><ele>344.6666666666667</ele><time>2026-05-02T13:53:19.043Z</time></trkpt><trkpt lat="44.0320439" lon="12.0164154"><ele>344.0</ele><time>2026-05-02T13:53:20.044Z</time></trkpt><trkpt lat="44.0320607" lon="12.016508"><ele>344.0</ele><time>2026-05-02T13:53:21.044Z</time></trkpt><trkpt lat="44.0320836" lon="12.0165998"><ele>344.0</ele><time>2026-05-02T13:53:22.044Z</time></trkpt><trkpt lat="44.0321107" lon="12.0166815"><ele>344.0</ele><time>2026-05-02T13:53:23.043Z</time></trkpt><trkpt lat="44.032152" lon="12.0167566"><ele>344.0</ele><time>2026-05-02T13:53:24.043Z</time></trkpt><trkpt lat="44.0322021" lon="12.016833"><ele>344.0</ele><time>2026-05-02T13:53:25.044Z</time></trkpt><trkpt lat="44.03226" lon="12.0169172"><ele>344.0</ele><time>2026-05-02T13:53:26.044Z</time></trkpt><trkpt lat="44.0323204" lon="12.0170153"><ele>341.79999999999995</ele><time>2026-05-02T13:53:27.043Z</time></trkpt><trkpt lat="44.0324004" lon="12.0171055"><ele>339.59999999999997</ele><time>2026-05-02T13:53:28.043Z</time></trkpt><trkpt lat="44.0324778" lon="12.0172026"><ele>337.4</ele><time>2026-05-02T13:53:29.043Z</time></trkpt><trkpt lat="44.032557" lon="12.017301"><ele>335.2</ele><time>2026-05-02T13:53:30.043Z</time></trkpt><trkpt lat="44.0326321" lon="12.0174087"><ele>333.0</ele><time>2026-05-02T13:53:31.043Z</time></trkpt><trkpt lat="44.0326954" lon="12.0175159"><ele>330.0</ele><time>2026-05-02T13:53:32.043Z</time></trkpt><trkpt lat="44.032759" lon="12.0176307"><ele>327.0</ele><time>2026-05-02T13:53:33.043Z</time></trkpt><trkpt lat="44.0328178" lon="12.0177383"><ele>324.0</ele><time>2026-05-02T13:53:34.043Z</time></trkpt><trkpt lat="44.032873" lon="12.0178422"><ele>321.0</ele><time>2026-05-02T13:53:35.043Z</time></trkpt><trkpt lat="44.0329258" lon="12.0179462"><ele>318.0</ele><time>2026-05-02T13:53:36.043Z</time></trkpt><trkpt lat="44.0329824" lon="12.018062"><ele>318.0</ele><time>2026-05-02T13:53:37.043Z</time></trkpt><trkpt lat="44.033039" lon="12.0181693"><ele>318.0</ele><time>2026-05-02T13:53:38.043Z</time></trkpt><trkpt lat="44.033097" lon="12.0182804"><ele>318.0</ele><time>2026-05-02T13:53:39.043Z</time></trkpt><trkpt lat="44.0331542" lon="12.0183858"><ele>318.0</ele><time>2026-05-02T13:53:40.043Z</time></trkpt><trkpt lat="44.0332117" lon="12.0184847"><ele>318.0</ele><time>2026-05-02T13:53:41.043Z</time></trkpt><trkpt lat="44.0332668" lon="12.018585"><ele>319.2</ele><time>2026-05-02T13:53:42.043Z</time></trkpt><trkpt lat="44.0333158" lon="12.0186861"><ele>320.4</ele><time>2026-05-02T13:53:43.043Z</time></trkpt><trkpt lat="44.0333682" lon="12.0187896"><ele>321.59999999999997</ele><time>2026-05-02T13:53:44.044Z</time></trkpt><trkpt lat="44.0334379" lon="12.018895"><ele>322.8</ele><time>2026-05-02T13:53:45.043Z</time></trkpt><trkpt lat="44.0335241" lon="12.0190082"><ele>324.0</ele><time>2026-05-02T13:53:46.043Z</time></trkpt><trkpt lat="44.0336226" lon="12.0191151"><ele>320.75</ele><time>2026-05-02T13:53:47.043Z</time></trkpt><trkpt lat="44.0337098" lon="12.0192342"><ele>317.5</ele><time>2026-05-02T13:53:48.043Z</time></trkpt><trkpt lat="44.0337911" lon="12.0193779"><ele>314.25</ele><time>2026-05-02T13:53:49.043Z</time></trkpt><trkpt lat="44.0338697" lon="12.0195281"><ele>311.0</ele><time>2026-05-02T13:53:50.043Z</time></trkpt><trkpt lat="44.0339513" lon="12.0196793"><ele>311.0</ele><time>2026-05-02T13:53:51.043Z</time></trkpt><trkpt lat="44.0340338" lon="12.0198212"><ele>311.0</ele><time>2026-05-02T13:53:52.044Z</time></trkpt><trkpt lat="44.0341117" lon="12.0199371"><ele>311.0</ele><time>2026-05-02T13:53:53.044Z</time></trkpt><trkpt lat="44.0341826" lon="12.0200433"><ele>311.0</ele><time>2026-05-02T13:53:54.043Z</time></trkpt><trkpt lat="44.034243" lon="12.0201505"><ele>311.0</ele><time>2026-05-02T13:53:55.043Z</time></trkpt><trkpt lat="44.0342939" lon="12.0202586"><ele>311.40000000000003</ele><time>2026-05-02T13:53:56.044Z</time></trkpt><trkpt lat="44.0343367" lon="12.0203753"><ele>311.8</ele><time>2026-05-02T13:53:57.043Z</time></trkpt><trkpt lat="44.0343815" lon="12.0205121"><ele>312.20000000000005</ele><time>2026-05-02T13:53:58.043Z</time></trkpt><trkpt lat="44.0344267" lon="12.0206466"><ele>312.6</ele><time>2026-05-02T13:53:59.043Z</time></trkpt><trkpt lat="44.034469" lon="12.0207645"><ele>313.0</ele><time>2026-05-02T13:54:00.043Z</time></trkpt><trkpt lat="44.0345064" lon="12.0208582"><ele>311.66666666666663</ele><time>2026-05-02T13:54:01.043Z</time></trkpt><trkpt lat="44.0345446" lon="12.0209372"><ele>310.3333333333333</ele><time>2026-05-02T13:54:02.043Z</time></trkpt><trkpt lat="44.0346145" lon="12.0210463"><ele>309.0</ele><time>2026-05-02T13:54:04.043Z</time></trkpt><trkpt lat="44.0346883" lon="12.0211055"><ele>307.6666666666667</ele><time>2026-05-02T13:54:06.043Z</time></trkpt><trkpt lat="44.0347647" lon="12.0211093"><ele>306.33333333333337</ele><time>2026-05-02T13:54:08.043Z</time></trkpt><trkpt lat="44.0348399" lon="12.0210664"><ele>305.0</ele><time>2026-05-02T13:54:10.044Z</time></trkpt><trkpt lat="44.0349146" lon="12.0210841"><ele>305.0</ele><time>2026-05-02T13:54:13.042Z</time></trkpt><trkpt lat="44.0349516" lon="12.0212514"><ele>305.0</ele><time>2026-05-02T13:55:34.042Z</time></trkpt><trkpt lat="44.0350162" lon="12.0213693"><ele>305.0</ele><time>2026-05-02T13:55:35.043Z</time></trkpt><trkpt lat="44.0350989" lon="12.0215344"><ele>305.0</ele><time>2026-05-02T13:55:36.042Z</time></trkpt><trkpt lat="44.0351804" lon="12.0217139"><ele>304.33333333333337</ele><time>2026-05-02T13:55:37.043Z</time></trkpt><trkpt lat="44.0352667" lon="12.0219065"><ele>303.6666666666667</ele><time>2026-05-02T13:55:38.042Z</time></trkpt><trkpt lat="44.0353498" lon="12.0220993"><ele>303.0</ele><time>2026-05-02T13:55:39.043Z</time></trkpt><trkpt lat="44.0354216" lon="12.0222824"><ele>303.0</ele><time>2026-05-02T13:55:40.042Z</time></trkpt><trkpt lat="44.0354609" lon="12.0224573"><ele>303.0</ele><time>2026-05-02T13:55:41.042Z</time></trkpt><trkpt lat="44.0354714" lon="12.0226225"><ele>303.0</ele><time>2026-05-02T13:55:42.042Z</time></trkpt><trkpt lat="44.0354666" lon="12.0227863"><ele>303.0</ele><time>2026-05-02T13:55:43.042Z</time></trkpt><trkpt lat="44.0354473" lon="12.0229525"><ele>303.0</ele><time>2026-05-02T13:55:44.043Z</time></trkpt><trkpt lat="44.035403" lon="12.0231291"><ele>303.0</ele><time>2026-05-02T13:55:45.042Z</time></trkpt><trkpt lat="44.0353431" lon="12.0233405"><ele>303.0</ele><time>2026-05-02T13:55:46.043Z</time></trkpt><trkpt lat="44.0352718" lon="12.0235984"><ele>301.0</ele><time>2026-05-02T13:55:47.042Z</time></trkpt><trkpt lat="44.0351969" lon="12.0238547"><ele>299.0</ele><time>2026-05-02T13:55:48.043Z</time></trkpt><trkpt lat="44.0351354" lon="12.0240948"><ele>297.0</ele><time>2026-05-02T13:55:49.043Z</time></trkpt><trkpt lat="44.0350882" lon="12.0243243"><ele>294.3333333333333</ele><time>2026-05-02T13:55:50.043Z</time></trkpt><trkpt lat="44.0350463" lon="12.0245545"><ele>291.66666666666663</ele><time>2026-05-02T13:55:51.042Z</time></trkpt><trkpt lat="44.0350082" lon="12.0247833"><ele>289.0</ele><time>2026-05-02T13:55:52.042Z</time></trkpt><trkpt lat="44.0349758" lon="12.02501"><ele>280.66666666666663</ele><time>2026-05-02T13:55:53.043Z</time></trkpt><trkpt lat="44.0349438" lon="12.025235"><ele>272.3333333333333</ele><time>2026-05-02T13:55:54.042Z</time></trkpt><trkpt lat="44.0349215" lon="12.0254571"><ele>264.0</ele><time>2026-05-02T13:55:55.042Z</time></trkpt><trkpt lat="44.0349122" lon="12.0256952"><ele>261.3333333333333</ele><time>2026-05-02T13:55:56.043Z</time></trkpt><trkpt lat="44.0349077" lon="12.0259697"><ele>258.66666666666663</ele><time>2026-05-02T13:55:57.042Z</time></trkpt><trkpt lat="44.0349135" lon="12.0262382"><ele>256.0</ele><time>2026-05-02T13:55:58.043Z</time></trkpt><trkpt lat="44.0349239" lon="12.0264944"><ele>254.66666666666666</ele><time>2026-05-02T13:55:59.042Z</time></trkpt><trkpt lat="44.0349344" lon="12.0267374"><ele>253.33333333333331</ele><time>2026-05-02T13:56:00.043Z</time></trkpt><trkpt lat="44.0349449" lon="12.0269678"><ele>252.0</ele><time>2026-05-02T13:56:01.042Z</time></trkpt><trkpt lat="44.0349479" lon="12.0271864"><ele>252.0</ele><time>2026-05-02T13:56:02.043Z</time></trkpt><trkpt lat="44.0349468" lon="12.0273963"><ele>252.0</ele><time>2026-05-02T13:56:03.042Z</time></trkpt><trkpt lat="44.034952" lon="12.0275993"><ele>252.0</ele><time>2026-05-02T13:56:04.042Z</time></trkpt><trkpt lat="44.0349571" lon="12.0277851"><ele>252.0</ele><time>2026-05-02T13:56:05.043Z</time></trkpt><trkpt lat="44.0349613" lon="12.0279527"><ele>251.16666666666666</ele><time>2026-05-02T13:56:06.042Z</time></trkpt><trkpt lat="44.0349655" lon="12.028091"><ele>250.33333333333331</ele><time>2026-05-02T13:56:07.042Z</time></trkpt><trkpt lat="44.0349613" lon="12.0282034"><ele>249.5</ele><time>2026-05-02T13:56:08.042Z</time></trkpt><trkpt lat="44.0349474" lon="12.0283015"><ele>248.66666666666666</ele><time>2026-05-02T13:56:09.042Z</time></trkpt><trkpt lat="44.0348924" lon="12.0283522"><ele>247.83333333333331</ele><time>2026-05-02T13:56:10.042Z</time></trkpt><trkpt lat="44.0348152" lon="12.0283641"><ele>247.0</ele><time>2026-05-02T13:56:11.042Z</time></trkpt><trkpt lat="44.0347467" lon="12.028321"><ele>246.99999999999997</ele><time>2026-05-02T13:56:12.042Z</time></trkpt><trkpt lat="44.0346945" lon="12.0282639"><ele>247.0</ele><time>2026-05-02T13:56:13.042Z</time></trkpt><trkpt lat="44.0345961" lon="12.0282394"><ele>247.0</ele><time>2026-05-02T13:56:15.042Z</time></trkpt><trkpt lat="44.0345544" lon="12.0283183"><ele>247.0</ele><time>2026-05-02T13:56:16.042Z</time></trkpt><trkpt lat="44.0345452" lon="12.0284374"><ele>246.99999999999997</ele><time>2026-05-02T13:56:17.042Z</time></trkpt><trkpt lat="44.0345691" lon="12.0285895"><ele>247.0</ele><time>2026-05-02T13:56:18.042Z</time></trkpt><trkpt lat="44.0346081" lon="12.0287968"><ele>245.33333333333331</ele><time>2026-05-02T13:56:19.042Z</time></trkpt><trkpt lat="44.0346842" lon="12.0290572"><ele>243.66666666666669</ele><time>2026-05-02T13:56:20.042Z</time></trkpt><trkpt lat="44.0347543" lon="12.0293485"><ele>242.0</ele><time>2026-05-02T13:56:21.042Z</time></trkpt><trkpt lat="44.0348124" lon="12.0296115"><ele>240.75</ele><time>2026-05-02T13:56:22.042Z</time></trkpt><trkpt lat="44.0348538" lon="12.0298223"><ele>239.5</ele><time>2026-05-02T13:56:23.042Z</time></trkpt><trkpt lat="44.0348714" lon="12.0300133"><ele>238.25</ele><time>2026-05-02T13:56:24.042Z</time></trkpt><trkpt lat="44.03487" lon="12.0302212"><ele>237.0</ele><time>2026-05-02T13:56:25.042Z</time></trkpt><trkpt lat="44.0348485" lon="12.0304635"><ele>235.75</ele><time>2026-05-02T13:56:26.043Z</time></trkpt><trkpt lat="44.0348222" lon="12.0307018"><ele>234.5</ele><time>2026-05-02T13:56:27.042Z</time></trkpt><trkpt lat="44.0348034" lon="12.0308976"><ele>233.25</ele><time>2026-05-02T13:56:28.042Z</time></trkpt><trkpt lat="44.0348108" lon="12.031073"><ele>232.0</ele><time>2026-05-02T13:56:29.042Z</time></trkpt><trkpt lat="44.0348443" lon="12.0312462"><ele>232.0</ele><time>2026-05-02T13:56:30.042Z</time></trkpt><trkpt lat="44.034901" lon="12.0314178"><ele>232.0</ele><time>2026-05-02T13:56:31.042Z</time></trkpt><trkpt lat="44.0349821" lon="12.0315987"><ele>232.0</ele><time>2026-05-02T13:56:32.043Z</time></trkpt><trkpt lat="44.0350725" lon="12.0317906"><ele>234.75</ele><time>2026-05-02T13:56:33.042Z</time></trkpt><trkpt lat="44.0351588" lon="12.0319648"><ele>237.5</ele><time>2026-05-02T13:56:34.042Z</time></trkpt><trkpt lat="44.0352264" lon="12.03212"><ele>240.25</ele><time>2026-05-02T13:56:35.042Z</time></trkpt><trkpt lat="44.035284" lon="12.0322658"><ele>243.0</ele><time>2026-05-02T13:56:36.043Z</time></trkpt><trkpt lat="44.0353203" lon="12.0324024"><ele>242.0</ele><time>2026-05-02T13:56:37.042Z</time></trkpt><trkpt lat="44.03534" lon="12.0325582"><ele>241.0</ele><time>2026-05-02T13:56:38.042Z</time></trkpt><trkpt lat="44.0353356" lon="12.0327525"><ele>240.0</ele><time>2026-05-02T13:56:39.042Z</time></trkpt><trkpt lat="44.0353195" lon="12.03296"><ele>239.0</ele><time>2026-05-02T13:56:40.042Z</time></trkpt><trkpt lat="44.0352999" lon="12.0331464"><ele>239.0</ele><time>2026-05-02T13:56:41.042Z</time></trkpt><trkpt lat="44.0352842" lon="12.0333181"><ele>239.0</ele><time>2026-05-02T13:56:42.042Z</time></trkpt><trkpt lat="44.0352615" lon="12.0334949"><ele>239.0</ele><time>2026-05-02T13:56:43.042Z</time></trkpt><trkpt lat="44.0352322" lon="12.0336634"><ele>239.0</ele><time>2026-05-02T13:56:44.042Z</time></trkpt><trkpt lat="44.0352011" lon="12.0338304"><ele>239.0</ele><time>2026-05-02T13:56:45.042Z</time></trkpt><trkpt lat="44.0351695" lon="12.0339929"><ele>239.0</ele><time>2026-05-02T13:56:46.042Z</time></trkpt><trkpt lat="44.0351398" lon="12.0341519"><ele>239.0</ele><time>2026-05-02T13:56:47.042Z</time></trkpt><trkpt lat="44.0350917" lon="12.0343041"><ele>239.0</ele><time>2026-05-02T13:56:48.042Z</time></trkpt><trkpt lat="44.0350325" lon="12.034442"><ele>235.75</ele><time>2026-05-02T13:56:49.042Z</time></trkpt><trkpt lat="44.0349474" lon="12.034573"><ele>232.5</ele><time>2026-05-02T13:56:50.042Z</time></trkpt><trkpt lat="44.0348275" lon="12.034701"><ele>229.25</ele><time>2026-05-02T13:56:51.043Z</time></trkpt><trkpt lat="44.0346946" lon="12.0348117"><ele>226.0</ele><time>2026-05-02T13:56:52.042Z</time></trkpt><trkpt lat="44.0345571" lon="12.0349056"><ele>226.0</ele><time>2026-05-02T13:56:53.043Z</time></trkpt><trkpt lat="44.0344219" lon="12.0349864"><ele>226.0</ele><time>2026-05-02T13:56:54.043Z</time></trkpt><trkpt lat="44.0343028" lon="12.0350706"><ele>226.0</ele><time>2026-05-02T13:56:55.043Z</time></trkpt><trkpt lat="44.0342016" lon="12.0351593"><ele>226.0</ele><time>2026-05-02T13:56:56.043Z</time></trkpt><trkpt lat="44.0341088" lon="12.0352569"><ele>225.49999999999997</ele><time>2026-05-02T13:56:57.042Z</time></trkpt><trkpt lat="44.0340363" lon="12.0353657"><ele>225.0</ele><time>2026-05-02T13:56:58.042Z</time></trkpt><trkpt lat="44.0339776" lon="12.0354721"><ele>224.5</ele><time>2026-05-02T13:56:59.043Z</time></trkpt><trkpt lat="44.0339386" lon="12.0355612"><ele>224.0</ele><time>2026-05-02T13:57:00.042Z</time></trkpt><trkpt lat="44.0339137" lon="12.035651"><ele>223.49999999999997</ele><time>2026-05-02T13:57:01.042Z</time></trkpt><trkpt lat="44.0339164" lon="12.0357461"><ele>223.0</ele><time>2026-05-02T13:57:02.042Z</time></trkpt><trkpt lat="44.0339434" lon="12.0358349"><ele>221.0</ele><time>2026-05-02T13:57:03.042Z</time></trkpt><trkpt lat="44.033981" lon="12.035919"><ele>219.0</ele><time>2026-05-02T13:57:04.042Z</time></trkpt><trkpt lat="44.0339697" lon="12.0360382"><ele>217.0</ele><time>2026-05-02T13:57:06.042Z</time></trkpt><trkpt lat="44.0338237" lon="12.0360714"><ele>215.0</ele><time>2026-05-02T13:57:08.042Z</time></trkpt><trkpt lat="44.033742" lon="12.036085"><ele>213.0</ele><time>2026-05-02T13:57:09.042Z</time></trkpt><trkpt lat="44.0336677" lon="12.0361543"><ele>213.0</ele><time>2026-05-02T13:57:10.042Z</time></trkpt><trkpt lat="44.0336002" lon="12.0362768"><ele>213.0</ele><time>2026-05-02T13:57:11.043Z</time></trkpt><trkpt lat="44.0335365" lon="12.0364192"><ele>213.0</ele><time>2026-05-02T13:57:12.042Z</time></trkpt><trkpt lat="44.0334485" lon="12.0365539"><ele>213.0</ele><time>2026-05-02T13:57:13.042Z</time></trkpt><trkpt lat="44.0333424" lon="12.0366634"><ele>213.8</ele><time>2026-05-02T13:57:14.042Z</time></trkpt><trkpt lat="44.0332599" lon="12.0367287"><ele>214.60000000000002</ele><time>2026-05-02T13:57:15.042Z</time></trkpt><trkpt lat="44.0331944" lon="12.0367554"><ele>215.39999999999998</ele><time>2026-05-02T13:57:16.043Z</time></trkpt><trkpt lat="44.03308" lon="12.0366646"><ele>216.2</ele><time>2026-05-02T13:57:18.043Z</time></trkpt><trkpt lat="44.0329896" lon="12.0365467"><ele>217.0</ele><time>2026-05-02T13:57:19.042Z</time></trkpt><trkpt lat="44.0329095" lon="12.0364347"><ele>217.83333333333331</ele><time>2026-05-02T13:57:20.042Z</time></trkpt><trkpt lat="44.0328398" lon="12.0363429"><ele>218.66666666666666</ele><time>2026-05-02T13:57:21.042Z</time></trkpt><trkpt lat="44.0327743" lon="12.0362886"><ele>219.5</ele><time>2026-05-02T13:57:22.043Z</time></trkpt><trkpt lat="44.0327069" lon="12.0362784"><ele>220.33333333333331</ele><time>2026-05-02T13:57:23.043Z</time></trkpt><trkpt lat="44.0326434" lon="12.0363254"><ele>221.16666666666666</ele><time>2026-05-02T13:57:24.042Z</time></trkpt><trkpt lat="44.0325909" lon="12.0364197"><ele>222.0</ele><time>2026-05-02T13:57:25.043Z</time></trkpt><trkpt lat="44.0325675" lon="12.0365414"><ele>221.39999999999998</ele><time>2026-05-02T13:57:26.042Z</time></trkpt><trkpt lat="44.0325664" lon="12.0366763"><ele>220.79999999999998</ele><time>2026-05-02T13:57:27.042Z</time></trkpt><trkpt lat="44.032557" lon="12.036808"><ele>220.2</ele><time>2026-05-02T13:57:28.042Z</time></trkpt><trkpt lat="44.0325178" lon="12.0368864"><ele>219.6</ele><time>2026-05-02T13:57:29.042Z</time></trkpt><trkpt lat="44.0323937" lon="12.0369237"><ele>219.0</ele><time>2026-05-02T13:57:31.042Z</time></trkpt><trkpt lat="44.0323317" lon="12.0368727"><ele>219.0</ele><time>2026-05-02T13:57:32.042Z</time></trkpt><trkpt lat="44.0322547" lon="12.0367803"><ele>218.99999999999997</ele><time>2026-05-02T13:57:33.042Z</time></trkpt><trkpt lat="44.0321742" lon="12.0366701"><ele>218.99999999999997</ele><time>2026-05-02T13:57:34.042Z</time></trkpt><trkpt lat="44.0321024" lon="12.0365656"><ele>219.0</ele><time>2026-05-02T13:57:35.042Z</time></trkpt><trkpt lat="44.0320261" lon="12.0364931"><ele>219.0</ele><time>2026-05-02T13:57:36.042Z</time></trkpt><trkpt lat="44.0319243" lon="12.0364451"><ele>225.0</ele><time>2026-05-02T13:57:37.042Z</time></trkpt><trkpt lat="44.0317975" lon="12.0364358"><ele>231.0</ele><time>2026-05-02T13:57:38.042Z</time></trkpt><trkpt lat="44.0316337" lon="12.0364551"><ele>237.0</ele><time>2026-05-02T13:57:39.042Z</time></trkpt><trkpt lat="44.0314723" lon="12.0364856"><ele>237.5</ele><time>2026-05-02T13:57:40.042Z</time></trkpt><trkpt lat="44.0313268" lon="12.0365176"><ele>238.0</ele><time>2026-05-02T13:57:41.042Z</time></trkpt><trkpt lat="44.0311921" lon="12.03654"><ele>238.5</ele><time>2026-05-02T13:57:42.043Z</time></trkpt><trkpt lat="44.0310663" lon="12.0365427"><ele>239.0</ele><time>2026-05-02T13:57:43.042Z</time></trkpt><trkpt lat="44.0309478" lon="12.0365249"><ele>239.0</ele><time>2026-05-02T13:57:44.042Z</time></trkpt><trkpt lat="44.0308342" lon="12.0365004"><ele>238.99999999999997</ele><time>2026-05-02T13:57:45.042Z</time></trkpt><trkpt lat="44.030729" lon="12.036477"><ele>238.99999999999997</ele><time>2026-05-02T13:57:46.042Z</time></trkpt><trkpt lat="44.0306299" lon="12.036463"><ele>239.0</ele><time>2026-05-02T13:57:47.042Z</time></trkpt><trkpt lat="44.0305324" lon="12.0364721"><ele>239.0</ele><time>2026-05-02T13:57:48.042Z</time></trkpt><trkpt lat="44.0304323" lon="12.0365232"><ele>240.0</ele><time>2026-05-02T13:57:49.042Z</time></trkpt><trkpt lat="44.0303356" lon="12.0366281"><ele>241.0</ele><time>2026-05-02T13:57:50.042Z</time></trkpt><trkpt lat="44.0302127" lon="12.0367508"><ele>242.0</ele><time>2026-05-02T13:57:51.042Z</time></trkpt><trkpt lat="44.030045" lon="12.0368523"><ele>238.66666666666669</ele><time>2026-05-02T13:57:52.042Z</time></trkpt><trkpt lat="44.0298648" lon="12.0369207"><ele>235.33333333333331</ele><time>2026-05-02T13:57:53.042Z</time></trkpt><trkpt lat="44.0296995" lon="12.036971"><ele>232.0</ele><time>2026-05-02T13:57:54.042Z</time></trkpt><trkpt lat="44.0295527" lon="12.0370108"><ele>232.0</ele><time>2026-05-02T13:57:55.042Z</time></trkpt><trkpt lat="44.0294177" lon="12.0370486"><ele>232.0</ele><time>2026-05-02T13:57:56.042Z</time></trkpt><trkpt lat="44.0292857" lon="12.0370706"><ele>232.0</ele><time>2026-05-02T13:57:57.042Z</time></trkpt><trkpt lat="44.0291608" lon="12.0370851"><ele>232.0</ele><time>2026-05-02T13:57:58.042Z</time></trkpt><trkpt lat="44.0290502" lon="12.037083"><ele>231.8</ele><time>2026-05-02T13:57:59.042Z</time></trkpt><trkpt lat="44.0289486" lon="12.0370782"><ele>231.6</ele><time>2026-05-02T13:58:00.042Z</time></trkpt><trkpt lat="44.0288413" lon="12.0370844"><ele>231.40000000000003</ele><time>2026-05-02T13:58:01.042Z</time></trkpt><trkpt lat="44.0287279" lon="12.0371134"><ele>231.20000000000002</ele><time>2026-05-02T13:58:02.042Z</time></trkpt><trkpt lat="44.0286114" lon="12.0371694"><ele>231.0</ele><time>2026-05-02T13:58:03.043Z</time></trkpt><trkpt lat="44.0284954" lon="12.037267"><ele>231.0</ele><time>2026-05-02T13:58:04.042Z</time></trkpt><trkpt lat="44.0283741" lon="12.0373871"><ele>231.0</ele><time>2026-05-02T13:58:05.043Z</time></trkpt><trkpt lat="44.0282459" lon="12.0375332"><ele>231.0</ele><time>2026-05-02T13:58:06.042Z</time></trkpt><trkpt lat="44.0281063" lon="12.0376881"><ele>232.5</ele><time>2026-05-02T13:58:07.042Z</time></trkpt><trkpt lat="44.0279776" lon="12.0378345"><ele>234.0</ele><time>2026-05-02T13:58:08.043Z</time></trkpt><trkpt lat="44.0278601" lon="12.0379559"><ele>235.5</ele><time>2026-05-02T13:58:09.043Z</time></trkpt><trkpt lat="44.0277541" lon="12.0380657"><ele>237.0</ele><time>2026-05-02T13:58:10.042Z</time></trkpt><trkpt lat="44.0276514" lon="12.0381601"><ele>237.0</ele><time>2026-05-02T13:58:11.042Z</time></trkpt><trkpt lat="44.0275544" lon="12.038234"><ele>237.0</ele><time>2026-05-02T13:58:12.043Z</time></trkpt><trkpt lat="44.0274482" lon="12.0382869"><ele>237.0</ele><time>2026-05-02T13:58:13.042Z</time></trkpt><trkpt lat="44.0273332" lon="12.0383216"><ele>237.0</ele><time>2026-05-02T13:58:14.042Z</time></trkpt><trkpt lat="44.0272067" lon="12.0383393"><ele>235.75</ele><time>2026-05-02T13:58:15.042Z</time></trkpt><trkpt lat="44.0270865" lon="12.0383514"><ele>234.5</ele><time>2026-05-02T13:58:16.042Z</time></trkpt><trkpt lat="44.0269707" lon="12.0383828"><ele>233.25</ele><time>2026-05-02T13:58:17.042Z</time></trkpt><trkpt lat="44.0268659" lon="12.0384378"><ele>232.0</ele><time>2026-05-02T13:58:18.042Z</time></trkpt><trkpt lat="44.0267593" lon="12.0385262"><ele>232.0</ele><time>2026-05-02T13:58:19.042Z</time></trkpt><trkpt lat="44.026654" lon="12.038625"><ele>232.0</ele><time>2026-05-02T13:58:20.042Z</time></trkpt><trkpt lat="44.0265512" lon="12.0387274"><ele>232.0</ele><time>2026-05-02T13:58:21.042Z</time></trkpt><trkpt lat="44.0264479" lon="12.0388181"><ele>232.0</ele><time>2026-05-02T13:58:22.043Z</time></trkpt><trkpt lat="44.0263468" lon="12.0389015"><ele>233.5</ele><time>2026-05-02T13:58:23.042Z</time></trkpt><trkpt lat="44.0262404" lon="12.0389639"><ele>235.0</ele><time>2026-05-02T13:58:24.042Z</time></trkpt><trkpt lat="44.0261252" lon="12.0390038"><ele>236.5</ele><time>2026-05-02T13:58:25.043Z</time></trkpt><trkpt lat="44.0259921" lon="12.0390201"><ele>238.0</ele><time>2026-05-02T13:58:26.042Z</time></trkpt><trkpt lat="44.0258519" lon="12.0390295"><ele>237.75</ele><time>2026-05-02T13:58:27.043Z</time></trkpt><trkpt lat="44.0257146" lon="12.0390393"><ele>237.5</ele><time>2026-05-02T13:58:28.042Z</time></trkpt><trkpt lat="44.0255906" lon="12.0390587"><ele>237.25</ele><time>2026-05-02T13:58:29.043Z</time></trkpt><trkpt lat="44.0254797" lon="12.0390886"><ele>237.0</ele><time>2026-05-02T13:58:30.042Z</time></trkpt><trkpt lat="44.0253735" lon="12.0391323"><ele>236.2</ele><time>2026-05-02T13:58:31.042Z</time></trkpt><trkpt lat="44.0252787" lon="12.039177"><ele>235.39999999999998</ele><time>2026-05-02T13:58:32.042Z</time></trkpt><trkpt lat="44.0252008" lon="12.0392263"><ele>234.60000000000002</ele><time>2026-05-02T13:58:33.042Z</time></trkpt><trkpt lat="44.0251425" lon="12.0393133"><ele>233.8</ele><time>2026-05-02T13:58:34.043Z</time></trkpt><trkpt lat="44.0250928" lon="12.0394444"><ele>233.0</ele><time>2026-05-02T13:58:35.043Z</time></trkpt><trkpt lat="44.0250344" lon="12.0395859"><ele>232.75</ele><time>2026-05-02T13:58:36.042Z</time></trkpt><trkpt lat="44.0249581" lon="12.0397345"><ele>232.5</ele><time>2026-05-02T13:58:37.042Z</time></trkpt><trkpt lat="44.0248585" lon="12.0398715"><ele>232.25</ele><time>2026-05-02T13:58:38.042Z</time></trkpt><trkpt lat="44.0247331" lon="12.0399934"><ele>232.0</ele><time>2026-05-02T13:58:39.043Z</time></trkpt><trkpt lat="44.0245939" lon="12.0400936"><ele>233.0</ele><time>2026-05-02T13:58:40.042Z</time></trkpt><trkpt lat="44.0244515" lon="12.0401884"><ele>234.0</ele><time>2026-05-02T13:58:41.042Z</time></trkpt><trkpt lat="44.0243131" lon="12.0402848"><ele>235.0</ele><time>2026-05-02T13:58:42.042Z</time></trkpt><trkpt lat="44.0241743" lon="12.0403815"><ele>235.0</ele><time>2026-05-02T13:58:43.043Z</time></trkpt><trkpt lat="44.0240384" lon="12.0404876"><ele>235.0</ele><time>2026-05-02T13:58:44.042Z</time></trkpt><trkpt lat="44.0239126" lon="12.0405928"><ele>235.0</ele><time>2026-05-02T13:58:45.042Z</time></trkpt><trkpt lat="44.0237915" lon="12.040704"><ele>235.0</ele><time>2026-05-02T13:58:46.042Z</time></trkpt><trkpt lat="44.0236704" lon="12.0408347"><ele>235.0</ele><time>2026-05-02T13:58:47.042Z</time></trkpt><trkpt lat="44.0235545" lon="12.040973"><ele>235.0</ele><time>2026-05-02T13:58:48.042Z</time></trkpt><trkpt lat="44.0234569" lon="12.0410968"><ele>235.0</ele><time>2026-05-02T13:58:49.042Z</time></trkpt><trkpt lat="44.0233689" lon="12.0412025"><ele>235.0</ele><time>2026-05-02T13:58:50.042Z</time></trkpt><trkpt lat="44.0232784" lon="12.0412698"><ele>235.0</ele><time>2026-05-02T13:58:51.042Z</time></trkpt><trkpt lat="44.023175" lon="12.041297"><ele>235.0</ele><time>2026-05-02T13:58:52.043Z</time></trkpt><trkpt lat="44.0230723" lon="12.0412668"><ele>235.0</ele><time>2026-05-02T13:58:53.042Z</time></trkpt><trkpt lat="44.0229648" lon="12.0412138"><ele>235.0</ele><time>2026-05-02T13:58:54.043Z</time></trkpt><trkpt lat="44.0228547" lon="12.0411439"><ele>235.0</ele><time>2026-05-02T13:58:55.042Z</time></trkpt><trkpt lat="44.0227344" lon="12.0410524"><ele>235.0</ele><time>2026-05-02T13:58:56.042Z</time></trkpt><trkpt lat="44.0226014" lon="12.0409575"><ele>235.0</ele><time>2026-05-02T13:58:57.042Z</time></trkpt><trkpt lat="44.0224581" lon="12.0408596"><ele>235.0</ele><time>2026-05-02T13:58:58.042Z</time></trkpt><trkpt lat="44.0223088" lon="12.0407602"><ele>236.0</ele><time>2026-05-02T13:58:59.042Z</time></trkpt><trkpt lat="44.0221532" lon="12.0406585"><ele>237.0</ele><time>2026-05-02T13:59:00.042Z</time></trkpt><trkpt lat="44.0219953" lon="12.0405596"><ele>238.0</ele><time>2026-05-02T13:59:01.042Z</time></trkpt><trkpt lat="44.0218343" lon="12.040455"><ele>238.0</ele><time>2026-05-02T13:59:02.042Z</time></trkpt><trkpt lat="44.0216728" lon="12.0403482"><ele>238.0</ele><time>2026-05-02T13:59:03.042Z</time></trkpt><trkpt lat="44.0215131" lon="12.0402495"><ele>238.0</ele><time>2026-05-02T13:59:04.042Z</time></trkpt><trkpt lat="44.021364" lon="12.040167"><ele>238.0</ele><time>2026-05-02T13:59:05.042Z</time></trkpt><trkpt lat="44.0212172" lon="12.0400996"><ele>238.0</ele><time>2026-05-02T13:59:06.043Z</time></trkpt><trkpt lat="44.0210741" lon="12.0400481"><ele>238.0</ele><time>2026-05-02T13:59:07.042Z</time></trkpt><trkpt lat="44.0209354" lon="12.0400163"><ele>238.0</ele><time>2026-05-02T13:59:08.042Z</time></trkpt><trkpt lat="44.0208077" lon="12.0400116"><ele>238.33333333333331</ele><time>2026-05-02T13:59:09.042Z</time></trkpt><trkpt lat="44.0206811" lon="12.0400437"><ele>238.66666666666669</ele><time>2026-05-02T13:59:10.042Z</time></trkpt><trkpt lat="44.0205381" lon="12.0401323"><ele>239.0</ele><time>2026-05-02T13:59:11.042Z</time></trkpt><trkpt lat="44.0203628" lon="12.0402346"><ele>239.0</ele><time>2026-05-02T13:59:12.042Z</time></trkpt><trkpt lat="44.0201676" lon="12.040351"><ele>239.0</ele><time>2026-05-02T13:59:13.043Z</time></trkpt><trkpt lat="44.0199649" lon="12.0404664"><ele>239.0</ele><time>2026-05-02T13:59:14.042Z</time></trkpt><trkpt lat="44.0197664" lon="12.0405823"><ele>240.33333333333334</ele><time>2026-05-02T13:59:15.042Z</time></trkpt><trkpt lat="44.0195859" lon="12.0406847"><ele>241.66666666666669</ele><time>2026-05-02T13:59:16.042Z</time></trkpt><trkpt lat="44.0194247" lon="12.0407757"><ele>243.0</ele><time>2026-05-02T13:59:17.042Z</time></trkpt><trkpt lat="44.0192657" lon="12.0408603"><ele>244.0</ele><time>2026-05-02T13:59:18.043Z</time></trkpt><trkpt lat="44.0191114" lon="12.0409452"><ele>245.0</ele><time>2026-05-02T13:59:19.042Z</time></trkpt><trkpt lat="44.0189607" lon="12.0410292"><ele>246.0</ele><time>2026-05-02T13:59:20.042Z</time></trkpt><trkpt lat="44.0188149" lon="12.0410939"><ele>246.0</ele><time>2026-05-02T13:59:21.042Z</time></trkpt><trkpt lat="44.018678" lon="12.0411443"><ele>246.0</ele><time>2026-05-02T13:59:22.042Z</time></trkpt><trkpt lat="44.0185491" lon="12.0411866"><ele>246.0</ele><time>2026-05-02T13:59:23.042Z</time></trkpt><trkpt lat="44.0184248" lon="12.0412121"><ele>246.0</ele><time>2026-05-02T13:59:24.042Z</time></trkpt><trkpt lat="44.0182971" lon="12.0412302"><ele>245.75</ele><time>2026-05-02T13:59:25.042Z</time></trkpt><trkpt lat="44.0181712" lon="12.0412491"><ele>245.5</ele><time>2026-05-02T13:59:26.042Z</time></trkpt><trkpt lat="44.0180427" lon="12.0412653"><ele>245.25</ele><time>2026-05-02T13:59:27.042Z</time></trkpt><trkpt lat="44.0179181" lon="12.0412725"><ele>245.0</ele><time>2026-05-02T13:59:28.043Z</time></trkpt><trkpt lat="44.0178041" lon="12.0412678"><ele>245.0</ele><time>2026-05-02T13:59:29.042Z</time></trkpt><trkpt lat="44.0177002" lon="12.0412583"><ele>245.0</ele><time>2026-05-02T13:59:30.043Z</time></trkpt><trkpt lat="44.0175987" lon="12.041261"><ele>245.0</ele><time>2026-05-02T13:59:31.042Z</time></trkpt><trkpt lat="44.0175039" lon="12.0412951"><ele>245.0</ele><time>2026-05-02T13:59:32.043Z</time></trkpt><trkpt lat="44.0173942" lon="12.0413598"><ele>245.0</ele><time>2026-05-02T13:59:33.042Z</time></trkpt><trkpt lat="44.0172845" lon="12.0414424"><ele>245.75</ele><time>2026-05-02T13:59:34.042Z</time></trkpt><trkpt lat="44.0171749" lon="12.0415362"><ele>246.5</ele><time>2026-05-02T13:59:35.042Z</time></trkpt><trkpt lat="44.0170603" lon="12.041639"><ele>247.25</ele><time>2026-05-02T13:59:36.042Z</time></trkpt><trkpt lat="44.016951" lon="12.0417356"><ele>248.0</ele><time>2026-05-02T13:59:37.042Z</time></trkpt><trkpt lat="44.0168445" lon="12.0418279"><ele>248.0</ele><time>2026-05-02T13:59:38.042Z</time></trkpt><trkpt lat="44.0167415" lon="12.0419065"><ele>248.0</ele><time>2026-05-02T13:59:39.042Z</time></trkpt><trkpt lat="44.0166341" lon="12.0419752"><ele>248.0</ele><time>2026-05-02T13:59:40.042Z</time></trkpt><trkpt lat="44.0165373" lon="12.0420333"><ele>248.0</ele><time>2026-05-02T13:59:41.041Z</time></trkpt><trkpt lat="44.0164422" lon="12.0420835"><ele>248.0</ele><time>2026-05-02T13:59:42.041Z</time></trkpt><trkpt lat="44.016349" lon="12.0421125"><ele>248.25</ele><time>2026-05-02T13:59:43.041Z</time></trkpt><trkpt lat="44.0162489" lon="12.0421058"><ele>248.5</ele><time>2026-05-02T13:59:44.041Z</time></trkpt><trkpt lat="44.0161456" lon="12.0420717"><ele>248.75</ele><time>2026-05-02T13:59:45.041Z</time></trkpt><trkpt lat="44.0160221" lon="12.0420128"><ele>249.0</ele><time>2026-05-02T13:59:46.041Z</time></trkpt><trkpt lat="44.01589" lon="12.0419416"><ele>249.66666666666669</ele><time>2026-05-02T13:59:47.042Z</time></trkpt><trkpt lat="44.0157479" lon="12.041863"><ele>250.33333333333334</ele><time>2026-05-02T13:59:48.042Z</time></trkpt><trkpt lat="44.0156038" lon="12.041783"><ele>251.0</ele><time>2026-05-02T13:59:49.041Z</time></trkpt><trkpt lat="44.0154553" lon="12.0417036"><ele>251.66666666666669</ele><time>2026-05-02T13:59:50.042Z</time></trkpt><trkpt lat="44.0153064" lon="12.0416286"><ele>252.33333333333331</ele><time>2026-05-02T13:59:51.041Z</time></trkpt><trkpt lat="44.0151545" lon="12.0415496"><ele>253.0</ele><time>2026-05-02T13:59:52.041Z</time></trkpt><trkpt lat="44.0149959" lon="12.0414724"><ele>252.66666666666666</ele><time>2026-05-02T13:59:53.041Z</time></trkpt><trkpt lat="44.0148297" lon="12.0413911"><ele>252.33333333333331</ele><time>2026-05-02T13:59:54.041Z</time></trkpt><trkpt lat="44.0146609" lon="12.0413045"><ele>252.0</ele><time>2026-05-02T13:59:55.041Z</time></trkpt><trkpt lat="44.0144784" lon="12.0412112"><ele>252.0</ele><time>2026-05-02T13:59:56.042Z</time></trkpt><trkpt lat="44.0142975" lon="12.0411227"><ele>252.0</ele><time>2026-05-02T13:59:57.041Z</time></trkpt><trkpt lat="44.0141293" lon="12.0410398"><ele>252.0</ele><time>2026-05-02T13:59:58.041Z</time></trkpt><trkpt lat="44.0139654" lon="12.040959"><ele>253.0</ele><time>2026-05-02T13:59:59.041Z</time></trkpt><trkpt lat="44.0138009" lon="12.040878"><ele>254.0</ele><time>2026-05-02T14:00:00.041Z</time></trkpt><trkpt lat="44.0136421" lon="12.0408036"><ele>255.0</ele><time>2026-05-02T14:00:01.041Z</time></trkpt><trkpt lat="44.0134912" lon="12.0407327"><ele>255.0</ele><time>2026-05-02T14:00:02.041Z</time></trkpt><trkpt lat="44.0133518" lon="12.0406685"><ele>255.0</ele><time>2026-05-02T14:00:03.041Z</time></trkpt><trkpt lat="44.0132145" lon="12.0406039"><ele>255.0</ele><time>2026-05-02T14:00:04.042Z</time></trkpt><trkpt lat="44.0130828" lon="12.0405415"><ele>255.0</ele><time>2026-05-02T14:00:05.041Z</time></trkpt><trkpt lat="44.0129548" lon="12.040474"><ele>255.25</ele><time>2026-05-02T14:00:06.041Z</time></trkpt><trkpt lat="44.0128316" lon="12.0404066"><ele>255.5</ele><time>2026-05-02T14:00:07.042Z</time></trkpt><trkpt lat="44.0127092" lon="12.0403482"><ele>255.75</ele><time>2026-05-02T14:00:08.041Z</time></trkpt><trkpt lat="44.0125885" lon="12.0402983"><ele>256.0</ele><time>2026-05-02T14:00:09.041Z</time></trkpt><trkpt lat="44.0124684" lon="12.0402571"><ele>256.5</ele><time>2026-05-02T14:00:10.041Z</time></trkpt><trkpt lat="44.0123496" lon="12.0402338"><ele>257.0</ele><time>2026-05-02T14:00:11.042Z</time></trkpt><trkpt lat="44.0122352" lon="12.0402288"><ele>257.5</ele><time>2026-05-02T14:00:12.041Z</time></trkpt><trkpt lat="44.0121211" lon="12.0402369"><ele>258.0</ele><time>2026-05-02T14:00:13.041Z</time></trkpt><trkpt lat="44.0120025" lon="12.040262"><ele>258.0</ele><time>2026-05-02T14:00:14.041Z</time></trkpt><trkpt lat="44.011883" lon="12.0402804"><ele>258.0</ele><time>2026-05-02T14:00:15.041Z</time></trkpt><trkpt lat="44.0117641" lon="12.040304"><ele>258.0</ele><time>2026-05-02T14:00:16.041Z</time></trkpt><trkpt lat="44.0116502" lon="12.0403189"><ele>258.0</ele><time>2026-05-02T14:00:17.041Z</time></trkpt><trkpt lat="44.0115432" lon="12.0403217"><ele>259.6</ele><time>2026-05-02T14:00:18.041Z</time></trkpt><trkpt lat="44.0114378" lon="12.0402996"><ele>261.20000000000005</ele><time>2026-05-02T14:00:19.041Z</time></trkpt><trkpt lat="44.0113318" lon="12.0402466"><ele>262.8</ele><time>2026-05-02T14:00:20.042Z</time></trkpt><trkpt lat="44.011234" lon="12.0401802"><ele>264.40000000000003</ele><time>2026-05-02T14:00:21.041Z</time></trkpt><trkpt lat="44.0111478" lon="12.0401036"><ele>266.0</ele><time>2026-05-02T14:00:22.041Z</time></trkpt><trkpt lat="44.0110585" lon="12.0400288"><ele>266.2</ele><time>2026-05-02T14:00:23.041Z</time></trkpt><trkpt lat="44.0109694" lon="12.0399516"><ele>266.40000000000003</ele><time>2026-05-02T14:00:24.041Z</time></trkpt><trkpt lat="44.0108884" lon="12.0398757"><ele>266.6</ele><time>2026-05-02T14:00:25.041Z</time></trkpt><trkpt lat="44.0108085" lon="12.0398073"><ele>266.8</ele><time>2026-05-02T14:00:26.041Z</time></trkpt><trkpt lat="44.0107284" lon="12.0397328"><ele>267.0</ele><time>2026-05-02T14:00:27.041Z</time></trkpt><trkpt lat="44.0106442" lon="12.0396532"><ele>267.0</ele><time>2026-05-02T14:00:28.041Z</time></trkpt><trkpt lat="44.0105586" lon="12.0395741"><ele>267.0</ele><time>2026-05-02T14:00:29.042Z</time></trkpt><trkpt lat="44.0104718" lon="12.0394791"><ele>267.0</ele><time>2026-05-02T14:00:30.041Z</time></trkpt><trkpt lat="44.0103921" lon="12.0393663"><ele>267.0</ele><time>2026-05-02T14:00:31.041Z</time></trkpt><trkpt lat="44.0103146" lon="12.0392421"><ele>267.0</ele><time>2026-05-02T14:00:32.041Z</time></trkpt><trkpt lat="44.0102349" lon="12.0391057"><ele>265.75</ele><time>2026-05-02T14:00:33.041Z</time></trkpt><trkpt lat="44.0101623" lon="12.03896"><ele>264.5</ele><time>2026-05-02T14:00:34.041Z</time></trkpt><trkpt lat="44.0101017" lon="12.0388097"><ele>263.25</ele><time>2026-05-02T14:00:35.041Z</time></trkpt><trkpt lat="44.0100461" lon="12.0386468"><ele>262.0</ele><time>2026-05-02T14:00:36.041Z</time></trkpt><trkpt lat="44.0099941" lon="12.0384818"><ele>265.0</ele><time>2026-05-02T14:00:37.042Z</time></trkpt><trkpt lat="44.0099404" lon="12.0383179"><ele>268.0</ele><time>2026-05-02T14:00:38.041Z</time></trkpt><trkpt lat="44.0098812" lon="12.0381631"><ele>271.0</ele><time>2026-05-02T14:00:39.041Z</time></trkpt><trkpt lat="44.009816" lon="12.0380159"><ele>274.0</ele><time>2026-05-02T14:00:40.041Z</time></trkpt><trkpt lat="44.0097436" lon="12.0378838"><ele>274.0</ele><time>2026-05-02T14:00:41.041Z</time></trkpt><trkpt lat="44.0096543" lon="12.0377562"><ele>274.0</ele><time>2026-05-02T14:00:42.042Z</time></trkpt><trkpt lat="44.009565" lon="12.0376347"><ele>274.0</ele><time>2026-05-02T14:00:43.041Z</time></trkpt><trkpt lat="44.0094774" lon="12.0375122"><ele>274.0</ele><time>2026-05-02T14:00:44.042Z</time></trkpt><trkpt lat="44.0093882" lon="12.0373894"><ele>272.5</ele><time>2026-05-02T14:00:45.042Z</time></trkpt><trkpt lat="44.0093012" lon="12.037267"><ele>271.0</ele><time>2026-05-02T14:00:46.041Z</time></trkpt><trkpt lat="44.0092134" lon="12.0371473"><ele>269.5</ele><time>2026-05-02T14:00:47.042Z</time></trkpt><trkpt lat="44.0091188" lon="12.0370362"><ele>268.0</ele><time>2026-05-02T14:00:48.042Z</time></trkpt><trkpt lat="44.0090146" lon="12.0369394"><ele>269.0</ele><time>2026-05-02T14:00:49.041Z</time></trkpt><trkpt lat="44.0088995" lon="12.0368461"><ele>270.0</ele><time>2026-05-02T14:00:50.042Z</time></trkpt><trkpt lat="44.0087807" lon="12.0367606"><ele>271.0</ele><time>2026-05-02T14:00:51.042Z</time></trkpt><trkpt lat="44.0086668" lon="12.0366744"><ele>272.0</ele><time>2026-05-02T14:00:52.041Z</time></trkpt><trkpt lat="44.0085525" lon="12.0365905"><ele>272.0</ele><time>2026-05-02T14:00:53.041Z</time></trkpt><trkpt lat="44.0084385" lon="12.03651"><ele>272.0</ele><time>2026-05-02T14:00:54.041Z</time></trkpt><trkpt lat="44.0083222" lon="12.0364348"><ele>272.0</ele><time>2026-05-02T14:00:55.041Z</time></trkpt><trkpt lat="44.0081986" lon="12.0363664"><ele>272.0</ele><time>2026-05-02T14:00:56.041Z</time></trkpt><trkpt lat="44.0080627" lon="12.0363001"><ele>273.0</ele><time>2026-05-02T14:00:57.041Z</time></trkpt><trkpt lat="44.007932" lon="12.0362358"><ele>274.0</ele><time>2026-05-02T14:00:58.041Z</time></trkpt><trkpt lat="44.0078077" lon="12.0361799"><ele>275.0</ele><time>2026-05-02T14:00:59.041Z</time></trkpt><trkpt lat="44.0076863" lon="12.0361243"><ele>276.0</ele><time>2026-05-02T14:01:00.042Z</time></trkpt><trkpt lat="44.0075716" lon="12.0360683"><ele>279.5</ele><time>2026-05-02T14:01:01.041Z</time></trkpt><trkpt lat="44.0074675" lon="12.0360172"><ele>283.0</ele><time>2026-05-02T14:01:02.041Z</time></trkpt><trkpt lat="44.0073637" lon="12.0359633"><ele>286.5</ele><time>2026-05-02T14:01:03.042Z</time></trkpt><trkpt lat="44.0072538" lon="12.035911"><ele>290.0</ele><time>2026-05-02T14:01:04.041Z</time></trkpt><trkpt lat="44.0071455" lon="12.0358566"><ele>287.25</ele><time>2026-05-02T14:01:05.041Z</time></trkpt><trkpt lat="44.0070377" lon="12.0357977"><ele>284.5</ele><time>2026-05-02T14:01:06.041Z</time></trkpt><trkpt lat="44.0069206" lon="12.0357341"><ele>281.75</ele><time>2026-05-02T14:01:07.041Z</time></trkpt><trkpt lat="44.006795" lon="12.0356735"><ele>279.0</ele><time>2026-05-02T14:01:08.041Z</time></trkpt><trkpt lat="44.006676" lon="12.0356156"><ele>279.8</ele><time>2026-05-02T14:01:09.041Z</time></trkpt><trkpt lat="44.006562" lon="12.0355598"><ele>280.59999999999997</ele><time>2026-05-02T14:01:10.041Z</time></trkpt><trkpt lat="44.0064555" lon="12.0355039"><ele>281.4</ele><time>2026-05-02T14:01:11.041Z</time></trkpt><trkpt lat="44.0063578" lon="12.0354464"><ele>282.2</ele><time>2026-05-02T14:01:12.041Z</time></trkpt><trkpt lat="44.00627" lon="12.035391"><ele>283.0</ele><time>2026-05-02T14:01:13.041Z</time></trkpt><trkpt lat="44.006183" lon="12.0353349"><ele>283.0</ele><time>2026-05-02T14:01:14.042Z</time></trkpt><trkpt lat="44.0060975" lon="12.0352791"><ele>283.0</ele><time>2026-05-02T14:01:15.042Z</time></trkpt><trkpt lat="44.0060156" lon="12.0352335"><ele>283.0</ele><time>2026-05-02T14:01:16.041Z</time></trkpt><trkpt lat="44.0059307" lon="12.0352133"><ele>283.0</ele><time>2026-05-02T14:01:17.041Z</time></trkpt><trkpt lat="44.0058564" lon="12.0352243"><ele>283.0</ele><time>2026-05-02T14:01:18.041Z</time></trkpt><trkpt lat="44.0057873" lon="12.0352762"><ele>283.0</ele><time>2026-05-02T14:01:19.042Z</time></trkpt><trkpt lat="44.0057242" lon="12.0353581"><ele>287.8</ele><time>2026-05-02T14:01:20.041Z</time></trkpt><trkpt lat="44.0056657" lon="12.0354598"><ele>292.6</ele><time>2026-05-02T14:01:21.041Z</time></trkpt><trkpt lat="44.0056114" lon="12.0355677"><ele>297.4</ele><time>2026-05-02T14:01:22.041Z</time></trkpt><trkpt lat="44.0055669" lon="12.0356978"><ele>302.2</ele><time>2026-05-02T14:01:23.041Z</time></trkpt><trkpt lat="44.0055285" lon="12.0358432"><ele>307.0</ele><time>2026-05-02T14:01:24.042Z</time></trkpt><trkpt lat="44.0054996" lon="12.036001"><ele>307.0</ele><time>2026-05-02T14:01:25.041Z</time></trkpt><trkpt lat="44.005481" lon="12.0361625"><ele>307.0</ele><time>2026-05-02T14:01:26.041Z</time></trkpt><trkpt lat="44.0054535" lon="12.0363002"><ele>307.0</ele><time>2026-05-02T14:01:27.042Z</time></trkpt><trkpt lat="44.0054183" lon="12.0364068"><ele>307.0</ele><time>2026-05-02T14:01:28.041Z</time></trkpt><trkpt lat="44.0053744" lon="12.0364911"><ele>307.0</ele><time>2026-05-02T14:01:29.042Z</time></trkpt><trkpt lat="44.005321" lon="12.0365458"><ele>307.0</ele><time>2026-05-02T14:01:30.041Z</time></trkpt><trkpt lat="44.0052548" lon="12.036605"><ele>304.8</ele><time>2026-05-02T14:01:31.041Z</time></trkpt><trkpt lat="44.0051689" lon="12.0366724"><ele>302.6</ele><time>2026-05-02T14:01:32.041Z</time></trkpt><trkpt lat="44.0050658" lon="12.0367496"><ele>300.40000000000003</ele><time>2026-05-02T14:01:33.041Z</time></trkpt><trkpt lat="44.004957" lon="12.0368307"><ele>298.2</ele><time>2026-05-02T14:01:34.041Z</time></trkpt><trkpt lat="44.0048637" lon="12.0369066"><ele>296.0</ele><time>2026-05-02T14:01:35.041Z</time></trkpt><trkpt lat="44.0047815" lon="12.0369628"><ele>300.33333333333337</ele><time>2026-05-02T14:01:36.041Z</time></trkpt><trkpt lat="44.0047006" lon="12.0369969"><ele>304.6666666666667</ele><time>2026-05-02T14:01:37.041Z</time></trkpt><trkpt lat="44.004618" lon="12.0369863"><ele>309.0</ele><time>2026-05-02T14:01:38.041Z</time></trkpt><trkpt lat="44.0045483" lon="12.0369413"><ele>313.3333333333333</ele><time>2026-05-02T14:01:39.042Z</time></trkpt><trkpt lat="44.0045076" lon="12.0368651"><ele>317.66666666666663</ele><time>2026-05-02T14:01:40.041Z</time></trkpt><trkpt lat="44.0045071" lon="12.0367583"><ele>322.0</ele><time>2026-05-02T14:01:41.041Z</time></trkpt><trkpt lat="44.004519" lon="12.0366362"><ele>327.8</ele><time>2026-05-02T14:01:42.042Z</time></trkpt><trkpt lat="44.0045521" lon="12.0365153"><ele>333.6</ele><time>2026-05-02T14:01:43.041Z</time></trkpt><trkpt lat="44.0046079" lon="12.0364025"><ele>339.40000000000003</ele><time>2026-05-02T14:01:44.041Z</time></trkpt><trkpt lat="44.0046998" lon="12.0362972"><ele>345.20000000000005</ele><time>2026-05-02T14:01:45.041Z</time></trkpt><trkpt lat="44.0048067" lon="12.036212"><ele>351.0</ele><time>2026-05-02T14:01:46.041Z</time></trkpt><trkpt lat="44.0049047" lon="12.0361506"><ele>351.0</ele><time>2026-05-02T14:01:47.041Z</time></trkpt><trkpt lat="44.0049932" lon="12.0360895"><ele>351.0</ele><time>2026-05-02T14:01:48.041Z</time></trkpt><trkpt lat="44.0050549" lon="12.0360101"><ele>351.0</ele><time>2026-05-02T14:01:49.041Z</time></trkpt><trkpt lat="44.0050911" lon="12.0359009"><ele>351.0</ele><time>2026-05-02T14:01:50.041Z</time></trkpt><trkpt lat="44.0050964" lon="12.0357588"><ele>351.0</ele><time>2026-05-02T14:01:51.041Z</time></trkpt><trkpt lat="44.0051002" lon="12.0355952"><ele>342.5</ele><time>2026-05-02T14:01:52.042Z</time></trkpt><trkpt lat="44.0051173" lon="12.03542"><ele>334.0</ele><time>2026-05-02T14:01:53.041Z</time></trkpt><trkpt lat="44.0051457" lon="12.0352582"><ele>325.5</ele><time>2026-05-02T14:01:54.041Z</time></trkpt><trkpt lat="44.0051778" lon="12.0351089"><ele>317.0</ele><time>2026-05-02T14:01:55.041Z</time></trkpt><trkpt lat="44.0052098" lon="12.0349851"><ele>314.5</ele><time>2026-05-02T14:01:56.041Z</time></trkpt><trkpt lat="44.005232" lon="12.0348881"><ele>312.0</ele><time>2026-05-02T14:01:57.041Z</time></trkpt><trkpt lat="44.0051846" lon="12.0347367"><ele>309.5</ele><time>2026-05-02T14:01:59.042Z</time></trkpt><trkpt lat="44.0050806" lon="12.0347181"><ele>307.0</ele><time>2026-05-02T14:02:01.041Z</time></trkpt><trkpt lat="44.005029" lon="12.0347779"><ele>304.5</ele><time>2026-05-02T14:02:02.042Z</time></trkpt><trkpt lat="44.0049958" lon="12.0348774"><ele>302.0</ele><time>2026-05-02T14:02:03.041Z</time></trkpt><trkpt lat="44.0049787" lon="12.034992"><ele>313.75</ele><time>2026-05-02T14:02:04.041Z</time></trkpt><trkpt lat="44.0049589" lon="12.0351677"><ele>325.5</ele><time>2026-05-02T14:02:05.041Z</time></trkpt><trkpt lat="44.0049367" lon="12.035348"><ele>337.25</ele><time>2026-05-02T14:02:06.042Z</time></trkpt><trkpt lat="44.004913" lon="12.0355159"><ele>349.0</ele><time>2026-05-02T14:02:07.041Z</time></trkpt><trkpt lat="44.0048897" lon="12.0356486"><ele>349.0</ele><time>2026-05-02T14:02:08.042Z</time></trkpt><trkpt lat="44.0048495" lon="12.0357402"><ele>349.0</ele><time>2026-05-02T14:02:09.041Z</time></trkpt><trkpt lat="44.0048027" lon="12.0358086"><ele>349.0</ele><time>2026-05-02T14:02:10.041Z</time></trkpt><trkpt lat="44.004744" lon="12.0358623"><ele>349.0</ele><time>2026-05-02T14:02:11.041Z</time></trkpt><trkpt lat="44.0046719" lon="12.0358864"><ele>349.0</ele><time>2026-05-02T14:02:12.041Z</time></trkpt><trkpt lat="44.00457" lon="12.0358978"><ele>349.0</ele><time>2026-05-02T14:02:14.041Z</time></trkpt><trkpt lat="44.0044849" lon="12.0359187"><ele>349.3333333333333</ele><time>2026-05-02T14:02:17.041Z</time></trkpt><trkpt lat="44.0044201" lon="12.0359403"><ele>349.66666666666663</ele><time>2026-05-02T14:02:19.042Z</time></trkpt><trkpt lat="44.0043506" lon="12.0359912"><ele>350.0</ele><time>2026-05-02T14:02:21.041Z</time></trkpt><trkpt lat="44.0044222" lon="12.0359809"><ele>350.3333333333333</ele><time>2026-05-02T14:02:29.041Z</time></trkpt><trkpt lat="44.0045182" lon="12.0359389"><ele>350.6666666666667</ele><time>2026-05-02T14:02:30.041Z</time></trkpt><trkpt lat="44.0046127" lon="12.0359023"><ele>351.0</ele><time>2026-05-02T14:02:31.042Z</time></trkpt><trkpt lat="44.0047082" lon="12.0358773"><ele>351.0</ele><time>2026-05-02T14:02:32.041Z</time></trkpt><trkpt lat="44.0047886" lon="12.0358355"><ele>351.0</ele><time>2026-05-02T14:02:33.041Z</time></trkpt><trkpt lat="44.0048588" lon="12.0357642"><ele>351.0</ele><time>2026-05-02T14:02:34.041Z</time></trkpt><trkpt lat="44.004912" lon="12.0356494"><ele>351.0</ele><time>2026-05-02T14:02:35.041Z</time></trkpt><trkpt lat="44.0049517" lon="12.0354829"><ele>351.0</ele><time>2026-05-02T14:02:36.042Z</time></trkpt><trkpt lat="44.004979" lon="12.0353089"><ele>350.6</ele><time>2026-05-02T14:02:37.041Z</time></trkpt><trkpt lat="44.0049926" lon="12.0351414"><ele>350.20000000000005</ele><time>2026-05-02T14:02:38.041Z</time></trkpt><trkpt lat="44.0050065" lon="12.0349936"><ele>349.79999999999995</ele><time>2026-05-02T14:02:39.041Z</time></trkpt><trkpt lat="44.0050239" lon="12.0348807"><ele>349.4</ele><time>2026-05-02T14:02:40.041Z</time></trkpt><trkpt lat="44.0050397" lon="12.0347891"><ele>349.0</ele><time>2026-05-02T14:02:41.041Z</time></trkpt><trkpt lat="44.0051134" lon="12.0347144"><ele>342.59999999999997</ele><time>2026-05-02T14:02:43.041Z</time></trkpt><trkpt lat="44.0051904" lon="12.0347753"><ele>336.2</ele><time>2026-05-02T14:02:45.041Z</time></trkpt><trkpt lat="44.0051962" lon="12.0349142"><ele>329.79999999999995</ele><time>2026-05-02T14:02:47.041Z</time></trkpt><trkpt lat="44.005183" lon="12.0350336"><ele>323.4</ele><time>2026-05-02T14:02:48.041Z</time></trkpt><trkpt lat="44.0051594" lon="12.0351537"><ele>317.0</ele><time>2026-05-02T14:02:49.041Z</time></trkpt><trkpt lat="44.0051294" lon="12.0352689"><ele>317.0</ele><time>2026-05-02T14:02:50.041Z</time></trkpt><trkpt lat="44.0050984" lon="12.0353685"><ele>317.0</ele><time>2026-05-02T14:02:51.041Z</time></trkpt><trkpt lat="44.0050809" lon="12.0354624"><ele>317.0</ele><time>2026-05-02T14:02:52.041Z</time></trkpt><trkpt lat="44.0050681" lon="12.0355505"><ele>317.0</ele><time>2026-05-02T14:02:53.041Z</time></trkpt><trkpt lat="44.0050489" lon="12.0356854"><ele>317.0</ele><time>2026-05-02T14:02:55.042Z</time></trkpt><trkpt lat="44.0050435" lon="12.03578"><ele>317.0</ele><time>2026-05-02T14:02:57.041Z</time></trkpt><trkpt lat="44.0050407" lon="12.0358793"><ele>315.0</ele><time>2026-05-02T14:02:59.041Z</time></trkpt><trkpt lat="44.0050226" lon="12.036025"><ele>313.0</ele><time>2026-05-02T14:03:01.042Z</time></trkpt><trkpt lat="44.0049533" lon="12.0361399"><ele>311.0</ele><time>2026-05-02T14:03:03.041Z</time></trkpt><trkpt lat="44.0048838" lon="12.0361912"><ele>309.0</ele><time>2026-05-02T14:03:05.041Z</time></trkpt><trkpt lat="44.004981" lon="12.0361126"><ele>307.0</ele><time>2026-05-02T14:03:14.042Z</time></trkpt><trkpt lat="44.0050383" lon="12.0360325"><ele>307.0</ele><time>2026-05-02T14:03:15.041Z</time></trkpt><trkpt lat="44.0050741" lon="12.0359364"><ele>307.0</ele><time>2026-05-02T14:03:16.041Z</time></trkpt><trkpt lat="44.0050879" lon="12.0357912"><ele>307.0</ele><time>2026-05-02T14:03:17.041Z</time></trkpt><trkpt lat="44.0050906" lon="12.0356303"><ele>307.0</ele><time>2026-05-02T14:03:18.041Z</time></trkpt><trkpt lat="44.005102" lon="12.0354721"><ele>307.0</ele><time>2026-05-02T14:03:19.041Z</time></trkpt><trkpt lat="44.0051302" lon="12.0353401"><ele>306.16666666666663</ele><time>2026-05-02T14:03:20.041Z</time></trkpt><trkpt lat="44.0051593" lon="12.0352203"><ele>305.3333333333333</ele><time>2026-05-02T14:03:21.042Z</time></trkpt><trkpt lat="44.0051818" lon="12.0351154"><ele>304.5</ele><time>2026-05-02T14:03:22.041Z</time></trkpt><trkpt lat="44.0052009" lon="12.0350123"><ele>303.6666666666667</ele><time>2026-05-02T14:03:23.042Z</time></trkpt><trkpt lat="44.0052206" lon="12.034929"><ele>302.83333333333337</ele><time>2026-05-02T14:03:24.041Z</time></trkpt><trkpt lat="44.0052249" lon="12.034816"><ele>302.0</ele><time>2026-05-02T14:03:26.041Z</time></trkpt><trkpt lat="44.0052038" lon="12.0347326"><ele>302.0</ele><time>2026-05-02T14:03:29.041Z</time></trkpt><trkpt lat="44.0051913" lon="12.0346445"><ele>302.0</ele><time>2026-05-02T14:03:35.041Z</time></trkpt><trkpt lat="44.0051134" lon="12.0346175"><ele>302.0</ele><time>2026-05-02T14:03:38.041Z</time></trkpt><trkpt lat="44.0050466" lon="12.0346119"><ele>302.0</ele><time>2026-05-02T14:03:40.041Z</time></trkpt><trkpt lat="44.0049766" lon="12.034687"><ele>302.0</ele><time>2026-05-02T14:03:42.042Z</time></trkpt><trkpt lat="44.0049111" lon="12.0347667"><ele>302.0</ele><time>2026-05-02T14:03:44.041Z</time></trkpt><trkpt lat="44.0048241" lon="12.0348002"><ele>307.6666666666667</ele><time>2026-05-02T14:03:46.041Z</time></trkpt><trkpt lat="44.0047236" lon="12.0347723"><ele>313.33333333333337</ele><time>2026-05-02T14:03:48.041Z</time></trkpt><trkpt lat="44.00462" lon="12.034731"><ele>319.0</ele><time>2026-05-02T14:03:50.041Z</time></trkpt><trkpt lat="44.0045564" lon="12.0347149"><ele>324.6666666666667</ele><time>2026-05-02T14:03:52.041Z</time></trkpt><trkpt lat="44.0044857" lon="12.0347151"><ele>330.3333333333333</ele><time>2026-05-02T14:03:54.042Z</time></trkpt><trkpt lat="44.0044062" lon="12.0347342"><ele>336.0</ele><time>2026-05-02T14:03:56.041Z</time></trkpt><trkpt lat="44.0043276" lon="12.03476"><ele>336.0</ele><time>2026-05-02T14:03:58.041Z</time></trkpt><trkpt lat="44.0042577" lon="12.0347926"><ele>336.0</ele><time>2026-05-02T14:04:01.041Z</time></trkpt><trkpt lat="44.0043183" lon="12.0347559"><ele>336.0</ele><time>2026-05-02T14:04:39.042Z</time></trkpt><trkpt lat="44.0044006" lon="12.0347255"><ele>336.0</ele><time>2026-05-02T14:04:42.041Z</time></trkpt><trkpt lat="44.0044716" lon="12.0347165"><ele>336.0</ele><time>2026-05-02T14:04:44.041Z</time></trkpt><trkpt lat="44.0045342" lon="12.0347033"><ele>336.0</ele><time>2026-05-02T14:04:46.041Z</time></trkpt><trkpt lat="44.0046041" lon="12.0346992"><ele>336.0</ele><time>2026-05-02T14:04:48.042Z</time></trkpt><trkpt lat="44.0046953" lon="12.0347255"><ele>336.0</ele><time>2026-05-02T14:04:50.041Z</time></trkpt><trkpt lat="44.0047904" lon="12.0347694"><ele>336.0</ele><time>2026-05-02T14:04:52.041Z</time></trkpt><trkpt lat="44.0048558" lon="12.0347807"><ele>336.0</ele><time>2026-05-02T14:04:54.041Z</time></trkpt><trkpt lat="44.0049366" lon="12.0347455"><ele>336.0</ele><time>2026-05-02T14:04:57.04Z</time></trkpt><trkpt lat="44.0050201" lon="12.0346657"><ele>336.0</ele><time>2026-05-02T14:05:00.04Z</time></trkpt><trkpt lat="44.0050804" lon="12.0346351"><ele>336.0</ele><time>2026-05-02T14:05:02.04Z</time></trkpt><trkpt lat="44.0051594" lon="12.0346579"><ele>338.6</ele><time>2026-05-02T14:05:05.041Z</time></trkpt><trkpt lat="44.0051947" lon="12.034731"><ele>341.20000000000005</ele><time>2026-05-02T14:05:10.04Z</time></trkpt><trkpt lat="44.0050961" lon="12.0347263"><ele>343.79999999999995</ele><time>2026-05-02T14:05:13.04Z</time></trkpt><trkpt lat="44.0050285" lon="12.0348185"><ele>346.4</ele><time>2026-05-02T14:05:15.04Z</time></trkpt><trkpt lat="44.0050005" lon="12.034979"><ele>349.0</ele><time>2026-05-02T14:05:16.04Z</time></trkpt><trkpt lat="44.0049836" lon="12.0351589"><ele>349.0</ele><time>2026-05-02T14:05:17.04Z</time></trkpt><trkpt lat="44.0049467" lon="12.0353667"><ele>349.0</ele><time>2026-05-02T14:05:18.04Z</time></trkpt><trkpt lat="44.0049122" lon="12.0355497"><ele>349.0</ele><time>2026-05-02T14:05:19.041Z</time></trkpt><trkpt lat="44.0048761" lon="12.0356947"><ele>349.0</ele><time>2026-05-02T14:05:20.04Z</time></trkpt><trkpt lat="44.00481" lon="12.0358102"><ele>349.5</ele><time>2026-05-02T14:05:21.04Z</time></trkpt><trkpt lat="44.0047254" lon="12.035863"><ele>350.0</ele><time>2026-05-02T14:05:22.041Z</time></trkpt><trkpt lat="44.0046189" lon="12.0358956"><ele>350.5</ele><time>2026-05-02T14:05:23.04Z</time></trkpt><trkpt lat="44.0044904" lon="12.0359194"><ele>351.0</ele><time>2026-05-02T14:05:24.04Z</time></trkpt><trkpt lat="44.0043717" lon="12.0359795"><ele>351.0</ele><time>2026-05-02T14:05:25.04Z</time></trkpt><trkpt lat="44.0042591" lon="12.0360797"><ele>351.0</ele><time>2026-05-02T14:05:26.04Z</time></trkpt><trkpt lat="44.0041474" lon="12.0361878"><ele>351.0</ele><time>2026-05-02T14:05:27.04Z</time></trkpt><trkpt lat="44.0040374" lon="12.0363006"><ele>351.0</ele><time>2026-05-02T14:05:28.041Z</time></trkpt><trkpt lat="44.0039362" lon="12.0364123"><ele>353.0</ele><time>2026-05-02T14:05:29.041Z</time></trkpt><trkpt lat="44.0038302" lon="12.0365192"><ele>355.0</ele><time>2026-05-02T14:05:30.04Z</time></trkpt><trkpt lat="44.0037249" lon="12.0366297"><ele>357.0</ele><time>2026-05-02T14:05:31.04Z</time></trkpt><trkpt lat="44.003625" lon="12.0367383"><ele>359.0</ele><time>2026-05-02T14:05:32.041Z</time></trkpt><trkpt lat="44.0035306" lon="12.0368519"><ele>359.0</ele><time>2026-05-02T14:05:33.041Z</time></trkpt><trkpt lat="44.003442" lon="12.0369574"><ele>359.0</ele><time>2026-05-02T14:05:34.04Z</time></trkpt><trkpt lat="44.0033586" lon="12.0370448"><ele>359.0</ele><time>2026-05-02T14:05:35.04Z</time></trkpt><trkpt lat="44.0032791" lon="12.0371032"><ele>359.0</ele><time>2026-05-02T14:05:36.04Z</time></trkpt><trkpt lat="44.0031993" lon="12.037134"><ele>359.0</ele><time>2026-05-02T14:05:37.04Z</time></trkpt><trkpt lat="44.0031017" lon="12.037117"><ele>357.25</ele><time>2026-05-02T14:05:38.04Z</time></trkpt><trkpt lat="44.002984" lon="12.0370353"><ele>355.5</ele><time>2026-05-02T14:05:39.041Z</time></trkpt><trkpt lat="44.0028669" lon="12.0369102"><ele>353.75</ele><time>2026-05-02T14:05:40.04Z</time></trkpt><trkpt lat="44.0027694" lon="12.0367805"><ele>352.0</ele><time>2026-05-02T14:05:41.04Z</time></trkpt><trkpt lat="44.0026934" lon="12.0366466"><ele>356.6</ele><time>2026-05-02T14:05:42.04Z</time></trkpt><trkpt lat="44.0026309" lon="12.0365185"><ele>361.20000000000005</ele><time>2026-05-02T14:05:43.04Z</time></trkpt><trkpt lat="44.0025692" lon="12.0364186"><ele>365.8</ele><time>2026-05-02T14:05:44.04Z</time></trkpt><trkpt lat="44.0024997" lon="12.0363666"><ele>370.4</ele><time>2026-05-02T14:05:45.04Z</time></trkpt><trkpt lat="44.0024046" lon="12.0363789"><ele>375.0</ele><time>2026-05-02T14:05:46.04Z</time></trkpt><trkpt lat="44.0023016" lon="12.0364268"><ele>375.0</ele><time>2026-05-02T14:05:47.04Z</time></trkpt><trkpt lat="44.002208" lon="12.036457"><ele>375.0</ele><time>2026-05-02T14:05:48.041Z</time></trkpt><trkpt lat="44.0021121" lon="12.0364668"><ele>375.0</ele><time>2026-05-02T14:05:49.04Z</time></trkpt><trkpt lat="44.0019916" lon="12.0364191"><ele>375.0</ele><time>2026-05-02T14:05:50.041Z</time></trkpt><trkpt lat="44.0018597" lon="12.0363418"><ele>375.0</ele><time>2026-05-02T14:05:51.041Z</time></trkpt><trkpt lat="44.0017126" lon="12.0362443"><ele>375.0</ele><time>2026-05-02T14:05:52.04Z</time></trkpt><trkpt lat="44.001565" lon="12.0361411"><ele>375.0</ele><time>2026-05-02T14:05:53.04Z</time></trkpt><trkpt lat="44.0014291" lon="12.0360419"><ele>372.25</ele><time>2026-05-02T14:05:54.041Z</time></trkpt><trkpt lat="44.0013146" lon="12.0359293"><ele>369.5</ele><time>2026-05-02T14:05:55.04Z</time></trkpt><trkpt lat="44.0012024" lon="12.035816"><ele>366.75</ele><time>2026-05-02T14:05:56.04Z</time></trkpt><trkpt lat="44.0010913" lon="12.0357277"><ele>364.0</ele><time>2026-05-02T14:05:57.04Z</time></trkpt><trkpt lat="44.0009868" lon="12.035666"><ele>371.2</ele><time>2026-05-02T14:05:58.04Z</time></trkpt><trkpt lat="44.0008958" lon="12.0356308"><ele>378.4</ele><time>2026-05-02T14:05:59.04Z</time></trkpt><trkpt lat="44.000829" lon="12.035612"><ele>385.6</ele><time>2026-05-02T14:06:00.04Z</time></trkpt><trkpt lat="44.0007794" lon="12.0354917"><ele>392.8</ele><time>2026-05-02T14:06:02.04Z</time></trkpt><trkpt lat="44.0008837" lon="12.0353889"><ele>400.0</ele><time>2026-05-02T14:06:04.04Z</time></trkpt><trkpt lat="44.0009903" lon="12.0353873"><ele>400.0</ele><time>2026-05-02T14:06:05.04Z</time></trkpt><trkpt lat="44.0011234" lon="12.0354156"><ele>400.0</ele><time>2026-05-02T14:06:06.041Z</time></trkpt><trkpt lat="44.0012812" lon="12.0354718"><ele>400.0</ele><time>2026-05-02T14:06:07.041Z</time></trkpt><trkpt lat="44.0014474" lon="12.0355531"><ele>400.0</ele><time>2026-05-02T14:06:08.041Z</time></trkpt><trkpt lat="44.0015987" lon="12.0356559"><ele>400.0</ele><time>2026-05-02T14:06:09.04Z</time></trkpt><trkpt lat="44.0017305" lon="12.0357521"><ele>400.0</ele><time>2026-05-02T14:06:10.04Z</time></trkpt><trkpt lat="44.0018479" lon="12.0358369"><ele>400.25</ele><time>2026-05-02T14:06:11.04Z</time></trkpt><trkpt lat="44.001946" lon="12.0358862"><ele>400.5</ele><time>2026-05-02T14:06:12.04Z</time></trkpt><trkpt lat="44.0020504" lon="12.0358942"><ele>400.75</ele><time>2026-05-02T14:06:13.041Z</time></trkpt><trkpt lat="44.0021556" lon="12.0358611"><ele>401.0</ele><time>2026-05-02T14:06:14.04Z</time></trkpt><trkpt lat="44.0022946" lon="12.0357941"><ele>401.0</ele><time>2026-05-02T14:06:15.04Z</time></trkpt><trkpt lat="44.0024529" lon="12.0357145"><ele>401.0</ele><time>2026-05-02T14:06:16.04Z</time></trkpt><trkpt lat="44.0026059" lon="12.0356371"><ele>401.0</ele><time>2026-05-02T14:06:17.04Z</time></trkpt><trkpt lat="44.0027404" lon="12.035595"><ele>402.5</ele><time>2026-05-02T14:06:18.04Z</time></trkpt><trkpt lat="44.0028603" lon="12.035595"><ele>404.0</ele><time>2026-05-02T14:06:19.04Z</time></trkpt><trkpt lat="44.0029743" lon="12.0356204"><ele>405.5</ele><time>2026-05-02T14:06:20.04Z</time></trkpt><trkpt lat="44.0030921" lon="12.035665"><ele>407.0</ele><time>2026-05-02T14:06:21.04Z</time></trkpt><trkpt lat="44.0031836" lon="12.0357194"><ele>407.0</ele><time>2026-05-02T14:06:22.04Z</time></trkpt><trkpt lat="44.0032561" lon="12.0357453"><ele>407.0</ele><time>2026-05-02T14:06:23.04Z</time></trkpt><trkpt lat="44.0033214" lon="12.0357349"><ele>407.0</ele><time>2026-05-02T14:06:24.04Z</time></trkpt><trkpt lat="44.0033883" lon="12.0356043"><ele>407.0</ele><time>2026-05-02T14:06:26.04Z</time></trkpt><trkpt lat="44.003326" lon="12.0354421"><ele>407.0</ele><time>2026-05-02T14:06:28.041Z</time></trkpt><trkpt lat="44.0032511" lon="12.0353836"><ele>407.0</ele><time>2026-05-02T14:06:29.04Z</time></trkpt><trkpt lat="44.003149" lon="12.0353519"><ele>407.0</ele><time>2026-05-02T14:06:30.04Z</time></trkpt><trkpt lat="44.0030175" lon="12.0353459"><ele>407.0</ele><time>2026-05-02T14:06:31.04Z</time></trkpt><trkpt lat="44.0028512" lon="12.0353412"><ele>407.0</ele><time>2026-05-02T14:06:32.04Z</time></trkpt><trkpt lat="44.0026845" lon="12.0353354"><ele>407.0</ele><time>2026-05-02T14:06:33.04Z</time></trkpt><trkpt lat="44.0025197" lon="12.0353285"><ele>407.0</ele><time>2026-05-02T14:06:34.04Z</time></trkpt><trkpt lat="44.0023744" lon="12.0353114"><ele>407.0</ele><time>2026-05-02T14:06:35.04Z</time></trkpt><trkpt lat="44.0022577" lon="12.0352957"><ele>407.0</ele><time>2026-05-02T14:06:36.04Z</time></trkpt><trkpt lat="44.0021498" lon="12.0352537"><ele>405.5</ele><time>2026-05-02T14:06:37.04Z</time></trkpt><trkpt lat="44.0020271" lon="12.0351521"><ele>404.0</ele><time>2026-05-02T14:06:38.04Z</time></trkpt><trkpt lat="44.0019038" lon="12.0350365"><ele>402.5</ele><time>2026-05-02T14:06:39.04Z</time></trkpt><trkpt lat="44.0018131" lon="12.0349243"><ele>401.0</ele><time>2026-05-02T14:06:40.04Z</time></trkpt><trkpt lat="44.0017532" lon="12.0348302"><ele>404.3333333333333</ele><time>2026-05-02T14:06:41.04Z</time></trkpt><trkpt lat="44.0017144" lon="12.0347502"><ele>407.66666666666663</ele><time>2026-05-02T14:06:42.041Z</time></trkpt><trkpt lat="44.0017442" lon="12.034601"><ele>411.0</ele><time>2026-05-02T14:06:44.041Z</time></trkpt><trkpt lat="44.0018218" lon="12.0345808"><ele>414.33333333333337</ele><time>2026-05-02T14:06:45.04Z</time></trkpt><trkpt lat="44.0019156" lon="12.0345871"><ele>417.6666666666667</ele><time>2026-05-02T14:06:46.04Z</time></trkpt><trkpt lat="44.0019984" lon="12.0345813"><ele>421.0</ele><time>2026-05-02T14:06:47.04Z</time></trkpt><trkpt lat="44.002066" lon="12.0345272"><ele>421.0</ele><time>2026-05-02T14:06:48.041Z</time></trkpt><trkpt lat="44.0020944" lon="12.0344264"><ele>421.0</ele><time>2026-05-02T14:06:49.04Z</time></trkpt><trkpt lat="44.002104" lon="12.0342851"><ele>421.0</ele><time>2026-05-02T14:06:50.04Z</time></trkpt><trkpt lat="44.0020762" lon="12.0341643"><ele>421.0</ele><time>2026-05-02T14:06:51.04Z</time></trkpt><trkpt lat="44.0020125" lon="12.0340852"><ele>421.0</ele><time>2026-05-02T14:06:52.04Z</time></trkpt><trkpt lat="44.0019126" lon="12.0340421"><ele>419.8</ele><time>2026-05-02T14:06:53.04Z</time></trkpt><trkpt lat="44.0017828" lon="12.0340483"><ele>418.6</ele><time>2026-05-02T14:06:54.04Z</time></trkpt><trkpt lat="44.0016558" lon="12.0340664"><ele>417.4</ele><time>2026-05-02T14:06:55.04Z</time></trkpt><trkpt lat="44.0015628" lon="12.034094"><ele>416.2</ele><time>2026-05-02T14:06:56.041Z</time></trkpt><trkpt lat="44.0014912" lon="12.0341197"><ele>415.0</ele><time>2026-05-02T14:06:57.04Z</time></trkpt><trkpt lat="44.0014301" lon="12.0341446"><ele>418.6666666666667</ele><time>2026-05-02T14:06:58.04Z</time></trkpt><trkpt lat="44.0013642" lon="12.0341682"><ele>422.33333333333337</ele><time>2026-05-02T14:06:59.04Z</time></trkpt><trkpt lat="44.0012906" lon="12.0341876"><ele>426.0</ele><time>2026-05-02T14:07:00.041Z</time></trkpt><trkpt lat="44.0012086" lon="12.034209"><ele>429.66666666666663</ele><time>2026-05-02T14:07:01.04Z</time></trkpt><trkpt lat="44.0011278" lon="12.0342315"><ele>433.3333333333333</ele><time>2026-05-02T14:07:02.04Z</time></trkpt><trkpt lat="44.0010494" lon="12.0342436"><ele>437.0</ele><time>2026-05-02T14:07:03.04Z</time></trkpt><trkpt lat="44.0009745" lon="12.0342452"><ele>436.99999999999994</ele><time>2026-05-02T14:07:04.041Z</time></trkpt><trkpt lat="44.0009022" lon="12.0342267"><ele>437.0</ele><time>2026-05-02T14:07:05.04Z</time></trkpt><trkpt lat="44.0007984" lon="12.0341743"><ele>437.0</ele><time>2026-05-02T14:07:07.04Z</time></trkpt><trkpt lat="44.0007224" lon="12.0341315"><ele>437.0</ele><time>2026-05-02T14:07:09.04Z</time></trkpt><trkpt lat="44.0006448" lon="12.0340978"><ele>436.99999999999994</ele><time>2026-05-02T14:07:11.04Z</time></trkpt><trkpt lat="44.0005784" lon="12.0340685"><ele>437.0</ele><time>2026-05-02T14:07:14.041Z</time></trkpt><trkpt lat="44.0006712" lon="12.0341455"><ele>437.0</ele><time>2026-05-02T14:07:20.04Z</time></trkpt><trkpt lat="44.0007578" lon="12.0341863"><ele>437.00000000000006</ele><time>2026-05-02T14:07:21.04Z</time></trkpt><trkpt lat="44.000862" lon="12.0342348"><ele>437.00000000000006</ele><time>2026-05-02T14:07:22.04Z</time></trkpt><trkpt lat="44.000981" lon="12.0342686"><ele>437.0</ele><time>2026-05-02T14:07:23.04Z</time></trkpt><trkpt lat="44.001092" lon="12.0342799"><ele>437.0</ele><time>2026-05-02T14:07:24.04Z</time></trkpt><trkpt lat="44.0012007" lon="12.0342583"><ele>436.99999999999994</ele><time>2026-05-02T14:07:25.04Z</time></trkpt><trkpt lat="44.001299" lon="12.0342253"><ele>437.0</ele><time>2026-05-02T14:07:26.041Z</time></trkpt><trkpt lat="44.0013919" lon="12.0341997"><ele>437.0</ele><time>2026-05-02T14:07:27.04Z</time></trkpt><trkpt lat="44.0014708" lon="12.0341711"><ele>437.0</ele><time>2026-05-02T14:07:28.04Z</time></trkpt><trkpt lat="44.001537" lon="12.0341533"><ele>436.99999999999994</ele><time>2026-05-02T14:07:29.04Z</time></trkpt><trkpt lat="44.0016232" lon="12.0341072"><ele>437.0</ele><time>2026-05-02T14:07:31.041Z</time></trkpt><trkpt lat="44.0016213" lon="12.0340178"><ele>439.8</ele><time>2026-05-02T14:07:35.04Z</time></trkpt><trkpt lat="44.0015163" lon="12.0340163"><ele>442.6</ele><time>2026-05-02T14:07:38.04Z</time></trkpt><trkpt lat="44.0014137" lon="12.0340032"><ele>445.40000000000003</ele><time>2026-05-02T14:07:40.04Z</time></trkpt><trkpt lat="44.0013368" lon="12.0339685"><ele>448.20000000000005</ele><time>2026-05-02T14:07:43.04Z</time></trkpt><trkpt lat="44.0014574" lon="12.0340439"><ele>451.0</ele><time>2026-05-02T14:08:23.04Z</time></trkpt><trkpt lat="44.0015217" lon="12.0340436"><ele>451.0</ele><time>2026-05-02T14:08:25.04Z</time></trkpt><trkpt lat="44.0016025" lon="12.0340475"><ele>451.0</ele><time>2026-05-02T14:08:28.04Z</time></trkpt><trkpt lat="44.0015771" lon="12.0341311"><ele>451.0</ele><time>2026-05-02T14:08:32.04Z</time></trkpt><trkpt lat="44.0014812" lon="12.0341471"><ele>451.0</ele><time>2026-05-02T14:08:34.04Z</time></trkpt><trkpt lat="44.0013948" lon="12.0341555"><ele>451.0</ele><time>2026-05-02T14:08:36.041Z</time></trkpt><trkpt lat="44.0012597" lon="12.0342011"><ele>450.6666666666667</ele><time>2026-05-02T14:09:05.04Z</time></trkpt><trkpt lat="44.00119" lon="12.0342088"><ele>450.33333333333337</ele><time>2026-05-02T14:09:06.04Z</time></trkpt><trkpt lat="44.0011088" lon="12.0342253"><ele>450.0</ele><time>2026-05-02T14:09:07.041Z</time></trkpt><trkpt lat="44.0010244" lon="12.0342375"><ele>449.66666666666663</ele><time>2026-05-02T14:09:08.04Z</time></trkpt><trkpt lat="44.0009448" lon="12.0342271"><ele>449.3333333333333</ele><time>2026-05-02T14:09:09.04Z</time></trkpt><trkpt lat="44.0008651" lon="12.0342029"><ele>449.0</ele><time>2026-05-02T14:09:10.04Z</time></trkpt><trkpt lat="44.0007909" lon="12.0341747"><ele>448.99999999999994</ele><time>2026-05-02T14:09:11.04Z</time></trkpt><trkpt lat="44.0007189" lon="12.0341422"><ele>449.0</ele><time>2026-05-02T14:09:12.04Z</time></trkpt><trkpt lat="44.0006502" lon="12.0341173"><ele>449.0</ele><time>2026-05-02T14:09:13.04Z</time></trkpt><trkpt lat="44.000576" lon="12.0340894"><ele>449.0</ele><time>2026-05-02T14:09:14.04Z</time></trkpt><trkpt lat="44.0004963" lon="12.0340571"><ele>448.99999999999994</ele><time>2026-05-02T14:09:15.04Z</time></trkpt><trkpt lat="44.0004152" lon="12.034028"><ele>449.0</ele><time>2026-05-02T14:09:16.04Z</time></trkpt><trkpt lat="44.0003478" lon="12.0340043"><ele>448.99999999999994</ele><time>2026-05-02T14:09:17.04Z</time></trkpt><trkpt lat="44.0002478" lon="12.0340038"><ele>449.0</ele><time>2026-05-02T14:09:19.04Z</time></trkpt><trkpt lat="44.0001713" lon="12.0340338"><ele>449.0</ele><time>2026-05-02T14:09:21.04Z</time></trkpt><trkpt lat="44.0001089" lon="12.0340595"><ele>449.0</ele><time>2026-05-02T14:09:22.04Z</time></trkpt><trkpt lat="44.0000282" lon="12.0340913"><ele>448.99999999999994</ele><time>2026-05-02T14:09:23.04Z</time></trkpt><trkpt lat="43.9999325" lon="12.0341316"><ele>449.0</ele><time>2026-05-02T14:09:24.041Z</time></trkpt><trkpt lat="43.9998403" lon="12.0341902"><ele>449.0</ele><time>2026-05-02T14:09:25.041Z</time></trkpt><trkpt lat="43.9997478" lon="12.0342424"><ele>449.0</ele><time>2026-05-02T14:09:26.04Z</time></trkpt><trkpt lat="43.9996577" lon="12.0342893"><ele>449.0</ele><time>2026-05-02T14:09:27.04Z</time></trkpt><trkpt lat="43.9995743" lon="12.0343358"><ele>449.0</ele><time>2026-05-02T14:09:28.04Z</time></trkpt><trkpt lat="43.9994883" lon="12.0343819"><ele>449.0</ele><time>2026-05-02T14:09:29.04Z</time></trkpt><trkpt lat="43.9993962" lon="12.0344114"><ele>449.0</ele><time>2026-05-02T14:09:30.04Z</time></trkpt><trkpt lat="43.9992906" lon="12.0344096"><ele>449.0</ele><time>2026-05-02T14:09:31.04Z</time></trkpt><trkpt lat="43.9991845" lon="12.0343955"><ele>449.0</ele><time>2026-05-02T14:09:32.041Z</time></trkpt><trkpt lat="43.9990765" lon="12.0343886"><ele>449.0</ele><time>2026-05-02T14:09:33.041Z</time></trkpt><trkpt lat="43.9989734" lon="12.0344012"><ele>449.0</ele><time>2026-05-02T14:09:34.04Z</time></trkpt><trkpt lat="43.9988854" lon="12.034428"><ele>453.16666666666663</ele><time>2026-05-02T14:09:35.04Z</time></trkpt><trkpt lat="43.9988036" lon="12.0344539"><ele>457.3333333333333</ele><time>2026-05-02T14:09:36.04Z</time></trkpt><trkpt lat="43.998727" lon="12.0344807"><ele>461.5</ele><time>2026-05-02T14:09:37.04Z</time></trkpt><trkpt lat="43.9986539" lon="12.0345105"><ele>465.66666666666663</ele><time>2026-05-02T14:09:38.04Z</time></trkpt><trkpt lat="43.9985729" lon="12.0345341"><ele>469.8333333333333</ele><time>2026-05-02T14:09:39.041Z</time></trkpt><trkpt lat="43.9984881" lon="12.0345369"><ele>474.0</ele><time>2026-05-02T14:09:40.04Z</time></trkpt><trkpt lat="43.9984036" lon="12.0345096"><ele>473.4</ele><time>2026-05-02T14:09:41.04Z</time></trkpt><trkpt lat="43.9983249" lon="12.0344482"><ele>472.79999999999995</ele><time>2026-05-02T14:09:42.041Z</time></trkpt><trkpt lat="43.9982584" lon="12.0343512"><ele>472.20000000000005</ele><time>2026-05-02T14:09:43.04Z</time></trkpt><trkpt lat="43.9982075" lon="12.0342407"><ele>471.6</ele><time>2026-05-02T14:09:44.04Z</time></trkpt><trkpt lat="43.998173" lon="12.0341299"><ele>471.0</ele><time>2026-05-02T14:09:45.04Z</time></trkpt><trkpt lat="43.9981384" lon="12.0340198"><ele>476.1666666666667</ele><time>2026-05-02T14:09:46.04Z</time></trkpt><trkpt lat="43.9981042" lon="12.033911"><ele>481.33333333333337</ele><time>2026-05-02T14:09:47.041Z</time></trkpt><trkpt lat="43.9980592" lon="12.0338135"><ele>486.5</ele><time>2026-05-02T14:09:48.041Z</time></trkpt><trkpt lat="43.9980005" lon="12.0337188"><ele>491.6666666666667</ele><time>2026-05-02T14:09:49.04Z</time></trkpt><trkpt lat="43.9979263" lon="12.0336335"><ele>496.83333333333337</ele><time>2026-05-02T14:09:50.04Z</time></trkpt><trkpt lat="43.9978469" lon="12.0335639"><ele>502.0</ele><time>2026-05-02T14:09:51.04Z</time></trkpt><trkpt lat="43.9977616" lon="12.0334982"><ele>502.00000000000006</ele><time>2026-05-02T14:09:52.041Z</time></trkpt><trkpt lat="43.9976758" lon="12.033442"><ele>502.0</ele><time>2026-05-02T14:09:53.04Z</time></trkpt><trkpt lat="43.9975922" lon="12.033395"><ele>502.0</ele><time>2026-05-02T14:09:54.04Z</time></trkpt><trkpt lat="43.9975133" lon="12.0333492"><ele>502.0</ele><time>2026-05-02T14:09:55.04Z</time></trkpt><trkpt lat="43.997435" lon="12.033298"><ele>502.00000000000006</ele><time>2026-05-02T14:09:56.04Z</time></trkpt><trkpt lat="43.9973551" lon="12.0332485"><ele>502.0</ele><time>2026-05-02T14:09:57.04Z</time></trkpt><trkpt lat="43.9972683" lon="12.0332122"><ele>505.40000000000003</ele><time>2026-05-02T14:09:58.04Z</time></trkpt><trkpt lat="43.9971742" lon="12.0331976"><ele>508.80000000000007</ele><time>2026-05-02T14:09:59.04Z</time></trkpt><trkpt lat="43.9970796" lon="12.0332039"><ele>512.2</ele><time>2026-05-02T14:10:00.041Z</time></trkpt><trkpt lat="43.9969848" lon="12.0332224"><ele>515.6</ele><time>2026-05-02T14:10:01.04Z</time></trkpt><trkpt lat="43.9969013" lon="12.0332441"><ele>519.0</ele><time>2026-05-02T14:10:02.04Z</time></trkpt><trkpt lat="43.9968158" lon="12.0332687"><ele>519.0</ele><time>2026-05-02T14:10:03.04Z</time></trkpt><trkpt lat="43.9967369" lon="12.0332904"><ele>519.0</ele><time>2026-05-02T14:10:04.04Z</time></trkpt><trkpt lat="43.9966572" lon="12.0333072"><ele>519.0</ele><time>2026-05-02T14:10:05.04Z</time></trkpt><trkpt lat="43.9965779" lon="12.0333191"><ele>519.0</ele><time>2026-05-02T14:10:06.04Z</time></trkpt><trkpt lat="43.9965038" lon="12.033327"><ele>519.0</ele><time>2026-05-02T14:10:07.04Z</time></trkpt><trkpt lat="43.9964286" lon="12.0333096"><ele>519.0</ele><time>2026-05-02T14:10:08.04Z</time></trkpt><trkpt lat="43.9963638" lon="12.0332472"><ele>517.8333333333334</ele><time>2026-05-02T14:10:09.04Z</time></trkpt><trkpt lat="43.99633" lon="12.0331469"><ele>516.6666666666666</ele><time>2026-05-02T14:10:10.04Z</time></trkpt><trkpt lat="43.9963179" lon="12.0330298"><ele>515.5</ele><time>2026-05-02T14:10:11.041Z</time></trkpt><trkpt lat="43.9963271" lon="12.0329076"><ele>514.3333333333333</ele><time>2026-05-02T14:10:12.041Z</time></trkpt><trkpt lat="43.9963401" lon="12.0327818"><ele>513.1666666666666</ele><time>2026-05-02T14:10:13.04Z</time></trkpt><trkpt lat="43.9963495" lon="12.0326665"><ele>512.0</ele><time>2026-05-02T14:10:14.04Z</time></trkpt><trkpt lat="43.9963535" lon="12.032556"><ele>514.1666666666666</ele><time>2026-05-02T14:10:15.04Z</time></trkpt><trkpt lat="43.9963557" lon="12.0324411"><ele>516.3333333333333</ele><time>2026-05-02T14:10:16.04Z</time></trkpt><trkpt lat="43.9963518" lon="12.0323205"><ele>518.5</ele><time>2026-05-02T14:10:17.041Z</time></trkpt><trkpt lat="43.9963329" lon="12.0322014"><ele>520.6666666666666</ele><time>2026-05-02T14:10:18.041Z</time></trkpt><trkpt lat="43.9962932" lon="12.0320965"><ele>522.8333333333334</ele><time>2026-05-02T14:10:19.04Z</time></trkpt><trkpt lat="43.996244" lon="12.0319993"><ele>525.0</ele><time>2026-05-02T14:10:20.039Z</time></trkpt><trkpt lat="43.996181" lon="12.0319104"><ele>525.0</ele><time>2026-05-02T14:10:21.04Z</time></trkpt><trkpt lat="43.9961105" lon="12.0318364"><ele>525.0</ele><time>2026-05-02T14:10:22.039Z</time></trkpt><trkpt lat="43.996043" lon="12.0317649"><ele>525.0</ele><time>2026-05-02T14:10:23.039Z</time></trkpt><trkpt lat="43.9959911" lon="12.0316787"><ele>525.0</ele><time>2026-05-02T14:10:24.039Z</time></trkpt><trkpt lat="43.9959485" lon="12.0315752"><ele>525.0</ele><time>2026-05-02T14:10:25.039Z</time></trkpt><trkpt lat="43.9959165" lon="12.0314641"><ele>525.0</ele><time>2026-05-02T14:10:26.039Z</time></trkpt><trkpt lat="43.9958867" lon="12.0313543"><ele>525.6666666666666</ele><time>2026-05-02T14:10:27.039Z</time></trkpt><trkpt lat="43.9958622" lon="12.0312515"><ele>526.3333333333334</ele><time>2026-05-02T14:10:28.039Z</time></trkpt><trkpt lat="43.9958372" lon="12.03115"><ele>527.0</ele><time>2026-05-02T14:10:29.039Z</time></trkpt><trkpt lat="43.9958122" lon="12.0310504"><ele>527.6666666666667</ele><time>2026-05-02T14:10:30.039Z</time></trkpt><trkpt lat="43.9957772" lon="12.0309555"><ele>528.3333333333334</ele><time>2026-05-02T14:10:31.039Z</time></trkpt><trkpt lat="43.9957246" lon="12.0308741"><ele>529.0</ele><time>2026-05-02T14:10:32.039Z</time></trkpt><trkpt lat="43.9956601" lon="12.0308051"><ele>532.8333333333334</ele><time>2026-05-02T14:10:33.04Z</time></trkpt><trkpt lat="43.9955908" lon="12.0307441"><ele>536.6666666666667</ele><time>2026-05-02T14:10:34.039Z</time></trkpt><trkpt lat="43.995524" lon="12.0306879"><ele>540.5</ele><time>2026-05-02T14:10:35.039Z</time></trkpt><trkpt lat="43.9954553" lon="12.0306301"><ele>544.3333333333334</ele><time>2026-05-02T14:10:36.04Z</time></trkpt><trkpt lat="43.9953917" lon="12.0305736"><ele>548.1666666666666</ele><time>2026-05-02T14:10:37.039Z</time></trkpt><trkpt lat="43.9953321" lon="12.0305178"><ele>552.0</ele><time>2026-05-02T14:10:38.039Z</time></trkpt><trkpt lat="43.9952867" lon="12.030442"><ele>552.0</ele><time>2026-05-02T14:10:39.039Z</time></trkpt><trkpt lat="43.995254" lon="12.0303543"><ele>552.0</ele><time>2026-05-02T14:10:40.039Z</time></trkpt><trkpt lat="43.9952334" lon="12.030251"><ele>552.0</ele><time>2026-05-02T14:10:41.039Z</time></trkpt><trkpt lat="43.9952239" lon="12.0301447"><ele>552.0</ele><time>2026-05-02T14:10:42.039Z</time></trkpt><trkpt lat="43.9952192" lon="12.0300405"><ele>552.0</ele><time>2026-05-02T14:10:43.039Z</time></trkpt><trkpt lat="43.9952109" lon="12.0299358"><ele>552.0</ele><time>2026-05-02T14:10:44.039Z</time></trkpt><trkpt lat="43.9951799" lon="12.0297969"><ele>552.0</ele><time>2026-05-02T14:10:45.039Z</time></trkpt><trkpt lat="43.995141" lon="12.029626"><ele>552.0</ele><time>2026-05-02T14:10:46.039Z</time></trkpt><trkpt lat="43.9951033" lon="12.0294297"><ele>552.0</ele><time>2026-05-02T14:10:47.039Z</time></trkpt><trkpt lat="43.9950728" lon="12.0292175"><ele>552.0</ele><time>2026-05-02T14:10:48.039Z</time></trkpt><trkpt lat="43.9950518" lon="12.029013"><ele>546.5</ele><time>2026-05-02T14:10:49.039Z</time></trkpt><trkpt lat="43.9950368" lon="12.0288176"><ele>541.0</ele><time>2026-05-02T14:10:50.04Z</time></trkpt><trkpt lat="43.9950275" lon="12.0286372"><ele>535.5</ele><time>2026-05-02T14:10:51.039Z</time></trkpt><trkpt lat="43.9950234" lon="12.0284666"><ele>530.0</ele><time>2026-05-02T14:10:52.039Z</time></trkpt><trkpt lat="43.9950182" lon="12.028315"><ele>531.0</ele><time>2026-05-02T14:10:53.039Z</time></trkpt><trkpt lat="43.9950109" lon="12.0281949"><ele>532.0</ele><time>2026-05-02T14:10:54.039Z</time></trkpt><trkpt lat="43.995007" lon="12.0281019"><ele>533.0</ele><time>2026-05-02T14:10:55.04Z</time></trkpt><trkpt lat="43.995013" lon="12.0279668"><ele>534.0</ele><time>2026-05-02T14:10:57.04Z</time></trkpt><trkpt lat="43.994979" lon="12.027828"><ele>535.0</ele><time>2026-05-02T14:10:59.039Z</time></trkpt><trkpt lat="43.9949064" lon="12.0276927"><ele>535.0</ele><time>2026-05-02T14:11:01.04Z</time></trkpt><trkpt lat="43.994816" lon="12.027599"><ele>535.0</ele><time>2026-05-02T14:11:03.04Z</time></trkpt><trkpt lat="43.994753" lon="12.0275672"><ele>535.0</ele><time>2026-05-02T14:11:04.04Z</time></trkpt><trkpt lat="43.9946889" lon="12.0275525"><ele>535.0</ele><time>2026-05-02T14:11:05.039Z</time></trkpt><trkpt lat="43.9946187" lon="12.0275371"><ele>535.0</ele><time>2026-05-02T14:11:06.04Z</time></trkpt><trkpt lat="43.994547" lon="12.0275112"><ele>535.0</ele><time>2026-05-02T14:11:07.039Z</time></trkpt><trkpt lat="43.9944699" lon="12.027488"><ele>535.5</ele><time>2026-05-02T14:11:08.039Z</time></trkpt><trkpt lat="43.9943901" lon="12.0274612"><ele>536.0</ele><time>2026-05-02T14:11:09.039Z</time></trkpt><trkpt lat="43.9943072" lon="12.0274437"><ele>536.5</ele><time>2026-05-02T14:11:10.039Z</time></trkpt><trkpt lat="43.9942224" lon="12.0274216"><ele>537.0</ele><time>2026-05-02T14:11:11.039Z</time></trkpt><trkpt lat="43.9941382" lon="12.0273955"><ele>537.5</ele><time>2026-05-02T14:11:12.039Z</time></trkpt><trkpt lat="43.9940623" lon="12.0273623"><ele>538.0</ele><time>2026-05-02T14:11:13.04Z</time></trkpt><trkpt lat="43.9940067" lon="12.0273113"><ele>538.0</ele><time>2026-05-02T14:11:14.04Z</time></trkpt><trkpt lat="43.9940062" lon="12.0271665"><ele>538.0</ele><time>2026-05-02T14:11:16.039Z</time></trkpt><trkpt lat="43.994121" lon="12.0271192"><ele>538.0</ele><time>2026-05-02T14:11:18.039Z</time></trkpt><trkpt lat="43.9941836" lon="12.0271344"><ele>538.0</ele><time>2026-05-02T14:11:19.04Z</time></trkpt><trkpt lat="43.9942494" lon="12.0271541"><ele>538.0</ele><time>2026-05-02T14:11:20.039Z</time></trkpt><trkpt lat="43.9943127" lon="12.0271429"><ele>538.0</ele><time>2026-05-02T14:11:21.039Z</time></trkpt><trkpt lat="43.994365" lon="12.0270796"><ele>538.0</ele><time>2026-05-02T14:11:22.04Z</time></trkpt><trkpt lat="43.9944041" lon="12.0269868"><ele>538.0</ele><time>2026-05-02T14:11:23.039Z</time></trkpt><trkpt lat="43.9944177" lon="12.0268712"><ele>538.0</ele><time>2026-05-02T14:11:24.039Z</time></trkpt><trkpt lat="43.9944206" lon="12.0267415"><ele>538.0</ele><time>2026-05-02T14:11:25.039Z</time></trkpt><trkpt lat="43.9944206" lon="12.0266169"><ele>538.0</ele><time>2026-05-02T14:11:26.039Z</time></trkpt><trkpt lat="43.9944149" lon="12.0264933"><ele>538.0</ele><time>2026-05-02T14:11:27.039Z</time></trkpt><trkpt lat="43.9943966" lon="12.0263809"><ele>538.0</ele><time>2026-05-02T14:11:28.04Z</time></trkpt><trkpt lat="43.9943733" lon="12.0262855"><ele>538.0</ele><time>2026-05-02T14:11:29.039Z</time></trkpt><trkpt lat="43.9943274" lon="12.026218"><ele>538.0</ele><time>2026-05-02T14:11:30.039Z</time></trkpt><trkpt lat="43.9942655" lon="12.0261929"><ele>538.0</ele><time>2026-05-02T14:11:31.039Z</time></trkpt><trkpt lat="43.9941766" lon="12.0262199"><ele>538.0</ele><time>2026-05-02T14:11:32.039Z</time></trkpt><trkpt lat="43.9940743" lon="12.0262683"><ele>538.0</ele><time>2026-05-02T14:11:33.039Z</time></trkpt><trkpt lat="43.9939708" lon="12.0263328"><ele>543.0</ele><time>2026-05-02T14:11:34.039Z</time></trkpt><trkpt lat="43.9938705" lon="12.0264005"><ele>548.0</ele><time>2026-05-02T14:11:35.039Z</time></trkpt><trkpt lat="43.9937723" lon="12.0264583"><ele>553.0</ele><time>2026-05-02T14:11:36.039Z</time></trkpt><trkpt lat="43.9936825" lon="12.0264972"><ele>558.0</ele><time>2026-05-02T14:11:37.039Z</time></trkpt><trkpt lat="43.9935929" lon="12.0265019"><ele>563.0</ele><time>2026-05-02T14:11:38.039Z</time></trkpt><trkpt lat="43.9935243" lon="12.0264935"><ele>563.0</ele><time>2026-05-02T14:11:39.039Z</time></trkpt><trkpt lat="43.9934388" lon="12.0264118"><ele>563.0</ele><time>2026-05-02T14:11:41.039Z</time></trkpt><trkpt lat="43.9933511" lon="12.0263164"><ele>563.0</ele><time>2026-05-02T14:11:43.039Z</time></trkpt><trkpt lat="43.993237" lon="12.026245"><ele>563.0</ele><time>2026-05-02T14:11:45.039Z</time></trkpt><trkpt lat="43.9931725" lon="12.0262112"><ele>563.0</ele><time>2026-05-02T14:11:46.04Z</time></trkpt><trkpt lat="43.9931075" lon="12.0261744"><ele>564.6666666666666</ele><time>2026-05-02T14:11:47.039Z</time></trkpt><trkpt lat="43.993043" lon="12.0261384"><ele>566.3333333333333</ele><time>2026-05-02T14:11:48.04Z</time></trkpt><trkpt lat="43.9929784" lon="12.0261023"><ele>568.0</ele><time>2026-05-02T14:11:49.04Z</time></trkpt><trkpt lat="43.9929133" lon="12.0260657"><ele>569.6666666666666</ele><time>2026-05-02T14:11:50.039Z</time></trkpt><trkpt lat="43.9928457" lon="12.0260261"><ele>571.3333333333334</ele><time>2026-05-02T14:11:51.04Z</time></trkpt><trkpt lat="43.9927802" lon="12.0259839"><ele>573.0</ele><time>2026-05-02T14:11:52.039Z</time></trkpt><trkpt lat="43.9926798" lon="12.0259069"><ele>573.0</ele><time>2026-05-02T14:11:54.039Z</time></trkpt><trkpt lat="43.9926013" lon="12.0258642"><ele>573.0</ele><time>2026-05-02T14:11:56.039Z</time></trkpt><trkpt lat="43.9925285" lon="12.0258565"><ele>573.0</ele><time>2026-05-02T14:11:58.039Z</time></trkpt><trkpt lat="43.9924452" lon="12.02588"><ele>573.0</ele><time>2026-05-02T14:12:01.039Z</time></trkpt><trkpt lat="43.9924561" lon="12.0257883"><ele>573.0</ele><time>2026-05-02T14:12:19.039Z</time></trkpt><trkpt lat="43.9923889" lon="12.0258536"><ele>573.0</ele><time>2026-05-02T14:15:54.038Z</time></trkpt><trkpt lat="43.9923228" lon="12.0258958"><ele>575.0</ele><time>2026-05-02T14:15:56.038Z</time></trkpt><trkpt lat="43.9922154" lon="12.0259336"><ele>577.0</ele><time>2026-05-02T14:15:58.038Z</time></trkpt><trkpt lat="43.992101" lon="12.025959"><ele>579.0</ele><time>2026-05-02T14:16:00.038Z</time></trkpt><trkpt lat="43.9920334" lon="12.0259744"><ele>581.0</ele><time>2026-05-02T14:16:01.038Z</time></trkpt><trkpt lat="43.9919617" lon="12.0259906"><ele>583.0</ele><time>2026-05-02T14:16:02.038Z</time></trkpt><trkpt lat="43.991885" lon="12.0260084"><ele>585.0</ele><time>2026-05-02T14:16:03.038Z</time></trkpt><trkpt lat="43.9918072" lon="12.0260209"><ele>585.0</ele><time>2026-05-02T14:16:04.038Z</time></trkpt><trkpt lat="43.9917289" lon="12.0260268"><ele>585.0</ele><time>2026-05-02T14:16:05.039Z</time></trkpt><trkpt lat="43.9916418" lon="12.0260247"><ele>585.0</ele><time>2026-05-02T14:16:06.038Z</time></trkpt><trkpt lat="43.9915477" lon="12.026029"><ele>585.0</ele><time>2026-05-02T14:16:07.038Z</time></trkpt><trkpt lat="43.9914607" lon="12.0260367"><ele>585.0</ele><time>2026-05-02T14:16:08.038Z</time></trkpt><trkpt lat="43.9913874" lon="12.0260437"><ele>585.0</ele><time>2026-05-02T14:16:09.039Z</time></trkpt><trkpt lat="43.9913128" lon="12.026054"><ele>585.5714285714286</ele><time>2026-05-02T14:16:10.038Z</time></trkpt><trkpt lat="43.9912417" lon="12.0260611"><ele>586.1428571428571</ele><time>2026-05-02T14:16:11.038Z</time></trkpt><trkpt lat="43.9911671" lon="12.0260652"><ele>586.7142857142857</ele><time>2026-05-02T14:16:12.039Z</time></trkpt><trkpt lat="43.991093" lon="12.0260695"><ele>587.2857142857142</ele><time>2026-05-02T14:16:13.038Z</time></trkpt><trkpt lat="43.9910189" lon="12.0260729"><ele>587.8571428571428</ele><time>2026-05-02T14:16:14.038Z</time></trkpt><trkpt lat="43.9909428" lon="12.0260708"><ele>588.4285714285714</ele><time>2026-05-02T14:16:15.038Z</time></trkpt><trkpt lat="43.9908661" lon="12.0260667"><ele>589.0</ele><time>2026-05-02T14:16:16.039Z</time></trkpt><trkpt lat="43.9907859" lon="12.0260649"><ele>591.1666666666667</ele><time>2026-05-02T14:16:17.039Z</time></trkpt><trkpt lat="43.9907189" lon="12.0260714"><ele>593.3333333333334</ele><time>2026-05-02T14:16:18.038Z</time></trkpt><trkpt lat="43.9906312" lon="12.0261001"><ele>595.5</ele><time>2026-05-02T14:16:20.038Z</time></trkpt><trkpt lat="43.990574" lon="12.0261376"><ele>597.6666666666666</ele><time>2026-05-02T14:16:23.039Z</time></trkpt><trkpt lat="43.9904995" lon="12.0261425"><ele>599.8333333333333</ele><time>2026-05-02T14:16:26.038Z</time></trkpt><trkpt lat="43.9904232" lon="12.0261425"><ele>602.0</ele><time>2026-05-02T14:16:28.038Z</time></trkpt><trkpt lat="43.9903276" lon="12.0261607"><ele>602.0</ele><time>2026-05-02T14:16:30.039Z</time></trkpt><trkpt lat="43.9902649" lon="12.0261736"><ele>602.0</ele><time>2026-05-02T14:16:31.038Z</time></trkpt><trkpt lat="43.9901961" lon="12.0261863"><ele>602.0</ele><time>2026-05-02T14:16:32.038Z</time></trkpt><trkpt lat="43.99012" lon="12.0262009"><ele>602.0</ele><time>2026-05-02T14:16:33.039Z</time></trkpt><trkpt lat="43.9900332" lon="12.0262184"><ele>602.0</ele><time>2026-05-02T14:16:34.039Z</time></trkpt><trkpt lat="43.9899388" lon="12.0262356"><ele>602.0</ele><time>2026-05-02T14:16:35.038Z</time></trkpt><trkpt lat="43.9898433" lon="12.0262529"><ele>604.2</ele><time>2026-05-02T14:16:36.038Z</time></trkpt><trkpt lat="43.9897439" lon="12.0262667"><ele>606.4000000000001</ele><time>2026-05-02T14:16:37.038Z</time></trkpt><trkpt lat="43.9896468" lon="12.0262884"><ele>608.5999999999999</ele><time>2026-05-02T14:16:38.038Z</time></trkpt><trkpt lat="43.9895337" lon="12.0263066"><ele>610.8</ele><time>2026-05-02T14:16:39.038Z</time></trkpt><trkpt lat="43.9893985" lon="12.0263298"><ele>613.0</ele><time>2026-05-02T14:16:40.038Z</time></trkpt><trkpt lat="43.9892624" lon="12.0263463"><ele>611.75</ele><time>2026-05-02T14:16:41.038Z</time></trkpt><trkpt lat="43.9891316" lon="12.0263661"><ele>610.5</ele><time>2026-05-02T14:16:42.039Z</time></trkpt><trkpt lat="43.9890021" lon="12.0263852"><ele>609.25</ele><time>2026-05-02T14:16:43.038Z</time></trkpt><trkpt lat="43.9888802" lon="12.0264084"><ele>608.0</ele><time>2026-05-02T14:16:44.038Z</time></trkpt><trkpt lat="43.9887615" lon="12.0264157"><ele>608.0</ele><time>2026-05-02T14:16:45.039Z</time></trkpt><trkpt lat="43.9886511" lon="12.0264225"><ele>608.0</ele><time>2026-05-02T14:16:46.039Z</time></trkpt><trkpt lat="43.9885447" lon="12.0264371"><ele>608.0</ele><time>2026-05-02T14:16:47.038Z</time></trkpt><trkpt lat="43.9907859" lon="12.0260649"><ele>607.0</ele><time>2026-05-02T14:16:17.039Z</time></trkpt><trkpt lat="43.9907189" lon="12.0260714"><ele>606.0</ele><time>2026-05-02T14:16:18.038Z</time></trkpt><trkpt lat="43.9906312" lon="12.0261001"><ele>605.0</ele><time>2026-05-02T14:16:20.038Z</time></trkpt><trkpt lat="43.990574" lon="12.0261376"><ele>604.0</ele><time>2026-05-02T14:16:23.039Z</time></trkpt><trkpt lat="43.9904995" lon="12.0261425"><ele>603.0</ele><time>2026-05-02T14:16:26.038Z</time></trkpt><trkpt lat="43.9904232" lon="12.0261425"><ele>602.0</ele><time>2026-05-02T14:16:28.038Z</time></trkpt><trkpt lat="43.9903276" lon="12.0261607"><ele>602.0</ele><time>2026-05-02T14:16:30.039Z</time></trkpt><trkpt lat="43.9902649" lon="12.0261736"><ele>602.0</ele><time>2026-05-02T14:16:31.038Z</time></trkpt><trkpt lat="43.9901961" lon="12.0261863"><ele>602.0</ele><time>2026-05-02T14:16:32.038Z</time></trkpt><trkpt lat="43.99012" lon="12.0262009"><ele>602.0</ele><time>2026-05-02T14:16:33.039Z</time></trkpt><trkpt lat="43.9900332" lon="12.0262184"><ele>602.0</ele><time>2026-05-02T14:16:34.039Z</time></trkpt><trkpt lat="43.9899388" lon="12.0262356"><ele>602.0</ele><time>2026-05-02T14:16:35.038Z</time></trkpt><trkpt lat="43.9898433" lon="12.0262529"><ele>604.2</ele><time>2026-05-02T14:16:36.038Z</time></trkpt><trkpt lat="43.9897439" lon="12.0262667"><ele>606.4000000000001</ele><time>2026-05-02T14:16:37.038Z</time></trkpt><trkpt lat="43.9896468" lon="12.0262884"><ele>608.5999999999999</ele><time>2026-05-02T14:16:38.038Z</time></trkpt><trkpt lat="43.9895337" lon="12.0263066"><ele>610.8</ele><time>2026-05-02T14:16:39.038Z</time></trkpt><trkpt lat="43.9893985" lon="12.0263298"><ele>613.0</ele><time>2026-05-02T14:16:40.038Z</time></trkpt><trkpt lat="43.9892624" lon="12.0263463"><ele>611.75</ele><time>2026-05-02T14:16:41.038Z</time></trkpt><trkpt lat="43.9891316" lon="12.0263661"><ele>610.5</ele><time>2026-05-02T14:16:42.039Z</time></trkpt><trkpt lat="43.9890021" lon="12.0263852"><ele>609.25</ele><time>2026-05-02T14:16:43.038Z</time></trkpt><trkpt lat="43.9888802" lon="12.0264084"><ele>608.0</ele><time>2026-05-02T14:16:44.038Z</time></trkpt><trkpt lat="43.9887615" lon="12.0264157"><ele>608.0</ele><time>2026-05-02T14:16:45.039Z</time></trkpt><trkpt lat="43.9886511" lon="12.0264225"><ele>608.0</ele><time>2026-05-02T14:16:46.039Z</time></trkpt><trkpt lat="43.9885447" lon="12.0264371"><ele>608.0</ele><time>2026-05-02T14:16:47.038Z</time></trkpt><trkpt lat="43.9884435" lon="12.0264605"><ele>608.0</ele><time>2026-05-02T14:16:48.038Z</time></trkpt><trkpt lat="43.9883461" lon="12.0264897"><ele>608.0</ele><time>2026-05-02T14:16:49.038Z</time></trkpt><trkpt lat="43.9882512" lon="12.0265257"><ele>606.4</ele><time>2026-05-02T14:16:50.038Z</time></trkpt><trkpt lat="43.9881556" lon="12.0265648"><ele>604.8</ele><time>2026-05-02T14:16:51.038Z</time></trkpt><trkpt lat="43.9880562" lon="12.0266105"><ele>603.2</ele><time>2026-05-02T14:16:52.039Z</time></trkpt><trkpt lat="43.9879577" lon="12.0266521"><ele>601.6</ele><time>2026-05-02T14:16:53.038Z</time></trkpt><trkpt lat="43.9878577" lon="12.0266987"><ele>600.0</ele><time>2026-05-02T14:16:54.038Z</time></trkpt><trkpt lat="43.987765" lon="12.0267596"><ele>600.0</ele><time>2026-05-02T14:16:55.038Z</time></trkpt><trkpt lat="43.9876839" lon="12.026847"><ele>600.0</ele><time>2026-05-02T14:16:56.038Z</time></trkpt><trkpt lat="43.9876083" lon="12.0269495"><ele>600.0</ele><time>2026-05-02T14:16:57.038Z</time></trkpt><trkpt lat="43.9875389" lon="12.0270673"><ele>600.0</ele><time>2026-05-02T14:16:58.038Z</time></trkpt><trkpt lat="43.9874675" lon="12.0271856"><ele>600.0</ele><time>2026-05-02T14:16:59.038Z</time></trkpt><trkpt lat="43.9874016" lon="12.0272803"><ele>600.0</ele><time>2026-05-02T14:17:00.038Z</time></trkpt><trkpt lat="43.9873649" lon="12.0273799"><ele>600.0</ele><time>2026-05-02T14:17:02.038Z</time></trkpt><trkpt lat="43.9873701" lon="12.0274875"><ele>600.0</ele><time>2026-05-02T14:17:04.038Z</time></trkpt><trkpt lat="43.9873292" lon="12.027604"><ele>600.0</ele><time>2026-05-02T14:17:06.038Z</time></trkpt><trkpt lat="43.9872841" lon="12.0276659"><ele>600.0</ele><time>2026-05-02T14:17:07.038Z</time></trkpt><trkpt lat="43.9871988" lon="12.0277871"><ele>600.0</ele><time>2026-05-02T14:17:09.038Z</time></trkpt><trkpt lat="43.9871246" lon="12.0278979"><ele>599.4</ele><time>2026-05-02T14:17:11.038Z</time></trkpt><trkpt lat="43.9870925" lon="12.0280567"><ele>598.8</ele><time>2026-05-02T14:17:13.038Z</time></trkpt><trkpt lat="43.9871019" lon="12.0281607"><ele>598.2</ele><time>2026-05-02T14:17:14.038Z</time></trkpt><trkpt lat="43.9871123" lon="12.0282654"><ele>597.6</ele><time>2026-05-02T14:17:15.038Z</time></trkpt><trkpt lat="43.9871166" lon="12.0283688"><ele>597.0</ele><time>2026-05-02T14:17:16.038Z</time></trkpt><trkpt lat="43.987107" lon="12.0285154"><ele>597.0</ele><time>2026-05-02T14:17:18.039Z</time></trkpt><trkpt lat="43.9871436" lon="12.0287065"><ele>597.0</ele><time>2026-05-02T14:17:20.038Z</time></trkpt><trkpt lat="43.9871807" lon="12.0288392"><ele>597.0</ele><time>2026-05-02T14:17:21.038Z</time></trkpt><trkpt lat="43.9872163" lon="12.0289715"><ele>597.0</ele><time>2026-05-02T14:17:22.038Z</time></trkpt><trkpt lat="43.9872477" lon="12.0290912"><ele>597.0</ele><time>2026-05-02T14:17:23.038Z</time></trkpt><trkpt lat="43.9872695" lon="12.0291955"><ele>597.0</ele><time>2026-05-02T14:17:24.039Z</time></trkpt><trkpt lat="43.9872854" lon="12.0292917"><ele>597.0</ele><time>2026-05-02T14:17:25.038Z</time></trkpt><trkpt lat="43.987301" lon="12.0293849"><ele>597.0</ele><time>2026-05-02T14:17:26.038Z</time></trkpt><trkpt lat="43.9873259" lon="12.0295397"><ele>597.0</ele><time>2026-05-02T14:17:28.038Z</time></trkpt><trkpt lat="43.9873528" lon="12.0296485"><ele>597.0</ele><time>2026-05-02T14:17:30.038Z</time></trkpt><trkpt lat="43.9873829" lon="12.029761"><ele>597.0</ele><time>2026-05-02T14:17:33.038Z</time></trkpt><trkpt lat="43.9873708" lon="12.0298504"><ele>597.0</ele><time>2026-05-02T14:17:38.038Z</time></trkpt><trkpt lat="43.9873786" lon="12.0297327"><ele>597.0</ele><time>2026-05-02T14:17:42.038Z</time></trkpt><trkpt lat="43.9873579" lon="12.0296288"><ele>597.0</ele><time>2026-05-02T14:17:44.039Z</time></trkpt><trkpt lat="43.9873358" lon="12.0295396"><ele>597.0</ele><time>2026-05-02T14:17:45.038Z</time></trkpt><trkpt lat="43.9873111" lon="12.0294203"><ele>597.0</ele><time>2026-05-02T14:17:46.039Z</time></trkpt><trkpt lat="43.9872856" lon="12.0292864"><ele>597.0</ele><time>2026-05-02T14:17:47.038Z</time></trkpt><trkpt lat="43.987266" lon="12.0291647"><ele>597.0</ele><time>2026-05-02T14:17:48.038Z</time></trkpt><trkpt lat="43.9872525" lon="12.0290685"><ele>597.0</ele><time>2026-05-02T14:17:49.038Z</time></trkpt><trkpt lat="43.9872171" lon="12.0289052"><ele>597.0</ele><time>2026-05-02T14:17:51.038Z</time></trkpt><trkpt lat="43.9871947" lon="12.0288179"><ele>597.0</ele><time>2026-05-02T14:17:52.038Z</time></trkpt><trkpt lat="43.9871758" lon="12.0287336"><ele>597.0</ele><time>2026-05-02T14:17:53.038Z</time></trkpt><trkpt lat="43.9871521" lon="12.0286513"><ele>597.0</ele><time>2026-05-02T14:17:54.038Z</time></trkpt><trkpt lat="43.9871254" lon="12.0285649"><ele>597.0</ele><time>2026-05-02T14:17:55.039Z</time></trkpt><trkpt lat="43.9871077" lon="12.0284766"><ele>597.0</ele><time>2026-05-02T14:17:56.038Z</time></trkpt><trkpt lat="43.9871109" lon="12.0283674"><ele>597.0</ele><time>2026-05-02T14:17:57.039Z</time></trkpt><trkpt lat="43.9871206" lon="12.0282403"><ele>597.0</ele><time>2026-05-02T14:17:58.038Z</time></trkpt><trkpt lat="43.9871274" lon="12.0281156"><ele>597.0</ele><time>2026-05-02T14:17:59.038Z</time></trkpt><trkpt lat="43.9871245" lon="12.0280077"><ele>597.0</ele><time>2026-05-02T14:18:00.038Z</time></trkpt><trkpt lat="43.9871309" lon="12.0279069"><ele>597.5</ele><time>2026-05-02T14:18:01.038Z</time></trkpt><trkpt lat="43.987206" lon="12.0277457"><ele>598.0</ele><time>2026-05-02T14:18:03.038Z</time></trkpt><trkpt lat="43.9872656" lon="12.0276668"><ele>598.5</ele><time>2026-05-02T14:18:04.038Z</time></trkpt><trkpt lat="43.9873233" lon="12.0275908"><ele>599.0</ele><time>2026-05-02T14:18:05.038Z</time></trkpt><trkpt lat="43.9873731" lon="12.0275241"><ele>599.5</ele><time>2026-05-02T14:18:06.038Z</time></trkpt><trkpt lat="43.9873881" lon="12.0274291"><ele>600.0</ele><time>2026-05-02T14:18:08.038Z</time></trkpt><trkpt lat="43.9873012" lon="12.0273966"><ele>600.0</ele><time>2026-05-02T14:18:11.038Z</time></trkpt><trkpt lat="43.9872366" lon="12.0274207"><ele>600.0</ele><time>2026-05-02T14:18:12.038Z</time></trkpt><trkpt lat="43.9871621" lon="12.0274538"><ele>600.0</ele><time>2026-05-02T14:18:13.039Z</time></trkpt><trkpt lat="43.9870624" lon="12.0274934"><ele>600.0</ele><time>2026-05-02T14:18:14.039Z</time></trkpt><trkpt lat="43.9869442" lon="12.0275113"><ele>600.0</ele><time>2026-05-02T14:18:15.039Z</time></trkpt><trkpt lat="43.9868157" lon="12.0275059"><ele>598.0</ele><time>2026-05-02T14:18:16.038Z</time></trkpt><trkpt lat="43.9866735" lon="12.0274799"><ele>596.0</ele><time>2026-05-02T14:18:17.038Z</time></trkpt><trkpt lat="43.9865155" lon="12.0274621"><ele>594.0</ele><time>2026-05-02T14:18:18.038Z</time></trkpt><trkpt lat="43.9863639" lon="12.0274576"><ele>594.0</ele><time>2026-05-02T14:18:19.038Z</time></trkpt><trkpt lat="43.9862177" lon="12.0274692"><ele>594.0</ele><time>2026-05-02T14:18:20.038Z</time></trkpt><trkpt lat="43.9860759" lon="12.0274944"><ele>594.0</ele><time>2026-05-02T14:18:21.038Z</time></trkpt><trkpt lat="43.9859415" lon="12.0275294"><ele>594.0</ele><time>2026-05-02T14:18:22.038Z</time></trkpt><trkpt lat="43.9858139" lon="12.0275747"><ele>601.25</ele><time>2026-05-02T14:18:23.038Z</time></trkpt><trkpt lat="43.9856922" lon="12.0276276"><ele>608.5</ele><time>2026-05-02T14:18:24.038Z</time></trkpt><trkpt lat="43.9855761" lon="12.0276769"><ele>615.75</ele><time>2026-05-02T14:18:25.039Z</time></trkpt><trkpt lat="43.9854572" lon="12.0277109"><ele>623.0</ele><time>2026-05-02T14:18:26.038Z</time></trkpt><trkpt lat="43.9853442" lon="12.0277278"><ele>623.0</ele><time>2026-05-02T14:18:27.038Z</time></trkpt><trkpt lat="43.9852282" lon="12.0277145"><ele>623.0</ele><time>2026-05-02T14:18:28.038Z</time></trkpt><trkpt lat="43.9851036" lon="12.0276834"><ele>623.0</ele><time>2026-05-02T14:18:29.038Z</time></trkpt><trkpt lat="43.9849795" lon="12.0276483"><ele>623.0</ele><time>2026-05-02T14:18:30.038Z</time></trkpt><trkpt lat="43.9848578" lon="12.0276147"><ele>622.25</ele><time>2026-05-02T14:18:31.038Z</time></trkpt><trkpt lat="43.9847398" lon="12.0275804"><ele>621.5</ele><time>2026-05-02T14:18:32.038Z</time></trkpt><trkpt lat="43.9846232" lon="12.0275374"><ele>620.75</ele><time>2026-05-02T14:18:33.038Z</time></trkpt><trkpt lat="43.9845116" lon="12.027495"><ele>620.0</ele><time>2026-05-02T14:18:34.038Z</time></trkpt><trkpt lat="43.9844036" lon="12.0274605"><ele>619.4</ele><time>2026-05-02T14:18:35.038Z</time></trkpt><trkpt lat="43.9843028" lon="12.027441"><ele>618.8</ele><time>2026-05-02T14:18:36.039Z</time></trkpt><trkpt lat="43.9842101" lon="12.0274381"><ele>618.2</ele><time>2026-05-02T14:18:37.038Z</time></trkpt><trkpt lat="43.9841127" lon="12.0274709"><ele>617.6</ele><time>2026-05-02T14:18:38.038Z</time></trkpt><trkpt lat="43.9840159" lon="12.0275163"><ele>617.0</ele><time>2026-05-02T14:18:39.038Z</time></trkpt><trkpt lat="43.9839177" lon="12.0275819"><ele>618.8000000000001</ele><time>2026-05-02T14:18:40.038Z</time></trkpt><trkpt lat="43.9838238" lon="12.0276605"><ele>620.6</ele><time>2026-05-02T14:18:41.038Z</time></trkpt><trkpt lat="43.9837255" lon="12.0277422"><ele>622.4000000000001</ele><time>2026-05-02T14:18:42.038Z</time></trkpt><trkpt lat="43.9836302" lon="12.0278164"><ele>624.2</ele><time>2026-05-02T14:18:43.039Z</time></trkpt><trkpt lat="43.9835366" lon="12.0278842"><ele>626.0</ele><time>2026-05-02T14:18:44.039Z</time></trkpt><trkpt lat="43.9834474" lon="12.0279386"><ele>626.0</ele><time>2026-05-02T14:18:45.038Z</time></trkpt><trkpt lat="43.9833621" lon="12.027966"><ele>626.0</ele><time>2026-05-02T14:18:46.038Z</time></trkpt><trkpt lat="43.9832769" lon="12.0279492"><ele>626.0</ele><time>2026-05-02T14:18:47.039Z</time></trkpt><trkpt lat="43.9831885" lon="12.0279083"><ele>626.0</ele><time>2026-05-02T14:18:48.038Z</time></trkpt><trkpt lat="43.9831081" lon="12.0278239"><ele>626.0</ele><time>2026-05-02T14:18:49.038Z</time></trkpt><trkpt lat="43.983031" lon="12.0277199"><ele>628.5</ele><time>2026-05-02T14:18:50.038Z</time></trkpt><trkpt lat="43.9829531" lon="12.0276212"><ele>631.0</ele><time>2026-05-02T14:18:51.039Z</time></trkpt><trkpt lat="43.9828559" lon="12.0275502"><ele>633.5</ele><time>2026-05-02T14:18:52.039Z</time></trkpt><trkpt lat="43.9827408" lon="12.0275047"><ele>636.0</ele><time>2026-05-02T14:18:53.038Z</time></trkpt><trkpt lat="43.9826223" lon="12.0274709"><ele>634.2</ele><time>2026-05-02T14:18:54.039Z</time></trkpt><trkpt lat="43.9825034" lon="12.0274372"><ele>632.4000000000001</ele><time>2026-05-02T14:18:55.038Z</time></trkpt><trkpt lat="43.9823991" lon="12.0274045"><ele>630.6</ele><time>2026-05-02T14:18:56.038Z</time></trkpt><trkpt lat="43.982303" lon="12.0273644"><ele>628.8000000000001</ele><time>2026-05-02T14:18:57.038Z</time></trkpt><trkpt lat="43.9822057" lon="12.0273296"><ele>627.0</ele><time>2026-05-02T14:18:58.038Z</time></trkpt><trkpt lat="43.9821148" lon="12.0272872"><ele>627.0</ele><time>2026-05-02T14:18:59.038Z</time></trkpt><trkpt lat="43.9820258" lon="12.027245"><ele>627.0</ele><time>2026-05-02T14:19:00.038Z</time></trkpt><trkpt lat="43.9819342" lon="12.0272065"><ele>627.0</ele><time>2026-05-02T14:19:01.038Z</time></trkpt><trkpt lat="43.9818428" lon="12.0271691"><ele>627.0</ele><time>2026-05-02T14:19:02.038Z</time></trkpt><trkpt lat="43.9817527" lon="12.0271305"><ele>627.0</ele><time>2026-05-02T14:19:03.039Z</time></trkpt><trkpt lat="43.9816622" lon="12.0270888"><ele>627.4</ele><time>2026-05-02T14:19:04.038Z</time></trkpt><trkpt lat="43.9815667" lon="12.0270465"><ele>627.8000000000001</ele><time>2026-05-02T14:19:05.038Z</time></trkpt><trkpt lat="43.9814691" lon="12.0270178"><ele>628.2</ele><time>2026-05-02T14:19:06.038Z</time></trkpt><trkpt lat="43.9813673" lon="12.0270126"><ele>628.6</ele><time>2026-05-02T14:19:07.038Z</time></trkpt><trkpt lat="43.9812656" lon="12.0270429"><ele>629.0</ele><time>2026-05-02T14:19:08.038Z</time></trkpt><trkpt lat="43.9811665" lon="12.0271058"><ele>629.0</ele><time>2026-05-02T14:19:09.039Z</time></trkpt><trkpt lat="43.9810656" lon="12.0271624"><ele>629.0</ele><time>2026-05-02T14:19:10.038Z</time></trkpt><trkpt lat="43.9809656" lon="12.0272014"><ele>629.0</ele><time>2026-05-02T14:19:11.038Z</time></trkpt><trkpt lat="43.9808668" lon="12.0272077"><ele>629.0</ele><time>2026-05-02T14:19:12.038Z</time></trkpt><trkpt lat="43.9807642" lon="12.0271997"><ele>629.0</ele><time>2026-05-02T14:19:13.038Z</time></trkpt><trkpt lat="43.9806622" lon="12.0271812"><ele>630.5</ele><time>2026-05-02T14:19:14.038Z</time></trkpt><trkpt lat="43.9805649" lon="12.0271599"><ele>632.0</ele><time>2026-05-02T14:19:15.038Z</time></trkpt><trkpt lat="43.9804793" lon="12.0271434"><ele>633.5</ele><time>2026-05-02T14:19:16.038Z</time></trkpt><trkpt lat="43.9803972" lon="12.0271248"><ele>635.0</ele><time>2026-05-02T14:19:17.038Z</time></trkpt><trkpt lat="43.9803257" lon="12.0271125"><ele>636.5</ele><time>2026-05-02T14:19:18.038Z</time></trkpt><trkpt lat="43.9802604" lon="12.0271107"><ele>638.0</ele><time>2026-05-02T14:19:19.038Z</time></trkpt><trkpt lat="43.9801519" lon="12.0271359"><ele>638.0</ele><time>2026-05-02T14:19:21.038Z</time></trkpt><trkpt lat="43.9800615" lon="12.0271586"><ele>638.0</ele><time>2026-05-02T14:19:23.038Z</time></trkpt><trkpt lat="43.9800117" lon="12.0272141"><ele>638.0</ele><time>2026-05-02T14:19:26.039Z</time></trkpt><trkpt lat="43.9801053" lon="12.0271938"><ele>638.0</ele><time>2026-05-02T14:19:29.038Z</time></trkpt><trkpt lat="43.980179" lon="12.0271406"><ele>638.0</ele><time>2026-05-02T14:19:30.038Z</time></trkpt><trkpt lat="43.9802802" lon="12.0271179"><ele>638.0</ele><time>2026-05-02T14:19:31.038Z</time></trkpt><trkpt lat="43.9804255" lon="12.0271171"><ele>638.0</ele><time>2026-05-02T14:19:32.038Z</time></trkpt><trkpt lat="43.9805723" lon="12.0271528"><ele>638.0</ele><time>2026-05-02T14:19:33.038Z</time></trkpt><trkpt lat="43.9807101" lon="12.0271834"><ele>638.0</ele><time>2026-05-02T14:19:34.038Z</time></trkpt><trkpt lat="43.9808302" lon="12.0272139"><ele>638.0</ele><time>2026-05-02T14:19:35.039Z</time></trkpt><trkpt lat="43.9809314" lon="12.0272226"><ele>636.5</ele><time>2026-05-02T14:19:36.038Z</time></trkpt><trkpt lat="43.9810234" lon="12.0272085"><ele>635.0</ele><time>2026-05-02T14:19:37.038Z</time></trkpt><trkpt lat="43.9811089" lon="12.0271758"><ele>633.5</ele><time>2026-05-02T14:19:38.038Z</time></trkpt><trkpt lat="43.9811857" lon="12.0271411"><ele>632.0</ele><time>2026-05-02T14:19:39.038Z</time></trkpt><trkpt lat="43.9812573" lon="12.0271054"><ele>630.5</ele><time>2026-05-02T14:19:40.038Z</time></trkpt><trkpt lat="43.9813303" lon="12.0270732"><ele>629.0</ele><time>2026-05-02T14:19:41.039Z</time></trkpt><trkpt lat="43.981397" lon="12.0270457"><ele>629.0</ele><time>2026-05-02T14:19:42.038Z</time></trkpt><trkpt lat="43.9814902" lon="12.0270138"><ele>629.0</ele><time>2026-05-02T14:19:44.038Z</time></trkpt><trkpt lat="43.9815314" lon="12.0269459"><ele>629.0</ele><time>2026-05-02T14:19:49.039Z</time></trkpt><trkpt lat="43.981582" lon="12.0270359"><ele>629.0</ele><time>2026-05-02T14:20:21.038Z</time></trkpt><trkpt lat="43.9816714" lon="12.0271106"><ele>629.0</ele><time>2026-05-02T14:20:23.038Z</time></trkpt><trkpt lat="43.9817328" lon="12.0271514"><ele>629.0</ele><time>2026-05-02T14:20:24.038Z</time></trkpt><trkpt lat="43.9818065" lon="12.0271811"><ele>628.6666666666666</ele><time>2026-05-02T14:20:25.038Z</time></trkpt><trkpt lat="43.9818782" lon="12.0272121"><ele>628.3333333333333</ele><time>2026-05-02T14:20:26.039Z</time></trkpt><trkpt lat="43.9819502" lon="12.0272385"><ele>628.0</ele><time>2026-05-02T14:20:27.038Z</time></trkpt><trkpt lat="43.9820143" lon="12.0272628"><ele>627.6666666666666</ele><time>2026-05-02T14:20:28.039Z</time></trkpt><trkpt lat="43.9821299" lon="12.0272894"><ele>627.3333333333334</ele><time>2026-05-02T14:20:30.039Z</time></trkpt><trkpt lat="43.9822013" lon="12.0272736"><ele>627.0</ele><time>2026-05-02T14:20:32.038Z</time></trkpt><trkpt lat="43.9821632" lon="12.0271952"><ele>627.0</ele><time>2026-05-02T14:20:37.038Z</time></trkpt><trkpt lat="43.9820604" lon="12.0271592"><ele>627.0</ele><time>2026-05-02T14:20:39.038Z</time></trkpt><trkpt lat="43.9819948" lon="12.0271331"><ele>627.0</ele><time>2026-05-02T14:20:40.038Z</time></trkpt><trkpt lat="43.9819277" lon="12.0271037"><ele>627.0</ele><time>2026-05-02T14:20:41.038Z</time></trkpt><trkpt lat="43.9818635" lon="12.0270704"><ele>627.0</ele><time>2026-05-02T14:20:42.038Z</time></trkpt><trkpt lat="43.9817622" lon="12.0270227"><ele>627.0</ele><time>2026-05-02T14:20:44.038Z</time></trkpt><trkpt lat="43.9817047" lon="12.0269856"><ele>627.0</ele><time>2026-05-02T14:20:48.038Z</time></trkpt><trkpt lat="43.9817893" lon="12.0270347"><ele>627.0</ele><time>2026-05-02T14:21:12.037Z</time></trkpt><trkpt lat="43.9818698" lon="12.0270742"><ele>627.0</ele><time>2026-05-02T14:21:14.037Z</time></trkpt><trkpt lat="43.981938" lon="12.0271118"><ele>627.0</ele><time>2026-05-02T14:21:15.037Z</time></trkpt><trkpt lat="43.9820049" lon="12.0271428"><ele>627.0</ele><time>2026-05-02T14:21:16.037Z</time></trkpt><trkpt lat="43.9821135" lon="12.0272003"><ele>627.0</ele><time>2026-05-02T14:21:18.037Z</time></trkpt><trkpt lat="43.9821863" lon="12.0272295"><ele>627.0</ele><time>2026-05-02T14:21:20.038Z</time></trkpt><trkpt lat="43.9821741" lon="12.0273192"><ele>627.0</ele><time>2026-05-02T14:21:25.037Z</time></trkpt><trkpt lat="43.9820824" lon="12.0272765"><ele>627.0</ele><time>2026-05-02T14:21:27.037Z</time></trkpt><trkpt lat="43.9819801" lon="12.0272317"><ele>627.0</ele><time>2026-05-02T14:21:29.038Z</time></trkpt><trkpt lat="43.9818537" lon="12.0271761"><ele>627.0</ele><time>2026-05-02T14:21:31.037Z</time></trkpt><trkpt lat="43.9817752" lon="12.0271361"><ele>627.0</ele><time>2026-05-02T14:21:32.037Z</time></trkpt><trkpt lat="43.9816877" lon="12.027093"><ele>627.0</ele><time>2026-05-02T14:21:33.037Z</time></trkpt><trkpt lat="43.9815996" lon="12.0270506"><ele>627.0</ele><time>2026-05-02T14:21:34.037Z</time></trkpt><trkpt lat="43.9815141" lon="12.0270194"><ele>627.0</ele><time>2026-05-02T14:21:35.037Z</time></trkpt><trkpt lat="43.9814232" lon="12.0270138"><ele>627.0</ele><time>2026-05-02T14:21:36.037Z</time></trkpt><trkpt lat="43.9813257" lon="12.0270329"><ele>627.4</ele><time>2026-05-02T14:21:37.037Z</time></trkpt><trkpt lat="43.9812243" lon="12.0270786"><ele>627.8000000000001</ele><time>2026-05-02T14:21:38.037Z</time></trkpt><trkpt lat="43.981113" lon="12.027137"><ele>628.2</ele><time>2026-05-02T14:21:39.037Z</time></trkpt><trkpt lat="43.981007" lon="12.0271815"><ele>628.6</ele><time>2026-05-02T14:21:40.037Z</time></trkpt><trkpt lat="43.9809041" lon="12.0272038"><ele>629.0</ele><time>2026-05-02T14:21:41.037Z</time></trkpt><trkpt lat="43.980806" lon="12.0272033"><ele>628.0</ele><time>2026-05-02T14:21:42.037Z</time></trkpt><trkpt lat="43.9807091" lon="12.0271846"><ele>627.0</ele><time>2026-05-02T14:21:43.037Z</time></trkpt><trkpt lat="43.9818698" lon="12.0270742"><ele>627.0</ele><time>2026-05-02T14:21:14.037Z</time></trkpt><trkpt lat="43.981938" lon="12.0271118"><ele>627.0</ele><time>2026-05-02T14:21:15.037Z</time></trkpt><trkpt lat="43.9820049" lon="12.0271428"><ele>627.0</ele><time>2026-05-02T14:21:16.037Z</time></trkpt><trkpt lat="43.9821135" lon="12.0272003"><ele>627.0</ele><time>2026-05-02T14:21:18.037Z</time></trkpt><trkpt lat="43.9821863" lon="12.0272295"><ele>627.0</ele><time>2026-05-02T14:21:20.038Z</time></trkpt><trkpt lat="43.9821741" lon="12.0273192"><ele>627.0</ele><time>2026-05-02T14:21:25.037Z</time></trkpt><trkpt lat="43.9820824" lon="12.0272765"><ele>627.0</ele><time>2026-05-02T14:21:27.037Z</time></trkpt><trkpt lat="43.9819801" lon="12.0272317"><ele>627.0</ele><time>2026-05-02T14:21:29.038Z</time></trkpt><trkpt lat="43.9818537" lon="12.0271761"><ele>627.0</ele><time>2026-05-02T14:21:31.037Z</time></trkpt><trkpt lat="43.9817752" lon="12.0271361"><ele>627.0</ele><time>2026-05-02T14:21:32.037Z</time></trkpt><trkpt lat="43.9816877" lon="12.027093"><ele>627.0</ele><time>2026-05-02T14:21:33.037Z</time></trkpt><trkpt lat="43.9815996" lon="12.0270506"><ele>627.4</ele><time>2026-05-02T14:21:34.037Z</time></trkpt><trkpt lat="43.9815141" lon="12.0270194"><ele>627.8000000000001</ele><time>2026-05-02T14:21:35.037Z</time></trkpt><trkpt lat="43.9814232" lon="12.0270138"><ele>628.2</ele><time>2026-05-02T14:21:36.037Z</time></trkpt><trkpt lat="43.9813257" lon="12.0270329"><ele>628.6</ele><time>2026-05-02T14:21:37.037Z</time></trkpt><trkpt lat="43.9812243" lon="12.0270786"><ele>629.0</ele><time>2026-05-02T14:21:38.037Z</time></trkpt><trkpt lat="43.981113" lon="12.027137"><ele>629.0</ele><time>2026-05-02T14:21:39.037Z</time></trkpt><trkpt lat="43.981007" lon="12.0271815"><ele>629.0</ele><time>2026-05-02T14:21:40.037Z</time></trkpt><trkpt lat="43.9809041" lon="12.0272038"><ele>629.0</ele><time>2026-05-02T14:21:41.037Z</time></trkpt><trkpt lat="43.980806" lon="12.0272033"><ele>629.0</ele><time>2026-05-02T14:21:42.037Z</time></trkpt><trkpt lat="43.9807091" lon="12.0271846"><ele>629.0</ele><time>2026-05-02T14:21:43.037Z</time></trkpt><trkpt lat="43.9806066" lon="12.0271561"><ele>630.8</ele><time>2026-05-02T14:21:44.038Z</time></trkpt><trkpt lat="43.9804981" lon="12.0271325"><ele>632.5999999999999</ele><time>2026-05-02T14:21:45.038Z</time></trkpt><trkpt lat="43.9803854" lon="12.0271187"><ele>634.4</ele><time>2026-05-02T14:21:46.037Z</time></trkpt><trkpt lat="43.980272" lon="12.0271203"><ele>636.1999999999999</ele><time>2026-05-02T14:21:47.037Z</time></trkpt><trkpt lat="43.9801668" lon="12.0271342"><ele>638.0</ele><time>2026-05-02T14:21:48.037Z</time></trkpt><trkpt lat="43.9800818" lon="12.027154"><ele>638.0</ele><time>2026-05-02T14:21:49.037Z</time></trkpt><trkpt lat="43.9799972" lon="12.0271819"><ele>638.0</ele><time>2026-05-02T14:21:51.037Z</time></trkpt><trkpt lat="43.9800597" lon="12.0272103"><ele>638.0</ele><time>2026-05-02T14:21:56.038Z</time></trkpt><trkpt lat="43.980148" lon="12.0271327"><ele>638.0</ele><time>2026-05-02T14:21:58.037Z</time></trkpt><trkpt lat="43.9802139" lon="12.0270608"><ele>638.0</ele><time>2026-05-02T14:22:00.037Z</time></trkpt><trkpt lat="43.9802523" lon="12.0269474"><ele>638.0</ele><time>2026-05-02T14:22:02.038Z</time></trkpt><trkpt lat="43.9802667" lon="12.0268552"><ele>638.0</ele><time>2026-05-02T14:22:05.037Z</time></trkpt><trkpt lat="43.9802289" lon="12.0267683"><ele>638.0</ele><time>2026-05-02T14:22:12.037Z</time></trkpt><trkpt lat="43.9801298" lon="12.0267516"><ele>638.0</ele><time>2026-05-02T14:22:14.037Z</time></trkpt><trkpt lat="43.9800596" lon="12.026747"><ele>638.0</ele><time>2026-05-02T14:22:15.037Z</time></trkpt><trkpt lat="43.9799864" lon="12.0267471"><ele>638.0</ele><time>2026-05-02T14:22:16.037Z</time></trkpt><trkpt lat="43.979917" lon="12.0267488"><ele>638.0</ele><time>2026-05-02T14:22:17.038Z</time></trkpt><trkpt lat="43.9798171" lon="12.0267632"><ele>638.5999999999999</ele><time>2026-05-02T14:22:19.037Z</time></trkpt><trkpt lat="43.9797321" lon="12.0268064"><ele>639.1999999999999</ele><time>2026-05-02T14:22:21.037Z</time></trkpt><trkpt lat="43.9796047" lon="12.0268323"><ele>639.8</ele><time>2026-05-02T14:22:23.037Z</time></trkpt><trkpt lat="43.9795164" lon="12.0268486"><ele>640.4</ele><time>2026-05-02T14:22:24.038Z</time></trkpt><trkpt lat="43.9794373" lon="12.0268707"><ele>641.0</ele><time>2026-05-02T14:22:25.038Z</time></trkpt><trkpt lat="43.9793692" lon="12.0268957"><ele>641.0</ele><time>2026-05-02T14:22:26.037Z</time></trkpt><trkpt lat="43.9792735" lon="12.0269283"><ele>641.0</ele><time>2026-05-02T14:22:28.037Z</time></trkpt><trkpt lat="43.9791882" lon="12.0269191"><ele>641.0</ele><time>2026-05-02T14:22:30.037Z</time></trkpt><trkpt lat="43.9790913" lon="12.0268632"><ele>641.0</ele><time>2026-05-02T14:22:32.038Z</time></trkpt><trkpt lat="43.9790155" lon="12.026782"><ele>641.0</ele><time>2026-05-02T14:22:34.037Z</time></trkpt><trkpt lat="43.9789539" lon="12.0267116"><ele>641.8333333333333</ele><time>2026-05-02T14:22:36.037Z</time></trkpt><trkpt lat="43.9789013" lon="12.0266355"><ele>642.6666666666666</ele><time>2026-05-02T14:22:38.037Z</time></trkpt><trkpt lat="43.9788404" lon="12.0265277"><ele>643.5</ele><time>2026-05-02T14:22:40.037Z</time></trkpt><trkpt lat="43.9787961" lon="12.0264589"><ele>644.3333333333334</ele><time>2026-05-02T14:22:41.037Z</time></trkpt><trkpt lat="43.9787513" lon="12.0263863"><ele>645.1666666666667</ele><time>2026-05-02T14:22:42.037Z</time></trkpt><trkpt lat="43.978688" lon="12.0262568"><ele>646.0</ele><time>2026-05-02T14:22:44.037Z</time></trkpt><trkpt lat="43.9786075" lon="12.0261318"><ele>646.0</ele><time>2026-05-02T14:22:46.038Z</time></trkpt><trkpt lat="43.9785283" lon="12.0260302"><ele>646.0</ele><time>2026-05-02T14:22:48.037Z</time></trkpt><trkpt lat="43.9784791" lon="12.025966"><ele>646.0</ele><time>2026-05-02T14:22:51.037Z</time></trkpt><trkpt lat="43.9784044" lon="12.0259253"><ele>646.0</ele><time>2026-05-02T14:23:21.037Z</time></trkpt><trkpt lat="43.9783433" lon="12.0258643"><ele>646.0</ele><time>2026-05-02T14:23:24.037Z</time></trkpt><trkpt lat="43.9783002" lon="12.0257995"><ele>646.0</ele><time>2026-05-02T14:23:28.037Z</time></trkpt><trkpt lat="43.9782474" lon="12.0257333"><ele>646.0000000000001</ele><time>2026-05-02T14:23:32.037Z</time></trkpt><trkpt lat="43.9781982" lon="12.0256615"><ele>646.0</ele><time>2026-05-02T14:23:35.037Z</time></trkpt><trkpt lat="43.978167" lon="12.025569"><ele>646.0</ele><time>2026-05-02T14:23:41.037Z</time></trkpt><trkpt lat="43.978219" lon="12.025642"><ele>646.0</ele><time>2026-05-02T14:23:58.038Z</time></trkpt><trkpt lat="43.9782479" lon="12.0257319"><ele>646.0</ele><time>2026-05-02T14:24:00.037Z</time></trkpt><trkpt lat="43.9782883" lon="12.0258117"><ele>646.0000000000001</ele><time>2026-05-02T14:24:02.038Z</time></trkpt><trkpt lat="43.9783397" lon="12.025873"><ele>646.0</ele><time>2026-05-02T14:24:04.037Z</time></trkpt><trkpt lat="43.9783983" lon="12.0259232"><ele>646.0</ele><time>2026-05-02T14:24:06.037Z</time></trkpt><trkpt lat="43.9784575" lon="12.0259718"><ele>646.0</ele><time>2026-05-02T14:24:08.037Z</time></trkpt><trkpt lat="43.9785213" lon="12.0260432"><ele>646.0</ele><time>2026-05-02T14:24:10.037Z</time></trkpt><trkpt lat="43.97861" lon="12.0261458"><ele>646.0</ele><time>2026-05-02T14:24:12.037Z</time></trkpt><trkpt lat="43.9786836" lon="12.0262554"><ele>646.0</ele><time>2026-05-02T14:24:14.037Z</time></trkpt><trkpt lat="43.9787252" lon="12.0263419"><ele>646.0</ele><time>2026-05-02T14:24:16.037Z</time></trkpt><trkpt lat="43.9787767" lon="12.0264401"><ele>646.0</ele><time>2026-05-02T14:24:18.037Z</time></trkpt><trkpt lat="43.9788523" lon="12.0265548"><ele>646.0</ele><time>2026-05-02T14:24:20.037Z</time></trkpt><trkpt lat="43.9788986" lon="12.0266264"><ele>646.0</ele><time>2026-05-02T14:24:21.037Z</time></trkpt><trkpt lat="43.9789477" lon="12.0267024"><ele>646.0</ele><time>2026-05-02T14:24:22.037Z</time></trkpt><trkpt lat="43.9789961" lon="12.0267697"><ele>646.0</ele><time>2026-05-02T14:24:23.037Z</time></trkpt><trkpt lat="43.9790478" lon="12.0268329"><ele>646.0</ele><time>2026-05-02T14:24:24.037Z</time></trkpt><trkpt lat="43.9791457" lon="12.0269224"><ele>645.1666666666667</ele><time>2026-05-02T14:24:26.037Z</time></trkpt><trkpt lat="43.9792248" lon="12.0269411"><ele>644.3333333333334</ele><time>2026-05-02T14:24:28.037Z</time></trkpt><trkpt lat="43.9793276" lon="12.0268933"><ele>643.5</ele><time>2026-05-02T14:24:30.037Z</time></trkpt><trkpt lat="43.9793948" lon="12.0268581"><ele>642.6666666666666</ele><time>2026-05-02T14:24:31.037Z</time></trkpt><trkpt lat="43.9794667" lon="12.0268342"><ele>641.8333333333333</ele><time>2026-05-02T14:24:32.038Z</time></trkpt><trkpt lat="43.9795389" lon="12.0268186"><ele>641.0</ele><time>2026-05-02T14:24:33.037Z</time></trkpt><trkpt lat="43.979603" lon="12.0268049"><ele>641.0</ele><time>2026-05-02T14:24:34.037Z</time></trkpt><trkpt lat="43.9797182" lon="12.0268039"><ele>641.0</ele><time>2026-05-02T14:24:36.037Z</time></trkpt><trkpt lat="43.9798006" lon="12.026788"><ele>641.0</ele><time>2026-05-02T14:24:38.037Z</time></trkpt><trkpt lat="43.9798617" lon="12.0267466"><ele>641.0</ele><time>2026-05-02T14:25:14.038Z</time></trkpt><trkpt lat="43.9799359" lon="12.0267433"><ele>641.0</ele><time>2026-05-02T14:25:16.037Z</time></trkpt><trkpt lat="43.9800673" lon="12.0267391"><ele>640.5</ele><time>2026-05-02T14:25:18.037Z</time></trkpt><trkpt lat="43.9801706" lon="12.0267651"><ele>640.0</ele><time>2026-05-02T14:25:20.037Z</time></trkpt><trkpt lat="43.9802329" lon="12.0268111"><ele>639.5</ele><time>2026-05-02T14:25:22.037Z</time></trkpt><trkpt lat="43.9802635" lon="12.0268976"><ele>639.0</ele><time>2026-05-02T14:25:25.037Z</time></trkpt><trkpt lat="43.9802432" lon="12.0270112"><ele>638.5</ele><time>2026-05-02T14:25:28.037Z</time></trkpt><trkpt lat="43.9802147" lon="12.0271147"><ele>638.0</ele><time>2026-05-02T14:25:31.038Z</time></trkpt><trkpt lat="43.9801492" lon="12.0271731"><ele>638.0</ele><time>2026-05-02T14:25:33.037Z</time></trkpt><trkpt lat="43.9800722" lon="12.0271893"><ele>638.0</ele><time>2026-05-02T14:25:34.038Z</time></trkpt><trkpt lat="43.9799672" lon="12.0271779"><ele>638.0</ele><time>2026-05-02T14:25:35.037Z</time></trkpt><trkpt lat="43.9798623" lon="12.0271691"><ele>638.0</ele><time>2026-05-02T14:25:36.037Z</time></trkpt><trkpt lat="43.9797674" lon="12.0271809"><ele>638.0</ele><time>2026-05-02T14:25:37.037Z</time></trkpt><trkpt lat="43.9796867" lon="12.0272114"><ele>638.5</ele><time>2026-05-02T14:25:38.037Z</time></trkpt><trkpt lat="43.9796191" lon="12.0272579"><ele>639.0</ele><time>2026-05-02T14:25:39.037Z</time></trkpt><trkpt lat="43.9795595" lon="12.0273236"><ele>639.5</ele><time>2026-05-02T14:25:40.037Z</time></trkpt><trkpt lat="43.9794951" lon="12.0274034"><ele>640.0</ele><time>2026-05-02T14:25:41.037Z</time></trkpt><trkpt lat="43.9794403" lon="12.0275063"><ele>640.5</ele><time>2026-05-02T14:25:42.036Z</time></trkpt><trkpt lat="43.9793827" lon="12.0276149"><ele>641.0</ele><time>2026-05-02T14:25:43.036Z</time></trkpt><trkpt lat="43.9793258" lon="12.0277175"><ele>642.0</ele><time>2026-05-02T14:25:44.036Z</time></trkpt><trkpt lat="43.9792686" lon="12.0278033"><ele>643.0</ele><time>2026-05-02T14:25:45.036Z</time></trkpt><trkpt lat="43.9791619" lon="12.0278746"><ele>644.0</ele><time>2026-05-02T14:25:47.037Z</time></trkpt><trkpt lat="43.9790536" lon="12.0278089"><ele>645.0</ele><time>2026-05-02T14:25:49.036Z</time></trkpt><trkpt lat="43.9789823" lon="12.0277364"><ele>646.0</ele><time>2026-05-02T14:25:50.036Z</time></trkpt><trkpt lat="43.9789059" lon="12.0276639"><ele>646.0</ele><time>2026-05-02T14:25:51.036Z</time></trkpt><trkpt lat="43.9788279" lon="12.027589"><ele>646.0</ele><time>2026-05-02T14:25:52.036Z</time></trkpt><trkpt lat="43.9787531" lon="12.0275056"><ele>646.0</ele><time>2026-05-02T14:25:53.036Z</time></trkpt><trkpt lat="43.9786857" lon="12.027424"><ele>646.0</ele><time>2026-05-02T14:25:54.036Z</time></trkpt><trkpt lat="43.9786276" lon="12.0273359"><ele>646.0</ele><time>2026-05-02T14:25:55.037Z</time></trkpt><trkpt lat="43.9785801" lon="12.0272454"><ele>646.0</ele><time>2026-05-02T14:25:56.036Z</time></trkpt><trkpt lat="43.97855" lon="12.027139"><ele>646.0</ele><time>2026-05-02T14:25:57.036Z</time></trkpt><trkpt lat="43.9785279" lon="12.0270227"><ele>646.0</ele><time>2026-05-02T14:25:58.036Z</time></trkpt><trkpt lat="43.9785054" lon="12.0269047"><ele>646.0</ele><time>2026-05-02T14:25:59.037Z</time></trkpt><trkpt lat="43.9784817" lon="12.0267899"><ele>646.0</ele><time>2026-05-02T14:26:00.036Z</time></trkpt><trkpt lat="43.9784455" lon="12.0266864"><ele>646.0</ele><time>2026-05-02T14:26:01.036Z</time></trkpt><trkpt lat="43.9783932" lon="12.0265981"><ele>646.0</ele><time>2026-05-02T14:26:02.036Z</time></trkpt><trkpt lat="43.9783183" lon="12.0265216"><ele>646.5999999999999</ele><time>2026-05-02T14:26:03.036Z</time></trkpt><trkpt lat="43.9782421" lon="12.0264483"><ele>647.2</ele><time>2026-05-02T14:26:04.036Z</time></trkpt><trkpt lat="43.9781567" lon="12.0263807"><ele>647.8</ele><time>2026-05-02T14:26:05.036Z</time></trkpt><trkpt lat="43.9780666" lon="12.0263018"><ele>648.4000000000001</ele><time>2026-05-02T14:26:06.037Z</time></trkpt><trkpt lat="43.9779774" lon="12.0262205"><ele>649.0</ele><time>2026-05-02T14:26:07.036Z</time></trkpt><trkpt lat="43.9778958" lon="12.0261465"><ele>649.0</ele><time>2026-05-02T14:26:08.036Z</time></trkpt><trkpt lat="43.9778191" lon="12.0260694"><ele>649.0</ele><time>2026-05-02T14:26:09.037Z</time></trkpt><trkpt lat="43.9777469" lon="12.0259939"><ele>649.0</ele><time>2026-05-02T14:26:10.036Z</time></trkpt><trkpt lat="43.9776886" lon="12.0259128"><ele>649.0</ele><time>2026-05-02T14:26:11.037Z</time></trkpt><trkpt lat="43.9776363" lon="12.0258194"><ele>649.0</ele><time>2026-05-02T14:26:12.036Z</time></trkpt><trkpt lat="43.9775944" lon="12.025707"><ele>649.0</ele><time>2026-05-02T14:26:13.037Z</time></trkpt><trkpt lat="43.9775585" lon="12.0255823"><ele>648.8000000000001</ele><time>2026-05-02T14:26:14.036Z</time></trkpt><trkpt lat="43.9775258" lon="12.0254581"><ele>648.6</ele><time>2026-05-02T14:26:15.036Z</time></trkpt><trkpt lat="43.9774892" lon="12.0253405"><ele>648.4</ele><time>2026-05-02T14:26:16.036Z</time></trkpt><trkpt lat="43.9774404" lon="12.0252316"><ele>648.2</ele><time>2026-05-02T14:26:17.036Z</time></trkpt><trkpt lat="43.9773712" lon="12.0251445"><ele>648.0</ele><time>2026-05-02T14:26:18.036Z</time></trkpt><trkpt lat="43.9772849" lon="12.0250827"><ele>643.1999999999999</ele><time>2026-05-02T14:26:19.036Z</time></trkpt><trkpt lat="43.9771919" lon="12.0250268"><ele>638.4</ele><time>2026-05-02T14:26:20.036Z</time></trkpt><trkpt lat="43.9770906" lon="12.0249811"><ele>633.5999999999999</ele><time>2026-05-02T14:26:21.036Z</time></trkpt><trkpt lat="43.976991" lon="12.0249344"><ele>628.8</ele><time>2026-05-02T14:26:22.036Z</time></trkpt><trkpt lat="43.976892" lon="12.0248805"><ele>624.0</ele><time>2026-05-02T14:26:23.036Z</time></trkpt><trkpt lat="43.976797" lon="12.0248154"><ele>622.8</ele><time>2026-05-02T14:26:24.036Z</time></trkpt><trkpt lat="43.9767097" lon="12.024741"><ele>621.5999999999999</ele><time>2026-05-02T14:26:25.036Z</time></trkpt><trkpt lat="43.976625" lon="12.0246577"><ele>620.4</ele><time>2026-05-02T14:26:26.037Z</time></trkpt><trkpt lat="43.9765412" lon="12.0245739"><ele>619.1999999999999</ele><time>2026-05-02T14:26:27.036Z</time></trkpt><trkpt lat="43.9764596" lon="12.0244935"><ele>618.0</ele><time>2026-05-02T14:26:28.036Z</time></trkpt><trkpt lat="43.976382" lon="12.024418"><ele>616.5</ele><time>2026-05-02T14:26:29.037Z</time></trkpt><trkpt lat="43.9763072" lon="12.0243633"><ele>615.0</ele><time>2026-05-02T14:26:30.036Z</time></trkpt><trkpt lat="43.9762239" lon="12.0243383"><ele>613.5</ele><time>2026-05-02T14:26:31.037Z</time></trkpt><trkpt lat="43.9761372" lon="12.0243389"><ele>612.0</ele><time>2026-05-02T14:26:32.036Z</time></trkpt><trkpt lat="43.976053" lon="12.0243496"><ele>610.5</ele><time>2026-05-02T14:26:33.036Z</time></trkpt><trkpt lat="43.9759667" lon="12.0243632"><ele>609.0</ele><time>2026-05-02T14:26:34.036Z</time></trkpt><trkpt lat="43.9758818" lon="12.0243726"><ele>608.2</ele><time>2026-05-02T14:26:35.036Z</time></trkpt><trkpt lat="43.9757953" lon="12.0243557"><ele>607.4</ele><time>2026-05-02T14:26:36.036Z</time></trkpt><trkpt lat="43.975714" lon="12.0243105"><ele>606.6</ele><time>2026-05-02T14:26:37.036Z</time></trkpt><trkpt lat="43.9756353" lon="12.0242256"><ele>605.8</ele><time>2026-05-02T14:26:38.036Z</time></trkpt><trkpt lat="43.9755709" lon="12.024111"><ele>605.0</ele><time>2026-05-02T14:26:39.036Z</time></trkpt><trkpt lat="43.9755063" lon="12.0239864"><ele>600.5</ele><time>2026-05-02T14:26:40.036Z</time></trkpt><trkpt lat="43.9754362" lon="12.0238463"><ele>596.0</ele><time>2026-05-02T14:26:41.036Z</time></trkpt><trkpt lat="43.9753711" lon="12.023718"><ele>591.5</ele><time>2026-05-02T14:26:42.037Z</time></trkpt><trkpt lat="43.9752979" lon="12.0235995"><ele>587.0</ele><time>2026-05-02T14:26:43.036Z</time></trkpt><trkpt lat="43.9752142" lon="12.0234861"><ele>587.0</ele><time>2026-05-02T14:26:44.036Z</time></trkpt><trkpt lat="43.9751201" lon="12.0233907"><ele>587.0</ele><time>2026-05-02T14:26:45.036Z</time></trkpt><trkpt lat="43.9750113" lon="12.0233125"><ele>587.0</ele><time>2026-05-02T14:26:46.036Z</time></trkpt><trkpt lat="43.9748924" lon="12.0232508"><ele>587.0</ele><time>2026-05-02T14:26:47.036Z</time></trkpt><trkpt lat="43.9747768" lon="12.0232004"><ele>588.5</ele><time>2026-05-02T14:26:48.037Z</time></trkpt><trkpt lat="43.9746715" lon="12.0231589"><ele>590.0</ele><time>2026-05-02T14:26:49.036Z</time></trkpt><trkpt lat="43.9745788" lon="12.0230998"><ele>591.5</ele><time>2026-05-02T14:26:50.036Z</time></trkpt><trkpt lat="43.9744915" lon="12.0229967"><ele>593.0</ele><time>2026-05-02T14:26:51.036Z</time></trkpt><trkpt lat="43.9743861" lon="12.0228183"><ele>593.0</ele><time>2026-05-02T14:26:52.036Z</time></trkpt><trkpt lat="43.9742696" lon="12.0226166"><ele>593.0</ele><time>2026-05-02T14:26:53.036Z</time></trkpt><trkpt lat="43.9741523" lon="12.0224054"><ele>593.0</ele><time>2026-05-02T14:26:54.036Z</time></trkpt><trkpt lat="43.9740406" lon="12.0222123"><ele>594.3333333333333</ele><time>2026-05-02T14:26:55.036Z</time></trkpt><trkpt lat="43.9739365" lon="12.0220406"><ele>595.6666666666666</ele><time>2026-05-02T14:26:56.036Z</time></trkpt><trkpt lat="43.9738422" lon="12.021884"><ele>597.0</ele><time>2026-05-02T14:26:57.036Z</time></trkpt><trkpt lat="43.973746" lon="12.0217253"><ele>594.25</ele><time>2026-05-02T14:26:58.036Z</time></trkpt><trkpt lat="43.97365" lon="12.0215666"><ele>591.5</ele><time>2026-05-02T14:26:59.036Z</time></trkpt><trkpt lat="43.9735613" lon="12.0214153"><ele>588.75</ele><time>2026-05-02T14:27:00.036Z</time></trkpt><trkpt lat="43.9734718" lon="12.0212689"><ele>586.0</ele><time>2026-05-02T14:27:01.037Z</time></trkpt><trkpt lat="43.973378" lon="12.0211294"><ele>597.0</ele><time>2026-05-02T14:27:02.036Z</time></trkpt><trkpt lat="43.9732699" lon="12.0210072"><ele>608.0</ele><time>2026-05-02T14:27:03.036Z</time></trkpt><trkpt lat="43.9767097" lon="12.024741"><ele>608.1999999999999</ele><time>2026-05-02T14:26:25.036Z</time></trkpt><trkpt lat="43.976625" lon="12.0246577"><ele>608.4</ele><time>2026-05-02T14:26:26.037Z</time></trkpt><trkpt lat="43.9765412" lon="12.0245739"><ele>608.5999999999999</ele><time>2026-05-02T14:26:27.036Z</time></trkpt><trkpt lat="43.9764596" lon="12.0244935"><ele>608.8</ele><time>2026-05-02T14:26:28.036Z</time></trkpt><trkpt lat="43.976382" lon="12.024418"><ele>609.0</ele><time>2026-05-02T14:26:29.037Z</time></trkpt><trkpt lat="43.9763072" lon="12.0243633"><ele>609.0</ele><time>2026-05-02T14:26:30.036Z</time></trkpt><trkpt lat="43.9762239" lon="12.0243383"><ele>609.0</ele><time>2026-05-02T14:26:31.037Z</time></trkpt><trkpt lat="43.9761372" lon="12.0243389"><ele>609.0</ele><time>2026-05-02T14:26:32.036Z</time></trkpt><trkpt lat="43.976053" lon="12.0243496"><ele>609.0</ele><time>2026-05-02T14:26:33.036Z</time></trkpt><trkpt lat="43.9759667" lon="12.0243632"><ele>609.0</ele><time>2026-05-02T14:26:34.036Z</time></trkpt><trkpt lat="43.9758818" lon="12.0243726"><ele>609.0</ele><time>2026-05-02T14:26:35.036Z</time></trkpt><trkpt lat="43.9757953" lon="12.0243557"><ele>608.2</ele><time>2026-05-02T14:26:36.036Z</time></trkpt><trkpt lat="43.975714" lon="12.0243105"><ele>607.4</ele><time>2026-05-02T14:26:37.036Z</time></trkpt><trkpt lat="43.9756353" lon="12.0242256"><ele>606.6</ele><time>2026-05-02T14:26:38.036Z</time></trkpt><trkpt lat="43.9755709" lon="12.024111"><ele>605.8</ele><time>2026-05-02T14:26:39.036Z</time></trkpt><trkpt lat="43.9755063" lon="12.0239864"><ele>605.0</ele><time>2026-05-02T14:26:40.036Z</time></trkpt><trkpt lat="43.9754362" lon="12.0238463"><ele>600.5</ele><time>2026-05-02T14:26:41.036Z</time></trkpt><trkpt lat="43.9753711" lon="12.023718"><ele>596.0</ele><time>2026-05-02T14:26:42.037Z</time></trkpt><trkpt lat="43.9752979" lon="12.0235995"><ele>591.5</ele><time>2026-05-02T14:26:43.036Z</time></trkpt><trkpt lat="43.9752142" lon="12.0234861"><ele>587.0</ele><time>2026-05-02T14:26:44.036Z</time></trkpt><trkpt lat="43.9751201" lon="12.0233907"><ele>588.5</ele><time>2026-05-02T14:26:45.036Z</time></trkpt><trkpt lat="43.9750113" lon="12.0233125"><ele>590.0</ele><time>2026-05-02T14:26:46.036Z</time></trkpt><trkpt lat="43.9748924" lon="12.0232508"><ele>591.5</ele><time>2026-05-02T14:26:47.036Z</time></trkpt><trkpt lat="43.9747768" lon="12.0232004"><ele>593.0</ele><time>2026-05-02T14:26:48.037Z</time></trkpt><trkpt lat="43.9746715" lon="12.0231589"><ele>593.0</ele><time>2026-05-02T14:26:49.036Z</time></trkpt><trkpt lat="43.9745788" lon="12.0230998"><ele>593.0</ele><time>2026-05-02T14:26:50.036Z</time></trkpt><trkpt lat="43.9744915" lon="12.0229967"><ele>593.0</ele><time>2026-05-02T14:26:51.036Z</time></trkpt><trkpt lat="43.9743861" lon="12.0228183"><ele>593.0</ele><time>2026-05-02T14:26:52.036Z</time></trkpt><trkpt lat="43.9742696" lon="12.0226166"><ele>594.3333333333333</ele><time>2026-05-02T14:26:53.036Z</time></trkpt><trkpt lat="43.9741523" lon="12.0224054"><ele>595.6666666666666</ele><time>2026-05-02T14:26:54.036Z</time></trkpt><trkpt lat="43.9740406" lon="12.0222123"><ele>597.0</ele><time>2026-05-02T14:26:55.036Z</time></trkpt><trkpt lat="43.9739365" lon="12.0220406"><ele>597.0</ele><time>2026-05-02T14:26:56.036Z</time></trkpt><trkpt lat="43.9738422" lon="12.021884"><ele>597.0</ele><time>2026-05-02T14:26:57.036Z</time></trkpt><trkpt lat="43.973746" lon="12.0217253"><ele>597.0</ele><time>2026-05-02T14:26:58.036Z</time></trkpt><trkpt lat="43.97365" lon="12.0215666"><ele>597.0</ele><time>2026-05-02T14:26:59.036Z</time></trkpt><trkpt lat="43.9735613" lon="12.0214153"><ele>594.25</ele><time>2026-05-02T14:27:00.036Z</time></trkpt><trkpt lat="43.9734718" lon="12.0212689"><ele>591.5</ele><time>2026-05-02T14:27:01.037Z</time></trkpt><trkpt lat="43.973378" lon="12.0211294"><ele>588.75</ele><time>2026-05-02T14:27:02.036Z</time></trkpt><trkpt lat="43.9732699" lon="12.0210072"><ele>586.0</ele><time>2026-05-02T14:27:03.036Z</time></trkpt><trkpt lat="43.9731518" lon="12.0208911"><ele>595.0</ele><time>2026-05-02T14:27:04.036Z</time></trkpt><trkpt lat="43.9730303" lon="12.0207844"><ele>604.0</ele><time>2026-05-02T14:27:05.036Z</time></trkpt><trkpt lat="43.9729096" lon="12.0206865"><ele>613.0</ele><time>2026-05-02T14:27:06.036Z</time></trkpt><trkpt lat="43.9727945" lon="12.0205843"><ele>622.0</ele><time>2026-05-02T14:27:07.036Z</time></trkpt><trkpt lat="43.9726778" lon="12.0204797"><ele>622.0</ele><time>2026-05-02T14:27:08.036Z</time></trkpt><trkpt lat="43.9725615" lon="12.0203734"><ele>622.0</ele><time>2026-05-02T14:27:09.036Z</time></trkpt><trkpt lat="43.9724454" lon="12.0202714"><ele>622.0</ele><time>2026-05-02T14:27:10.036Z</time></trkpt><trkpt lat="43.9723408" lon="12.020176"><ele>622.0</ele><time>2026-05-02T14:27:11.036Z</time></trkpt><trkpt lat="43.9722394" lon="12.0200874"><ele>625.0</ele><time>2026-05-02T14:27:12.036Z</time></trkpt><trkpt lat="43.9721446" lon="12.0200092"><ele>628.0</ele><time>2026-05-02T14:27:13.037Z</time></trkpt><trkpt lat="43.9720532" lon="12.0199297"><ele>631.0</ele><time>2026-05-02T14:27:14.036Z</time></trkpt><trkpt lat="43.9719699" lon="12.0198475"><ele>634.0</ele><time>2026-05-02T14:27:15.036Z</time></trkpt><trkpt lat="43.9718885" lon="12.019751"><ele>637.0</ele><time>2026-05-02T14:27:16.036Z</time></trkpt><trkpt lat="43.9718252" lon="12.019653"><ele>639.0</ele><time>2026-05-02T14:27:17.036Z</time></trkpt><trkpt lat="43.9717711" lon="12.0195434"><ele>641.0</ele><time>2026-05-02T14:27:18.036Z</time></trkpt><trkpt lat="43.9717336" lon="12.019427"><ele>643.0</ele><time>2026-05-02T14:27:19.036Z</time></trkpt><trkpt lat="43.9716954" lon="12.0193073"><ele>645.0</ele><time>2026-05-02T14:27:20.037Z</time></trkpt><trkpt lat="43.971651" lon="12.019203"><ele>647.0</ele><time>2026-05-02T14:27:21.037Z</time></trkpt><trkpt lat="43.971594" lon="12.019109"><ele>652.8</ele><time>2026-05-02T14:27:22.036Z</time></trkpt><trkpt lat="43.971523" lon="12.0190258"><ele>658.6</ele><time>2026-05-02T14:27:23.036Z</time></trkpt><trkpt lat="43.9714375" lon="12.0189682"><ele>664.4</ele><time>2026-05-02T14:27:24.037Z</time></trkpt><trkpt lat="43.9713339" lon="12.0189348"><ele>670.1999999999999</ele><time>2026-05-02T14:27:25.036Z</time></trkpt><trkpt lat="43.9712267" lon="12.0189197"><ele>676.0</ele><time>2026-05-02T14:27:26.036Z</time></trkpt><trkpt lat="43.9711176" lon="12.0189115"><ele>676.0</ele><time>2026-05-02T14:27:27.036Z</time></trkpt><trkpt lat="43.9710125" lon="12.0189198"><ele>676.0</ele><time>2026-05-02T14:27:28.036Z</time></trkpt><trkpt lat="43.9709053" lon="12.0189455"><ele>676.0</ele><time>2026-05-02T14:27:29.037Z</time></trkpt><trkpt lat="43.9707972" lon="12.0189827"><ele>676.0</ele><time>2026-05-02T14:27:30.036Z</time></trkpt><trkpt lat="43.9706927" lon="12.0190227"><ele>676.0</ele><time>2026-05-02T14:27:31.037Z</time></trkpt><trkpt lat="43.9705911" lon="12.0190782"><ele>676.1999999999999</ele><time>2026-05-02T14:27:32.036Z</time></trkpt><trkpt lat="43.9704924" lon="12.0191358"><ele>676.4</ele><time>2026-05-02T14:27:33.036Z</time></trkpt><trkpt lat="43.9703882" lon="12.0191994"><ele>676.6</ele><time>2026-05-02T14:27:34.036Z</time></trkpt><trkpt lat="43.970281" lon="12.0192451"><ele>676.8</ele><time>2026-05-02T14:27:35.036Z</time></trkpt><trkpt lat="43.9701737" lon="12.0192554"><ele>677.0</ele><time>2026-05-02T14:27:36.036Z</time></trkpt><trkpt lat="43.9700625" lon="12.0192295"><ele>678.0</ele><time>2026-05-02T14:27:37.037Z</time></trkpt><trkpt lat="43.9699633" lon="12.0191922"><ele>679.0</ele><time>2026-05-02T14:27:38.036Z</time></trkpt><trkpt lat="43.9698619" lon="12.0191547"><ele>680.0</ele><time>2026-05-02T14:27:39.036Z</time></trkpt><trkpt lat="43.9697574" lon="12.0191383"><ele>681.0</ele><time>2026-05-02T14:27:40.036Z</time></trkpt><trkpt lat="43.9696428" lon="12.0191596"><ele>682.0</ele><time>2026-05-02T14:27:41.036Z</time></trkpt><trkpt lat="43.969539" lon="12.0191897"><ele>682.0</ele><time>2026-05-02T14:27:42.036Z</time></trkpt><trkpt lat="43.969444" lon="12.0192225"><ele>682.0</ele><time>2026-05-02T14:27:43.036Z</time></trkpt><trkpt lat="43.9693616" lon="12.0192502"><ele>682.0</ele><time>2026-05-02T14:27:44.036Z</time></trkpt><trkpt lat="43.9692826" lon="12.0192517"><ele>682.0</ele><time>2026-05-02T14:27:45.036Z</time></trkpt><trkpt lat="43.9692144" lon="12.0192327"><ele>682.0</ele><time>2026-05-02T14:27:46.036Z</time></trkpt><trkpt lat="43.9691653" lon="12.019102"><ele>682.0</ele><time>2026-05-02T14:27:48.036Z</time></trkpt><trkpt lat="43.9691925" lon="12.0190185"><ele>682.0</ele><time>2026-05-02T14:27:49.036Z</time></trkpt><trkpt lat="43.9692519" lon="12.0189636"><ele>682.0</ele><time>2026-05-02T14:27:50.036Z</time></trkpt><trkpt lat="43.9693316" lon="12.0189439"><ele>682.0</ele><time>2026-05-02T14:27:51.036Z</time></trkpt><trkpt lat="43.9694102" lon="12.0189476"><ele>682.0</ele><time>2026-05-02T14:27:52.037Z</time></trkpt><trkpt lat="43.9694902" lon="12.018953"><ele>682.0</ele><time>2026-05-02T14:27:53.036Z</time></trkpt><trkpt lat="43.9695862" lon="12.0189492"><ele>682.0</ele><time>2026-05-02T14:27:54.036Z</time></trkpt><trkpt lat="43.9696949" lon="12.0189188"><ele>682.0</ele><time>2026-05-02T14:27:55.037Z</time></trkpt><trkpt lat="43.9698335" lon="12.0188731"><ele>682.0</ele><time>2026-05-02T14:27:56.036Z</time></trkpt><trkpt lat="43.9699819" lon="12.0188115"><ele>682.0</ele><time>2026-05-02T14:27:57.036Z</time></trkpt><trkpt lat="43.9701285" lon="12.0187413"><ele>680.3333333333334</ele><time>2026-05-02T14:27:58.036Z</time></trkpt><trkpt lat="43.9702893" lon="12.0186566"><ele>678.6666666666666</ele><time>2026-05-02T14:27:59.036Z</time></trkpt><trkpt lat="43.9704678" lon="12.0185641"><ele>677.0</ele><time>2026-05-02T14:28:00.036Z</time></trkpt><trkpt lat="43.9706378" lon="12.0184717"><ele>677.0</ele><time>2026-05-02T14:28:01.036Z</time></trkpt><trkpt lat="43.9708006" lon="12.0183845"><ele>677.0</ele><time>2026-05-02T14:28:02.036Z</time></trkpt><trkpt lat="43.9709447" lon="12.0183151"><ele>677.0</ele><time>2026-05-02T14:28:03.036Z</time></trkpt><trkpt lat="43.9710716" lon="12.0182609"><ele>676.4000000000001</ele><time>2026-05-02T14:28:04.036Z</time></trkpt><trkpt lat="43.9711826" lon="12.0182092"><ele>675.8000000000001</ele><time>2026-05-02T14:28:05.036Z</time></trkpt><trkpt lat="43.9712713" lon="12.0181764"><ele>675.2</ele><time>2026-05-02T14:28:06.036Z</time></trkpt><trkpt lat="43.9713427" lon="12.0181574"><ele>674.6</ele><time>2026-05-02T14:28:07.036Z</time></trkpt><trkpt lat="43.971437" lon="12.01809"><ele>674.0</ele><time>2026-05-02T14:28:09.036Z</time></trkpt><trkpt lat="43.971443" lon="12.0179421"><ele>674.0</ele><time>2026-05-02T14:28:11.037Z</time></trkpt><trkpt lat="43.9714093" lon="12.0178506"><ele>674.0</ele><time>2026-05-02T14:28:12.036Z</time></trkpt><trkpt lat="43.9713434" lon="12.0177727"><ele>674.0</ele><time>2026-05-02T14:28:13.036Z</time></trkpt><trkpt lat="43.9712571" lon="12.0177127"><ele>674.0</ele><time>2026-05-02T14:28:14.036Z</time></trkpt><trkpt lat="43.971153" lon="12.017688"><ele>674.0</ele><time>2026-05-02T14:28:15.036Z</time></trkpt><trkpt lat="43.9710446" lon="12.0176945"><ele>674.0</ele><time>2026-05-02T14:28:16.037Z</time></trkpt><trkpt lat="43.9709311" lon="12.0177301"><ele>674.0</ele><time>2026-05-02T14:28:17.036Z</time></trkpt><trkpt lat="43.9707985" lon="12.0177976"><ele>674.0</ele><time>2026-05-02T14:28:18.036Z</time></trkpt><trkpt lat="43.970643" lon="12.0178865"><ele>674.0</ele><time>2026-05-02T14:28:19.036Z</time></trkpt><trkpt lat="43.9704882" lon="12.0179763"><ele>674.0</ele><time>2026-05-02T14:28:20.036Z</time></trkpt><trkpt lat="43.970351" lon="12.0180433"><ele>674.0</ele><time>2026-05-02T14:28:21.036Z</time></trkpt><trkpt lat="43.9702308" lon="12.0180882"><ele>674.0</ele><time>2026-05-02T14:28:22.036Z</time></trkpt><trkpt lat="43.9701125" lon="12.0181131"><ele>674.0</ele><time>2026-05-02T14:28:23.036Z</time></trkpt><trkpt lat="43.9700067" lon="12.0181034"><ele>674.8000000000001</ele><time>2026-05-02T14:28:24.037Z</time></trkpt><trkpt lat="43.9699134" lon="12.0180845"><ele>675.6</ele><time>2026-05-02T14:28:25.036Z</time></trkpt><trkpt lat="43.9698385" lon="12.0180599"><ele>676.4</ele><time>2026-05-02T14:28:26.036Z</time></trkpt><trkpt lat="43.9697798" lon="12.0180238"><ele>677.2</ele><time>2026-05-02T14:28:27.036Z</time></trkpt><trkpt lat="43.96965" lon="12.0179195"><ele>678.0</ele><time>2026-05-02T14:28:29.037Z</time></trkpt><trkpt lat="43.9695621" lon="12.0178325"><ele>678.0</ele><time>2026-05-02T14:28:30.036Z</time></trkpt><trkpt lat="43.9694783" lon="12.0177442"><ele>678.0</ele><time>2026-05-02T14:28:31.036Z</time></trkpt><trkpt lat="43.9693982" lon="12.0176698"><ele>678.0</ele><time>2026-05-02T14:28:32.036Z</time></trkpt><trkpt lat="43.9693165" lon="12.0176065"><ele>678.0</ele><time>2026-05-02T14:28:33.037Z</time></trkpt><trkpt lat="43.9692279" lon="12.0175688"><ele>678.0</ele><time>2026-05-02T14:28:34.036Z</time></trkpt><trkpt lat="43.969135" lon="12.0175301"><ele>678.4</ele><time>2026-05-02T14:28:35.036Z</time></trkpt><trkpt lat="43.969048" lon="12.0174585"><ele>678.8</ele><time>2026-05-02T14:28:36.036Z</time></trkpt><trkpt lat="43.9689609" lon="12.0173492"><ele>679.2</ele><time>2026-05-02T14:28:37.037Z</time></trkpt><trkpt lat="43.968877" lon="12.0172316"><ele>679.6</ele><time>2026-05-02T14:28:38.036Z</time></trkpt><trkpt lat="43.9688061" lon="12.0171323"><ele>680.0</ele><time>2026-05-02T14:28:39.036Z</time></trkpt><trkpt lat="43.9687478" lon="12.0170411"><ele>680.0</ele><time>2026-05-02T14:28:40.037Z</time></trkpt><trkpt lat="43.968699" lon="12.016948"><ele>680.0</ele><time>2026-05-02T14:28:41.036Z</time></trkpt><trkpt lat="43.9686763" lon="12.0168299"><ele>680.0</ele><time>2026-05-02T14:28:42.036Z</time></trkpt><trkpt lat="43.9686691" lon="12.0166707"><ele>680.0</ele><time>2026-05-02T14:28:43.036Z</time></trkpt><trkpt lat="43.9686703" lon="12.0164981"><ele>680.0</ele><time>2026-05-02T14:28:44.036Z</time></trkpt><trkpt lat="43.9686665" lon="12.0163325"><ele>678.0</ele><time>2026-05-02T14:28:45.036Z</time></trkpt><trkpt lat="43.9686515" lon="12.0161877"><ele>676.0</ele><time>2026-05-02T14:28:46.036Z</time></trkpt><trkpt lat="43.9686403" lon="12.0160385"><ele>674.0</ele><time>2026-05-02T14:28:47.036Z</time></trkpt><trkpt lat="43.9686402" lon="12.0158764"><ele>672.0</ele><time>2026-05-02T14:28:48.036Z</time></trkpt><trkpt lat="43.9686448" lon="12.0157016"><ele>670.2</ele><time>2026-05-02T14:28:49.036Z</time></trkpt><trkpt lat="43.9686345" lon="12.0155439"><ele>668.4000000000001</ele><time>2026-05-02T14:28:50.036Z</time></trkpt><trkpt lat="43.9686293" lon="12.0153972"><ele>666.5999999999999</ele><time>2026-05-02T14:28:51.036Z</time></trkpt><trkpt lat="43.9686345" lon="12.0152708"><ele>664.8</ele><time>2026-05-02T14:28:52.036Z</time></trkpt><trkpt lat="43.9686369" lon="12.0151523"><ele>663.0</ele><time>2026-05-02T14:28:53.036Z</time></trkpt><trkpt lat="43.9686135" lon="12.0150413"><ele>660.2</ele><time>2026-05-02T14:28:54.036Z</time></trkpt><trkpt lat="43.9685584" lon="12.014956"><ele>657.4</ele><time>2026-05-02T14:28:55.036Z</time></trkpt><trkpt lat="43.968474" lon="12.0148931"><ele>654.6</ele><time>2026-05-02T14:28:56.036Z</time></trkpt><trkpt lat="43.9683809" lon="12.0148338"><ele>651.8000000000001</ele><time>2026-05-02T14:28:57.037Z</time></trkpt><trkpt lat="43.9682877" lon="12.0147847"><ele>649.0</ele><time>2026-05-02T14:28:58.036Z</time></trkpt><trkpt lat="43.9682136" lon="12.0147085"><ele>654.4000000000001</ele><time>2026-05-02T14:28:59.036Z</time></trkpt><trkpt lat="43.9681724" lon="12.0145902"><ele>659.8</ele><time>2026-05-02T14:29:00.036Z</time></trkpt><trkpt lat="43.9681582" lon="12.0144508"><ele>665.2</ele><time>2026-05-02T14:29:01.036Z</time></trkpt><trkpt lat="43.9681383" lon="12.0143225"><ele>670.5999999999999</ele><time>2026-05-02T14:29:02.036Z</time></trkpt><trkpt lat="43.9680944" lon="12.0142029"><ele>676.0</ele><time>2026-05-02T14:29:03.037Z</time></trkpt><trkpt lat="43.9680229" lon="12.0140861"><ele>676.0</ele><time>2026-05-02T14:29:04.036Z</time></trkpt><trkpt lat="43.9679179" lon="12.0139679"><ele>676.0</ele><time>2026-05-02T14:29:05.036Z</time></trkpt><trkpt lat="43.9678129" lon="12.013845"><ele>676.0</ele><time>2026-05-02T14:29:06.036Z</time></trkpt><trkpt lat="43.9677214" lon="12.0137195"><ele>676.0</ele><time>2026-05-02T14:29:07.036Z</time></trkpt><trkpt lat="43.9676398" lon="12.0135962"><ele>676.0</ele><time>2026-05-02T14:29:08.036Z</time></trkpt><trkpt lat="43.967556" lon="12.013491"><ele>676.0</ele><time>2026-05-02T14:29:09.036Z</time></trkpt><trkpt lat="43.9674774" lon="12.0134026"><ele>676.0</ele><time>2026-05-02T14:29:10.036Z</time></trkpt><trkpt lat="43.9673935" lon="12.0133233"><ele>676.0</ele><time>2026-05-02T14:29:11.036Z</time></trkpt><trkpt lat="43.9673114" lon="12.013256"><ele>676.0</ele><time>2026-05-02T14:29:12.036Z</time></trkpt><trkpt lat="43.9672413" lon="12.0131631"><ele>675.5</ele><time>2026-05-02T14:29:13.036Z</time></trkpt><trkpt lat="43.9671888" lon="12.0130385"><ele>675.0</ele><time>2026-05-02T14:29:14.036Z</time></trkpt><trkpt lat="43.9671365" lon="12.0128863"><ele>674.5</ele><time>2026-05-02T14:29:15.036Z</time></trkpt><trkpt lat="43.9670894" lon="12.0127353"><ele>674.0</ele><time>2026-05-02T14:29:16.037Z</time></trkpt><trkpt lat="43.9670423" lon="12.0126011"><ele>674.0</ele><time>2026-05-02T14:29:17.036Z</time></trkpt><trkpt lat="43.9669788" lon="12.0124918"><ele>674.0</ele><time>2026-05-02T14:29:18.036Z</time></trkpt><trkpt lat="43.9669003" lon="12.0123966"><ele>674.0</ele><time>2026-05-02T14:29:19.036Z</time></trkpt><trkpt lat="43.9668327" lon="12.0123012"><ele>674.0</ele><time>2026-05-02T14:29:20.036Z</time></trkpt><trkpt lat="43.9667833" lon="12.0121744"><ele>674.0</ele><time>2026-05-02T14:29:21.036Z</time></trkpt><trkpt lat="43.9667529" lon="12.0120275"><ele>675.5</ele><time>2026-05-02T14:29:22.036Z</time></trkpt><trkpt lat="43.9667115" lon="12.0118943"><ele>677.0</ele><time>2026-05-02T14:29:23.036Z</time></trkpt><trkpt lat="43.9666462" lon="12.0117523"><ele>678.5</ele><time>2026-05-02T14:29:24.036Z</time></trkpt><trkpt lat="43.9665378" lon="12.0115873"><ele>680.0</ele><time>2026-05-02T14:29:25.036Z</time></trkpt><trkpt lat="43.9664211" lon="12.011418"><ele>680.0</ele><time>2026-05-02T14:29:26.036Z</time></trkpt><trkpt lat="43.9663232" lon="12.0112605"><ele>680.0</ele><time>2026-05-02T14:29:27.036Z</time></trkpt><trkpt lat="43.9662511" lon="12.0111248"><ele>680.0</ele><time>2026-05-02T14:29:28.036Z</time></trkpt><trkpt lat="43.9661949" lon="12.0110028"><ele>680.0</ele><time>2026-05-02T14:29:29.036Z</time></trkpt><trkpt lat="43.9661629" lon="12.0108833"><ele>679.3333333333333</ele><time>2026-05-02T14:29:30.036Z</time></trkpt><trkpt lat="43.9661566" lon="12.0107628"><ele>678.6666666666666</ele><time>2026-05-02T14:29:31.037Z</time></trkpt><trkpt lat="43.9661694" lon="12.0106396"><ele>678.0</ele><time>2026-05-02T14:29:32.037Z</time></trkpt><trkpt lat="43.9661953" lon="12.0105213"><ele>677.3333333333334</ele><time>2026-05-02T14:29:33.036Z</time></trkpt><trkpt lat="43.9662227" lon="12.010398"><ele>676.6666666666667</ele><time>2026-05-02T14:29:34.036Z</time></trkpt><trkpt lat="43.9662414" lon="12.0102963"><ele>676.0</ele><time>2026-05-02T14:29:35.036Z</time></trkpt><trkpt lat="43.9662467" lon="12.0102078"><ele>676.0</ele><time>2026-05-02T14:29:36.037Z</time></trkpt><trkpt lat="43.9662177" lon="12.0100694"><ele>676.0</ele><time>2026-05-02T14:29:38.036Z</time></trkpt><trkpt lat="43.9661834" lon="12.0099954"><ele>676.0</ele><time>2026-05-02T14:29:39.036Z</time></trkpt><trkpt lat="43.9661442" lon="12.0099257"><ele>676.0</ele><time>2026-05-02T14:29:40.036Z</time></trkpt><trkpt lat="43.9661019" lon="12.0098555"><ele>676.0</ele><time>2026-05-02T14:29:41.036Z</time></trkpt><trkpt lat="43.9660605" lon="12.0097854"><ele>676.0</ele><time>2026-05-02T14:29:42.036Z</time></trkpt><trkpt lat="43.9660169" lon="12.0097086"><ele>676.0</ele><time>2026-05-02T14:29:43.036Z</time></trkpt><trkpt lat="43.9659768" lon="12.0096329"><ele>675.0</ele><time>2026-05-02T14:29:44.036Z</time></trkpt><trkpt lat="43.9659381" lon="12.0095589"><ele>674.0</ele><time>2026-05-02T14:29:45.036Z</time></trkpt><trkpt lat="43.9658979" lon="12.0094785"><ele>673.0</ele><time>2026-05-02T14:29:46.036Z</time></trkpt><trkpt lat="43.9658649" lon="12.0093955"><ele>672.0</ele><time>2026-05-02T14:29:47.036Z</time></trkpt><trkpt lat="43.9658402" lon="12.0093043"><ele>671.0</ele><time>2026-05-02T14:29:48.036Z</time></trkpt><trkpt lat="43.9658301" lon="12.009202"><ele>670.0</ele><time>2026-05-02T14:29:49.036Z</time></trkpt><trkpt lat="43.9658289" lon="12.0091016"><ele>669.0</ele><time>2026-05-02T14:29:50.037Z</time></trkpt><trkpt lat="43.9658373" lon="12.0089989"><ele>677.0</ele><time>2026-05-02T14:29:51.036Z</time></trkpt><trkpt lat="43.9658466" lon="12.0088885"><ele>685.0</ele><time>2026-05-02T14:29:52.036Z</time></trkpt><trkpt lat="43.965844" lon="12.0087803"><ele>693.0</ele><time>2026-05-02T14:29:53.036Z</time></trkpt><trkpt lat="43.9658303" lon="12.0086815"><ele>701.0</ele><time>2026-05-02T14:29:54.036Z</time></trkpt><trkpt lat="43.9658177" lon="12.0085891"><ele>709.0</ele><time>2026-05-02T14:29:55.037Z</time></trkpt><trkpt lat="43.9657488" lon="12.0084425"><ele>717.0</ele><time>2026-05-02T14:29:57.036Z</time></trkpt><trkpt lat="43.9656898" lon="12.0083675"><ele>720.4000000000001</ele><time>2026-05-02T14:29:58.037Z</time></trkpt><trkpt lat="43.9656145" lon="12.0082844"><ele>723.8000000000001</ele><time>2026-05-02T14:29:59.036Z</time></trkpt><trkpt lat="43.9655348" lon="12.0082016"><ele>727.2</ele><time>2026-05-02T14:30:00.036Z</time></trkpt><trkpt lat="43.9654374" lon="12.008137"><ele>730.6</ele><time>2026-05-02T14:30:01.037Z</time></trkpt><trkpt lat="43.9653365" lon="12.0080833"><ele>734.0</ele><time>2026-05-02T14:30:02.037Z</time></trkpt><trkpt lat="43.9652382" lon="12.0080333"><ele>734.0</ele><time>2026-05-02T14:30:03.036Z</time></trkpt><trkpt lat="43.9651375" lon="12.0079783"><ele>734.0</ele><time>2026-05-02T14:30:04.036Z</time></trkpt><trkpt lat="43.9650445" lon="12.0079172"><ele>734.0</ele><time>2026-05-02T14:30:05.036Z</time></trkpt><trkpt lat="43.9649547" lon="12.0078523"><ele>734.0</ele><time>2026-05-02T14:30:06.036Z</time></trkpt><trkpt lat="43.9648657" lon="12.0077924"><ele>734.0</ele><time>2026-05-02T14:30:07.037Z</time></trkpt><trkpt lat="43.9647731" lon="12.0077406"><ele>732.2</ele><time>2026-05-02T14:30:08.036Z</time></trkpt><trkpt lat="43.96468" lon="12.0077017"><ele>730.4000000000001</ele><time>2026-05-02T14:30:09.036Z</time></trkpt><trkpt lat="43.9645905" lon="12.0076711"><ele>728.6</ele><time>2026-05-02T14:30:10.036Z</time></trkpt><trkpt lat="43.9645084" lon="12.0076492"><ele>726.8</ele><time>2026-05-02T14:30:11.036Z</time></trkpt><trkpt lat="43.9644389" lon="12.0076173"><ele>725.0</ele><time>2026-05-02T14:30:12.036Z</time></trkpt><trkpt lat="43.9643375" lon="12.007521"><ele>723.5</ele><time>2026-05-02T14:30:14.036Z</time></trkpt><trkpt lat="43.9642503" lon="12.0073977"><ele>722.0</ele><time>2026-05-02T14:30:16.036Z</time></trkpt><trkpt lat="43.9642055" lon="12.0073208"><ele>720.5</ele><time>2026-05-02T14:30:17.036Z</time></trkpt><trkpt lat="43.9641611" lon="12.0072367"><ele>719.0</ele><time>2026-05-02T14:30:18.037Z</time></trkpt><trkpt lat="43.9641116" lon="12.0071594"><ele>717.5</ele><time>2026-05-02T14:30:19.036Z</time></trkpt><trkpt lat="43.9640598" lon="12.007077"><ele>716.0</ele><time>2026-05-02T14:30:20.036Z</time></trkpt><trkpt lat="43.9640023" lon="12.0069958"><ele>715.7142857142858</ele><time>2026-05-02T14:30:21.036Z</time></trkpt><trkpt lat="43.9639449" lon="12.0069201"><ele>715.4285714285714</ele><time>2026-05-02T14:30:22.036Z</time></trkpt><trkpt lat="43.9638922" lon="12.0068471"><ele>715.1428571428571</ele><time>2026-05-02T14:30:23.036Z</time></trkpt><trkpt lat="43.963843" lon="12.0067802"><ele>714.8571428571429</ele><time>2026-05-02T14:30:24.036Z</time></trkpt><trkpt lat="43.9637859" lon="12.0067312"><ele>714.5714285714286</ele><time>2026-05-02T14:30:25.036Z</time></trkpt><trkpt lat="43.9637143" lon="12.0067181"><ele>714.2857142857143</ele><time>2026-05-02T14:30:26.036Z</time></trkpt><trkpt lat="43.9636351" lon="12.0067395"><ele>714.0</ele><time>2026-05-02T14:30:27.036Z</time></trkpt><trkpt lat="43.9635496" lon="12.0067829"><ele>714.0</ele><time>2026-05-02T14:30:28.036Z</time></trkpt><trkpt lat="43.9634646" lon="12.0068347"><ele>714.0</ele><time>2026-05-02T14:30:29.036Z</time></trkpt><trkpt lat="43.9633728" lon="12.0068832"><ele>714.0</ele><time>2026-05-02T14:30:30.036Z</time></trkpt><trkpt lat="43.9632758" lon="12.00693"><ele>714.0</ele><time>2026-05-02T14:30:31.036Z</time></trkpt><trkpt lat="43.96318" lon="12.0069729"><ele>714.0</ele><time>2026-05-02T14:30:32.037Z</time></trkpt><trkpt lat="43.9630887" lon="12.0070102"><ele>715.6666666666666</ele><time>2026-05-02T14:30:33.037Z</time></trkpt><trkpt lat="43.9630045" lon="12.0070412"><ele>717.3333333333334</ele><time>2026-05-02T14:30:34.036Z</time></trkpt><trkpt lat="43.9629331" lon="12.0070698"><ele>719.0</ele><time>2026-05-02T14:30:35.036Z</time></trkpt><trkpt lat="43.9628223" lon="12.0071154"><ele>720.6666666666667</ele><time>2026-05-02T14:30:37.036Z</time></trkpt><trkpt lat="43.9627412" lon="12.007134"><ele>722.3333333333334</ele><time>2026-05-02T14:30:39.036Z</time></trkpt><trkpt lat="43.9626688" lon="12.0071465"><ele>724.0</ele><time>2026-05-02T14:30:42.037Z</time></trkpt><trkpt lat="43.9625732" lon="12.0071535"><ele>723.5</ele><time>2026-05-02T14:30:49.036Z</time></trkpt><trkpt lat="43.9624772" lon="12.0071336"><ele>723.0</ele><time>2026-05-02T14:30:50.036Z</time></trkpt><trkpt lat="43.962381" lon="12.0071218"><ele>722.5</ele><time>2026-05-02T14:30:51.035Z</time></trkpt><trkpt lat="43.9623107" lon="12.0071241"><ele>722.0</ele><time>2026-05-02T14:30:52.035Z</time></trkpt><trkpt lat="43.9622292" lon="12.0071407"><ele>721.5</ele><time>2026-05-02T14:30:55.035Z</time></trkpt><trkpt lat="43.9621656" lon="12.007143"><ele>721.0</ele><time>2026-05-02T14:30:57.035Z</time></trkpt><trkpt lat="43.9620914" lon="12.0071376"><ele>721.0</ele><time>2026-05-02T14:30:59.035Z</time></trkpt><trkpt lat="43.9620164" lon="12.0071487"><ele>721.0</ele><time>2026-05-02T14:31:01.035Z</time></trkpt><trkpt lat="43.9619459" lon="12.0071418"><ele>721.0</ele><time>2026-05-02T14:31:03.035Z</time></trkpt><trkpt lat="43.9618825" lon="12.0071221"><ele>721.0</ele><time>2026-05-02T14:31:05.035Z</time></trkpt><trkpt lat="43.9618096" lon="12.0070858"><ele>721.0</ele><time>2026-05-02T14:31:08.071Z</time></trkpt><trkpt lat="43.96186" lon="12.0071484"><ele>721.0</ele><time>2026-05-02T14:31:12.114Z</time></trkpt><trkpt lat="43.9619236" lon="12.0071886"><ele>721.0</ele><time>2026-05-02T14:31:15.035Z</time></trkpt><trkpt lat="43.9618734" lon="12.0071235"><ele>721.0</ele><time>2026-05-02T14:31:18.071Z</time></trkpt><trkpt lat="43.9617282" lon="12.0071116"><ele>721.0</ele><time>2026-05-02T14:32:26.035Z</time></trkpt><trkpt lat="43.9616648" lon="12.0071254"><ele>721.0</ele><time>2026-05-02T14:32:28.035Z</time></trkpt><trkpt lat="43.9616009" lon="12.0071081"><ele>721.0</ele><time>2026-05-02T14:32:30.035Z</time></trkpt><trkpt lat="43.961664" lon="12.0071226"><ele>721.0</ele><time>2026-05-02T14:33:59.035Z</time></trkpt><trkpt lat="43.9617461" lon="12.0071055"><ele>721.0</ele><time>2026-05-02T14:34:04.035Z</time></trkpt><trkpt lat="43.9618111" lon="12.0071003"><ele>721.0</ele><time>2026-05-02T14:34:08.035Z</time></trkpt><trkpt lat="43.9618863" lon="12.0071344"><ele>721.0</ele><time>2026-05-02T14:35:32.035Z</time></trkpt><trkpt lat="43.9619543" lon="12.0071532"><ele>721.0</ele><time>2026-05-02T14:35:35.036Z</time></trkpt><trkpt lat="43.9620508" lon="12.007176"><ele>721.0</ele><time>2026-05-02T14:35:38.036Z</time></trkpt><trkpt lat="43.9621274" lon="12.0071703"><ele>721.0</ele><time>2026-05-02T14:35:40.035Z</time></trkpt><trkpt lat="43.9622014" lon="12.0071663"><ele>721.0</ele><time>2026-05-02T14:35:42.035Z</time></trkpt><trkpt lat="43.9622679" lon="12.0071609"><ele>721.0</ele><time>2026-05-02T14:35:44.035Z</time></trkpt><trkpt lat="43.9622235" lon="12.0070626"><ele>721.0</ele><time>2026-05-02T14:35:50.035Z</time></trkpt><trkpt lat="43.9621252" lon="12.0070195"><ele>721.0</ele><time>2026-05-02T14:35:52.036Z</time></trkpt><trkpt lat="43.9620621" lon="12.0069915"><ele>721.0</ele><time>2026-05-02T14:35:53.035Z</time></trkpt><trkpt lat="43.9619981" lon="12.006971"><ele>721.0</ele><time>2026-05-02T14:35:54.035Z</time></trkpt><trkpt lat="43.9619332" lon="12.0069561"><ele>721.0</ele><time>2026-05-02T14:35:55.035Z</time></trkpt><trkpt lat="43.9618633" lon="12.0069352"><ele>721.0</ele><time>2026-05-02T14:35:56.035Z</time></trkpt><trkpt lat="43.9617515" lon="12.006888"><ele>721.0</ele><time>2026-05-02T14:35:58.036Z</time></trkpt><trkpt lat="43.9616547" lon="12.0068434"><ele>721.0</ele><time>2026-05-02T14:36:00.036Z</time></trkpt><trkpt lat="43.9615456" lon="12.0067375"><ele>721.0</ele><time>2026-05-02T14:36:02.036Z</time></trkpt><trkpt lat="43.9614795" lon="12.0066655"><ele>721.0</ele><time>2026-05-02T14:36:03.034Z</time></trkpt><trkpt lat="43.9614113" lon="12.0065814"><ele>719.5999999999999</ele><time>2026-05-02T14:36:04.034Z</time></trkpt><trkpt lat="43.9613482" lon="12.0064849"><ele>718.2</ele><time>2026-05-02T14:36:05.034Z</time></trkpt><trkpt lat="43.9612916" lon="12.0063916"><ele>716.8</ele><time>2026-05-02T14:36:06.034Z</time></trkpt><trkpt lat="43.9612278" lon="12.0062906"><ele>715.4000000000001</ele><time>2026-05-02T14:36:07.034Z</time></trkpt><trkpt lat="43.9611687" lon="12.0061834"><ele>714.0</ele><time>2026-05-02T14:36:08.034Z</time></trkpt><trkpt lat="43.9611145" lon="12.0060853"><ele>714.0</ele><time>2026-05-02T14:36:09.034Z</time></trkpt><trkpt lat="43.9610604" lon="12.0059795"><ele>714.0</ele><time>2026-05-02T14:36:10.035Z</time></trkpt><trkpt lat="43.9610173" lon="12.0058633"><ele>714.0</ele><time>2026-05-02T14:36:11.035Z</time></trkpt><trkpt lat="43.960979" lon="12.0057465"><ele>714.0</ele><time>2026-05-02T14:36:12.035Z</time></trkpt><trkpt lat="43.9609317" lon="12.0056451"><ele>714.0</ele><time>2026-05-02T14:36:13.034Z</time></trkpt><trkpt lat="43.9608838" lon="12.0055489"><ele>721.5</ele><time>2026-05-02T14:36:14.034Z</time></trkpt><trkpt lat="43.9608368" lon="12.0054453"><ele>729.0</ele><time>2026-05-02T14:36:15.034Z</time></trkpt><trkpt lat="43.9607966" lon="12.0053504"><ele>736.5</ele><time>2026-05-02T14:36:16.034Z</time></trkpt><trkpt lat="43.9607694" lon="12.0052565"><ele>744.0</ele><time>2026-05-02T14:36:17.034Z</time></trkpt><trkpt lat="43.9607627" lon="12.0051532"><ele>751.5</ele><time>2026-05-02T14:36:18.034Z</time></trkpt><trkpt lat="43.9607663" lon="12.0050485"><ele>759.0</ele><time>2026-05-02T14:36:19.034Z</time></trkpt><trkpt lat="43.9607851" lon="12.0049432"><ele>759.3333333333334</ele><time>2026-05-02T14:36:20.034Z</time></trkpt><trkpt lat="43.9608121" lon="12.0048269"><ele>759.6666666666666</ele><time>2026-05-02T14:36:21.034Z</time></trkpt><trkpt lat="43.9608426" lon="12.0047154"><ele>760.0</ele><time>2026-05-02T14:36:22.034Z</time></trkpt><trkpt lat="43.9608767" lon="12.0046116"><ele>760.3333333333333</ele><time>2026-05-02T14:36:23.034Z</time></trkpt><trkpt lat="43.9609134" lon="12.0045301"><ele>760.6666666666666</ele><time>2026-05-02T14:36:24.034Z</time></trkpt><trkpt lat="43.9609628" lon="12.0044643"><ele>761.0</ele><time>2026-05-02T14:36:25.034Z</time></trkpt><trkpt lat="43.9610245" lon="12.0044025"><ele>753.1666666666666</ele><time>2026-05-02T14:36:26.034Z</time></trkpt><trkpt lat="43.9610731" lon="12.0043075"><ele>745.3333333333333</ele><time>2026-05-02T14:36:27.034Z</time></trkpt><trkpt lat="43.9611041" lon="12.0042125"><ele>737.5</ele><time>2026-05-02T14:36:28.034Z</time></trkpt><trkpt lat="43.9611114" lon="12.0041103"><ele>729.6666666666666</ele><time>2026-05-02T14:36:29.034Z</time></trkpt><trkpt lat="43.9610942" lon="12.0040104"><ele>721.8333333333334</ele><time>2026-05-02T14:36:30.035Z</time></trkpt><trkpt lat="43.9610581" lon="12.0039139"><ele>714.0</ele><time>2026-05-02T14:36:31.034Z</time></trkpt><trkpt lat="43.9609999" lon="12.003835"><ele>713.8000000000001</ele><time>2026-05-02T14:36:32.035Z</time></trkpt><trkpt lat="43.9609213" lon="12.0037707"><ele>713.6</ele><time>2026-05-02T14:36:33.034Z</time></trkpt><trkpt lat="43.9608291" lon="12.0037322"><ele>713.4</ele><time>2026-05-02T14:36:34.034Z</time></trkpt><trkpt lat="43.9607419" lon="12.0037208"><ele>713.2</ele><time>2026-05-02T14:36:35.034Z</time></trkpt><trkpt lat="43.9606551" lon="12.0037192"><ele>713.0</ele><time>2026-05-02T14:36:36.034Z</time></trkpt><trkpt lat="43.9605644" lon="12.003715"><ele>716.3333333333333</ele><time>2026-05-02T14:36:37.034Z</time></trkpt><trkpt lat="43.9604754" lon="12.0037032"><ele>719.6666666666666</ele><time>2026-05-02T14:36:38.034Z</time></trkpt><trkpt lat="43.9603861" lon="12.0036952"><ele>723.0</ele><time>2026-05-02T14:36:39.034Z</time></trkpt><trkpt lat="43.9602997" lon="12.0036909"><ele>726.3333333333334</ele><time>2026-05-02T14:36:40.034Z</time></trkpt><trkpt lat="43.9602087" lon="12.0036906"><ele>729.6666666666667</ele><time>2026-05-02T14:36:41.034Z</time></trkpt><trkpt lat="43.9601227" lon="12.0037035"><ele>733.0</ele><time>2026-05-02T14:36:42.035Z</time></trkpt><trkpt lat="43.9600387" lon="12.0037236"><ele>735.1666666666667</ele><time>2026-05-02T14:36:43.034Z</time></trkpt><trkpt lat="43.9599532" lon="12.0037431"><ele>737.3333333333334</ele><time>2026-05-02T14:36:44.035Z</time></trkpt><trkpt lat="43.9598723" lon="12.0037624"><ele>739.5</ele><time>2026-05-02T14:36:45.034Z</time></trkpt><trkpt lat="43.9597898" lon="12.0037745"><ele>741.6666666666666</ele><time>2026-05-02T14:36:46.034Z</time></trkpt><trkpt lat="43.9597077" lon="12.003781"><ele>743.8333333333333</ele><time>2026-05-02T14:36:47.034Z</time></trkpt><trkpt lat="43.9596286" lon="12.0037835"><ele>746.0</ele><time>2026-05-02T14:36:48.034Z</time></trkpt><trkpt lat="43.959553" lon="12.0037897"><ele>746.0</ele><time>2026-05-02T14:36:49.034Z</time></trkpt><trkpt lat="43.9594881" lon="12.003797"><ele>746.0</ele><time>2026-05-02T14:36:50.034Z</time></trkpt><trkpt lat="43.9594226" lon="12.0037934"><ele>746.0</ele><time>2026-05-02T14:36:51.034Z</time></trkpt><trkpt lat="43.9593073" lon="12.0037436"><ele>746.0</ele><time>2026-05-02T14:36:53.034Z</time></trkpt><trkpt lat="43.9592632" lon="12.0036787"><ele>746.0</ele><time>2026-05-02T14:36:54.035Z</time></trkpt><trkpt lat="43.9592169" lon="12.0035821"><ele>746.0</ele><time>2026-05-02T14:36:55.034Z</time></trkpt><trkpt lat="43.9591654" lon="12.0034709"><ele>748.4</ele><time>2026-05-02T14:36:56.034Z</time></trkpt><trkpt lat="43.9591146" lon="12.0033487"><ele>750.8</ele><time>2026-05-02T14:36:57.034Z</time></trkpt><trkpt lat="43.9590737" lon="12.0032248"><ele>753.1999999999999</ele><time>2026-05-02T14:36:58.034Z</time></trkpt><trkpt lat="43.9590501" lon="12.003089"><ele>755.5999999999999</ele><time>2026-05-02T14:36:59.034Z</time></trkpt><trkpt lat="43.9590444" lon="12.0029417"><ele>758.0</ele><time>2026-05-02T14:37:00.034Z</time></trkpt><trkpt lat="43.9590447" lon="12.0027845"><ele>758.0</ele><time>2026-05-02T14:37:01.034Z</time></trkpt><trkpt lat="43.9590487" lon="12.0026385"><ele>758.0</ele><time>2026-05-02T14:37:02.034Z</time></trkpt><trkpt lat="43.9590483" lon="12.0024999"><ele>758.0</ele><time>2026-05-02T14:37:03.034Z</time></trkpt><trkpt lat="43.9590415" lon="12.0023708"><ele>758.0</ele><time>2026-05-02T14:37:04.034Z</time></trkpt><trkpt lat="43.9590113" lon="12.002252"><ele>758.0</ele><time>2026-05-02T14:37:05.035Z</time></trkpt><trkpt lat="43.9589577" lon="12.002174"><ele>753.5999999999999</ele><time>2026-05-02T14:37:06.035Z</time></trkpt><trkpt lat="43.9588855" lon="12.0021115"><ele>749.1999999999999</ele><time>2026-05-02T14:37:07.034Z</time></trkpt><trkpt lat="43.9587912" lon="12.0020694"><ele>744.8</ele><time>2026-05-02T14:37:08.034Z</time></trkpt><trkpt lat="43.9586981" lon="12.0020197"><ele>740.4</ele><time>2026-05-02T14:37:09.034Z</time></trkpt><trkpt lat="43.958616" lon="12.001949"><ele>736.0</ele><time>2026-05-02T14:37:10.034Z</time></trkpt><trkpt lat="43.9585507" lon="12.0018726"><ele>736.0</ele><time>2026-05-02T14:37:11.034Z</time></trkpt><trkpt lat="43.9584899" lon="12.0017991"><ele>736.0</ele><time>2026-05-02T14:37:12.034Z</time></trkpt><trkpt lat="43.9584195" lon="12.001736"><ele>736.0</ele><time>2026-05-02T14:37:13.034Z</time></trkpt><trkpt lat="43.9583378" lon="12.0016784"><ele>736.0</ele><time>2026-05-02T14:37:14.034Z</time></trkpt><trkpt lat="43.9582543" lon="12.0016081"><ele>736.0</ele><time>2026-05-02T14:37:15.034Z</time></trkpt><trkpt lat="43.9581817" lon="12.0015173"><ele>742.0</ele><time>2026-05-02T14:37:16.034Z</time></trkpt><trkpt lat="43.9581159" lon="12.0014141"><ele>748.0</ele><time>2026-05-02T14:37:17.035Z</time></trkpt><trkpt lat="43.9580668" lon="12.0012929"><ele>754.0</ele><time>2026-05-02T14:37:18.035Z</time></trkpt><trkpt lat="43.9580348" lon="12.0011579"><ele>760.0</ele><time>2026-05-02T14:37:19.034Z</time></trkpt><trkpt lat="43.958013" lon="12.0010269"><ele>766.0</ele><time>2026-05-02T14:37:20.035Z</time></trkpt><trkpt lat="43.9580073" lon="12.0008957"><ele>766.1999999999999</ele><time>2026-05-02T14:37:21.035Z</time></trkpt><trkpt lat="43.9580328" lon="12.0007508"><ele>766.4</ele><time>2026-05-02T14:37:22.035Z</time></trkpt><trkpt lat="43.9580736" lon="12.0006089"><ele>766.6</ele><time>2026-05-02T14:37:23.034Z</time></trkpt><trkpt lat="43.9581226" lon="12.0004631"><ele>766.8</ele><time>2026-05-02T14:37:24.034Z</time></trkpt><trkpt lat="43.9581764" lon="12.0003287"><ele>767.0</ele><time>2026-05-02T14:37:25.034Z</time></trkpt><trkpt lat="43.9582377" lon="12.0002092"><ele>767.0</ele><time>2026-05-02T14:37:26.034Z</time></trkpt><trkpt lat="43.958298" lon="12.000111"><ele>767.0</ele><time>2026-05-02T14:37:27.034Z</time></trkpt><trkpt lat="43.9583457" lon="12.0000143"><ele>767.0</ele><time>2026-05-02T14:37:28.034Z</time></trkpt><trkpt lat="43.958357" lon="11.9999114"><ele>767.0</ele><time>2026-05-02T14:37:29.035Z</time></trkpt><trkpt lat="43.9583338" lon="11.9998061"><ele>767.0</ele><time>2026-05-02T14:37:30.034Z</time></trkpt><trkpt lat="43.9582913" lon="11.9997016"><ele>767.0</ele><time>2026-05-02T14:37:31.034Z</time></trkpt><trkpt lat="43.9582479" lon="11.9995899"><ele>767.0</ele><time>2026-05-02T14:37:32.034Z</time></trkpt><trkpt lat="43.9582281" lon="11.9994672"><ele>767.0</ele><time>2026-05-02T14:37:33.034Z</time></trkpt><trkpt lat="43.9582339" lon="11.9993356"><ele>767.0</ele><time>2026-05-02T14:37:34.034Z</time></trkpt><trkpt lat="43.9582527" lon="11.9991997"><ele>767.0</ele><time>2026-05-02T14:37:35.034Z</time></trkpt><trkpt lat="43.9582703" lon="11.9990719"><ele>767.0</ele><time>2026-05-02T14:37:36.034Z</time></trkpt><trkpt lat="43.9582945" lon="11.9989495"><ele>766.8333333333333</ele><time>2026-05-02T14:37:37.034Z</time></trkpt><trkpt lat="43.958321" lon="11.9988312"><ele>766.6666666666666</ele><time>2026-05-02T14:37:38.034Z</time></trkpt><trkpt lat="43.9583492" lon="11.9987252"><ele>766.5</ele><time>2026-05-02T14:37:39.034Z</time></trkpt><trkpt lat="43.9583789" lon="11.9986254"><ele>766.3333333333334</ele><time>2026-05-02T14:37:40.034Z</time></trkpt><trkpt lat="43.9584057" lon="11.9985257"><ele>766.1666666666667</ele><time>2026-05-02T14:37:41.034Z</time></trkpt><trkpt lat="43.9584179" lon="11.9984225"><ele>766.0</ele><time>2026-05-02T14:37:42.035Z</time></trkpt><trkpt lat="43.9584054" lon="11.9983229"><ele>764.0</ele><time>2026-05-02T14:37:43.034Z</time></trkpt><trkpt lat="43.9583599" lon="11.9982531"><ele>762.0</ele><time>2026-05-02T14:37:44.034Z</time></trkpt><trkpt lat="43.9582827" lon="11.9981896"><ele>760.0</ele><time>2026-05-02T14:37:45.034Z</time></trkpt><trkpt lat="43.9581854" lon="11.9981509"><ele>758.0</ele><time>2026-05-02T14:37:46.035Z</time></trkpt><trkpt lat="43.9580804" lon="11.9981201"><ele>756.0</ele><time>2026-05-02T14:37:47.034Z</time></trkpt><trkpt lat="43.9579768" lon="11.9980894"><ele>756.0</ele><time>2026-05-02T14:37:48.034Z</time></trkpt><trkpt lat="43.95787" lon="11.9980605"><ele>756.0</ele><time>2026-05-02T14:37:49.034Z</time></trkpt><trkpt lat="43.9577735" lon="11.9980278"><ele>756.0</ele><time>2026-05-02T14:37:50.035Z</time></trkpt><trkpt lat="43.9576758" lon="11.9979691"><ele>756.0</ele><time>2026-05-02T14:37:51.034Z</time></trkpt><trkpt lat="43.9575865" lon="11.9978917"><ele>756.0</ele><time>2026-05-02T14:37:52.034Z</time></trkpt><trkpt lat="43.9575016" lon="11.9977941"><ele>756.4</ele><time>2026-05-02T14:37:53.035Z</time></trkpt><trkpt lat="43.9574166" lon="11.9976983"><ele>756.8</ele><time>2026-05-02T14:37:54.034Z</time></trkpt><trkpt lat="43.9573328" lon="11.9976059"><ele>757.1999999999999</ele><time>2026-05-02T14:37:55.034Z</time></trkpt><trkpt lat="43.9572443" lon="11.9975287"><ele>757.5999999999999</ele><time>2026-05-02T14:37:56.034Z</time></trkpt><trkpt lat="43.9571501" lon="11.9974587"><ele>758.0</ele><time>2026-05-02T14:37:57.035Z</time></trkpt><trkpt lat="43.9570623" lon="11.9973861"><ele>758.0</ele><time>2026-05-02T14:37:58.034Z</time></trkpt><trkpt lat="43.9569827" lon="11.9972927"><ele>758.0</ele><time>2026-05-02T14:37:59.034Z</time></trkpt><trkpt lat="43.9569163" lon="11.9971903"><ele>758.0</ele><time>2026-05-02T14:38:00.034Z</time></trkpt><trkpt lat="43.9568572" lon="11.9970785"><ele>758.0</ele><time>2026-05-02T14:38:01.034Z</time></trkpt><trkpt lat="43.9568095" lon="11.9969556"><ele>758.0</ele><time>2026-05-02T14:38:02.035Z</time></trkpt><trkpt lat="43.9567898" lon="11.9968171"><ele>758.0</ele><time>2026-05-02T14:38:03.035Z</time></trkpt><trkpt lat="43.9567928" lon="11.9966746"><ele>758.0</ele><time>2026-05-02T14:38:04.035Z</time></trkpt><trkpt lat="43.9568097" lon="11.9965236"><ele>758.0</ele><time>2026-05-02T14:38:05.035Z</time></trkpt><trkpt lat="43.956828" lon="11.9963717"><ele>758.0</ele><time>2026-05-02T14:38:06.034Z</time></trkpt><trkpt lat="43.9568475" lon="11.9962232"><ele>758.0</ele><time>2026-05-02T14:38:07.034Z</time></trkpt><trkpt lat="43.9568577" lon="11.9960875"><ele>754.5</ele><time>2026-05-02T14:38:08.034Z</time></trkpt><trkpt lat="43.9568696" lon="11.9959616"><ele>751.0</ele><time>2026-05-02T14:38:09.035Z</time></trkpt><trkpt lat="43.9568852" lon="11.9958435"><ele>747.5</ele><time>2026-05-02T14:38:10.034Z</time></trkpt><trkpt lat="43.9568896" lon="11.9957278"><ele>744.0</ele><time>2026-05-02T14:38:11.034Z</time></trkpt><trkpt lat="43.9568777" lon="11.9956106"><ele>740.5</ele><time>2026-05-02T14:38:12.035Z</time></trkpt><trkpt lat="43.9568431" lon="11.9954987"><ele>737.0</ele><time>2026-05-02T14:38:13.034Z</time></trkpt><trkpt lat="43.9567893" lon="11.995383"><ele>736.3333333333333</ele><time>2026-05-02T14:38:14.034Z</time></trkpt><trkpt lat="43.9567378" lon="11.9952612"><ele>735.6666666666666</ele><time>2026-05-02T14:38:15.034Z</time></trkpt><trkpt lat="43.9566916" lon="11.9951455"><ele>735.0</ele><time>2026-05-02T14:38:16.035Z</time></trkpt><trkpt lat="43.9566618" lon="11.9950305"><ele>734.3333333333334</ele><time>2026-05-02T14:38:17.034Z</time></trkpt><trkpt lat="43.9566522" lon="11.994917"><ele>733.6666666666667</ele><time>2026-05-02T14:38:18.034Z</time></trkpt><trkpt lat="43.9566762" lon="11.9948135"><ele>733.0</ele><time>2026-05-02T14:38:19.034Z</time></trkpt><trkpt lat="43.95672" lon="11.9947181"><ele>732.2857142857142</ele><time>2026-05-02T14:38:20.034Z</time></trkpt><trkpt lat="43.9567697" lon="11.9946226"><ele>731.5714285714286</ele><time>2026-05-02T14:38:21.034Z</time></trkpt><trkpt lat="43.9568247" lon="11.9945381"><ele>730.8571428571429</ele><time>2026-05-02T14:38:22.035Z</time></trkpt><trkpt lat="43.9568641" lon="11.9944537"><ele>730.1428571428571</ele><time>2026-05-02T14:38:23.034Z</time></trkpt><trkpt lat="43.9568792" lon="11.9943678"><ele>729.4285714285714</ele><time>2026-05-02T14:38:24.034Z</time></trkpt><trkpt lat="43.9568698" lon="11.9942685"><ele>728.7142857142857</ele><time>2026-05-02T14:38:25.035Z</time></trkpt><trkpt lat="43.9568522" lon="11.9941687"><ele>728.0</ele><time>2026-05-02T14:38:26.035Z</time></trkpt><trkpt lat="43.9568398" lon="11.994063"><ele>730.3333333333333</ele><time>2026-05-02T14:38:27.034Z</time></trkpt><trkpt lat="43.9568414" lon="11.9939652"><ele>732.6666666666666</ele><time>2026-05-02T14:38:28.034Z</time></trkpt><trkpt lat="43.9568538" lon="11.9938551"><ele>735.0</ele><time>2026-05-02T14:38:29.034Z</time></trkpt><trkpt lat="43.9568745" lon="11.9937495"><ele>737.3333333333334</ele><time>2026-05-02T14:38:30.034Z</time></trkpt><trkpt lat="43.9569045" lon="11.9936422"><ele>739.6666666666667</ele><time>2026-05-02T14:38:31.034Z</time></trkpt><trkpt lat="43.9569516" lon="11.993542"><ele>742.0</ele><time>2026-05-02T14:38:32.034Z</time></trkpt><trkpt lat="43.9570107" lon="11.9934596"><ele>742.0</ele><time>2026-05-02T14:38:33.034Z</time></trkpt><trkpt lat="43.9570849" lon="11.9934078"><ele>742.0</ele><time>2026-05-02T14:38:34.034Z</time></trkpt><trkpt lat="43.9571702" lon="11.9933798"><ele>742.0</ele><time>2026-05-02T14:38:35.034Z</time></trkpt><trkpt lat="43.9572648" lon="11.9933689"><ele>742.0</ele><time>2026-05-02T14:38:36.034Z</time></trkpt><trkpt lat="43.9573652" lon="11.9933544"><ele>742.0</ele><time>2026-05-02T14:38:37.034Z</time></trkpt><trkpt lat="43.9574703" lon="11.9933362"><ele>742.1666666666667</ele><time>2026-05-02T14:38:38.034Z</time></trkpt><trkpt lat="43.9575667" lon="11.9933166"><ele>742.3333333333334</ele><time>2026-05-02T14:38:39.034Z</time></trkpt><trkpt lat="43.9576533" lon="11.9932941"><ele>742.5</ele><time>2026-05-02T14:38:40.035Z</time></trkpt><trkpt lat="43.9577327" lon="11.9932622"><ele>742.6666666666666</ele><time>2026-05-02T14:38:41.035Z</time></trkpt><trkpt lat="43.9578024" lon="11.993227"><ele>742.8333333333333</ele><time>2026-05-02T14:38:42.034Z</time></trkpt><trkpt lat="43.9579026" lon="11.993176"><ele>743.0</ele><time>2026-05-02T14:38:44.035Z</time></trkpt><trkpt lat="43.9579255" lon="11.9930825"><ele>743.0</ele><time>2026-05-02T14:38:48.034Z</time></trkpt><trkpt lat="43.9578601" lon="11.992997"><ele>743.0</ele><time>2026-05-02T14:38:52.034Z</time></trkpt><trkpt lat="43.9577718" lon="11.9929646"><ele>743.0</ele><time>2026-05-02T14:38:54.034Z</time></trkpt><trkpt lat="43.9576785" lon="11.9929741"><ele>743.0</ele><time>2026-05-02T14:38:56.034Z</time></trkpt><trkpt lat="43.9575904" lon="11.9929927"><ele>743.0</ele><time>2026-05-02T14:38:58.034Z</time></trkpt><trkpt lat="43.9575213" lon="11.9929255"><ele>743.0</ele><time>2026-05-02T14:39:00.034Z</time></trkpt><trkpt lat="43.9574404" lon="11.992825"><ele>746.8</ele><time>2026-05-02T14:39:02.034Z</time></trkpt><trkpt lat="43.9573369" lon="11.9927524"><ele>750.5999999999999</ele><time>2026-05-02T14:39:04.035Z</time></trkpt><trkpt lat="43.9572529" lon="11.9926909"><ele>754.4000000000001</ele><time>2026-05-02T14:39:06.035Z</time></trkpt><trkpt lat="43.9571715" lon="11.9926124"><ele>758.2</ele><time>2026-05-02T14:39:08.035Z</time></trkpt><trkpt lat="43.9570985" lon="11.9925137"><ele>762.0</ele><time>2026-05-02T14:39:10.034Z</time></trkpt><trkpt lat="43.957035" lon="11.9924684"><ele>762.3333333333334</ele><time>2026-05-02T14:42:49.033Z</time></trkpt><trkpt lat="43.956962" lon="11.9924271"><ele>762.6666666666666</ele><time>2026-05-02T14:43:16.033Z</time></trkpt><trkpt lat="43.9568968" lon="11.9923767"><ele>763.0</ele><time>2026-05-02T14:43:19.033Z</time></trkpt><trkpt lat="43.9568116" lon="11.9923728"><ele>763.3333333333333</ele><time>2026-05-02T14:43:27.033Z</time></trkpt><trkpt lat="43.9567378" lon="11.992389"><ele>763.6666666666666</ele><time>2026-05-02T14:43:29.033Z</time></trkpt><trkpt lat="43.9566552" lon="11.9924275"><ele>764.0</ele><time>2026-05-02T14:43:31.033Z</time></trkpt><trkpt lat="43.9565702" lon="11.9924676"><ele>767.4285714285714</ele><time>2026-05-02T14:43:33.034Z</time></trkpt><trkpt lat="43.9564967" lon="11.9924948"><ele>770.8571428571428</ele><time>2026-05-02T14:43:35.033Z</time></trkpt><trkpt lat="43.956427" lon="11.9925526"><ele>774.2857142857142</ele><time>2026-05-02T14:43:38.033Z</time></trkpt><trkpt lat="43.9563826" lon="11.9926178"><ele>777.7142857142858</ele><time>2026-05-02T14:43:42.033Z</time></trkpt><trkpt lat="43.9564046" lon="11.9925353"><ele>781.1428571428571</ele><time>2026-05-02T14:45:02.033Z</time></trkpt><trkpt lat="43.9564592" lon="11.992485"><ele>784.5714285714286</ele><time>2026-05-02T14:45:16.033Z</time></trkpt><trkpt lat="43.9565314" lon="11.9924326"><ele>788.0</ele><time>2026-05-02T14:45:19.033Z</time></trkpt><trkpt lat="43.9565987" lon="11.9924335"><ele>788.0</ele><time>2026-05-02T14:45:21.033Z</time></trkpt><trkpt lat="43.956673" lon="11.9923958"><ele>788.0</ele><time>2026-05-02T14:45:23.034Z</time></trkpt><trkpt lat="43.9567519" lon="11.9923707"><ele>788.0</ele><time>2026-05-02T14:45:25.034Z</time></trkpt><trkpt lat="43.9568152" lon="11.9923677"><ele>788.0</ele><time>2026-05-02T14:45:27.033Z</time></trkpt><trkpt lat="43.9568971" lon="11.9923669"><ele>788.0</ele><time>2026-05-02T14:45:30.033Z</time></trkpt><trkpt lat="43.9569592" lon="11.9924044"><ele>788.0</ele><time>2026-05-02T14:45:35.033Z</time></trkpt><trkpt lat="43.9570219" lon="11.9924495"><ele>788.0</ele><time>2026-05-02T14:45:40.033Z</time></trkpt><trkpt lat="43.9570857" lon="11.9925039"><ele>783.6666666666667</ele><time>2026-05-02T14:45:48.033Z</time></trkpt><trkpt lat="43.9571514" lon="11.9925627"><ele>779.3333333333334</ele><time>2026-05-02T14:45:51.033Z</time></trkpt><trkpt lat="43.9572147" lon="11.9926352"><ele>775.0</ele><time>2026-05-02T14:45:53.032Z</time></trkpt><trkpt lat="43.9572661" lon="11.9927046"><ele>770.6666666666667</ele><time>2026-05-02T14:45:55.032Z</time></trkpt><trkpt lat="43.957328" lon="11.9927574"><ele>766.3333333333334</ele><time>2026-05-02T14:45:57.032Z</time></trkpt><trkpt lat="43.9574127" lon="11.9928165"><ele>762.0</ele><time>2026-05-02T14:45:59.032Z</time></trkpt><trkpt lat="43.9574941" lon="11.9928719"><ele>758.8333333333334</ele><time>2026-05-02T14:46:01.032Z</time></trkpt><trkpt lat="43.9575574" lon="11.9929506"><ele>755.6666666666666</ele><time>2026-05-02T14:46:03.032Z</time></trkpt><trkpt lat="43.9576155" lon="11.9929991"><ele>752.5</ele><time>2026-05-02T14:46:05.032Z</time></trkpt><trkpt lat="43.9576931" lon="11.9929731"><ele>749.3333333333333</ele><time>2026-05-02T14:46:07.032Z</time></trkpt><trkpt lat="43.957773" lon="11.992944"><ele>746.1666666666666</ele><time>2026-05-02T14:46:09.032Z</time></trkpt><trkpt lat="43.9578624" lon="11.9929674"><ele>743.0</ele><time>2026-05-02T14:46:11.032Z</time></trkpt><trkpt lat="43.957938" lon="11.9930166"><ele>743.0</ele><time>2026-05-02T14:46:13.032Z</time></trkpt><trkpt lat="43.9580113" lon="11.9930118"><ele>743.0</ele><time>2026-05-02T14:46:15.032Z</time></trkpt><trkpt lat="43.9580943" lon="11.9929055"><ele>743.0</ele><time>2026-05-02T14:46:17.032Z</time></trkpt><trkpt lat="43.9581901" lon="11.9927977"><ele>743.0</ele><time>2026-05-02T14:46:19.032Z</time></trkpt><trkpt lat="43.9582703" lon="11.9926942"><ele>743.0</ele><time>2026-05-02T14:46:21.032Z</time></trkpt><trkpt lat="43.9583452" lon="11.9926273"><ele>741.1666666666666</ele><time>2026-05-02T14:46:23.032Z</time></trkpt><trkpt lat="43.958405" lon="11.9925895"><ele>739.3333333333333</ele><time>2026-05-02T14:46:25.032Z</time></trkpt><trkpt lat="43.9585096" lon="11.9925608"><ele>737.5</ele><time>2026-05-02T14:46:28.032Z</time></trkpt><trkpt lat="43.9585742" lon="11.9925438"><ele>735.6666666666666</ele><time>2026-05-02T14:46:29.032Z</time></trkpt><trkpt lat="43.958644" lon="11.9925292"><ele>733.8333333333334</ele><time>2026-05-02T14:46:30.032Z</time></trkpt><trkpt lat="43.9587134" lon="11.9925231"><ele>732.0</ele><time>2026-05-02T14:46:31.033Z</time></trkpt><trkpt lat="43.9587931" lon="11.9925214"><ele>732.0</ele><time>2026-05-02T14:46:32.032Z</time></trkpt><trkpt lat="43.958872" lon="11.9925126"><ele>732.0</ele><time>2026-05-02T14:46:33.032Z</time></trkpt><trkpt lat="43.9589469" lon="11.9925002"><ele>732.0</ele><time>2026-05-02T14:46:34.033Z</time></trkpt><trkpt lat="43.9590242" lon="11.9924821"><ele>732.0</ele><time>2026-05-02T14:46:35.032Z</time></trkpt><trkpt lat="43.9590994" lon="11.9924614"><ele>732.0</ele><time>2026-05-02T14:46:36.032Z</time></trkpt><trkpt lat="43.959169" lon="11.9924328"><ele>732.0</ele><time>2026-05-02T14:46:37.032Z</time></trkpt><trkpt lat="43.9592376" lon="11.9924023"><ele>733.3333333333334</ele><time>2026-05-02T14:46:38.032Z</time></trkpt><trkpt lat="43.9593003" lon="11.9923685"><ele>734.6666666666666</ele><time>2026-05-02T14:46:39.033Z</time></trkpt><trkpt lat="43.9593614" lon="11.992335"><ele>736.0</ele><time>2026-05-02T14:46:40.032Z</time></trkpt><trkpt lat="43.9594193" lon="11.9922977"><ele>737.3333333333333</ele><time>2026-05-02T14:46:41.033Z</time></trkpt><trkpt lat="43.9595277" lon="11.9922043"><ele>738.6666666666666</ele><time>2026-05-02T14:46:43.032Z</time></trkpt><trkpt lat="43.9595847" lon="11.9921359"><ele>740.0</ele><time>2026-05-02T14:46:44.032Z</time></trkpt><trkpt lat="43.9596456" lon="11.9920624"><ele>739.9999999999999</ele><time>2026-05-02T14:46:45.032Z</time></trkpt><trkpt lat="43.9597088" lon="11.991989"><ele>740.0</ele><time>2026-05-02T14:46:46.033Z</time></trkpt><trkpt lat="43.9597738" lon="11.9919188"><ele>740.0</ele><time>2026-05-02T14:46:47.032Z</time></trkpt><trkpt lat="43.959835" lon="11.9918621"><ele>740.0</ele><time>2026-05-02T14:46:48.032Z</time></trkpt><trkpt lat="43.9598947" lon="11.9918134"><ele>740.0</ele><time>2026-05-02T14:46:49.032Z</time></trkpt><trkpt lat="43.9599543" lon="11.9917614"><ele>739.9999999999999</ele><time>2026-05-02T14:46:50.032Z</time></trkpt><trkpt lat="43.9600195" lon="11.9917293"><ele>740.0</ele><time>2026-05-02T14:46:51.033Z</time></trkpt><trkpt lat="43.960104" lon="11.9917034"><ele>737.3333333333333</ele><time>2026-05-02T14:46:52.032Z</time></trkpt><trkpt lat="43.9601843" lon="11.9916966"><ele>734.6666666666666</ele><time>2026-05-02T14:46:53.032Z</time></trkpt><trkpt lat="43.9602702" lon="11.9917108"><ele>732.0</ele><time>2026-05-02T14:46:54.032Z</time></trkpt><trkpt lat="43.9603588" lon="11.9917382"><ele>729.3333333333334</ele><time>2026-05-02T14:46:55.032Z</time></trkpt><trkpt lat="43.9604434" lon="11.9917727"><ele>726.6666666666667</ele><time>2026-05-02T14:46:56.032Z</time></trkpt><trkpt lat="43.9605244" lon="11.9918028"><ele>724.0</ele><time>2026-05-02T14:46:57.032Z</time></trkpt><trkpt lat="43.9606031" lon="11.9918167"><ele>724.0</ele><time>2026-05-02T14:46:58.032Z</time></trkpt><trkpt lat="43.9606807" lon="11.9918211"><ele>724.0</ele><time>2026-05-02T14:46:59.032Z</time></trkpt><trkpt lat="43.9607578" lon="11.9918024"><ele>724.0</ele><time>2026-05-02T14:47:00.032Z</time></trkpt><trkpt lat="43.9608435" lon="11.9917678"><ele>724.0</ele><time>2026-05-02T14:47:01.032Z</time></trkpt><trkpt lat="43.960924" lon="11.9917346"><ele>724.0</ele><time>2026-05-02T14:47:02.033Z</time></trkpt><trkpt lat="43.9610059" lon="11.9916978"><ele>724.0</ele><time>2026-05-02T14:47:03.032Z</time></trkpt><trkpt lat="43.9610893" lon="11.9916621"><ele>725.0</ele><time>2026-05-02T14:47:04.032Z</time></trkpt><trkpt lat="43.9611689" lon="11.991632"><ele>726.0</ele><time>2026-05-02T14:47:05.032Z</time></trkpt><trkpt lat="43.9612465" lon="11.9916019"><ele>727.0</ele><time>2026-05-02T14:47:06.032Z</time></trkpt><trkpt lat="43.9613244" lon="11.9915518"><ele>728.0</ele><time>2026-05-02T14:47:07.032Z</time></trkpt><trkpt lat="43.9613973" lon="11.9914974"><ele>729.0</ele><time>2026-05-02T14:47:08.032Z</time></trkpt><trkpt lat="43.961467" lon="11.9914357"><ele>730.0</ele><time>2026-05-02T14:47:09.032Z</time></trkpt><trkpt lat="43.9615384" lon="11.991357"><ele>730.0</ele><time>2026-05-02T14:47:10.032Z</time></trkpt><trkpt lat="43.9616143" lon="11.9912847"><ele>730.0</ele><time>2026-05-02T14:47:11.033Z</time></trkpt><trkpt lat="43.9616948" lon="11.9912098"><ele>730.0</ele><time>2026-05-02T14:47:12.033Z</time></trkpt><trkpt lat="43.9617746" lon="11.9911394"><ele>730.0</ele><time>2026-05-02T14:47:13.032Z</time></trkpt><trkpt lat="43.9618565" lon="11.9910635"><ele>730.0</ele><time>2026-05-02T14:47:14.032Z</time></trkpt><trkpt lat="43.9619287" lon="11.9909821"><ele>729.8333333333334</ele><time>2026-05-02T14:47:15.033Z</time></trkpt><trkpt lat="43.961994" lon="11.9908873"><ele>729.6666666666667</ele><time>2026-05-02T14:47:16.032Z</time></trkpt><trkpt lat="43.9620557" lon="11.9908001"><ele>729.5</ele><time>2026-05-02T14:47:17.033Z</time></trkpt><trkpt lat="43.9621196" lon="11.9907191"><ele>729.3333333333334</ele><time>2026-05-02T14:47:18.032Z</time></trkpt><trkpt lat="43.9621879" lon="11.9906496"><ele>729.1666666666666</ele><time>2026-05-02T14:47:19.033Z</time></trkpt><trkpt lat="43.9622629" lon="11.9905886"><ele>729.0</ele><time>2026-05-02T14:47:20.032Z</time></trkpt><trkpt lat="43.9623428" lon="11.990538"><ele>729.0</ele><time>2026-05-02T14:47:21.032Z</time></trkpt><trkpt lat="43.9624301" lon="11.9904969"><ele>729.0</ele><time>2026-05-02T14:47:22.032Z</time></trkpt><trkpt lat="43.962519" lon="11.9904608"><ele>729.0</ele><time>2026-05-02T14:47:23.032Z</time></trkpt><trkpt lat="43.9626013" lon="11.9904208"><ele>729.0</ele><time>2026-05-02T14:47:24.032Z</time></trkpt><trkpt lat="43.9626764" lon="11.9903763"><ele>729.0</ele><time>2026-05-02T14:47:25.032Z</time></trkpt><trkpt lat="43.9627452" lon="11.990336"><ele>729.0</ele><time>2026-05-02T14:47:26.032Z</time></trkpt><trkpt lat="43.9628077" lon="11.9903061"><ele>727.8571428571429</ele><time>2026-05-02T14:47:27.033Z</time></trkpt><trkpt lat="43.9628728" lon="11.9902689"><ele>726.7142857142857</ele><time>2026-05-02T14:47:28.032Z</time></trkpt><trkpt lat="43.9629443" lon="11.9902331"><ele>725.5714285714286</ele><time>2026-05-02T14:47:29.032Z</time></trkpt><trkpt lat="43.9630162" lon="11.9902003"><ele>724.4285714285714</ele><time>2026-05-02T14:47:30.032Z</time></trkpt><trkpt lat="43.9630896" lon="11.9901722"><ele>723.2857142857142</ele><time>2026-05-02T14:47:31.033Z</time></trkpt><trkpt lat="43.9631649" lon="11.9901469"><ele>722.1428571428571</ele><time>2026-05-02T14:47:32.032Z</time></trkpt><trkpt lat="43.9632355" lon="11.9901266"><ele>721.0</ele><time>2026-05-02T14:47:33.032Z</time></trkpt><trkpt lat="43.9633094" lon="11.9901115"><ele>725.6666666666667</ele><time>2026-05-02T14:47:34.032Z</time></trkpt><trkpt lat="43.963385" lon="11.9900987"><ele>730.3333333333334</ele><time>2026-05-02T14:47:35.032Z</time></trkpt><trkpt lat="43.9634642" lon="11.9900865"><ele>735.0</ele><time>2026-05-02T14:47:36.032Z</time></trkpt><trkpt lat="43.9635361" lon="11.9900898"><ele>739.6666666666666</ele><time>2026-05-02T14:47:37.032Z</time></trkpt><trkpt lat="43.9636103" lon="11.9901051"><ele>744.3333333333333</ele><time>2026-05-02T14:47:38.032Z</time></trkpt><trkpt lat="43.9636865" lon="11.9901184"><ele>749.0</ele><time>2026-05-02T14:47:39.032Z</time></trkpt><trkpt lat="43.9637592" lon="11.9901304"><ele>749.0</ele><time>2026-05-02T14:47:40.032Z</time></trkpt><trkpt lat="43.9638331" lon="11.9901345"><ele>749.0</ele><time>2026-05-02T14:47:41.032Z</time></trkpt><trkpt lat="43.9639067" lon="11.99013"><ele>749.0</ele><time>2026-05-02T14:47:42.032Z</time></trkpt><trkpt lat="43.9639796" lon="11.990127"><ele>749.0</ele><time>2026-05-02T14:47:43.032Z</time></trkpt><trkpt lat="43.9640424" lon="11.990118"><ele>749.0</ele><time>2026-05-02T14:47:44.033Z</time></trkpt><trkpt lat="43.9641408" lon="11.9901147"><ele>749.0</ele><time>2026-05-02T14:47:46.032Z</time></trkpt><trkpt lat="43.9642182" lon="11.990106"><ele>749.0</ele><time>2026-05-02T14:47:49.032Z</time></trkpt><trkpt lat="43.9641261" lon="11.9900838"><ele>749.0</ele><time>2026-05-02T14:47:54.032Z</time></trkpt><trkpt lat="43.9640099" lon="11.9900888"><ele>749.0</ele><time>2026-05-02T14:47:56.032Z</time></trkpt><trkpt lat="43.9638962" lon="11.990037"><ele>749.0</ele><time>2026-05-02T14:47:58.032Z</time></trkpt><trkpt lat="43.9637938" lon="11.9899865"><ele>749.0</ele><time>2026-05-02T14:48:00.032Z</time></trkpt><trkpt lat="43.9637215" lon="11.989963"><ele>749.0</ele><time>2026-05-02T14:48:02.032Z</time></trkpt><trkpt lat="43.9636539" lon="11.9899082"><ele>749.0</ele><time>2026-05-02T14:48:04.033Z</time></trkpt><trkpt lat="43.9635707" lon="11.9898381"><ele>749.0</ele><time>2026-05-02T14:48:06.033Z</time></trkpt><trkpt lat="43.9634601" lon="11.9897944"><ele>749.0</ele><time>2026-05-02T14:48:08.033Z</time></trkpt><trkpt lat="43.9633538" lon="11.9897483"><ele>749.0</ele><time>2026-05-02T14:48:10.032Z</time></trkpt><trkpt lat="43.9632877" lon="11.989685"><ele>749.0</ele><time>2026-05-02T14:48:13.032Z</time></trkpt><trkpt lat="43.9632509" lon="11.9895846"><ele>749.0</ele><time>2026-05-02T14:48:17.033Z</time></trkpt><trkpt lat="43.9632501" lon="11.9894949"><ele>749.0</ele><time>2026-05-02T14:48:20.032Z</time></trkpt><trkpt lat="43.9632871" lon="11.9896442"><ele>749.0</ele><time>2026-05-02T14:48:33.032Z</time></trkpt><trkpt lat="43.963327" lon="11.9897189"><ele>749.0</ele><time>2026-05-02T14:48:34.033Z</time></trkpt><trkpt lat="43.9634352" lon="11.9898125"><ele>749.0</ele><time>2026-05-02T14:48:36.032Z</time></trkpt><trkpt lat="43.9635004" lon="11.989843"><ele>749.0</ele><time>2026-05-02T14:48:37.032Z</time></trkpt><trkpt lat="43.9636084" lon="11.9898709"><ele>749.0</ele><time>2026-05-02T14:48:39.033Z</time></trkpt><trkpt lat="43.9636818" lon="11.9899387"><ele>749.0</ele><time>2026-05-02T14:48:41.032Z</time></trkpt><trkpt lat="43.9637548" lon="11.9899966"><ele>749.0</ele><time>2026-05-02T14:48:44.033Z</time></trkpt><trkpt lat="43.9638165" lon="11.9900255"><ele>749.0</ele><time>2026-05-02T14:48:46.032Z</time></trkpt><trkpt lat="43.9639157" lon="11.9900502"><ele>749.0</ele><time>2026-05-02T14:48:48.033Z</time></trkpt><trkpt lat="43.9639898" lon="11.9900874"><ele>749.0</ele><time>2026-05-02T14:48:50.032Z</time></trkpt><trkpt lat="43.964071" lon="11.9901274"><ele>749.0</ele><time>2026-05-02T14:48:52.032Z</time></trkpt><trkpt lat="43.9641875" lon="11.990112"><ele>749.0</ele><time>2026-05-02T14:48:54.032Z</time></trkpt><trkpt lat="43.9642541" lon="11.9900734"><ele>749.0</ele><time>2026-05-02T14:48:55.032Z</time></trkpt><trkpt lat="43.9643113" lon="11.9900176"><ele>749.0</ele><time>2026-05-02T14:48:56.032Z</time></trkpt><trkpt lat="43.9643684" lon="11.9899608"><ele>749.8333333333333</ele><time>2026-05-02T14:48:57.033Z</time></trkpt><trkpt lat="43.9644385" lon="11.9899191"><ele>750.6666666666666</ele><time>2026-05-02T14:48:58.032Z</time></trkpt><trkpt lat="43.964525" lon="11.9898858"><ele>751.5</ele><time>2026-05-02T14:48:59.032Z</time></trkpt><trkpt lat="43.9646167" lon="11.9898787"><ele>752.3333333333334</ele><time>2026-05-02T14:49:00.032Z</time></trkpt><trkpt lat="43.9647092" lon="11.9898782"><ele>753.1666666666667</ele><time>2026-05-02T14:49:01.033Z</time></trkpt><trkpt lat="43.9648034" lon="11.9898727"><ele>754.0</ele><time>2026-05-02T14:49:02.033Z</time></trkpt><trkpt lat="43.9648969" lon="11.9898506"><ele>754.0</ele><time>2026-05-02T14:49:03.032Z</time></trkpt><trkpt lat="43.9649852" lon="11.9898102"><ele>754.0</ele><time>2026-05-02T14:49:04.033Z</time></trkpt><trkpt lat="43.9650596" lon="11.9897408"><ele>754.0</ele><time>2026-05-02T14:49:05.032Z</time></trkpt><trkpt lat="43.9651152" lon="11.9896664"><ele>754.0</ele><time>2026-05-02T14:49:06.032Z</time></trkpt><trkpt lat="43.9651678" lon="11.989588"><ele>754.0</ele><time>2026-05-02T14:49:07.032Z</time></trkpt><trkpt lat="43.9652347" lon="11.9895395"><ele>754.0</ele><time>2026-05-02T14:49:08.032Z</time></trkpt><trkpt lat="43.9653136" lon="11.9895165"><ele>751.1666666666667</ele><time>2026-05-02T14:49:09.033Z</time></trkpt><trkpt lat="43.9653973" lon="11.9895133"><ele>748.3333333333334</ele><time>2026-05-02T14:49:10.032Z</time></trkpt><trkpt lat="43.9654837" lon="11.9895085"><ele>745.5</ele><time>2026-05-02T14:49:11.033Z</time></trkpt><trkpt lat="43.9655723" lon="11.9894911"><ele>742.6666666666666</ele><time>2026-05-02T14:49:12.032Z</time></trkpt><trkpt lat="43.9656628" lon="11.9894564"><ele>739.8333333333333</ele><time>2026-05-02T14:49:13.032Z</time></trkpt><trkpt lat="43.9657511" lon="11.9894133"><ele>737.0</ele><time>2026-05-02T14:49:14.032Z</time></trkpt><trkpt lat="43.9658339" lon="11.9893575"><ele>737.8</ele><time>2026-05-02T14:49:15.032Z</time></trkpt><trkpt lat="43.9659095" lon="11.989288"><ele>738.6</ele><time>2026-05-02T14:49:16.032Z</time></trkpt><trkpt lat="43.9659839" lon="11.9892072"><ele>739.4</ele><time>2026-05-02T14:49:17.032Z</time></trkpt><trkpt lat="43.9660573" lon="11.9891235"><ele>740.1999999999999</ele><time>2026-05-02T14:49:18.032Z</time></trkpt><trkpt lat="43.9661315" lon="11.9890488"><ele>741.0</ele><time>2026-05-02T14:49:19.032Z</time></trkpt><trkpt lat="43.9662044" lon="11.988971"><ele>741.0</ele><time>2026-05-02T14:49:20.032Z</time></trkpt><trkpt lat="43.966275" lon="11.9888939"><ele>741.0</ele><time>2026-05-02T14:49:21.033Z</time></trkpt><trkpt lat="43.966342" lon="11.9888184"><ele>741.0</ele><time>2026-05-02T14:49:22.032Z</time></trkpt><trkpt lat="43.966406" lon="11.9887379"><ele>741.0</ele><time>2026-05-02T14:49:23.032Z</time></trkpt><trkpt lat="43.9664709" lon="11.988659"><ele>741.0</ele><time>2026-05-02T14:49:24.032Z</time></trkpt><trkpt lat="43.9665359" lon="11.9885999"><ele>741.0</ele><time>2026-05-02T14:49:25.033Z</time></trkpt><trkpt lat="43.9666039" lon="11.988552"><ele>741.0</ele><time>2026-05-02T14:49:26.031Z</time></trkpt><trkpt lat="43.9666752" lon="11.9885158"><ele>741.0</ele><time>2026-05-02T14:49:27.031Z</time></trkpt><trkpt lat="43.966756" lon="11.9884912"><ele>741.0</ele><time>2026-05-02T14:49:28.032Z</time></trkpt><trkpt lat="43.9668309" lon="11.9884687"><ele>741.0</ele><time>2026-05-02T14:49:29.031Z</time></trkpt><trkpt lat="43.9668996" lon="11.9884497"><ele>741.0</ele><time>2026-05-02T14:49:30.031Z</time></trkpt><trkpt lat="43.9669617" lon="11.9884334"><ele>741.0</ele><time>2026-05-02T14:49:31.031Z</time></trkpt><trkpt lat="43.9670244" lon="11.9884105"><ele>741.0</ele><time>2026-05-02T14:49:32.031Z</time></trkpt><trkpt lat="43.9670841" lon="11.9883801"><ele>743.1999999999999</ele><time>2026-05-02T14:49:33.031Z</time></trkpt><trkpt lat="43.9671458" lon="11.9883401"><ele>745.4</ele><time>2026-05-02T14:49:34.031Z</time></trkpt><trkpt lat="43.9672616" lon="11.9882868"><ele>747.6</ele><time>2026-05-02T14:49:36.031Z</time></trkpt><trkpt lat="43.9673564" lon="11.9882712"><ele>749.8</ele><time>2026-05-02T14:49:38.031Z</time></trkpt><trkpt lat="43.9672678" lon="11.9882453"><ele>752.0</ele><time>2026-05-02T14:49:44.032Z</time></trkpt><trkpt lat="43.9671809" lon="11.9883249"><ele>752.0</ele><time>2026-05-02T14:49:46.031Z</time></trkpt><trkpt lat="43.9670977" lon="11.9883987"><ele>752.0</ele><time>2026-05-02T14:49:48.031Z</time></trkpt><trkpt lat="43.9670388" lon="11.9884673"><ele>752.0</ele><time>2026-05-02T14:49:50.031Z</time></trkpt><trkpt lat="43.9669726" lon="11.9885389"><ele>752.0</ele><time>2026-05-02T14:49:53.032Z</time></trkpt><trkpt lat="43.9668967" lon="11.9884849"><ele>752.0</ele><time>2026-05-02T14:49:57.031Z</time></trkpt><trkpt lat="43.966849" lon="11.9883873"><ele>752.0</ele><time>2026-05-02T14:49:59.032Z</time></trkpt><trkpt lat="43.9667881" lon="11.9882934"><ele>752.0</ele><time>2026-05-02T14:50:01.031Z</time></trkpt><trkpt lat="43.9667187" lon="11.9881986"><ele>752.0</ele><time>2026-05-02T14:50:03.031Z</time></trkpt><trkpt lat="43.9666511" lon="11.9880909"><ele>752.0</ele><time>2026-05-02T14:50:05.032Z</time></trkpt><trkpt lat="43.9665967" lon="11.9879849"><ele>752.0</ele><time>2026-05-02T14:50:07.031Z</time></trkpt><trkpt lat="43.9665509" lon="11.9879012"><ele>752.0</ele><time>2026-05-02T14:50:09.031Z</time></trkpt><trkpt lat="43.9665239" lon="11.9878164"><ele>752.0</ele><time>2026-05-02T14:50:11.031Z</time></trkpt><trkpt lat="43.9664975" lon="11.9877207"><ele>753.6</ele><time>2026-05-02T14:50:13.031Z</time></trkpt><trkpt lat="43.9664787" lon="11.9876311"><ele>755.2</ele><time>2026-05-02T14:50:15.031Z</time></trkpt><trkpt lat="43.9665209" lon="11.9877957"><ele>756.8</ele><time>2026-05-02T14:50:26.031Z</time></trkpt><trkpt lat="43.9665622" lon="11.9879109"><ele>758.4</ele><time>2026-05-02T14:50:27.031Z</time></trkpt><trkpt lat="43.9666097" lon="11.9880127"><ele>760.0</ele><time>2026-05-02T14:50:28.031Z</time></trkpt><trkpt lat="43.9666633" lon="11.9881018"><ele>758.8571428571429</ele><time>2026-05-02T14:50:29.032Z</time></trkpt><trkpt lat="43.9667112" lon="11.9881838"><ele>757.7142857142858</ele><time>2026-05-02T14:50:30.031Z</time></trkpt><trkpt lat="43.9667576" lon="11.988258"><ele>756.5714285714286</ele><time>2026-05-02T14:50:31.031Z</time></trkpt><trkpt lat="43.9668032" lon="11.9883193"><ele>755.4285714285714</ele><time>2026-05-02T14:50:32.032Z</time></trkpt><trkpt lat="43.9668824" lon="11.9883985"><ele>754.2857142857142</ele><time>2026-05-02T14:50:34.031Z</time></trkpt><trkpt lat="43.9669446" lon="11.9884197"><ele>753.1428571428571</ele><time>2026-05-02T14:50:36.032Z</time></trkpt><trkpt lat="43.9670068" lon="11.9883955"><ele>752.0</ele><time>2026-05-02T14:50:37.031Z</time></trkpt><trkpt lat="43.9670775" lon="11.9883644"><ele>752.0</ele><time>2026-05-02T14:50:38.031Z</time></trkpt><trkpt lat="43.96716" lon="11.9883251"><ele>752.0</ele><time>2026-05-02T14:50:39.031Z</time></trkpt><trkpt lat="43.9672456" lon="11.9882997"><ele>752.0</ele><time>2026-05-02T14:50:40.031Z</time></trkpt><trkpt lat="43.9673226" lon="11.9882942"><ele>752.0</ele><time>2026-05-02T14:50:41.032Z</time></trkpt><trkpt lat="43.9673987" lon="11.9883131"><ele>752.0</ele><time>2026-05-02T14:50:42.031Z</time></trkpt><trkpt lat="43.9674882" lon="11.9883525"><ele>752.0</ele><time>2026-05-02T14:50:43.032Z</time></trkpt><trkpt lat="43.967573" lon="11.9884126"><ele>751.6</ele><time>2026-05-02T14:50:44.031Z</time></trkpt><trkpt lat="43.967668" lon="11.9884872"><ele>751.2</ele><time>2026-05-02T14:50:45.031Z</time></trkpt><trkpt lat="43.9677616" lon="11.9885612"><ele>750.8</ele><time>2026-05-02T14:50:46.032Z</time></trkpt><trkpt lat="43.9678591" lon="11.9886312"><ele>750.4</ele><time>2026-05-02T14:50:47.032Z</time></trkpt><trkpt lat="43.9679566" lon="11.9886978"><ele>750.0</ele><time>2026-05-02T14:50:48.031Z</time></trkpt><trkpt lat="43.9680582" lon="11.988754"><ele>750.0</ele><time>2026-05-02T14:50:49.031Z</time></trkpt><trkpt lat="43.9681554" lon="11.9888097"><ele>750.0</ele><time>2026-05-02T14:50:50.031Z</time></trkpt><trkpt lat="43.9682552" lon="11.988869"><ele>750.0</ele><time>2026-05-02T14:50:51.031Z</time></trkpt><trkpt lat="43.9683479" lon="11.9889283"><ele>750.0</ele><time>2026-05-02T14:50:52.032Z</time></trkpt><trkpt lat="43.9684377" lon="11.9889959"><ele>750.0</ele><time>2026-05-02T14:50:53.031Z</time></trkpt><trkpt lat="43.968524" lon="11.9890708"><ele>748.8</ele><time>2026-05-02T14:50:54.031Z</time></trkpt><trkpt lat="43.9686129" lon="11.9891429"><ele>747.6</ele><time>2026-05-02T14:50:55.031Z</time></trkpt><trkpt lat="43.9686944" lon="11.9892011"><ele>746.4000000000001</ele><time>2026-05-02T14:50:56.031Z</time></trkpt><trkpt lat="43.9687833" lon="11.9892244"><ele>745.2</ele><time>2026-05-02T14:50:57.031Z</time></trkpt><trkpt lat="43.9688639" lon="11.9891979"><ele>744.0</ele><time>2026-05-02T14:50:58.031Z</time></trkpt><trkpt lat="43.9689374" lon="11.9891446"><ele>744.0</ele><time>2026-05-02T14:50:59.031Z</time></trkpt><trkpt lat="43.9690049" lon="11.9890683"><ele>744.0</ele><time>2026-05-02T14:51:00.031Z</time></trkpt><trkpt lat="43.9690612" lon="11.9889553"><ele>744.0</ele><time>2026-05-02T14:51:01.032Z</time></trkpt><trkpt lat="43.9691001" lon="11.9888381"><ele>744.0</ele><time>2026-05-02T14:51:02.031Z</time></trkpt><trkpt lat="43.9691229" lon="11.9887179"><ele>744.0</ele><time>2026-05-02T14:51:03.031Z</time></trkpt><trkpt lat="43.9691416" lon="11.9885965"><ele>744.0</ele><time>2026-05-02T14:51:04.031Z</time></trkpt><trkpt lat="43.9691728" lon="11.9884979"><ele>744.0</ele><time>2026-05-02T14:51:05.031Z</time></trkpt><trkpt lat="43.9692159" lon="11.9884223"><ele>744.0</ele><time>2026-05-02T14:51:06.031Z</time></trkpt><trkpt lat="43.9692827" lon="11.9883779"><ele>744.0</ele><time>2026-05-02T14:51:07.031Z</time></trkpt><trkpt lat="43.9693605" lon="11.9883728"><ele>744.0</ele><time>2026-05-02T14:51:08.031Z</time></trkpt><trkpt lat="43.9694537" lon="11.9884012"><ele>744.0</ele><time>2026-05-02T14:51:09.031Z</time></trkpt><trkpt lat="43.9695484" lon="11.9884537"><ele>739.2</ele><time>2026-05-02T14:51:10.031Z</time></trkpt><trkpt lat="43.969645" lon="11.9885106"><ele>734.4000000000001</ele><time>2026-05-02T14:51:11.031Z</time></trkpt><trkpt lat="43.9697406" lon="11.9885648"><ele>729.6</ele><time>2026-05-02T14:51:12.031Z</time></trkpt><trkpt lat="43.9698307" lon="11.9886165"><ele>724.8</ele><time>2026-05-02T14:51:13.031Z</time></trkpt><trkpt lat="43.9699166" lon="11.9886658"><ele>720.0</ele><time>2026-05-02T14:51:14.031Z</time></trkpt><trkpt lat="43.97" lon="11.9886995"><ele>717.2</ele><time>2026-05-02T14:51:15.031Z</time></trkpt><trkpt lat="43.9700881" lon="11.9887017"><ele>714.4</ele><time>2026-05-02T14:51:16.031Z</time></trkpt><trkpt lat="43.9701798" lon="11.9886778"><ele>711.5999999999999</ele><time>2026-05-02T14:51:17.032Z</time></trkpt><trkpt lat="43.9702764" lon="11.9886515"><ele>708.8</ele><time>2026-05-02T14:51:18.031Z</time></trkpt><trkpt lat="43.9703702" lon="11.9886247"><ele>706.0</ele><time>2026-05-02T14:51:19.032Z</time></trkpt><trkpt lat="43.9704527" lon="11.9885892"><ele>706.0</ele><time>2026-05-02T14:51:20.031Z</time></trkpt><trkpt lat="43.9705159" lon="11.9885086"><ele>706.0</ele><time>2026-05-02T14:51:21.031Z</time></trkpt><trkpt lat="43.9705529" lon="11.9883994"><ele>706.0</ele><time>2026-05-02T14:51:22.032Z</time></trkpt><trkpt lat="43.9705621" lon="11.9882717"><ele>706.0</ele><time>2026-05-02T14:51:23.031Z</time></trkpt><trkpt lat="43.9705523" lon="11.9881328"><ele>706.0</ele><time>2026-05-02T14:51:24.031Z</time></trkpt><trkpt lat="43.9705374" lon="11.9879873"><ele>712.0</ele><time>2026-05-02T14:51:25.031Z</time></trkpt><trkpt lat="43.9705207" lon="11.9878474"><ele>718.0</ele><time>2026-05-02T14:51:26.031Z</time></trkpt><trkpt lat="43.9705033" lon="11.9877088"><ele>724.0</ele><time>2026-05-02T14:51:27.031Z</time></trkpt><trkpt lat="43.9704863" lon="11.9875714"><ele>730.0</ele><time>2026-05-02T14:51:28.031Z</time></trkpt><trkpt lat="43.9704707" lon="11.987433"><ele>736.0</ele><time>2026-05-02T14:51:29.031Z</time></trkpt><trkpt lat="43.9704609" lon="11.9872984"><ele>738.4</ele><time>2026-05-02T14:51:30.031Z</time></trkpt><trkpt lat="43.9704523" lon="11.9871789"><ele>740.8</ele><time>2026-05-02T14:51:31.031Z</time></trkpt><trkpt lat="43.9704526" lon="11.9870798"><ele>743.1999999999999</ele><time>2026-05-02T14:51:32.031Z</time></trkpt><trkpt lat="43.9705069" lon="11.9869496"><ele>745.5999999999999</ele><time>2026-05-02T14:51:34.032Z</time></trkpt><trkpt lat="43.9706244" lon="11.9869917"><ele>748.0</ele><time>2026-05-02T14:51:36.031Z</time></trkpt><trkpt lat="43.9706877" lon="11.9870658"><ele>748.0</ele><time>2026-05-02T14:51:37.031Z</time></trkpt><trkpt lat="43.97076" lon="11.9871521"><ele>748.0</ele><time>2026-05-02T14:51:38.031Z</time></trkpt><trkpt lat="43.9708441" lon="11.9872542"><ele>748.0</ele><time>2026-05-02T14:51:39.031Z</time></trkpt><trkpt lat="43.9709535" lon="11.987376"><ele>748.0</ele><time>2026-05-02T14:51:40.031Z</time></trkpt><trkpt lat="43.9710609" lon="11.9875087"><ele>747.5999999999999</ele><time>2026-05-02T14:51:41.031Z</time></trkpt><trkpt lat="43.9711592" lon="11.9876357"><ele>747.1999999999999</ele><time>2026-05-02T14:51:42.031Z</time></trkpt><trkpt lat="43.9712378" lon="11.9877428"><ele>746.8</ele><time>2026-05-02T14:51:43.031Z</time></trkpt><trkpt lat="43.9713114" lon="11.9878418"><ele>746.4</ele><time>2026-05-02T14:51:44.031Z</time></trkpt><trkpt lat="43.9713804" lon="11.9879139"><ele>746.0</ele><time>2026-05-02T14:51:45.031Z</time></trkpt><trkpt lat="43.9714501" lon="11.9879676"><ele>746.0</ele><time>2026-05-02T14:51:46.032Z</time></trkpt><trkpt lat="43.9715164" lon="11.9880194"><ele>746.0</ele><time>2026-05-02T14:51:47.032Z</time></trkpt><trkpt lat="43.9715865" lon="11.9880766"><ele>746.0</ele><time>2026-05-02T14:51:48.032Z</time></trkpt><trkpt lat="43.9716634" lon="11.988137"><ele>746.0</ele><time>2026-05-02T14:51:49.031Z</time></trkpt><trkpt lat="43.9717498" lon="11.9881942"><ele>746.0</ele><time>2026-05-02T14:51:50.031Z</time></trkpt><trkpt lat="43.9718434" lon="11.9882469"><ele>746.0</ele><time>2026-05-02T14:51:51.032Z</time></trkpt><trkpt lat="43.9719374" lon="11.9883144"><ele>744.8</ele><time>2026-05-02T14:51:52.032Z</time></trkpt><trkpt lat="43.97203" lon="11.9883831"><ele>743.5999999999999</ele><time>2026-05-02T14:51:53.031Z</time></trkpt><trkpt lat="43.9721228" lon="11.9884352"><ele>742.4</ele><time>2026-05-02T14:51:54.031Z</time></trkpt><trkpt lat="43.9722192" lon="11.9884735"><ele>741.2</ele><time>2026-05-02T14:51:55.032Z</time></trkpt><trkpt lat="43.9723159" lon="11.9884992"><ele>740.0</ele><time>2026-05-02T14:51:56.031Z</time></trkpt><trkpt lat="43.9724074" lon="11.9884764"><ele>740.0</ele><time>2026-05-02T14:51:57.031Z</time></trkpt><trkpt lat="43.9724967" lon="11.9884229"><ele>740.0</ele><time>2026-05-02T14:51:58.031Z</time></trkpt><trkpt lat="43.9725788" lon="11.9883487"><ele>740.0</ele><time>2026-05-02T14:51:59.032Z</time></trkpt><trkpt lat="43.972649" lon="11.9882349"><ele>740.0</ele><time>2026-05-02T14:52:00.031Z</time></trkpt><trkpt lat="43.9727051" lon="11.9881017"><ele>740.0</ele><time>2026-05-02T14:52:01.031Z</time></trkpt><trkpt lat="43.9727546" lon="11.9879617"><ele>738.2</ele><time>2026-05-02T14:52:02.031Z</time></trkpt><trkpt lat="43.9727961" lon="11.9878171"><ele>736.4</ele><time>2026-05-02T14:52:03.031Z</time></trkpt><trkpt lat="43.972828" lon="11.9876769"><ele>734.5999999999999</ele><time>2026-05-02T14:52:04.031Z</time></trkpt><trkpt lat="43.972861" lon="11.9875408"><ele>732.8</ele><time>2026-05-02T14:52:05.031Z</time></trkpt><trkpt lat="43.9728971" lon="11.9874125"><ele>731.0</ele><time>2026-05-02T14:52:06.031Z</time></trkpt><trkpt lat="43.9729276" lon="11.9873061"><ele>735.3333333333333</ele><time>2026-05-02T14:52:07.031Z</time></trkpt><trkpt lat="43.9729647" lon="11.9872146"><ele>739.6666666666666</ele><time>2026-05-02T14:52:08.031Z</time></trkpt><trkpt lat="43.973" lon="11.9871403"><ele>744.0</ele><time>2026-05-02T14:52:09.031Z</time></trkpt><trkpt lat="43.9730912" lon="11.9870341"><ele>748.3333333333334</ele><time>2026-05-02T14:52:11.031Z</time></trkpt><trkpt lat="43.973154" lon="11.9870166"><ele>752.6666666666667</ele><time>2026-05-02T14:52:12.031Z</time></trkpt><trkpt lat="43.9732236" lon="11.9870165"><ele>757.0</ele><time>2026-05-02T14:52:13.031Z</time></trkpt><trkpt lat="43.9732934" lon="11.9870411"><ele>753.1666666666667</ele><time>2026-05-02T14:52:14.031Z</time></trkpt><trkpt lat="43.9733599" lon="11.987044"><ele>749.3333333333334</ele><time>2026-05-02T14:52:15.031Z</time></trkpt><trkpt lat="43.9734322" lon="11.9870244"><ele>745.5</ele><time>2026-05-02T14:52:16.031Z</time></trkpt><trkpt lat="43.9735013" lon="11.9869864"><ele>741.6666666666666</ele><time>2026-05-02T14:52:17.032Z</time></trkpt><trkpt lat="43.9735661" lon="11.9869182"><ele>737.8333333333333</ele><time>2026-05-02T14:52:18.031Z</time></trkpt><trkpt lat="43.9736233" lon="11.9868399"><ele>734.0</ele><time>2026-05-02T14:52:19.031Z</time></trkpt><trkpt lat="43.9736752" lon="11.9867561"><ele>736.6666666666666</ele><time>2026-05-02T14:52:20.031Z</time></trkpt><trkpt lat="43.9737228" lon="11.9866648"><ele>739.3333333333333</ele><time>2026-05-02T14:52:21.031Z</time></trkpt><trkpt lat="43.973772" lon="11.986586"><ele>742.0</ele><time>2026-05-02T14:52:22.031Z</time></trkpt><trkpt lat="43.9738316" lon="11.9865224"><ele>744.6666666666666</ele><time>2026-05-02T14:52:23.031Z</time></trkpt><trkpt lat="43.9738992" lon="11.9864862"><ele>747.3333333333334</ele><time>2026-05-02T14:52:24.031Z</time></trkpt><trkpt lat="43.9739745" lon="11.9864938"><ele>750.0</ele><time>2026-05-02T14:52:25.031Z</time></trkpt><trkpt lat="43.9740591" lon="11.9865251"><ele>750.0</ele><time>2026-05-02T14:52:26.031Z</time></trkpt><trkpt lat="43.9741415" lon="11.9865713"><ele>750.0</ele><time>2026-05-02T14:52:27.031Z</time></trkpt><trkpt lat="43.9742244" lon="11.9866128"><ele>750.0</ele><time>2026-05-02T14:52:28.031Z</time></trkpt><trkpt lat="43.9743141" lon="11.9866298"><ele>750.0</ele><time>2026-05-02T14:52:29.032Z</time></trkpt><trkpt lat="43.9744196" lon="11.9866238"><ele>750.0</ele><time>2026-05-02T14:52:30.031Z</time></trkpt><trkpt lat="43.974538" lon="11.9865994"><ele>747.0</ele><time>2026-05-02T14:52:31.032Z</time></trkpt><trkpt lat="43.974652" lon="11.9865737"><ele>744.0</ele><time>2026-05-02T14:52:32.031Z</time></trkpt><trkpt lat="43.9747658" lon="11.9865538"><ele>741.0</ele><time>2026-05-02T14:52:33.031Z</time></trkpt><trkpt lat="43.9748785" lon="11.986538"><ele>738.0</ele><time>2026-05-02T14:52:34.032Z</time></trkpt><trkpt lat="43.9749839" lon="11.986524"><ele>735.0</ele><time>2026-05-02T14:52:35.032Z</time></trkpt><trkpt lat="43.9750862" lon="11.9865111"><ele>735.0</ele><time>2026-05-02T14:52:36.031Z</time></trkpt><trkpt lat="43.9751896" lon="11.9864952"><ele>735.0</ele><time>2026-05-02T14:52:37.031Z</time></trkpt><trkpt lat="43.9752918" lon="11.9864764"><ele>735.0</ele><time>2026-05-02T14:52:38.031Z</time></trkpt><trkpt lat="43.9753956" lon="11.9864533"><ele>735.0</ele><time>2026-05-02T14:52:39.031Z</time></trkpt><trkpt lat="43.9754986" lon="11.9864293"><ele>735.0</ele><time>2026-05-02T14:52:40.031Z</time></trkpt><trkpt lat="43.9755958" lon="11.9864084"><ele>735.0</ele><time>2026-05-02T14:52:41.031Z</time></trkpt><trkpt lat="43.9756755" lon="11.9863868"><ele>735.0</ele><time>2026-05-02T14:52:42.032Z</time></trkpt><trkpt lat="43.9757575" lon="11.9864297"><ele>735.0</ele><time>2026-05-02T14:52:44.031Z</time></trkpt><trkpt lat="43.9758702" lon="11.9865395"><ele>735.0</ele><time>2026-05-02T14:52:46.031Z</time></trkpt><trkpt lat="43.9759483" lon="11.9865851"><ele>735.0</ele><time>2026-05-02T14:52:47.032Z</time></trkpt><trkpt lat="43.9760347" lon="11.9866238"><ele>733.0</ele><time>2026-05-02T14:52:48.031Z</time></trkpt><trkpt lat="43.9761207" lon="11.9866521"><ele>731.0</ele><time>2026-05-02T14:52:49.031Z</time></trkpt><trkpt lat="43.9761953" lon="11.986665"><ele>729.0</ele><time>2026-05-02T14:52:50.031Z</time></trkpt><trkpt lat="43.9762664" lon="11.9866805"><ele>727.0</ele><time>2026-05-02T14:52:51.031Z</time></trkpt><trkpt lat="43.9763468" lon="11.9866985"><ele>725.0</ele><time>2026-05-02T14:52:52.032Z</time></trkpt><trkpt lat="43.9764387" lon="11.9867141"><ele>723.0</ele><time>2026-05-02T14:52:53.031Z</time></trkpt><trkpt lat="43.9765113" lon="11.986727"><ele>723.0</ele><time>2026-05-02T14:52:54.031Z</time></trkpt><trkpt lat="43.9766169" lon="11.9867559"><ele>723.0</ele><time>2026-05-02T14:52:56.031Z</time></trkpt><trkpt lat="43.9767091" lon="11.9868015"><ele>723.0</ele><time>2026-05-02T14:52:58.032Z</time></trkpt><trkpt lat="43.9768007" lon="11.9868643"><ele>723.0</ele><time>2026-05-02T14:53:00.031Z</time></trkpt><trkpt lat="43.9766662" lon="11.9867942"><ele>723.0</ele><time>2026-05-02T14:53:47.032Z</time></trkpt><trkpt lat="43.9766005" lon="11.986769"><ele>723.0</ele><time>2026-05-02T14:53:49.031Z</time></trkpt><trkpt lat="43.9765186" lon="11.9867271"><ele>723.0</ele><time>2026-05-02T14:53:51.031Z</time></trkpt><trkpt lat="43.9764117" lon="11.9866866"><ele>723.0</ele><time>2026-05-02T14:53:53.031Z</time></trkpt><trkpt lat="43.9762878" lon="11.9866581"><ele>723.0</ele><time>2026-05-02T14:53:55.031Z</time></trkpt><trkpt lat="43.9762196" lon="11.9866488"><ele>725.0</ele><time>2026-05-02T14:53:56.032Z</time></trkpt><trkpt lat="43.9761511" lon="11.986639"><ele>727.0</ele><time>2026-05-02T14:53:57.031Z</time></trkpt><trkpt lat="43.9760818" lon="11.9866315"><ele>729.0</ele><time>2026-05-02T14:53:58.032Z</time></trkpt><trkpt lat="43.9760127" lon="11.9866099"><ele>731.0</ele><time>2026-05-02T14:53:59.031Z</time></trkpt><trkpt lat="43.9759512" lon="11.9865848"><ele>733.0</ele><time>2026-05-02T14:54:00.031Z</time></trkpt><trkpt lat="43.9758326" lon="11.9865341"><ele>735.0</ele><time>2026-05-02T14:54:02.031Z</time></trkpt><trkpt lat="43.9757521" lon="11.9864535"><ele>735.0</ele><time>2026-05-02T14:54:04.032Z</time></trkpt><trkpt lat="43.9757692" lon="11.9863428"><ele>735.0</ele><time>2026-05-02T14:54:07.032Z</time></trkpt><trkpt lat="43.9758992" lon="11.986333"><ele>735.0</ele><time>2026-05-02T14:54:09.031Z</time></trkpt><trkpt lat="43.9759919" lon="11.9863485"><ele>735.0</ele><time>2026-05-02T14:54:10.032Z</time></trkpt><trkpt lat="43.9760972" lon="11.9863572"><ele>735.0</ele><time>2026-05-02T14:54:11.031Z</time></trkpt><trkpt lat="43.9762007" lon="11.9863188"><ele>738.0</ele><time>2026-05-02T14:54:12.031Z</time></trkpt><trkpt lat="43.9763007" lon="11.9862665"><ele>741.0</ele><time>2026-05-02T14:54:13.031Z</time></trkpt><trkpt lat="43.9763996" lon="11.9861891"><ele>744.0</ele><time>2026-05-02T14:54:14.031Z</time></trkpt><trkpt lat="43.9764799" lon="11.9860919"><ele>747.0</ele><time>2026-05-02T14:54:15.03Z</time></trkpt><trkpt lat="43.976548" lon="11.985985"><ele>750.0</ele><time>2026-05-02T14:54:16.03Z</time></trkpt><trkpt lat="43.9766048" lon="11.9858658"><ele>748.5</ele><time>2026-05-02T14:54:17.03Z</time></trkpt><trkpt lat="43.9766445" lon="11.9857327"><ele>747.0</ele><time>2026-05-02T14:54:18.03Z</time></trkpt><trkpt lat="43.97667" lon="11.9855801"><ele>745.5</ele><time>2026-05-02T14:54:19.031Z</time></trkpt><trkpt lat="43.9766827" lon="11.9854209"><ele>744.0</ele><time>2026-05-02T14:54:20.03Z</time></trkpt><trkpt lat="43.9766898" lon="11.9852548"><ele>744.0</ele><time>2026-05-02T14:54:21.03Z</time></trkpt><trkpt lat="43.976682" lon="11.9850845"><ele>744.0</ele><time>2026-05-02T14:54:22.031Z</time></trkpt><trkpt lat="43.9766686" lon="11.9849109"><ele>744.0</ele><time>2026-05-02T14:54:23.03Z</time></trkpt><trkpt lat="43.9766533" lon="11.9847413"><ele>744.0</ele><time>2026-05-02T14:54:24.03Z</time></trkpt><trkpt lat="43.97664" lon="11.9845721"><ele>742.0</ele><time>2026-05-02T14:54:25.03Z</time></trkpt><trkpt lat="43.9766319" lon="11.9844026"><ele>740.0</ele><time>2026-05-02T14:54:26.03Z</time></trkpt><trkpt lat="43.9766255" lon="11.9842443"><ele>738.0</ele><time>2026-05-02T14:54:27.03Z</time></trkpt><trkpt lat="43.9766114" lon="11.984088"><ele>736.0</ele><time>2026-05-02T14:54:28.03Z</time></trkpt><trkpt lat="43.9765858" lon="11.9839374"><ele>734.1999999999999</ele><time>2026-05-02T14:54:29.03Z</time></trkpt><trkpt lat="43.9765398" lon="11.9837966"><ele>732.4</ele><time>2026-05-02T14:54:30.03Z</time></trkpt><trkpt lat="43.9764869" lon="11.9836603"><ele>730.6</ele><time>2026-05-02T14:54:31.03Z</time></trkpt><trkpt lat="43.9764289" lon="11.9835233"><ele>728.8</ele><time>2026-05-02T14:54:32.03Z</time></trkpt><trkpt lat="43.976372" lon="11.9833925"><ele>727.0</ele><time>2026-05-02T14:54:33.03Z</time></trkpt><trkpt lat="43.9763238" lon="11.9832738"><ele>726.2</ele><time>2026-05-02T14:54:34.031Z</time></trkpt><trkpt lat="43.9762873" lon="11.9831584"><ele>725.4000000000001</ele><time>2026-05-02T14:54:35.031Z</time></trkpt><trkpt lat="43.9762776" lon="11.9830468"><ele>724.5999999999999</ele><time>2026-05-02T14:54:36.03Z</time></trkpt><trkpt lat="43.9763076" lon="11.9829279"><ele>723.8</ele><time>2026-05-02T14:54:37.03Z</time></trkpt><trkpt lat="43.9763697" lon="11.9828126"><ele>723.0</ele><time>2026-05-02T14:54:38.03Z</time></trkpt><trkpt lat="43.9764329" lon="11.9827025"><ele>723.0</ele><time>2026-05-02T14:54:39.03Z</time></trkpt><trkpt lat="43.9764941" lon="11.9826092"><ele>723.0</ele><time>2026-05-02T14:54:40.03Z</time></trkpt><trkpt lat="43.9765321" lon="11.9825185"><ele>723.0</ele><time>2026-05-02T14:54:41.03Z</time></trkpt><trkpt lat="43.9765309" lon="11.9824279"><ele>723.0</ele><time>2026-05-02T14:54:42.03Z</time></trkpt><trkpt lat="43.9765025" lon="11.9823438"><ele>723.0</ele><time>2026-05-02T14:54:43.031Z</time></trkpt><trkpt lat="43.9763625" lon="11.9823257"><ele>723.0</ele><time>2026-05-02T14:54:45.03Z</time></trkpt><trkpt lat="43.9762916" lon="11.982373"><ele>723.0</ele><time>2026-05-02T14:54:46.03Z</time></trkpt><trkpt lat="43.9762154" lon="11.9824611"><ele>723.0</ele><time>2026-05-02T14:54:47.03Z</time></trkpt><trkpt lat="43.9761548" lon="11.9825658"><ele>723.0</ele><time>2026-05-02T14:54:48.03Z</time></trkpt><trkpt lat="43.9760987" lon="11.9826578"><ele>723.0</ele><time>2026-05-02T14:54:49.032Z</time></trkpt><trkpt lat="43.9760508" lon="11.982728"><ele>723.0</ele><time>2026-05-02T14:54:50.031Z</time></trkpt><trkpt lat="43.9760011" lon="11.9827838"><ele>723.0</ele><time>2026-05-02T14:54:51.032Z</time></trkpt><trkpt lat="43.9758867" lon="11.9827638"><ele>723.0</ele><time>2026-05-02T14:54:53.032Z</time></trkpt><trkpt lat="43.9758567" lon="11.982662"><ele>723.0</ele><time>2026-05-02T14:54:54.031Z</time></trkpt><trkpt lat="43.9758572" lon="11.9825536"><ele>723.0</ele><time>2026-05-02T14:54:55.031Z</time></trkpt><trkpt lat="43.9758801" lon="11.9824415"><ele>723.0</ele><time>2026-05-02T14:54:56.031Z</time></trkpt><trkpt lat="43.9759131" lon="11.9823239"><ele>723.0</ele><time>2026-05-02T14:54:57.031Z</time></trkpt><trkpt lat="43.9759512" lon="11.9822072"><ele>723.0</ele><time>2026-05-02T14:54:58.031Z</time></trkpt><trkpt lat="43.9759895" lon="11.9820862"><ele>719.8</ele><time>2026-05-02T14:54:59.031Z</time></trkpt><trkpt lat="43.9760297" lon="11.9819716"><ele>716.5999999999999</ele><time>2026-05-02T14:55:00.031Z</time></trkpt><trkpt lat="43.9760766" lon="11.9818587"><ele>713.4000000000001</ele><time>2026-05-02T14:55:01.031Z</time></trkpt><trkpt lat="43.9761248" lon="11.9817495"><ele>710.2</ele><time>2026-05-02T14:55:02.031Z</time></trkpt><trkpt lat="43.9761654" lon="11.9816427"><ele>707.0</ele><time>2026-05-02T14:55:03.031Z</time></trkpt><trkpt lat="43.9762035" lon="11.9815353"><ele>703.8</ele><time>2026-05-02T14:55:04.031Z</time></trkpt><trkpt lat="43.9762379" lon="11.9814212"><ele>700.6</ele><time>2026-05-02T14:55:05.031Z</time></trkpt><trkpt lat="43.976266" lon="11.981304"><ele>697.4</ele><time>2026-05-02T14:55:06.031Z</time></trkpt><trkpt lat="43.9762911" lon="11.9811809"><ele>694.1999999999999</ele><time>2026-05-02T14:55:07.031Z</time></trkpt><trkpt lat="43.9763048" lon="11.9810518"><ele>691.0</ele><time>2026-05-02T14:55:08.031Z</time></trkpt><trkpt lat="43.9763075" lon="11.9809158"><ele>687.8</ele><time>2026-05-02T14:55:09.031Z</time></trkpt><trkpt lat="43.9762942" lon="11.9807874"><ele>684.5999999999999</ele><time>2026-05-02T14:55:10.032Z</time></trkpt><trkpt lat="43.976266" lon="11.9806583"><ele>681.4</ele><time>2026-05-02T14:55:11.031Z</time></trkpt><trkpt lat="43.9762327" lon="11.9805223"><ele>678.2</ele><time>2026-05-02T14:55:12.031Z</time></trkpt><trkpt lat="43.976199" lon="11.9803821"><ele>675.0</ele><time>2026-05-02T14:55:13.032Z</time></trkpt><trkpt lat="43.9761729" lon="11.9802417"><ele>675.0</ele><time>2026-05-02T14:55:14.031Z</time></trkpt><trkpt lat="43.9761581" lon="11.9801142"><ele>675.0</ele><time>2026-05-02T14:55:15.031Z</time></trkpt><trkpt lat="43.9761576" lon="11.9800025"><ele>675.0</ele><time>2026-05-02T14:55:16.031Z</time></trkpt><trkpt lat="43.9761649" lon="11.9799088"><ele>675.0</ele><time>2026-05-02T14:55:17.031Z</time></trkpt><trkpt lat="43.9761856" lon="11.9797468"><ele>675.0</ele><time>2026-05-02T14:55:19.031Z</time></trkpt><trkpt lat="43.9762133" lon="11.9796112"><ele>672.8333333333334</ele><time>2026-05-02T14:55:21.031Z</time></trkpt><trkpt lat="43.9762534" lon="11.9795037"><ele>670.6666666666666</ele><time>2026-05-02T14:55:23.032Z</time></trkpt><trkpt lat="43.9762869" lon="11.979411"><ele>668.5</ele><time>2026-05-02T14:55:25.031Z</time></trkpt><trkpt lat="43.9763052" lon="11.9793066"><ele>666.3333333333333</ele><time>2026-05-02T14:55:27.031Z</time></trkpt><trkpt lat="43.9762878" lon="11.9792138"><ele>664.1666666666666</ele><time>2026-05-02T14:55:29.031Z</time></trkpt><trkpt lat="43.9762602" lon="11.9791168"><ele>662.0</ele><time>2026-05-02T14:55:31.031Z</time></trkpt><trkpt lat="43.9762385" lon="11.9789995"><ele>660.0</ele><time>2026-05-02T14:55:34.031Z</time></trkpt><trkpt lat="43.9762426" lon="11.978887"><ele>658.0</ele><time>2026-05-02T14:55:37.031Z</time></trkpt><trkpt lat="43.9762775" lon="11.97878"><ele>656.0</ele><time>2026-05-02T14:55:40.031Z</time></trkpt><trkpt lat="43.9762798" lon="11.9786726"><ele>654.0</ele><time>2026-05-02T14:55:43.031Z</time></trkpt><trkpt lat="43.9762549" lon="11.9785544"><ele>652.0</ele><time>2026-05-02T14:55:46.031Z</time></trkpt><trkpt lat="43.9762445" lon="11.9784589"><ele>650.0</ele><time>2026-05-02T14:55:48.031Z</time></trkpt><trkpt lat="43.9762389" lon="11.9783574"><ele>649.1666666666666</ele><time>2026-05-02T14:55:50.031Z</time></trkpt><trkpt lat="43.9762283" lon="11.9782476"><ele>648.3333333333333</ele><time>2026-05-02T14:55:52.031Z</time></trkpt><trkpt lat="43.9762286" lon="11.9781347"><ele>647.5</ele><time>2026-05-02T14:55:54.032Z</time></trkpt><trkpt lat="43.9762142" lon="11.9780368"><ele>646.6666666666666</ele><time>2026-05-02T14:55:56.031Z</time></trkpt><trkpt lat="43.9761848" lon="11.9779313"><ele>645.8333333333334</ele><time>2026-05-02T14:55:58.031Z</time></trkpt><trkpt lat="43.9762209" lon="11.9778361"><ele>645.0</ele><time>2026-05-02T14:56:00.031Z</time></trkpt><trkpt lat="43.976262" lon="11.9777523"><ele>645.0</ele><time>2026-05-02T14:56:02.032Z</time></trkpt><trkpt lat="43.9762522" lon="11.9776619"><ele>645.0</ele><time>2026-05-02T14:56:06.031Z</time></trkpt><trkpt lat="43.9762074" lon="11.9775956"><ele>645.0</ele><time>2026-05-02T14:56:08.032Z</time></trkpt><trkpt lat="43.9762007" lon="11.977465"><ele>645.0</ele><time>2026-05-02T14:56:11.031Z</time></trkpt><trkpt lat="43.9762101" lon="11.9773529"><ele>645.0</ele><time>2026-05-02T14:56:13.032Z</time></trkpt><trkpt lat="43.9762299" lon="11.9772312"><ele>645.0</ele><time>2026-05-02T14:56:15.032Z</time></trkpt><trkpt lat="43.9762436" lon="11.9771269"><ele>644.0</ele><time>2026-05-02T14:56:17.032Z</time></trkpt><trkpt lat="43.9762508" lon="11.9770203"><ele>643.0</ele><time>2026-05-02T14:56:19.031Z</time></trkpt><trkpt lat="43.9762739" lon="11.976905"><ele>642.0</ele><time>2026-05-02T14:56:21.032Z</time></trkpt><trkpt lat="43.9763067" lon="11.9767905"><ele>641.0</ele><time>2026-05-02T14:56:23.032Z</time></trkpt><trkpt lat="43.976332" lon="11.9766895"><ele>640.0</ele><time>2026-05-02T14:56:25.032Z</time></trkpt><trkpt lat="43.9763441" lon="11.9765472"><ele>639.0</ele><time>2026-05-02T14:56:28.032Z</time></trkpt><trkpt lat="43.9763909" lon="11.9764267"><ele>636.4</ele><time>2026-05-02T14:56:30.032Z</time></trkpt><trkpt lat="43.9764245" lon="11.9763024"><ele>633.8</ele><time>2026-05-02T14:56:32.031Z</time></trkpt><trkpt lat="43.9764333" lon="11.976173"><ele>631.2</ele><time>2026-05-02T14:56:34.031Z</time></trkpt><trkpt lat="43.9764317" lon="11.9760546"><ele>628.6</ele><time>2026-05-02T14:56:36.032Z</time></trkpt><trkpt lat="43.9763848" lon="11.9759449"><ele>626.0</ele><time>2026-05-02T14:56:38.032Z</time></trkpt><trkpt lat="43.9763192" lon="11.9758671"><ele>624.5714285714286</ele><time>2026-05-02T14:56:40.031Z</time></trkpt><trkpt lat="43.9762741" lon="11.9757944"><ele>623.1428571428571</ele><time>2026-05-02T14:56:42.032Z</time></trkpt><trkpt lat="43.9762788" lon="11.9756699"><ele>621.7142857142858</ele><time>2026-05-02T14:56:44.031Z</time></trkpt><trkpt lat="43.9762957" lon="11.9755803"><ele>620.2857142857142</ele><time>2026-05-02T14:56:45.031Z</time></trkpt><trkpt lat="43.9763142" lon="11.975489"><ele>618.8571428571429</ele><time>2026-05-02T14:56:46.031Z</time></trkpt><trkpt lat="43.97633" lon="11.9753981"><ele>617.4285714285714</ele><time>2026-05-02T14:56:47.031Z</time></trkpt><trkpt lat="43.9763498" lon="11.9752979"><ele>616.0</ele><time>2026-05-02T14:56:48.031Z</time></trkpt><trkpt lat="43.9763739" lon="11.9752001"><ele>616.0</ele><time>2026-05-02T14:56:49.031Z</time></trkpt><trkpt lat="43.9764033" lon="11.9751086"><ele>616.0</ele><time>2026-05-02T14:56:50.031Z</time></trkpt><trkpt lat="43.9764417" lon="11.9750169"><ele>616.0</ele><time>2026-05-02T14:56:51.031Z</time></trkpt><trkpt lat="43.9764805" lon="11.9749205"><ele>616.0</ele><time>2026-05-02T14:56:52.03Z</time></trkpt><trkpt lat="43.9765084" lon="11.9748275"><ele>616.0</ele><time>2026-05-02T14:56:53.03Z</time></trkpt><trkpt lat="43.9765123" lon="11.9747211"><ele>616.0</ele><time>2026-05-02T14:56:54.03Z</time></trkpt><trkpt lat="43.9764959" lon="11.9746103"><ele>615.3333333333334</ele><time>2026-05-02T14:56:55.03Z</time></trkpt><trkpt lat="43.9764771" lon="11.9745055"><ele>614.6666666666667</ele><time>2026-05-02T14:56:56.03Z</time></trkpt><trkpt lat="43.9764594" lon="11.9743961"><ele>614.0</ele><time>2026-05-02T14:56:57.031Z</time></trkpt><trkpt lat="43.9764436" lon="11.9742891"><ele>613.3333333333334</ele><time>2026-05-02T14:56:58.031Z</time></trkpt><trkpt lat="43.9764334" lon="11.9741846"><ele>612.6666666666666</ele><time>2026-05-02T14:56:59.031Z</time></trkpt><trkpt lat="43.9764216" lon="11.9740855"><ele>612.0</ele><time>2026-05-02T14:57:00.03Z</time></trkpt><trkpt lat="43.976414" lon="11.9739873"><ele>614.2</ele><time>2026-05-02T14:57:01.03Z</time></trkpt><trkpt lat="43.9764089" lon="11.9738234"><ele>616.4000000000001</ele><time>2026-05-02T14:57:03.03Z</time></trkpt><trkpt lat="43.9763896" lon="11.9736576"><ele>618.5999999999999</ele><time>2026-05-02T14:57:05.03Z</time></trkpt><trkpt lat="43.9763826" lon="11.973563"><ele>620.8</ele><time>2026-05-02T14:57:06.03Z</time></trkpt><trkpt lat="43.9763818" lon="11.973474"><ele>623.0</ele><time>2026-05-02T14:57:07.03Z</time></trkpt><trkpt lat="43.9763523" lon="11.9733411"><ele>623.8</ele><time>2026-05-02T14:57:09.03Z</time></trkpt><trkpt lat="43.9762639" lon="11.9732039"><ele>624.5999999999999</ele><time>2026-05-02T14:57:11.03Z</time></trkpt><trkpt lat="43.9762108" lon="11.9730982"><ele>625.4000000000001</ele><time>2026-05-02T14:57:12.03Z</time></trkpt><trkpt lat="43.9761705" lon="11.9729687"><ele>626.2</ele><time>2026-05-02T14:57:13.03Z</time></trkpt><trkpt lat="43.9761271" lon="11.972842"><ele>627.0</ele><time>2026-05-02T14:57:14.03Z</time></trkpt><trkpt lat="43.9760875" lon="11.9727154"><ele>627.0</ele><time>2026-05-02T14:57:15.03Z</time></trkpt><trkpt lat="43.9760614" lon="11.9725865"><ele>627.0</ele><time>2026-05-02T14:57:16.03Z</time></trkpt><trkpt lat="43.9760441" lon="11.9724561"><ele>627.0</ele><time>2026-05-02T14:57:17.03Z</time></trkpt><trkpt lat="43.9760336" lon="11.9723246"><ele>627.0</ele><time>2026-05-02T14:57:18.03Z</time></trkpt><trkpt lat="43.976019" lon="11.9721973"><ele>627.0</ele><time>2026-05-02T14:57:19.031Z</time></trkpt><trkpt lat="43.9759974" lon="11.9720634"><ele>626.6</ele><time>2026-05-02T14:57:20.03Z</time></trkpt><trkpt lat="43.9759802" lon="11.9719356"><ele>626.2</ele><time>2026-05-02T14:57:21.03Z</time></trkpt><trkpt lat="43.9759681" lon="11.9718058"><ele>625.8</ele><time>2026-05-02T14:57:22.03Z</time></trkpt><trkpt lat="43.9759626" lon="11.9716733"><ele>625.4</ele><time>2026-05-02T14:57:23.03Z</time></trkpt><trkpt lat="43.9759761" lon="11.9715384"><ele>625.0</ele><time>2026-05-02T14:57:24.031Z</time></trkpt><trkpt lat="43.9760188" lon="11.9713909"><ele>625.0</ele><time>2026-05-02T14:57:25.03Z</time></trkpt><trkpt lat="43.9760838" lon="11.9712314"><ele>625.0</ele><time>2026-05-02T14:57:26.03Z</time></trkpt><trkpt lat="43.9761559" lon="11.9710807"><ele>625.0</ele><time>2026-05-02T14:57:27.03Z</time></trkpt><trkpt lat="43.9762409" lon="11.970936"><ele>625.0</ele><time>2026-05-02T14:57:28.03Z</time></trkpt><trkpt lat="43.9763234" lon="11.970787"><ele>621.5</ele><time>2026-05-02T14:57:29.031Z</time></trkpt><trkpt lat="43.976406" lon="11.9706459"><ele>618.0</ele><time>2026-05-02T14:57:30.031Z</time></trkpt><trkpt lat="43.976483" lon="11.9704933"><ele>614.5</ele><time>2026-05-02T14:57:31.031Z</time></trkpt><trkpt lat="43.9765552" lon="11.9703347"><ele>611.0</ele><time>2026-05-02T14:57:32.031Z</time></trkpt><trkpt lat="43.9766252" lon="11.970171"><ele>599.75</ele><time>2026-05-02T14:57:33.03Z</time></trkpt><trkpt lat="43.9766967" lon="11.9700124"><ele>588.5</ele><time>2026-05-02T14:57:34.03Z</time></trkpt><trkpt lat="43.976764" lon="11.9698594"><ele>577.25</ele><time>2026-05-02T14:57:35.03Z</time></trkpt><trkpt lat="43.9768257" lon="11.9697019"><ele>566.0</ele><time>2026-05-02T14:57:36.03Z</time></trkpt><trkpt lat="43.976876" lon="11.9695355"><ele>566.0</ele><time>2026-05-02T14:57:37.03Z</time></trkpt><trkpt lat="43.976919" lon="11.9693576"><ele>566.0</ele><time>2026-05-02T14:57:38.03Z</time></trkpt><trkpt lat="43.9769535" lon="11.9691819"><ele>566.0</ele><time>2026-05-02T14:57:39.03Z</time></trkpt><trkpt lat="43.9769898" lon="11.9690045"><ele>566.0</ele><time>2026-05-02T14:57:40.03Z</time></trkpt><trkpt lat="43.9770274" lon="11.9688317"><ele>566.5</ele><time>2026-05-02T14:57:41.03Z</time></trkpt><trkpt lat="43.9770713" lon="11.9686662"><ele>567.0</ele><time>2026-05-02T14:57:42.031Z</time></trkpt><trkpt lat="43.9771215" lon="11.968505"><ele>567.5</ele><time>2026-05-02T14:57:43.03Z</time></trkpt><trkpt lat="43.9771715" lon="11.9683462"><ele>568.0</ele><time>2026-05-02T14:57:44.03Z</time></trkpt><trkpt lat="43.9772262" lon="11.9681951"><ele>568.0</ele><time>2026-05-02T14:57:45.03Z</time></trkpt><trkpt lat="43.9772826" lon="11.9680479"><ele>568.0</ele><time>2026-05-02T14:57:46.03Z</time></trkpt><trkpt lat="43.9773333" lon="11.9678998"><ele>568.0</ele><time>2026-05-02T14:57:47.031Z</time></trkpt><trkpt lat="43.977386" lon="11.9677458"><ele>568.0</ele><time>2026-05-02T14:57:48.03Z</time></trkpt><trkpt lat="43.9774371" lon="11.9675892"><ele>569.8</ele><time>2026-05-02T14:57:49.03Z</time></trkpt><trkpt lat="43.977485" lon="11.9674434"><ele>571.5999999999999</ele><time>2026-05-02T14:57:50.03Z</time></trkpt><trkpt lat="43.9775169" lon="11.9672928"><ele>573.4000000000001</ele><time>2026-05-02T14:57:51.03Z</time></trkpt><trkpt lat="43.9775288" lon="11.9671455"><ele>575.2</ele><time>2026-05-02T14:57:52.03Z</time></trkpt><trkpt lat="43.977526" lon="11.9669959"><ele>577.0</ele><time>2026-05-02T14:57:53.031Z</time></trkpt><trkpt lat="43.9775145" lon="11.966845"><ele>577.0</ele><time>2026-05-02T14:57:54.03Z</time></trkpt><trkpt lat="43.9774975" lon="11.9667131"><ele>577.0</ele><time>2026-05-02T14:57:55.03Z</time></trkpt><trkpt lat="43.9774793" lon="11.9665836"><ele>577.0</ele><time>2026-05-02T14:57:56.03Z</time></trkpt><trkpt lat="43.9774628" lon="11.966451"><ele>577.0</ele><time>2026-05-02T14:57:57.03Z</time></trkpt><trkpt lat="43.9774499" lon="11.9663165"><ele>577.0</ele><time>2026-05-02T14:57:58.031Z</time></trkpt><trkpt lat="43.9774453" lon="11.9661779"><ele>578.8000000000001</ele><time>2026-05-02T14:57:59.03Z</time></trkpt><trkpt lat="43.9774538" lon="11.9660404"><ele>580.6</ele><time>2026-05-02T14:58:00.03Z</time></trkpt><trkpt lat="43.9774811" lon="11.9659079"><ele>582.4000000000001</ele><time>2026-05-02T14:58:01.03Z</time></trkpt><trkpt lat="43.9775196" lon="11.9657834"><ele>584.2</ele><time>2026-05-02T14:58:02.03Z</time></trkpt><trkpt lat="43.9775598" lon="11.9656528"><ele>586.0</ele><time>2026-05-02T14:58:03.03Z</time></trkpt><trkpt lat="43.9776033" lon="11.9655202"><ele>586.2</ele><time>2026-05-02T14:58:04.03Z</time></trkpt><trkpt lat="43.9776464" lon="11.9653855"><ele>586.4000000000001</ele><time>2026-05-02T14:58:05.03Z</time></trkpt><trkpt lat="43.9776915" lon="11.9652509"><ele>586.6</ele><time>2026-05-02T14:58:06.03Z</time></trkpt><trkpt lat="43.9777369" lon="11.96512"><ele>586.8000000000001</ele><time>2026-05-02T14:58:07.03Z</time></trkpt><trkpt lat="43.9777815" lon="11.9649934"><ele>587.0</ele><time>2026-05-02T14:58:08.03Z</time></trkpt><trkpt lat="43.9778334" lon="11.9648687"><ele>587.6</ele><time>2026-05-02T14:58:09.03Z</time></trkpt><trkpt lat="43.9778824" lon="11.9647427"><ele>588.2</ele><time>2026-05-02T14:58:10.031Z</time></trkpt><trkpt lat="43.9779347" lon="11.9646215"><ele>588.8</ele><time>2026-05-02T14:58:11.03Z</time></trkpt><trkpt lat="43.9779877" lon="11.9645079"><ele>589.4</ele><time>2026-05-02T14:58:12.03Z</time></trkpt><trkpt lat="43.978039" lon="11.9644067"><ele>590.0</ele><time>2026-05-02T14:58:13.03Z</time></trkpt><trkpt lat="43.9780922" lon="11.9643179"><ele>590.0000000000001</ele><time>2026-05-02T14:58:14.031Z</time></trkpt><trkpt lat="43.9781403" lon="11.9642345"><ele>590.0</ele><time>2026-05-02T14:58:15.03Z</time></trkpt><trkpt lat="43.9781849" lon="11.9641518"><ele>590.0</ele><time>2026-05-02T14:58:16.03Z</time></trkpt><trkpt lat="43.9782269" lon="11.9640751"><ele>590.0</ele><time>2026-05-02T14:58:17.03Z</time></trkpt><trkpt lat="43.978266" lon="11.9639953"><ele>590.0</ele><time>2026-05-02T14:58:18.031Z</time></trkpt><trkpt lat="43.9783105" lon="11.9639229"><ele>590.0000000000001</ele><time>2026-05-02T14:58:19.03Z</time></trkpt><trkpt lat="43.9783582" lon="11.9638543"><ele>590.0</ele><time>2026-05-02T14:58:20.03Z</time></trkpt><trkpt lat="43.9784024" lon="11.963788"><ele>589.6666666666666</ele><time>2026-05-02T14:58:21.03Z</time></trkpt><trkpt lat="43.9784514" lon="11.9637232"><ele>589.3333333333333</ele><time>2026-05-02T14:58:22.03Z</time></trkpt><trkpt lat="43.9785102" lon="11.9636547"><ele>589.0</ele><time>2026-05-02T14:58:23.031Z</time></trkpt><trkpt lat="43.9785737" lon="11.9635856"><ele>588.6666666666666</ele><time>2026-05-02T14:58:24.03Z</time></trkpt><trkpt lat="43.978646" lon="11.9635172"><ele>588.3333333333334</ele><time>2026-05-02T14:58:25.03Z</time></trkpt><trkpt lat="43.9787267" lon="11.9634451"><ele>588.0</ele><time>2026-05-02T14:58:26.03Z</time></trkpt><trkpt lat="43.9788135" lon="11.9633746"><ele>587.1999999999999</ele><time>2026-05-02T14:58:27.03Z</time></trkpt><trkpt lat="43.9789066" lon="11.9632984"><ele>586.4</ele><time>2026-05-02T14:58:28.03Z</time></trkpt><trkpt lat="43.9789995" lon="11.9632175"><ele>585.5999999999999</ele><time>2026-05-02T14:58:29.03Z</time></trkpt><trkpt lat="43.9790966" lon="11.9631353"><ele>584.8</ele><time>2026-05-02T14:58:30.03Z</time></trkpt><trkpt lat="43.9791911" lon="11.9630598"><ele>584.0</ele><time>2026-05-02T14:58:31.03Z</time></trkpt><trkpt lat="43.9792815" lon="11.9629871"><ele>586.2</ele><time>2026-05-02T14:58:32.03Z</time></trkpt><trkpt lat="43.9793704" lon="11.9629247"><ele>588.4</ele><time>2026-05-02T14:58:33.03Z</time></trkpt><trkpt lat="43.9794665" lon="11.9628748"><ele>590.6</ele><time>2026-05-02T14:58:34.03Z</time></trkpt><trkpt lat="43.979569" lon="11.9628263"><ele>592.8</ele><time>2026-05-02T14:58:35.03Z</time></trkpt><trkpt lat="43.9796706" lon="11.9627763"><ele>595.0</ele><time>2026-05-02T14:58:36.031Z</time></trkpt><trkpt lat="43.9797729" lon="11.9627243"><ele>595.0</ele><time>2026-05-02T14:58:37.03Z</time></trkpt><trkpt lat="43.9798689" lon="11.9626699"><ele>595.0</ele><time>2026-05-02T14:58:38.03Z</time></trkpt><trkpt lat="43.9799617" lon="11.9626069"><ele>595.0</ele><time>2026-05-02T14:58:39.03Z</time></trkpt><trkpt lat="43.9800479" lon="11.9625334"><ele>595.0</ele><time>2026-05-02T14:58:40.03Z</time></trkpt><trkpt lat="43.9801302" lon="11.9624432"><ele>595.0</ele><time>2026-05-02T14:58:41.031Z</time></trkpt><trkpt lat="43.980209" lon="11.9623419"><ele>592.6</ele><time>2026-05-02T14:58:42.03Z</time></trkpt><trkpt lat="43.9802931" lon="11.9622503"><ele>590.2</ele><time>2026-05-02T14:58:43.031Z</time></trkpt><trkpt lat="43.9803813" lon="11.9621763"><ele>587.8</ele><time>2026-05-02T14:58:44.03Z</time></trkpt><trkpt lat="43.9804754" lon="11.9621204"><ele>585.4</ele><time>2026-05-02T14:58:45.03Z</time></trkpt><trkpt lat="43.9805825" lon="11.9620837"><ele>583.0</ele><time>2026-05-02T14:58:46.03Z</time></trkpt><trkpt lat="43.9806965" lon="11.9620653"><ele>583.0</ele><time>2026-05-02T14:58:47.03Z</time></trkpt><trkpt lat="43.9808122" lon="11.9620563"><ele>583.0</ele><time>2026-05-02T14:58:48.03Z</time></trkpt><trkpt lat="43.9809303" lon="11.9620489"><ele>583.0</ele><time>2026-05-02T14:58:49.03Z</time></trkpt><trkpt lat="43.9810479" lon="11.9620382"><ele>583.0</ele><time>2026-05-02T14:58:50.031Z</time></trkpt><trkpt lat="43.9811703" lon="11.9620262"><ele>576.0</ele><time>2026-05-02T14:58:51.03Z</time></trkpt><trkpt lat="43.9812922" lon="11.9620112"><ele>569.0</ele><time>2026-05-02T14:58:52.03Z</time></trkpt><trkpt lat="43.9814166" lon="11.9620001"><ele>562.0</ele><time>2026-05-02T14:58:53.03Z</time></trkpt><trkpt lat="43.9815384" lon="11.9619943"><ele>555.0</ele><time>2026-05-02T14:58:54.031Z</time></trkpt><trkpt lat="43.9816626" lon="11.9619816"><ele>547.25</ele><time>2026-05-02T14:58:55.03Z</time></trkpt><trkpt lat="43.9817714" lon="11.9619407"><ele>539.5</ele><time>2026-05-02T14:58:56.031Z</time></trkpt><trkpt lat="43.9818853" lon="11.9618728"><ele>531.75</ele><time>2026-05-02T14:58:57.03Z</time></trkpt><trkpt lat="43.9819978" lon="11.9617978"><ele>524.0</ele><time>2026-05-02T14:58:58.031Z</time></trkpt><trkpt lat="43.9821088" lon="11.9617196"><ele>529.25</ele><time>2026-05-02T14:58:59.03Z</time></trkpt><trkpt lat="43.9822173" lon="11.9616419"><ele>534.5</ele><time>2026-05-02T14:59:00.03Z</time></trkpt><trkpt lat="43.9823243" lon="11.9615725"><ele>539.75</ele><time>2026-05-02T14:59:01.03Z</time></trkpt><trkpt lat="43.9824325" lon="11.9615101"><ele>545.0</ele><time>2026-05-02T14:59:02.031Z</time></trkpt><trkpt lat="43.9825328" lon="11.9614442"><ele>545.0</ele><time>2026-05-02T14:59:03.03Z</time></trkpt><trkpt lat="43.9826351" lon="11.9613673"><ele>545.0</ele><time>2026-05-02T14:59:04.03Z</time></trkpt><trkpt lat="43.9827315" lon="11.961281"><ele>545.0</ele><time>2026-05-02T14:59:05.03Z</time></trkpt><trkpt lat="43.9828273" lon="11.9611899"><ele>545.0</ele><time>2026-05-02T14:59:06.03Z</time></trkpt><trkpt lat="43.9829233" lon="11.9611081"><ele>545.0</ele><time>2026-05-02T14:59:07.03Z</time></trkpt><trkpt lat="43.9830205" lon="11.9610178"><ele>545.0</ele><time>2026-05-02T14:59:08.031Z</time></trkpt><trkpt lat="43.9831129" lon="11.9609166"><ele>545.0</ele><time>2026-05-02T14:59:09.03Z</time></trkpt><trkpt lat="43.9832008" lon="11.9607985"><ele>545.0</ele><time>2026-05-02T14:59:10.03Z</time></trkpt><trkpt lat="43.9832819" lon="11.9606812"><ele>541.25</ele><time>2026-05-02T14:59:11.03Z</time></trkpt><trkpt lat="43.9833569" lon="11.960551"><ele>537.5</ele><time>2026-05-02T14:59:12.031Z</time></trkpt><trkpt lat="43.9834285" lon="11.9604198"><ele>533.75</ele><time>2026-05-02T14:59:13.03Z</time></trkpt><trkpt lat="43.9834941" lon="11.960285"><ele>530.0</ele><time>2026-05-02T14:59:14.031Z</time></trkpt><trkpt lat="43.9835653" lon="11.9601568"><ele>534.6</ele><time>2026-05-02T14:59:15.03Z</time></trkpt><trkpt lat="43.9836362" lon="11.9600324"><ele>539.2</ele><time>2026-05-02T14:59:16.03Z</time></trkpt><trkpt lat="43.9836947" lon="11.9599029"><ele>543.8</ele><time>2026-05-02T14:59:17.031Z</time></trkpt><trkpt lat="43.9837334" lon="11.9597652"><ele>548.4</ele><time>2026-05-02T14:59:18.03Z</time></trkpt><trkpt lat="43.9837547" lon="11.9596181"><ele>553.0</ele><time>2026-05-02T14:59:19.03Z</time></trkpt><trkpt lat="43.9837743" lon="11.9594644"><ele>553.0</ele><time>2026-05-02T14:59:20.03Z</time></trkpt><trkpt lat="43.9837957" lon="11.9593036"><ele>553.0</ele><time>2026-05-02T14:59:21.03Z</time></trkpt><trkpt lat="43.9838327" lon="11.9591451"><ele>553.0</ele><time>2026-05-02T14:59:22.031Z</time></trkpt><trkpt lat="43.9838694" lon="11.9589896"><ele>553.0</ele><time>2026-05-02T14:59:23.03Z</time></trkpt><trkpt lat="43.9839087" lon="11.9588356"><ele>554.5</ele><time>2026-05-02T14:59:24.031Z</time></trkpt><trkpt lat="43.9839482" lon="11.9586825"><ele>556.0</ele><time>2026-05-02T14:59:25.03Z</time></trkpt><trkpt lat="43.9839927" lon="11.9585327"><ele>557.5</ele><time>2026-05-02T14:59:26.03Z</time></trkpt><trkpt lat="43.9840428" lon="11.9583934"><ele>559.0</ele><time>2026-05-02T14:59:27.03Z</time></trkpt><trkpt lat="43.9841015" lon="11.9582556"><ele>559.0</ele><time>2026-05-02T14:59:28.03Z</time></trkpt><trkpt lat="43.9841628" lon="11.9581251"><ele>559.0</ele><time>2026-05-02T14:59:29.031Z</time></trkpt><trkpt lat="43.9842349" lon="11.9579935"><ele>559.0</ele><time>2026-05-02T14:59:30.031Z</time></trkpt><trkpt lat="43.9843075" lon="11.9578558"><ele>559.0</ele><time>2026-05-02T14:59:31.03Z</time></trkpt><trkpt lat="43.9843855" lon="11.957722"><ele>555.5</ele><time>2026-05-02T14:59:32.03Z</time></trkpt><trkpt lat="43.9844598" lon="11.957591"><ele>552.0</ele><time>2026-05-02T14:59:33.03Z</time></trkpt><trkpt lat="43.9845343" lon="11.9574588"><ele>548.5</ele><time>2026-05-02T14:59:34.03Z</time></trkpt><trkpt lat="43.9846055" lon="11.957324"><ele>545.0</ele><time>2026-05-02T14:59:35.03Z</time></trkpt><trkpt lat="43.9846655" lon="11.9571819"><ele>545.0</ele><time>2026-05-02T14:59:36.03Z</time></trkpt><trkpt lat="43.9847061" lon="11.9570378"><ele>545.0</ele><time>2026-05-02T14:59:37.03Z</time></trkpt><trkpt lat="43.984747" lon="11.9568841"><ele>545.0</ele><time>2026-05-02T14:59:38.03Z</time></trkpt><trkpt lat="43.9847958" lon="11.9567477"><ele>545.0</ele><time>2026-05-02T14:59:39.03Z</time></trkpt><trkpt lat="43.9848552" lon="11.9566213"><ele>545.0</ele><time>2026-05-02T14:59:40.03Z</time></trkpt><trkpt lat="43.9849198" lon="11.9565012"><ele>543.2</ele><time>2026-05-02T14:59:41.03Z</time></trkpt><trkpt lat="43.9849913" lon="11.9564027"><ele>541.4</ele><time>2026-05-02T14:59:42.03Z</time></trkpt><trkpt lat="43.9850716" lon="11.9563115"><ele>539.6</ele><time>2026-05-02T14:59:43.03Z</time></trkpt><trkpt lat="43.9851475" lon="11.9562059"><ele>537.8</ele><time>2026-05-02T14:59:44.031Z</time></trkpt><trkpt lat="43.9852122" lon="11.956094"><ele>536.0</ele><time>2026-05-02T14:59:45.03Z</time></trkpt><trkpt lat="43.9852768" lon="11.9559857"><ele>536.0</ele><time>2026-05-02T14:59:46.03Z</time></trkpt><trkpt lat="43.9853528" lon="11.9558928"><ele>536.0</ele><time>2026-05-02T14:59:47.03Z</time></trkpt><trkpt lat="43.9854425" lon="11.9558208"><ele>536.0</ele><time>2026-05-02T14:59:48.03Z</time></trkpt><trkpt lat="43.9855296" lon="11.9557544"><ele>536.0</ele><time>2026-05-02T14:59:49.03Z</time></trkpt><trkpt lat="43.9856061" lon="11.9556957"><ele>536.0</ele><time>2026-05-02T14:59:50.03Z</time></trkpt><trkpt lat="43.9856813" lon="11.9556293"><ele>537.8333333333333</ele><time>2026-05-02T14:59:51.03Z</time></trkpt><trkpt lat="43.9857561" lon="11.9555659"><ele>539.6666666666666</ele><time>2026-05-02T14:59:52.031Z</time></trkpt><trkpt lat="43.985836" lon="11.955506"><ele>541.5</ele><time>2026-05-02T14:59:53.031Z</time></trkpt><trkpt lat="43.9859109" lon="11.9554495"><ele>543.3333333333334</ele><time>2026-05-02T14:59:54.03Z</time></trkpt><trkpt lat="43.985984" lon="11.9553976"><ele>545.1666666666667</ele><time>2026-05-02T14:59:55.031Z</time></trkpt><trkpt lat="43.986055" lon="11.9553568"><ele>547.0</ele><time>2026-05-02T14:59:56.031Z</time></trkpt><trkpt lat="43.9861309" lon="11.9553224"><ele>547.0</ele><time>2026-05-02T14:59:57.03Z</time></trkpt><trkpt lat="43.9861999" lon="11.9552852"><ele>547.0</ele><time>2026-05-02T14:59:58.03Z</time></trkpt><trkpt lat="43.9862717" lon="11.9552515"><ele>547.0</ele><time>2026-05-02T14:59:59.031Z</time></trkpt><trkpt lat="43.9863442" lon="11.9552211"><ele>547.0</ele><time>2026-05-02T15:00:00.03Z</time></trkpt><trkpt lat="43.9864156" lon="11.9551872"><ele>547.0</ele><time>2026-05-02T15:00:01.03Z</time></trkpt><trkpt lat="43.9864856" lon="11.9551525"><ele>547.0</ele><time>2026-05-02T15:00:02.03Z</time></trkpt><trkpt lat="43.9865601" lon="11.9551216"><ele>547.0</ele><time>2026-05-02T15:00:03.03Z</time></trkpt><trkpt lat="43.9866343" lon="11.9550978"><ele>547.0</ele><time>2026-05-02T15:00:04.03Z</time></trkpt><trkpt lat="43.9867063" lon="11.9550868"><ele>547.0</ele><time>2026-05-02T15:00:05.03Z</time></trkpt><trkpt lat="43.9867767" lon="11.9550745"><ele>547.0</ele><time>2026-05-02T15:00:06.03Z</time></trkpt><trkpt lat="43.9868469" lon="11.9550747"><ele>547.0</ele><time>2026-05-02T15:00:07.03Z</time></trkpt><trkpt lat="43.9869156" lon="11.9550755"><ele>547.0</ele><time>2026-05-02T15:00:08.03Z</time></trkpt><trkpt lat="43.9869825" lon="11.9550761"><ele>547.0</ele><time>2026-05-02T15:00:09.031Z</time></trkpt><trkpt lat="43.9870536" lon="11.9550735"><ele>546.5</ele><time>2026-05-02T15:00:10.03Z</time></trkpt><trkpt lat="43.9871262" lon="11.9550683"><ele>546.0</ele><time>2026-05-02T15:00:11.031Z</time></trkpt><trkpt lat="43.9872017" lon="11.9550492"><ele>545.5</ele><time>2026-05-02T15:00:12.03Z</time></trkpt><trkpt lat="43.9872788" lon="11.9550207"><ele>545.0</ele><time>2026-05-02T15:00:13.03Z</time></trkpt><trkpt lat="43.9873641" lon="11.9549864"><ele>544.5</ele><time>2026-05-02T15:00:14.03Z</time></trkpt><trkpt lat="43.9874469" lon="11.9549516"><ele>544.0</ele><time>2026-05-02T15:00:15.031Z</time></trkpt><trkpt lat="43.9875329" lon="11.9549093"><ele>549.5</ele><time>2026-05-02T15:00:16.03Z</time></trkpt><trkpt lat="43.9876199" lon="11.9548723"><ele>555.0</ele><time>2026-05-02T15:00:17.03Z</time></trkpt><trkpt lat="43.9877049" lon="11.9548294"><ele>560.5</ele><time>2026-05-02T15:00:18.03Z</time></trkpt><trkpt lat="43.9877865" lon="11.9547855"><ele>566.0</ele><time>2026-05-02T15:00:19.031Z</time></trkpt><trkpt lat="43.9878676" lon="11.9547425"><ele>571.5</ele><time>2026-05-02T15:00:20.03Z</time></trkpt><trkpt lat="43.9879488" lon="11.9547041"><ele>577.0</ele><time>2026-05-02T15:00:21.03Z</time></trkpt><trkpt lat="43.9880257" lon="11.9546719"><ele>577.0</ele><time>2026-05-02T15:00:22.031Z</time></trkpt><trkpt lat="43.9880957" lon="11.9546365"><ele>577.0</ele><time>2026-05-02T15:00:23.031Z</time></trkpt><trkpt lat="43.9881535" lon="11.9545899"><ele>577.0</ele><time>2026-05-02T15:00:24.03Z</time></trkpt><trkpt lat="43.9882077" lon="11.9545403"><ele>577.0</ele><time>2026-05-02T15:00:25.031Z</time></trkpt><trkpt lat="43.9882912" lon="11.9544505"><ele>577.0</ele><time>2026-05-02T15:00:27.03Z</time></trkpt><trkpt lat="43.9883563" lon="11.9544133"><ele>577.0</ele><time>2026-05-02T15:00:29.031Z</time></trkpt><trkpt lat="43.9884095" lon="11.9543656"><ele>577.0</ele><time>2026-05-02T15:00:31.03Z</time></trkpt><trkpt lat="43.988463" lon="11.9542795"><ele>574.6666666666667</ele><time>2026-05-02T15:00:33.03Z</time></trkpt><trkpt lat="43.9885271" lon="11.9541504"><ele>572.3333333333334</ele><time>2026-05-02T15:00:35.03Z</time></trkpt><trkpt lat="43.9885693" lon="11.9540849"><ele>570.0</ele><time>2026-05-02T15:00:36.03Z</time></trkpt><trkpt lat="43.988619" lon="11.9540288"><ele>567.6666666666666</ele><time>2026-05-02T15:00:37.03Z</time></trkpt><trkpt lat="43.9887083" lon="11.9539478"><ele>565.3333333333333</ele><time>2026-05-02T15:00:39.03Z</time></trkpt><trkpt lat="43.9887699" lon="11.9538433"><ele>563.0</ele><time>2026-05-02T15:00:41.03Z</time></trkpt><trkpt lat="43.9888059" lon="11.9537199"><ele>563.0</ele><time>2026-05-02T15:00:43.03Z</time></trkpt><trkpt lat="43.9888147" lon="11.9536132"><ele>563.0</ele><time>2026-05-02T15:00:45.031Z</time></trkpt><trkpt lat="43.9888225" lon="11.953485"><ele>563.0</ele><time>2026-05-02T15:00:47.03Z</time></trkpt><trkpt lat="43.9888456" lon="11.9533533"><ele>563.0</ele><time>2026-05-02T15:00:49.031Z</time></trkpt><trkpt lat="43.9888799" lon="11.9532424"><ele>563.0</ele><time>2026-05-02T15:00:51.03Z</time></trkpt><trkpt lat="43.9889313" lon="11.9531245"><ele>561.5</ele><time>2026-05-02T15:00:53.03Z</time></trkpt><trkpt lat="43.9889905" lon="11.9530119"><ele>560.0</ele><time>2026-05-02T15:00:55.03Z</time></trkpt><trkpt lat="43.9890211" lon="11.9529336"><ele>558.5</ele><time>2026-05-02T15:00:56.03Z</time></trkpt><trkpt lat="43.9890851" lon="11.9528139"><ele>557.0</ele><time>2026-05-02T15:00:58.03Z</time></trkpt><trkpt lat="43.9891185" lon="11.9527258"><ele>555.5</ele><time>2026-05-02T15:01:00.031Z</time></trkpt><trkpt lat="43.9891578" lon="11.9526415"><ele>554.0</ele><time>2026-05-02T15:01:04.031Z</time></trkpt><trkpt lat="43.9892303" lon="11.952607"><ele>554.0</ele><time>2026-05-02T15:01:10.03Z</time></trkpt><trkpt lat="43.9892968" lon="11.9525632"><ele>554.0</ele><time>2026-05-02T15:01:14.03Z</time></trkpt><trkpt lat="43.9893518" lon="11.9525105"><ele>554.0</ele><time>2026-05-02T15:01:27.03Z</time></trkpt><trkpt lat="43.9894301" lon="11.9524558"><ele>554.0</ele><time>2026-05-02T15:01:30.029Z</time></trkpt><trkpt lat="43.989513" lon="11.9524363"><ele>554.0</ele><time>2026-05-02T15:01:32.029Z</time></trkpt><trkpt lat="43.9896485" lon="11.9524119"><ele>554.0</ele><time>2026-05-02T15:01:34.029Z</time></trkpt><trkpt lat="43.9897474" lon="11.9524008"><ele>558.8</ele><time>2026-05-02T15:01:35.029Z</time></trkpt><trkpt lat="43.9898571" lon="11.9523837"><ele>563.5999999999999</ele><time>2026-05-02T15:01:36.029Z</time></trkpt><trkpt lat="43.989962" lon="11.9523647"><ele>568.4</ele><time>2026-05-02T15:01:37.029Z</time></trkpt><trkpt lat="43.9900563" lon="11.9523492"><ele>573.1999999999999</ele><time>2026-05-02T15:01:38.029Z</time></trkpt><trkpt lat="43.9901368" lon="11.9523124"><ele>578.0</ele><time>2026-05-02T15:01:39.029Z</time></trkpt><trkpt lat="43.9902242" lon="11.9522762"><ele>578.0</ele><time>2026-05-02T15:01:40.029Z</time></trkpt><trkpt lat="43.9903101" lon="11.9522338"><ele>578.0</ele><time>2026-05-02T15:01:41.029Z</time></trkpt><trkpt lat="43.9903843" lon="11.9522117"><ele>578.0</ele><time>2026-05-02T15:01:42.029Z</time></trkpt><trkpt lat="43.9904784" lon="11.9521994"><ele>578.0</ele><time>2026-05-02T15:01:44.029Z</time></trkpt><trkpt lat="43.990515" lon="11.9521191"><ele>578.0</ele><time>2026-05-02T15:01:51.029Z</time></trkpt><trkpt lat="43.9905516" lon="11.9520095"><ele>578.0</ele><time>2026-05-02T15:01:54.029Z</time></trkpt><trkpt lat="43.9905993" lon="11.9519396"><ele>578.0</ele><time>2026-05-02T15:01:56.029Z</time></trkpt><trkpt lat="43.9906437" lon="11.951865"><ele>578.0</ele><time>2026-05-02T15:01:58.029Z</time></trkpt><trkpt lat="43.9907124" lon="11.9517992"><ele>578.0</ele><time>2026-05-02T15:02:00.029Z</time></trkpt><trkpt lat="43.9907896" lon="11.9517233"><ele>578.0</ele><time>2026-05-02T15:02:02.03Z</time></trkpt><trkpt lat="43.990869" lon="11.951658"><ele>578.0</ele><time>2026-05-02T15:02:04.029Z</time></trkpt><trkpt lat="43.9909354" lon="11.951574"><ele>578.0</ele><time>2026-05-02T15:02:06.029Z</time></trkpt><trkpt lat="43.990979" lon="11.9514386"><ele>573.0</ele><time>2026-05-02T15:02:23.029Z</time></trkpt><trkpt lat="43.9910069" lon="11.9513011"><ele>568.0</ele><time>2026-05-02T15:02:25.029Z</time></trkpt><trkpt lat="43.9910383" lon="11.9511555"><ele>563.0</ele><time>2026-05-02T15:02:27.029Z</time></trkpt><trkpt lat="43.9910668" lon="11.9510265"><ele>558.0</ele><time>2026-05-02T15:02:29.029Z</time></trkpt><trkpt lat="43.9910879" lon="11.9509036"><ele>553.0</ele><time>2026-05-02T15:02:31.029Z</time></trkpt><trkpt lat="43.9911017" lon="11.9507602"><ele>552.4</ele><time>2026-05-02T15:02:33.029Z</time></trkpt><trkpt lat="43.9911134" lon="11.9506134"><ele>551.8</ele><time>2026-05-02T15:02:35.029Z</time></trkpt><trkpt lat="43.9911354" lon="11.9504622"><ele>551.2</ele><time>2026-05-02T15:02:37.029Z</time></trkpt><trkpt lat="43.9911709" lon="11.9503208"><ele>550.6</ele><time>2026-05-02T15:02:39.029Z</time></trkpt><trkpt lat="43.9912031" lon="11.9501962"><ele>550.0</ele><time>2026-05-02T15:02:41.03Z</time></trkpt><trkpt lat="43.9912311" lon="11.9500815"><ele>548.4</ele><time>2026-05-02T15:02:43.029Z</time></trkpt><trkpt lat="43.9912764" lon="11.9499716"><ele>546.8</ele><time>2026-05-02T15:02:45.03Z</time></trkpt><trkpt lat="43.9913537" lon="11.9498875"><ele>545.2</ele><time>2026-05-02T15:02:47.029Z</time></trkpt><trkpt lat="43.9914515" lon="11.9498315"><ele>543.6</ele><time>2026-05-02T15:02:49.029Z</time></trkpt><trkpt lat="43.9915402" lon="11.9497587"><ele>542.0</ele><time>2026-05-02T15:02:51.029Z</time></trkpt><trkpt lat="43.9916055" lon="11.9496851"><ele>539.6</ele><time>2026-05-02T15:02:53.029Z</time></trkpt><trkpt lat="43.9916902" lon="11.9496131"><ele>537.2</ele><time>2026-05-02T15:02:55.03Z</time></trkpt><trkpt lat="43.9917602" lon="11.9495685"><ele>534.8</ele><time>2026-05-02T15:02:57.03Z</time></trkpt><trkpt lat="43.9917531" lon="11.9494643"><ele>532.4</ele><time>2026-05-02T15:02:59.029Z</time></trkpt><trkpt lat="43.9917082" lon="11.9493212"><ele>530.0</ele><time>2026-05-02T15:03:01.029Z</time></trkpt><trkpt lat="43.9916645" lon="11.9491817"><ele>530.0</ele><time>2026-05-02T15:03:03.029Z</time></trkpt><trkpt lat="43.9916299" lon="11.9490526"><ele>530.0</ele><time>2026-05-02T15:03:05.029Z</time></trkpt><trkpt lat="43.9915977" lon="11.9489439"><ele>530.0</ele><time>2026-05-02T15:03:08.029Z</time></trkpt><trkpt lat="43.9915598" lon="11.9488632"><ele>530.0</ele><time>2026-05-02T15:03:10.029Z</time></trkpt><trkpt lat="43.9915058" lon="11.9488046"><ele>530.0</ele><time>2026-05-02T15:03:12.029Z</time></trkpt><trkpt lat="43.9915387" lon="11.9487057"><ele>530.0</ele><time>2026-05-02T15:03:17.029Z</time></trkpt><trkpt lat="43.9916054" lon="11.9486975"><ele>527.2</ele><time>2026-05-02T15:03:18.03Z</time></trkpt><trkpt lat="43.9916813" lon="11.9486822"><ele>524.4</ele><time>2026-05-02T15:03:19.029Z</time></trkpt><trkpt lat="43.9917703" lon="11.9486388"><ele>521.6</ele><time>2026-05-02T15:03:20.029Z</time></trkpt><trkpt lat="43.9918793" lon="11.9485989"><ele>518.8</ele><time>2026-05-02T15:03:21.03Z</time></trkpt><trkpt lat="43.9919932" lon="11.9485562"><ele>516.0</ele><time>2026-05-02T15:03:22.029Z</time></trkpt><trkpt lat="43.9921034" lon="11.9485372"><ele>516.0</ele><time>2026-05-02T15:03:23.029Z</time></trkpt><trkpt lat="43.9922062" lon="11.9485039"><ele>516.0</ele><time>2026-05-02T15:03:24.029Z</time></trkpt><trkpt lat="43.992303" lon="11.9484673"><ele>516.0</ele><time>2026-05-02T15:03:25.029Z</time></trkpt><trkpt lat="43.9923994" lon="11.9484323"><ele>516.0</ele><time>2026-05-02T15:03:26.029Z</time></trkpt><trkpt lat="43.9924879" lon="11.9483806"><ele>516.0</ele><time>2026-05-02T15:03:27.03Z</time></trkpt><trkpt lat="43.9925733" lon="11.9483193"><ele>511.4</ele><time>2026-05-02T15:03:28.029Z</time></trkpt><trkpt lat="43.9926574" lon="11.9482571"><ele>506.8</ele><time>2026-05-02T15:03:29.03Z</time></trkpt><trkpt lat="43.9927407" lon="11.9481876"><ele>502.19999999999993</ele><time>2026-05-02T15:03:30.029Z</time></trkpt><trkpt lat="43.9928201" lon="11.948101"><ele>497.59999999999997</ele><time>2026-05-02T15:03:31.029Z</time></trkpt><trkpt lat="43.992893" lon="11.9480006"><ele>493.0</ele><time>2026-05-02T15:03:32.03Z</time></trkpt><trkpt lat="43.9929557" lon="11.9478965"><ele>493.0</ele><time>2026-05-02T15:03:33.029Z</time></trkpt><trkpt lat="43.993018" lon="11.9477874"><ele>492.99999999999994</ele><time>2026-05-02T15:03:34.029Z</time></trkpt><trkpt lat="43.993057" lon="11.9476664"><ele>492.99999999999994</ele><time>2026-05-02T15:03:35.029Z</time></trkpt><trkpt lat="43.9930747" lon="11.9475463"><ele>493.0</ele><time>2026-05-02T15:03:36.029Z</time></trkpt><trkpt lat="43.9930737" lon="11.9474119"><ele>493.0</ele><time>2026-05-02T15:03:37.029Z</time></trkpt><trkpt lat="43.9930455" lon="11.9472909"><ele>493.00000000000006</ele><time>2026-05-02T15:03:38.029Z</time></trkpt><trkpt lat="43.9930023" lon="11.9471764"><ele>493.0</ele><time>2026-05-02T15:03:39.029Z</time></trkpt><trkpt lat="43.9929605" lon="11.9470618"><ele>493.0</ele><time>2026-05-02T15:03:40.029Z</time></trkpt><trkpt lat="43.9929147" lon="11.9469469"><ele>493.0</ele><time>2026-05-02T15:03:41.029Z</time></trkpt><trkpt lat="43.9928682" lon="11.946842"><ele>493.00000000000006</ele><time>2026-05-02T15:03:42.03Z</time></trkpt><trkpt lat="43.9928318" lon="11.94675"><ele>493.0</ele><time>2026-05-02T15:03:43.03Z</time></trkpt><trkpt lat="43.9928371" lon="11.946594"><ele>491.59999999999997</ele><time>2026-05-02T15:03:45.029Z</time></trkpt><trkpt lat="43.9929021" lon="11.9465191"><ele>490.19999999999993</ele><time>2026-05-02T15:03:46.029Z</time></trkpt><trkpt lat="43.992981" lon="11.9464537"><ele>488.8</ele><time>2026-05-02T15:03:47.029Z</time></trkpt><trkpt lat="43.9930643" lon="11.9463778"><ele>487.4</ele><time>2026-05-02T15:03:48.029Z</time></trkpt><trkpt lat="43.993136" lon="11.9462796"><ele>486.0</ele><time>2026-05-02T15:03:49.03Z</time></trkpt><trkpt lat="43.993203" lon="11.9461668"><ele>486.0</ele><time>2026-05-02T15:03:50.029Z</time></trkpt><trkpt lat="43.99327" lon="11.9460514"><ele>486.0</ele><time>2026-05-02T15:03:51.029Z</time></trkpt><trkpt lat="43.9933347" lon="11.9459346"><ele>486.0</ele><time>2026-05-02T15:03:52.029Z</time></trkpt><trkpt lat="43.9934035" lon="11.9458131"><ele>486.0</ele><time>2026-05-02T15:03:53.029Z</time></trkpt><trkpt lat="43.9934732" lon="11.9456938"><ele>486.0</ele><time>2026-05-02T15:03:54.029Z</time></trkpt><trkpt lat="43.9935455" lon="11.9455649"><ele>477.8</ele><time>2026-05-02T15:03:55.029Z</time></trkpt><trkpt lat="43.9936116" lon="11.9454493"><ele>469.6</ele><time>2026-05-02T15:03:56.029Z</time></trkpt><trkpt lat="43.9936709" lon="11.9453522"><ele>461.4</ele><time>2026-05-02T15:03:57.029Z</time></trkpt><trkpt lat="43.9937249" lon="11.9452588"><ele>453.2</ele><time>2026-05-02T15:03:58.029Z</time></trkpt><trkpt lat="43.9937769" lon="11.9451609"><ele>445.0</ele><time>2026-05-02T15:03:59.03Z</time></trkpt><trkpt lat="43.9938181" lon="11.945065"><ele>445.1666666666667</ele><time>2026-05-02T15:04:00.029Z</time></trkpt><trkpt lat="43.9938474" lon="11.9449654"><ele>445.33333333333337</ele><time>2026-05-02T15:04:01.029Z</time></trkpt><trkpt lat="43.9938583" lon="11.9448668"><ele>445.5</ele><time>2026-05-02T15:04:02.03Z</time></trkpt><trkpt lat="43.9938655" lon="11.9447735"><ele>445.66666666666663</ele><time>2026-05-02T15:04:03.029Z</time></trkpt><trkpt lat="43.993862" lon="11.9446817"><ele>445.8333333333333</ele><time>2026-05-02T15:04:04.029Z</time></trkpt><trkpt lat="43.9938573" lon="11.9445908"><ele>446.0</ele><time>2026-05-02T15:04:05.029Z</time></trkpt><trkpt lat="43.9938628" lon="11.9444114"><ele>445.99999999999994</ele><time>2026-05-02T15:04:07.029Z</time></trkpt><trkpt lat="43.9938576" lon="11.9443068"><ele>446.0</ele><time>2026-05-02T15:04:08.03Z</time></trkpt><trkpt lat="43.9938608" lon="11.944201"><ele>446.0</ele><time>2026-05-02T15:04:09.029Z</time></trkpt><trkpt lat="43.993864" lon="11.9440854"><ele>446.0</ele><time>2026-05-02T15:04:10.029Z</time></trkpt><trkpt lat="43.9938668" lon="11.9439584"><ele>445.99999999999994</ele><time>2026-05-02T15:04:11.029Z</time></trkpt><trkpt lat="43.9938597" lon="11.9438323"><ele>446.0</ele><time>2026-05-02T15:04:12.03Z</time></trkpt><trkpt lat="43.9938467" lon="11.9437064"><ele>445.20000000000005</ele><time>2026-05-02T15:04:13.029Z</time></trkpt><trkpt lat="43.99383" lon="11.943584"><ele>444.40000000000003</ele><time>2026-05-02T15:04:14.029Z</time></trkpt><trkpt lat="43.9938185" lon="11.9434592"><ele>443.6</ele><time>2026-05-02T15:04:15.029Z</time></trkpt><trkpt lat="43.9938092" lon="11.9433249"><ele>442.8</ele><time>2026-05-02T15:04:16.029Z</time></trkpt><trkpt lat="43.993805" lon="11.9431935"><ele>442.0</ele><time>2026-05-02T15:04:17.029Z</time></trkpt><trkpt lat="43.9937935" lon="11.9430679"><ele>440.50000000000006</ele><time>2026-05-02T15:04:18.029Z</time></trkpt><trkpt lat="43.9937824" lon="11.9429489"><ele>439.0</ele><time>2026-05-02T15:04:19.029Z</time></trkpt><trkpt lat="43.993787" lon="11.9428344"><ele>437.5</ele><time>2026-05-02T15:04:20.029Z</time></trkpt><trkpt lat="43.9938105" lon="11.9427217"><ele>436.0</ele><time>2026-05-02T15:04:21.029Z</time></trkpt><trkpt lat="43.9938536" lon="11.9425983"><ele>434.50000000000006</ele><time>2026-05-02T15:04:22.029Z</time></trkpt><trkpt lat="43.9938859" lon="11.942476"><ele>433.0</ele><time>2026-05-02T15:04:23.029Z</time></trkpt><trkpt lat="43.993898" lon="11.9423455"><ele>431.50000000000006</ele><time>2026-05-02T15:04:24.029Z</time></trkpt><trkpt lat="43.9938994" lon="11.9422035"><ele>430.0</ele><time>2026-05-02T15:04:25.03Z</time></trkpt><trkpt lat="43.9938879" lon="11.942073"><ele>428.5</ele><time>2026-05-02T15:04:26.03Z</time></trkpt><trkpt lat="43.9938742" lon="11.9419518"><ele>427.0</ele><time>2026-05-02T15:04:27.029Z</time></trkpt><trkpt lat="43.9938754" lon="11.9418387"><ele>425.50000000000006</ele><time>2026-05-02T15:04:28.029Z</time></trkpt><trkpt lat="43.9938825" lon="11.941738"><ele>424.0</ele><time>2026-05-02T15:04:29.029Z</time></trkpt><trkpt lat="43.9939013" lon="11.9416468"><ele>422.33333333333337</ele><time>2026-05-02T15:04:30.03Z</time></trkpt><trkpt lat="43.9939446" lon="11.941519"><ele>420.6666666666667</ele><time>2026-05-02T15:04:32.029Z</time></trkpt><trkpt lat="43.9940443" lon="11.9414746"><ele>419.0</ele><time>2026-05-02T15:04:34.029Z</time></trkpt><trkpt lat="43.9941093" lon="11.941514"><ele>417.33333333333337</ele><time>2026-05-02T15:04:35.029Z</time></trkpt><trkpt lat="43.9941707" lon="11.9415815"><ele>415.6666666666667</ele><time>2026-05-02T15:04:36.029Z</time></trkpt><trkpt lat="43.9942246" lon="11.9416357"><ele>414.0</ele><time>2026-05-02T15:04:37.029Z</time></trkpt><trkpt lat="43.9943212" lon="11.9416278"><ele>414.0</ele><time>2026-05-02T15:04:39.029Z</time></trkpt><trkpt lat="43.9943274" lon="11.9415112"><ele>414.0</ele><time>2026-05-02T15:04:41.029Z</time></trkpt><trkpt lat="43.9942875" lon="11.9414405"><ele>414.0</ele><time>2026-05-02T15:04:42.029Z</time></trkpt><trkpt lat="43.9942264" lon="11.9413622"><ele>414.0</ele><time>2026-05-02T15:04:43.029Z</time></trkpt><trkpt lat="43.9941697" lon="11.9412781"><ele>414.0</ele><time>2026-05-02T15:04:44.03Z</time></trkpt><trkpt lat="43.9941226" lon="11.9411794"><ele>414.0</ele><time>2026-05-02T15:04:45.029Z</time></trkpt><trkpt lat="43.9940858" lon="11.9410859"><ele>414.0</ele><time>2026-05-02T15:04:46.029Z</time></trkpt><trkpt lat="43.9940373" lon="11.9409727"><ele>414.0</ele><time>2026-05-02T15:04:48.029Z</time></trkpt><trkpt lat="43.9940558" lon="11.9408857"><ele>414.0</ele><time>2026-05-02T15:04:51.029Z</time></trkpt><trkpt lat="43.9941476" lon="11.9410028"><ele>414.0</ele><time>2026-05-02T15:04:53.029Z</time></trkpt><trkpt lat="43.9941987" lon="11.9410813"><ele>414.0</ele><time>2026-05-02T15:04:54.029Z</time></trkpt><trkpt lat="43.9942617" lon="11.9411627"><ele>414.0</ele><time>2026-05-02T15:04:55.029Z</time></trkpt><trkpt lat="43.9943507" lon="11.941232"><ele>410.25</ele><time>2026-05-02T15:04:56.029Z</time></trkpt><trkpt lat="43.9944519" lon="11.9412592"><ele>406.5</ele><time>2026-05-02T15:04:57.029Z</time></trkpt><trkpt lat="43.9945703" lon="11.9412272"><ele>402.75</ele><time>2026-05-02T15:04:58.029Z</time></trkpt><trkpt lat="43.9947141" lon="11.9411809"><ele>399.0</ele><time>2026-05-02T15:04:59.029Z</time></trkpt><trkpt lat="43.9948848" lon="11.9411274"><ele>392.3333333333333</ele><time>2026-05-02T15:05:00.03Z</time></trkpt><trkpt lat="43.9950568" lon="11.9410886"><ele>385.66666666666663</ele><time>2026-05-02T15:05:01.029Z</time></trkpt><trkpt lat="43.9952218" lon="11.9410682"><ele>379.0</ele><time>2026-05-02T15:05:02.029Z</time></trkpt><trkpt lat="43.995373" lon="11.9410629"><ele>379.0</ele><time>2026-05-02T15:05:03.03Z</time></trkpt><trkpt lat="43.9955192" lon="11.9410514"><ele>379.0</ele><time>2026-05-02T15:05:04.029Z</time></trkpt><trkpt lat="43.9956556" lon="11.9410444"><ele>379.0</ele><time>2026-05-02T15:05:05.03Z</time></trkpt><trkpt lat="43.9957714" lon="11.9410128"><ele>379.0</ele><time>2026-05-02T15:05:06.029Z</time></trkpt><trkpt lat="43.9958822" lon="11.9409812"><ele>372.0</ele><time>2026-05-02T15:05:07.029Z</time></trkpt><trkpt lat="43.9959957" lon="11.9409554"><ele>365.0</ele><time>2026-05-02T15:05:08.029Z</time></trkpt><trkpt lat="43.9961086" lon="11.9409437"><ele>358.0</ele><time>2026-05-02T15:05:09.03Z</time></trkpt><trkpt lat="43.9962017" lon="11.9409426"><ele>351.0</ele><time>2026-05-02T15:05:10.029Z</time></trkpt><trkpt lat="43.9962761" lon="11.9409422"><ele>344.0</ele><time>2026-05-02T15:05:11.029Z</time></trkpt><trkpt lat="43.9963494" lon="11.9409158"><ele>345.6</ele><time>2026-05-02T15:05:12.029Z</time></trkpt><trkpt lat="43.9964028" lon="11.9408226"><ele>347.2</ele><time>2026-05-02T15:05:13.029Z</time></trkpt><trkpt lat="43.996451" lon="11.9406944"><ele>348.8</ele><time>2026-05-02T15:05:14.029Z</time></trkpt><trkpt lat="43.9964919" lon="11.9405633"><ele>350.40000000000003</ele><time>2026-05-02T15:05:15.029Z</time></trkpt><trkpt lat="43.9965271" lon="11.9404341"><ele>352.0</ele><time>2026-05-02T15:05:16.029Z</time></trkpt><trkpt lat="43.9965631" lon="11.940318"><ele>352.0</ele><time>2026-05-02T15:05:17.029Z</time></trkpt><trkpt lat="43.9966092" lon="11.9402218"><ele>352.0</ele><time>2026-05-02T15:05:18.029Z</time></trkpt><trkpt lat="43.9966728" lon="11.9401372"><ele>352.0</ele><time>2026-05-02T15:05:19.029Z</time></trkpt><trkpt lat="43.9967564" lon="11.9400637"><ele>352.0</ele><time>2026-05-02T15:05:20.029Z</time></trkpt><trkpt lat="43.9968594" lon="11.9400045"><ele>352.0</ele><time>2026-05-02T15:05:21.029Z</time></trkpt><trkpt lat="43.9969697" lon="11.9399528"><ele>344.75</ele><time>2026-05-02T15:05:22.03Z</time></trkpt><trkpt lat="43.9970811" lon="11.9399038"><ele>337.5</ele><time>2026-05-02T15:05:23.029Z</time></trkpt><trkpt lat="43.9971975" lon="11.9398634"><ele>330.25</ele><time>2026-05-02T15:05:24.03Z</time></trkpt><trkpt lat="43.9973176" lon="11.9398257"><ele>323.0</ele><time>2026-05-02T15:05:25.029Z</time></trkpt><trkpt lat="43.9974308" lon="11.9397901"><ele>318.0</ele><time>2026-05-02T15:05:26.028Z</time></trkpt><trkpt lat="43.9975422" lon="11.9397498"><ele>313.0</ele><time>2026-05-02T15:05:27.028Z</time></trkpt><trkpt lat="43.9976549" lon="11.9397148"><ele>308.0</ele><time>2026-05-02T15:05:28.028Z</time></trkpt><trkpt lat="43.9977696" lon="11.9396717"><ele>303.0</ele><time>2026-05-02T15:05:29.028Z</time></trkpt><trkpt lat="43.9978851" lon="11.9396179"><ele>303.0</ele><time>2026-05-02T15:05:30.028Z</time></trkpt><trkpt lat="43.9980008" lon="11.9395541"><ele>303.0</ele><time>2026-05-02T15:05:31.029Z</time></trkpt><trkpt lat="43.9981153" lon="11.9394909"><ele>303.0</ele><time>2026-05-02T15:05:32.029Z</time></trkpt><trkpt lat="43.9982239" lon="11.9394313"><ele>303.0</ele><time>2026-05-02T15:05:33.028Z</time></trkpt><trkpt lat="43.9983163" lon="11.9393778"><ele>302.8</ele><time>2026-05-02T15:05:34.028Z</time></trkpt><trkpt lat="43.9984027" lon="11.9393204"><ele>302.6</ele><time>2026-05-02T15:05:35.028Z</time></trkpt><trkpt lat="43.9984864" lon="11.9392537"><ele>302.4</ele><time>2026-05-02T15:05:36.028Z</time></trkpt><trkpt lat="43.9985715" lon="11.9391896"><ele>302.2</ele><time>2026-05-02T15:05:37.029Z</time></trkpt><trkpt lat="43.9986543" lon="11.9391252"><ele>302.0</ele><time>2026-05-02T15:05:38.028Z</time></trkpt><trkpt lat="43.9987346" lon="11.9390586"><ele>302.0</ele><time>2026-05-02T15:05:39.028Z</time></trkpt><trkpt lat="43.9988148" lon="11.9390035"><ele>302.0</ele><time>2026-05-02T15:05:40.028Z</time></trkpt><trkpt lat="43.9989138" lon="11.9389756"><ele>302.0</ele><time>2026-05-02T15:05:41.028Z</time></trkpt><trkpt lat="43.9990203" lon="11.9389903"><ele>302.0</ele><time>2026-05-02T15:05:42.029Z</time></trkpt><trkpt lat="43.9991356" lon="11.9390173"><ele>302.0</ele><time>2026-05-02T15:05:43.028Z</time></trkpt><trkpt lat="43.9992405" lon="11.9390245"><ele>298.4</ele><time>2026-05-02T15:05:44.029Z</time></trkpt><trkpt lat="43.9993446" lon="11.9390181"><ele>294.79999999999995</ele><time>2026-05-02T15:05:45.029Z</time></trkpt><trkpt lat="43.9994466" lon="11.9389913"><ele>291.2</ele><time>2026-05-02T15:05:46.028Z</time></trkpt><trkpt lat="43.9995512" lon="11.9389549"><ele>287.59999999999997</ele><time>2026-05-02T15:05:47.028Z</time></trkpt><trkpt lat="43.9996512" lon="11.9389152"><ele>284.0</ele><time>2026-05-02T15:05:48.028Z</time></trkpt><trkpt lat="43.9997442" lon="11.9388721"><ele>284.0</ele><time>2026-05-02T15:05:49.028Z</time></trkpt><trkpt lat="43.9998286" lon="11.9388341"><ele>284.0</ele><time>2026-05-02T15:05:50.028Z</time></trkpt><trkpt lat="43.9999017" lon="11.9387893"><ele>284.0</ele><time>2026-05-02T15:05:51.028Z</time></trkpt><trkpt lat="43.9999692" lon="11.9387573"><ele>284.0</ele><time>2026-05-02T15:05:52.029Z</time></trkpt><trkpt lat="44.0000848" lon="11.9387236"><ele>284.0</ele><time>2026-05-02T15:05:54.029Z</time></trkpt><trkpt lat="44.00019" lon="11.9386464"><ele>284.0</ele><time>2026-05-02T15:05:56.028Z</time></trkpt><trkpt lat="44.0002807" lon="11.9385252"><ele>284.0</ele><time>2026-05-02T15:05:58.029Z</time></trkpt><trkpt lat="44.0003442" lon="11.9384866"><ele>284.0</ele><time>2026-05-02T15:05:59.028Z</time></trkpt><trkpt lat="44.0004289" lon="11.9384602"><ele>284.0</ele><time>2026-05-02T15:06:01.028Z</time></trkpt><trkpt lat="44.0005105" lon="11.9384198"><ele>284.0</ele><time>2026-05-02T15:06:04.028Z</time></trkpt><trkpt lat="44.0005807" lon="11.9384043"><ele>284.0</ele><time>2026-05-02T15:06:08.029Z</time></trkpt><trkpt lat="44.0005035" lon="11.9384337"><ele>284.0</ele><time>2026-05-02T15:06:14.028Z</time></trkpt><trkpt lat="44.0004395" lon="11.9384761"><ele>284.0</ele><time>2026-05-02T15:06:16.028Z</time></trkpt><trkpt lat="44.0003611" lon="11.9385034"><ele>284.0</ele><time>2026-05-02T15:06:19.028Z</time></trkpt><trkpt lat="44.0002894" lon="11.9385366"><ele>284.0</ele><time>2026-05-02T15:06:23.028Z</time></trkpt><trkpt lat="44.0002294" lon="11.9385833"><ele>284.0</ele><time>2026-05-02T15:06:25.028Z</time></trkpt><trkpt lat="44.0001517" lon="11.9386138"><ele>284.0</ele><time>2026-05-02T15:06:28.028Z</time></trkpt><trkpt lat="44.0001021" lon="11.938676"><ele>284.0</ele><time>2026-05-02T15:09:48.028Z</time></trkpt><trkpt lat="44.000186" lon="11.9386331"><ele>284.0</ele><time>2026-05-02T15:09:53.029Z</time></trkpt><trkpt lat="44.0002475" lon="11.9385457"><ele>284.0</ele><time>2026-05-02T15:09:55.028Z</time></trkpt><trkpt lat="44.0003243" lon="11.9384986"><ele>284.0</ele><time>2026-05-02T15:09:57.028Z</time></trkpt><trkpt lat="44.0003822" lon="11.938411"><ele>284.0</ele><time>2026-05-02T15:09:59.028Z</time></trkpt><trkpt lat="44.0003966" lon="11.9383"><ele>284.0</ele><time>2026-05-02T15:10:01.028Z</time></trkpt><trkpt lat="44.00034" lon="11.9382118"><ele>284.0</ele><time>2026-05-02T15:10:03.028Z</time></trkpt><trkpt lat="44.0002508" lon="11.938157"><ele>284.8</ele><time>2026-05-02T15:10:05.029Z</time></trkpt><trkpt lat="44.0001466" lon="11.9381309"><ele>285.59999999999997</ele><time>2026-05-02T15:10:07.028Z</time></trkpt><trkpt lat="44.0000338" lon="11.9381216"><ele>286.4</ele><time>2026-05-02T15:10:09.028Z</time></trkpt><trkpt lat="43.9999385" lon="11.9381176"><ele>287.2</ele><time>2026-05-02T15:10:11.028Z</time></trkpt><trkpt lat="43.9998457" lon="11.9381308"><ele>288.0</ele><time>2026-05-02T15:10:13.028Z</time></trkpt><trkpt lat="43.9997652" lon="11.9381406"><ele>288.0</ele><time>2026-05-02T15:10:15.028Z</time></trkpt><trkpt lat="43.9996811" lon="11.9381587"><ele>288.0</ele><time>2026-05-02T15:10:17.027Z</time></trkpt><trkpt lat="43.9995883" lon="11.938193"><ele>288.0</ele><time>2026-05-02T15:10:19.028Z</time></trkpt><trkpt lat="43.9995012" lon="11.9382092"><ele>288.0</ele><time>2026-05-02T15:10:21.027Z</time></trkpt><trkpt lat="43.9994147" lon="11.9382345"><ele>288.0</ele><time>2026-05-02T15:10:23.027Z</time></trkpt><trkpt lat="43.9993427" lon="11.938262"><ele>288.0</ele><time>2026-05-02T15:10:25.027Z</time></trkpt><trkpt lat="43.9992613" lon="11.9382683"><ele>288.0</ele><time>2026-05-02T15:10:27.027Z</time></trkpt><trkpt lat="43.9991829" lon="11.9382273"><ele>288.0</ele><time>2026-05-02T15:10:29.027Z</time></trkpt><trkpt lat="43.9991042" lon="11.9381692"><ele>288.0</ele><time>2026-05-02T15:10:31.027Z</time></trkpt><trkpt lat="43.9990211" lon="11.9381647"><ele>288.0</ele><time>2026-05-02T15:10:33.028Z</time></trkpt><trkpt lat="43.9989148" lon="11.9381893"><ele>288.0</ele><time>2026-05-02T15:10:35.027Z</time></trkpt><trkpt lat="43.9988173" lon="11.9382106"><ele>287.14285714285717</ele><time>2026-05-02T15:10:37.028Z</time></trkpt><trkpt lat="43.9987355" lon="11.9382174"><ele>286.2857142857143</ele><time>2026-05-02T15:10:39.027Z</time></trkpt><trkpt lat="43.9986701" lon="11.9381912"><ele>285.42857142857144</ele><time>2026-05-02T15:10:41.027Z</time></trkpt><trkpt lat="43.9985897" lon="11.9381826"><ele>284.57142857142856</ele><time>2026-05-02T15:10:44.028Z</time></trkpt><trkpt lat="43.9985897" lon="11.9381826"><ele>283.7142857142857</ele><time>2026-05-02T15:10:44.028Z</time></trkpt><trkpt lat="43.9984878" lon="11.9380963"><ele>282.8571428571429</ele><time>2026-05-02T15:19:57.026Z</time></trkpt><trkpt lat="43.998393" lon="11.9380869"><ele>282.0</ele><time>2026-05-02T15:19:59.026Z</time></trkpt><trkpt lat="43.9983045" lon="11.9380836"><ele>282.0</ele><time>2026-05-02T15:20:01.026Z</time></trkpt><trkpt lat="43.9982164" lon="11.9381009"><ele>282.0</ele><time>2026-05-02T15:20:03.026Z</time></trkpt><trkpt lat="43.9981239" lon="11.9381272"><ele>282.0</ele><time>2026-05-02T15:20:05.025Z</time></trkpt><trkpt lat="43.998052" lon="11.9381409"><ele>282.0</ele><time>2026-05-02T15:20:07.025Z</time></trkpt><trkpt lat="43.9979867" lon="11.9380851"><ele>282.0</ele><time>2026-05-02T15:20:09.025Z</time></trkpt><trkpt lat="43.9978939" lon="11.9379895"><ele>282.0</ele><time>2026-05-02T15:20:11.025Z</time></trkpt><trkpt lat="43.9978025" lon="11.937953"><ele>282.0</ele><time>2026-05-02T15:20:13.025Z</time></trkpt><trkpt lat="43.9977219" lon="11.937891"><ele>282.0</ele><time>2026-05-02T15:20:15.026Z</time></trkpt><trkpt lat="43.9976397" lon="11.9378001"><ele>282.0</ele><time>2026-05-02T15:20:17.025Z</time></trkpt><trkpt lat="43.9975562" lon="11.9377238"><ele>282.0</ele><time>2026-05-02T15:20:19.025Z</time></trkpt><trkpt lat="43.9974847" lon="11.9376776"><ele>282.0</ele><time>2026-05-02T15:20:21.026Z</time></trkpt><trkpt lat="43.997425" lon="11.9376341"><ele>282.0</ele><time>2026-05-02T15:20:23.025Z</time></trkpt><trkpt lat="43.9973628" lon="11.9375768"><ele>282.0</ele><time>2026-05-02T15:20:26.025Z</time></trkpt><trkpt lat="43.9974311" lon="11.9376566"><ele>282.0</ele><time>2026-05-02T15:20:31.026Z</time></trkpt><trkpt lat="43.9975005" lon="11.9377054"><ele>282.0</ele><time>2026-05-02T15:20:32.025Z</time></trkpt><trkpt lat="43.9975713" lon="11.937775"><ele>282.0</ele><time>2026-05-02T15:20:33.025Z</time></trkpt><trkpt lat="43.9976549" lon="11.9378426"><ele>282.0</ele><time>2026-05-02T15:20:34.025Z</time></trkpt><trkpt lat="43.9977341" lon="11.9379094"><ele>282.0</ele><time>2026-05-02T15:20:35.025Z</time></trkpt><trkpt lat="43.9977905" lon="11.9379631"><ele>282.0</ele><time>2026-05-02T15:20:36.026Z</time></trkpt><trkpt lat="43.9978485" lon="11.9380027"><ele>282.0</ele><time>2026-05-02T15:20:37.025Z</time></trkpt><trkpt lat="43.9979627" lon="11.938077"><ele>282.0</ele><time>2026-05-02T15:20:39.025Z</time></trkpt><trkpt lat="43.9980208" lon="11.9381193"><ele>282.0</ele><time>2026-05-02T15:20:40.025Z</time></trkpt><trkpt lat="43.9980848" lon="11.9381352"><ele>282.0</ele><time>2026-05-02T15:20:41.025Z</time></trkpt><trkpt lat="43.998174" lon="11.9381277"><ele>282.0</ele><time>2026-05-02T15:20:42.025Z</time></trkpt><trkpt lat="43.9982839" lon="11.9381182"><ele>282.0</ele><time>2026-05-02T15:20:43.025Z</time></trkpt><trkpt lat="43.9983891" lon="11.9381136"><ele>282.0</ele><time>2026-05-02T15:20:44.025Z</time></trkpt><trkpt lat="43.9984892" lon="11.9381196"><ele>282.0</ele><time>2026-05-02T15:20:45.025Z</time></trkpt><trkpt lat="43.9985795" lon="11.9381369"><ele>282.0</ele><time>2026-05-02T15:20:46.025Z</time></trkpt><trkpt lat="43.9986638" lon="11.9381656"><ele>282.0</ele><time>2026-05-02T15:20:47.025Z</time></trkpt><trkpt lat="43.9987361" lon="11.9381913"><ele>282.0</ele><time>2026-05-02T15:20:48.025Z</time></trkpt><trkpt lat="43.9988052" lon="11.9382023"><ele>282.0</ele><time>2026-05-02T15:20:49.025Z</time></trkpt><trkpt lat="43.9989294" lon="11.9382013"><ele>282.0</ele><time>2026-05-02T15:20:51.025Z</time></trkpt><trkpt lat="43.9989944" lon="11.938187"><ele>282.0</ele><time>2026-05-02T15:20:52.026Z</time></trkpt><trkpt lat="43.9990598" lon="11.9381729"><ele>282.0</ele><time>2026-05-02T15:20:53.025Z</time></trkpt><trkpt lat="43.9991716" lon="11.9381954"><ele>282.0</ele><time>2026-05-02T15:20:55.025Z</time></trkpt><trkpt lat="43.9992293" lon="11.938232"><ele>283.5</ele><time>2026-05-02T15:20:56.025Z</time></trkpt><trkpt lat="43.9993346" lon="11.9382604"><ele>285.0</ele><time>2026-05-02T15:20:58.026Z</time></trkpt><trkpt lat="43.9994614" lon="11.9382064"><ele>286.5</ele><time>2026-05-02T15:21:00.025Z</time></trkpt><trkpt lat="43.9995706" lon="11.9381832"><ele>288.0</ele><time>2026-05-02T15:21:01.026Z</time></trkpt><trkpt lat="43.9997014" lon="11.9381571"><ele>288.0</ele><time>2026-05-02T15:21:02.025Z</time></trkpt><trkpt lat="43.9998065" lon="11.9381301"><ele>288.0</ele><time>2026-05-02T15:21:03.025Z</time></trkpt><trkpt lat="43.9998903" lon="11.9381196"><ele>288.0</ele><time>2026-05-02T15:21:04.025Z</time></trkpt><trkpt lat="43.999963" lon="11.9381087"><ele>288.0</ele><time>2026-05-02T15:21:05.025Z</time></trkpt><trkpt lat="44.0000472" lon="11.9381104"><ele>288.0</ele><time>2026-05-02T15:21:06.026Z</time></trkpt><trkpt lat="44.0001358" lon="11.9381242"><ele>288.0</ele><time>2026-05-02T15:21:07.026Z</time></trkpt><trkpt lat="44.0002248" lon="11.9381528"><ele>288.0</ele><time>2026-05-02T15:21:08.025Z</time></trkpt><trkpt lat="44.0002993" lon="11.9381813"><ele>288.0</ele><time>2026-05-02T15:21:09.025Z</time></trkpt><trkpt lat="44.0003746" lon="11.9382651"><ele>288.0</ele><time>2026-05-02T15:21:11.025Z</time></trkpt><trkpt lat="44.0004103" lon="11.9383844"><ele>288.0</ele><time>2026-05-02T15:21:13.025Z</time></trkpt><trkpt lat="44.0003652" lon="11.9384716"><ele>288.0</ele><time>2026-05-02T15:21:15.025Z</time></trkpt><trkpt lat="44.0002983" lon="11.9385328"><ele>288.0</ele><time>2026-05-02T15:21:17.025Z</time></trkpt><trkpt lat="44.0002146" lon="11.9385617"><ele>287.42857142857144</ele><time>2026-05-02T15:21:19.026Z</time></trkpt><trkpt lat="44.0001579" lon="11.938608"><ele>286.8571428571429</ele><time>2026-05-02T15:21:21.025Z</time></trkpt><trkpt lat="44.000098" lon="11.9386671"><ele>286.2857142857143</ele><time>2026-05-02T15:21:23.025Z</time></trkpt><trkpt lat="44.0001761" lon="11.9386441"><ele>285.7142857142857</ele><time>2026-05-02T15:21:29.025Z</time></trkpt><trkpt lat="44.000219" lon="11.9385728"><ele>285.1428571428571</ele><time>2026-05-02T15:21:30.025Z</time></trkpt><trkpt lat="44.0002865" lon="11.9385257"><ele>284.57142857142856</ele><time>2026-05-02T15:21:31.025Z</time></trkpt><trkpt lat="44.0003682" lon="11.9384886"><ele>284.0</ele><time>2026-05-02T15:21:32.026Z</time></trkpt><trkpt lat="44.0004474" lon="11.9384513"><ele>284.0</ele><time>2026-05-02T15:21:33.025Z</time></trkpt><trkpt lat="44.0005419" lon="11.9384035"><ele>284.0</ele><time>2026-05-02T15:21:34.025Z</time></trkpt><trkpt lat="44.0006388" lon="11.9383712"><ele>284.0</ele><time>2026-05-02T15:21:35.025Z</time></trkpt><trkpt lat="44.0007281" lon="11.9383382"><ele>284.0</ele><time>2026-05-02T15:21:36.025Z</time></trkpt><trkpt lat="44.0008193" lon="11.9383077"><ele>284.0</ele><time>2026-05-02T15:21:37.025Z</time></trkpt><trkpt lat="44.0008986" lon="11.9382909"><ele>285.33333333333337</ele><time>2026-05-02T15:21:38.025Z</time></trkpt><trkpt lat="44.0009832" lon="11.9382525"><ele>286.6666666666667</ele><time>2026-05-02T15:21:39.026Z</time></trkpt><trkpt lat="44.0010605" lon="11.9382213"><ele>288.0</ele><time>2026-05-02T15:21:40.025Z</time></trkpt><trkpt lat="44.0011279" lon="11.9381977"><ele>289.3333333333333</ele><time>2026-05-02T15:21:41.025Z</time></trkpt><trkpt lat="44.0012226" lon="11.9381464"><ele>290.66666666666663</ele><time>2026-05-02T15:21:43.026Z</time></trkpt><trkpt lat="44.0012994" lon="11.9381009"><ele>292.0</ele><time>2026-05-02T15:21:46.025Z</time></trkpt><trkpt lat="44.0012473" lon="11.9381608"><ele>292.0</ele><time>2026-05-02T15:21:53.025Z</time></trkpt><trkpt lat="44.0011584" lon="11.9381933"><ele>292.0</ele><time>2026-05-02T15:21:54.025Z</time></trkpt><trkpt lat="44.0010633" lon="11.938229"><ele>292.0</ele><time>2026-05-02T15:21:55.025Z</time></trkpt><trkpt lat="44.0009881" lon="11.9382655"><ele>292.0</ele><time>2026-05-02T15:21:56.026Z</time></trkpt><trkpt lat="44.0009079" lon="11.9382931"><ele>292.0</ele><time>2026-05-02T15:21:57.025Z</time></trkpt><trkpt lat="44.0008349" lon="11.9383205"><ele>292.0</ele><time>2026-05-02T15:21:58.026Z</time></trkpt><trkpt lat="44.0007668" lon="11.9383454"><ele>291.3333333333333</ele><time>2026-05-02T15:21:59.026Z</time></trkpt><trkpt lat="44.0007005" lon="11.9383696"><ele>290.66666666666663</ele><time>2026-05-02T15:22:00.025Z</time></trkpt><trkpt lat="44.000636" lon="11.9383863"><ele>290.0</ele><time>2026-05-02T15:22:01.025Z</time></trkpt><trkpt lat="44.0005205" lon="11.9384308"><ele>289.3333333333333</ele><time>2026-05-02T15:22:03.025Z</time></trkpt><trkpt lat="44.0004023" lon="11.9384774"><ele>288.6666666666667</ele><time>2026-05-02T15:22:05.025Z</time></trkpt><trkpt lat="44.0003398" lon="11.9385025"><ele>288.0</ele><time>2026-05-02T15:22:06.026Z</time></trkpt><trkpt lat="44.0002289" lon="11.9385634"><ele>287.0</ele><time>2026-05-02T15:22:08.025Z</time></trkpt><trkpt lat="44.0001779" lon="11.9386218"><ele>286.0</ele><time>2026-05-02T15:22:10.025Z</time></trkpt><trkpt lat="44.0002233" lon="11.9386932"><ele>285.0</ele><time>2026-05-02T15:22:14.025Z</time></trkpt><trkpt lat="44.0004005" lon="11.9387062"><ele>284.0</ele><time>2026-05-02T15:22:16.025Z</time></trkpt><trkpt lat="44.0005461" lon="11.9387153"><ele>284.0</ele><time>2026-05-02T15:22:17.025Z</time></trkpt><trkpt lat="44.0006923" lon="11.9387245"><ele>284.0</ele><time>2026-05-02T15:22:18.026Z</time></trkpt><trkpt lat="44.0008333" lon="11.938732"><ele>284.0</ele><time>2026-05-02T15:22:19.025Z</time></trkpt><trkpt lat="44.0009599" lon="11.9387354"><ele>284.0</ele><time>2026-05-02T15:22:20.025Z</time></trkpt><trkpt lat="44.00108" lon="11.9387316"><ele>282.0</ele><time>2026-05-02T15:22:21.025Z</time></trkpt><trkpt lat="44.0011896" lon="11.9387313"><ele>280.0</ele><time>2026-05-02T15:22:22.025Z</time></trkpt><trkpt lat="44.0012942" lon="11.9387281"><ele>278.0</ele><time>2026-05-02T15:22:23.025Z</time></trkpt><trkpt lat="44.001408" lon="11.9387256"><ele>276.0</ele><time>2026-05-02T15:22:24.025Z</time></trkpt><trkpt lat="44.0015259" lon="11.9387394"><ele>274.0</ele><time>2026-05-02T15:22:25.025Z</time></trkpt><trkpt lat="44.0016349" lon="11.9387746"><ele>272.75</ele><time>2026-05-02T15:22:26.025Z</time></trkpt><trkpt lat="44.0017293" lon="11.9388467"><ele>271.5</ele><time>2026-05-02T15:22:27.025Z</time></trkpt><trkpt lat="44.0018307" lon="11.9389439"><ele>270.25</ele><time>2026-05-02T15:22:28.025Z</time></trkpt><trkpt lat="44.0019246" lon="11.9390373"><ele>269.0</ele><time>2026-05-02T15:22:29.025Z</time></trkpt><trkpt lat="44.0020203" lon="11.9391347"><ele>268.8</ele><time>2026-05-02T15:22:30.025Z</time></trkpt><trkpt lat="44.0021044" lon="11.9392188"><ele>268.59999999999997</ele><time>2026-05-02T15:22:31.025Z</time></trkpt><trkpt lat="44.0021921" lon="11.9392821"><ele>268.4</ele><time>2026-05-02T15:22:32.025Z</time></trkpt><trkpt lat="44.0022898" lon="11.9393121"><ele>268.2</ele><time>2026-05-02T15:22:33.025Z</time></trkpt><trkpt lat="44.0023822" lon="11.9393264"><ele>268.0</ele><time>2026-05-02T15:22:34.025Z</time></trkpt><trkpt lat="44.0024825" lon="11.9393171"><ele>268.8</ele><time>2026-05-02T15:22:35.025Z</time></trkpt><trkpt lat="44.0025875" lon="11.9392901"><ele>269.6</ele><time>2026-05-02T15:22:36.026Z</time></trkpt><trkpt lat="44.0026983" lon="11.9392617"><ele>270.4</ele><time>2026-05-02T15:22:37.025Z</time></trkpt><trkpt lat="44.0028111" lon="11.9392341"><ele>271.2</ele><time>2026-05-02T15:22:38.025Z</time></trkpt><trkpt lat="44.0029212" lon="11.9392094"><ele>272.0</ele><time>2026-05-02T15:22:39.025Z</time></trkpt><trkpt lat="44.0030307" lon="11.9391962"><ele>272.0</ele><time>2026-05-02T15:22:40.025Z</time></trkpt><trkpt lat="44.0031441" lon="11.9391986"><ele>272.0</ele><time>2026-05-02T15:22:41.025Z</time></trkpt><trkpt lat="44.0032585" lon="11.9392052"><ele>272.0</ele><time>2026-05-02T15:22:42.025Z</time></trkpt><trkpt lat="44.0033527" lon="11.9392126"><ele>272.0</ele><time>2026-05-02T15:22:43.025Z</time></trkpt><trkpt lat="44.0034364" lon="11.9392191"><ele>272.0</ele><time>2026-05-02T15:22:44.026Z</time></trkpt><trkpt lat="44.003521" lon="11.9392199"><ele>271.4</ele><time>2026-05-02T15:22:45.025Z</time></trkpt><trkpt lat="44.0035962" lon="11.9392195"><ele>270.79999999999995</ele><time>2026-05-02T15:22:46.025Z</time></trkpt><trkpt lat="44.0036704" lon="11.9392145"><ele>270.2</ele><time>2026-05-02T15:22:47.026Z</time></trkpt><trkpt lat="44.0037382" lon="11.9392131"><ele>269.59999999999997</ele><time>2026-05-02T15:22:48.026Z</time></trkpt><trkpt lat="44.0038617" lon="11.9392012"><ele>269.0</ele><time>2026-05-02T15:22:50.025Z</time></trkpt><trkpt lat="44.0039782" lon="11.9391841"><ele>269.0</ele><time>2026-05-02T15:22:52.025Z</time></trkpt><trkpt lat="44.0040814" lon="11.9391633"><ele>269.0</ele><time>2026-05-02T15:22:54.025Z</time></trkpt><trkpt lat="44.0042014" lon="11.9391559"><ele>269.0</ele><time>2026-05-02T15:22:56.026Z</time></trkpt><trkpt lat="44.0042719" lon="11.939166"><ele>269.0</ele><time>2026-05-02T15:22:57.025Z</time></trkpt><trkpt lat="44.0043572" lon="11.9391923"><ele>269.0</ele><time>2026-05-02T15:22:58.025Z</time></trkpt><trkpt lat="44.0044487" lon="11.939239"><ele>263.4</ele><time>2026-05-02T15:22:59.026Z</time></trkpt><trkpt lat="44.0045441" lon="11.9393011"><ele>257.79999999999995</ele><time>2026-05-02T15:23:00.026Z</time></trkpt><trkpt lat="44.0046328" lon="11.9393624"><ele>252.20000000000002</ele><time>2026-05-02T15:23:01.025Z</time></trkpt><trkpt lat="44.0047209" lon="11.9394229"><ele>246.60000000000002</ele><time>2026-05-02T15:23:02.025Z</time></trkpt><trkpt lat="44.0048115" lon="11.9394773"><ele>241.0</ele><time>2026-05-02T15:23:03.025Z</time></trkpt><trkpt lat="44.0048985" lon="11.9395176"><ele>241.0</ele><time>2026-05-02T15:23:04.026Z</time></trkpt><trkpt lat="44.0049831" lon="11.9395318"><ele>241.00000000000003</ele><time>2026-05-02T15:23:05.026Z</time></trkpt><trkpt lat="44.0050655" lon="11.939541"><ele>241.0</ele><time>2026-05-02T15:23:06.025Z</time></trkpt><trkpt lat="44.0051328" lon="11.939547"><ele>241.0</ele><time>2026-05-02T15:23:07.025Z</time></trkpt><trkpt lat="44.0051992" lon="11.9395552"><ele>241.00000000000003</ele><time>2026-05-02T15:23:08.025Z</time></trkpt><trkpt lat="44.0052647" lon="11.9395638"><ele>241.0</ele><time>2026-05-02T15:23:09.026Z</time></trkpt><trkpt lat="44.0053289" lon="11.9395883"><ele>241.0</ele><time>2026-05-02T15:23:10.025Z</time></trkpt><trkpt lat="44.0054489" lon="11.939647"><ele>239.16666666666666</ele><time>2026-05-02T15:23:12.026Z</time></trkpt><trkpt lat="44.0055186" lon="11.9396933"><ele>237.33333333333331</ele><time>2026-05-02T15:23:13.025Z</time></trkpt><trkpt lat="44.0055863" lon="11.9397437"><ele>235.5</ele><time>2026-05-02T15:23:14.025Z</time></trkpt><trkpt lat="44.0056514" lon="11.9397964"><ele>233.66666666666669</ele><time>2026-05-02T15:23:15.025Z</time></trkpt><trkpt lat="44.0057122" lon="11.9398497"><ele>231.83333333333334</ele><time>2026-05-02T15:23:16.025Z</time></trkpt><trkpt lat="44.0057964" lon="11.9399178"><ele>230.0</ele><time>2026-05-02T15:23:18.025Z</time></trkpt><trkpt lat="44.0058709" lon="11.939974"><ele>228.8</ele><time>2026-05-02T15:23:21.025Z</time></trkpt><trkpt lat="44.0059818" lon="11.9400644"><ele>227.6</ele><time>2026-05-02T15:23:23.025Z</time></trkpt><trkpt lat="44.006042" lon="11.9401129"><ele>226.39999999999998</ele><time>2026-05-02T15:23:24.025Z</time></trkpt><trkpt lat="44.0061458" lon="11.9402087"><ele>225.2</ele><time>2026-05-02T15:23:26.026Z</time></trkpt><trkpt lat="44.0062482" lon="11.9402977"><ele>224.0</ele><time>2026-05-02T15:23:28.025Z</time></trkpt><trkpt lat="44.0063467" lon="11.9403842"><ele>224.0</ele><time>2026-05-02T15:23:30.025Z</time></trkpt><trkpt lat="44.0064265" lon="11.9404831"><ele>223.99999999999997</ele><time>2026-05-02T15:23:32.025Z</time></trkpt><trkpt lat="44.0064989" lon="11.9405574"><ele>223.99999999999997</ele><time>2026-05-02T15:23:34.025Z</time></trkpt><trkpt lat="44.0065652" lon="11.9406445"><ele>224.0</ele><time>2026-05-02T15:23:36.025Z</time></trkpt><trkpt lat="44.0066276" lon="11.9407287"><ele>224.0</ele><time>2026-05-02T15:23:38.025Z</time></trkpt><trkpt lat="44.006678" lon="11.9408061"><ele>223.33333333333334</ele><time>2026-05-02T15:23:40.025Z</time></trkpt><trkpt lat="44.0067398" lon="11.9408785"><ele>222.66666666666669</ele><time>2026-05-02T15:23:42.025Z</time></trkpt><trkpt lat="44.0068145" lon="11.9409767"><ele>222.0</ele><time>2026-05-02T15:23:44.025Z</time></trkpt><trkpt lat="44.0068846" lon="11.9410662"><ele>221.33333333333331</ele><time>2026-05-02T15:23:46.025Z</time></trkpt><trkpt lat="44.0069491" lon="11.9411471"><ele>220.66666666666666</ele><time>2026-05-02T15:23:48.025Z</time></trkpt><trkpt lat="44.0070074" lon="11.9412099"><ele>220.0</ele><time>2026-05-02T15:23:50.026Z</time></trkpt><trkpt lat="44.0070576" lon="11.9412721"><ele>219.6</ele><time>2026-05-02T15:23:53.025Z</time></trkpt><trkpt lat="44.0069986" lon="11.9413785"><ele>219.2</ele><time>2026-05-02T15:23:56.025Z</time></trkpt><trkpt lat="44.0069236" lon="11.9414711"><ele>218.8</ele><time>2026-05-02T15:23:57.026Z</time></trkpt><trkpt lat="44.0068335" lon="11.9415932"><ele>218.4</ele><time>2026-05-02T15:23:58.026Z</time></trkpt><trkpt lat="44.0067473" lon="11.9417104"><ele>218.0</ele><time>2026-05-02T15:23:59.025Z</time></trkpt><trkpt lat="44.0066723" lon="11.9418308"><ele>219.2</ele><time>2026-05-02T15:24:00.025Z</time></trkpt><trkpt lat="44.0066056" lon="11.9419446"><ele>220.4</ele><time>2026-05-02T15:24:01.025Z</time></trkpt><trkpt lat="44.0065464" lon="11.942065"><ele>221.59999999999997</ele><time>2026-05-02T15:24:02.025Z</time></trkpt><trkpt lat="44.0064973" lon="11.9421977"><ele>222.79999999999998</ele><time>2026-05-02T15:24:03.025Z</time></trkpt><trkpt lat="44.0064586" lon="11.9423392"><ele>224.0</ele><time>2026-05-02T15:24:04.025Z</time></trkpt><trkpt lat="44.0064291" lon="11.9424902"><ele>223.79999999999998</ele><time>2026-05-02T15:24:05.026Z</time></trkpt><trkpt lat="44.0064019" lon="11.9426418"><ele>223.59999999999997</ele><time>2026-05-02T15:24:06.025Z</time></trkpt><trkpt lat="44.0063885" lon="11.9427921"><ele>223.4</ele><time>2026-05-02T15:24:07.025Z</time></trkpt><trkpt lat="44.0063727" lon="11.9429419"><ele>223.2</ele><time>2026-05-02T15:24:08.025Z</time></trkpt><trkpt lat="44.0063639" lon="11.9430916"><ele>223.0</ele><time>2026-05-02T15:24:09.025Z</time></trkpt><trkpt lat="44.0063538" lon="11.9432401"><ele>223.4</ele><time>2026-05-02T15:24:10.025Z</time></trkpt><trkpt lat="44.0063533" lon="11.943389"><ele>223.8</ele><time>2026-05-02T15:24:11.025Z</time></trkpt><trkpt lat="44.0063684" lon="11.9435372"><ele>224.2</ele><time>2026-05-02T15:24:12.025Z</time></trkpt><trkpt lat="44.0063922" lon="11.9436701"><ele>224.6</ele><time>2026-05-02T15:24:13.025Z</time></trkpt><trkpt lat="44.0064307" lon="11.9438018"><ele>225.0</ele><time>2026-05-02T15:24:14.026Z</time></trkpt><trkpt lat="44.0064751" lon="11.9439284"><ele>225.0</ele><time>2026-05-02T15:24:15.025Z</time></trkpt><trkpt lat="44.0065279" lon="11.9440477"><ele>225.0</ele><time>2026-05-02T15:24:16.025Z</time></trkpt><trkpt lat="44.0065915" lon="11.9441623"><ele>225.0</ele><time>2026-05-02T15:24:17.025Z</time></trkpt><trkpt lat="44.0066647" lon="11.9442679"><ele>225.0</ele><time>2026-05-02T15:24:18.026Z</time></trkpt><trkpt lat="44.0067497" lon="11.9443681"><ele>225.0</ele><time>2026-05-02T15:24:19.025Z</time></trkpt><trkpt lat="44.0068395" lon="11.9444478"><ele>223.83333333333334</ele><time>2026-05-02T15:24:20.025Z</time></trkpt><trkpt lat="44.0069179" lon="11.9445172"><ele>222.66666666666669</ele><time>2026-05-02T15:24:21.026Z</time></trkpt><trkpt lat="44.0069876" lon="11.9445808"><ele>221.5</ele><time>2026-05-02T15:24:22.025Z</time></trkpt><trkpt lat="44.007041" lon="11.9446577"><ele>220.33333333333334</ele><time>2026-05-02T15:24:23.025Z</time></trkpt><trkpt lat="44.0070776" lon="11.9447433"><ele>219.16666666666669</ele><time>2026-05-02T15:24:24.025Z</time></trkpt><trkpt lat="44.0071011" lon="11.9448475"><ele>218.0</ele><time>2026-05-02T15:24:25.025Z</time></trkpt><trkpt lat="44.0071241" lon="11.9449506"><ele>218.2</ele><time>2026-05-02T15:24:26.025Z</time></trkpt><trkpt lat="44.0071363" lon="11.9450531"><ele>218.4</ele><time>2026-05-02T15:24:27.026Z</time></trkpt><trkpt lat="44.0071453" lon="11.945145"><ele>218.59999999999997</ele><time>2026-05-02T15:24:28.025Z</time></trkpt><trkpt lat="44.0071723" lon="11.945295"><ele>218.79999999999998</ele><time>2026-05-02T15:24:30.026Z</time></trkpt><trkpt lat="44.0072098" lon="11.9454882"><ele>219.0</ele><time>2026-05-02T15:24:32.025Z</time></trkpt><trkpt lat="44.0072328" lon="11.9456109"><ele>219.0</ele><time>2026-05-02T15:24:33.026Z</time></trkpt><trkpt lat="44.0072544" lon="11.9457396"><ele>218.99999999999997</ele><time>2026-05-02T15:24:34.025Z</time></trkpt><trkpt lat="44.0072714" lon="11.9458603"><ele>218.99999999999997</ele><time>2026-05-02T15:24:35.025Z</time></trkpt><trkpt lat="44.0072938" lon="11.9459834"><ele>219.0</ele><time>2026-05-02T15:24:36.025Z</time></trkpt><trkpt lat="44.0073134" lon="11.9461078"><ele>219.0</ele><time>2026-05-02T15:24:37.026Z</time></trkpt><trkpt lat="44.0073325" lon="11.9462382"><ele>220.0</ele><time>2026-05-02T15:24:38.025Z</time></trkpt><trkpt lat="44.0073549" lon="11.9463642"><ele>220.99999999999997</ele><time>2026-05-02T15:24:39.026Z</time></trkpt><trkpt lat="44.0073766" lon="11.9464888"><ele>221.99999999999997</ele><time>2026-05-02T15:24:40.025Z</time></trkpt><trkpt lat="44.0074002" lon="11.9466072"><ele>223.0</ele><time>2026-05-02T15:24:41.025Z</time></trkpt><trkpt lat="44.0074185" lon="11.9467291"><ele>224.0</ele><time>2026-05-02T15:24:42.025Z</time></trkpt><trkpt lat="44.0074359" lon="11.946847"><ele>223.79999999999998</ele><time>2026-05-02T15:24:43.025Z</time></trkpt><trkpt lat="44.0074583" lon="11.9469701"><ele>223.59999999999997</ele><time>2026-05-02T15:24:44.025Z</time></trkpt><trkpt lat="44.0074755" lon="11.9471096"><ele>223.4</ele><time>2026-05-02T15:24:45.025Z</time></trkpt><trkpt lat="44.0074944" lon="11.9472451"><ele>223.2</ele><time>2026-05-02T15:24:46.026Z</time></trkpt><trkpt lat="44.0075159" lon="11.9474028"><ele>223.0</ele><time>2026-05-02T15:24:47.025Z</time></trkpt><trkpt lat="44.0075394" lon="11.9475891"><ele>223.0</ele><time>2026-05-02T15:24:48.025Z</time></trkpt><trkpt lat="44.0075635" lon="11.9477965"><ele>223.0</ele><time>2026-05-02T15:24:49.025Z</time></trkpt><trkpt lat="44.0075972" lon="11.9480239"><ele>223.0</ele><time>2026-05-02T15:24:50.025Z</time></trkpt><trkpt lat="44.0076412" lon="11.9482619"><ele>223.33333333333331</ele><time>2026-05-02T15:24:51.025Z</time></trkpt><trkpt lat="44.0076923" lon="11.9484863"><ele>223.66666666666669</ele><time>2026-05-02T15:24:52.026Z</time></trkpt><trkpt lat="44.0077443" lon="11.9486915"><ele>224.0</ele><time>2026-05-02T15:24:53.025Z</time></trkpt><trkpt lat="44.0077934" lon="11.9488874"><ele>224.0</ele><time>2026-05-02T15:24:54.024Z</time></trkpt><trkpt lat="44.0078381" lon="11.9490661"><ele>224.0</ele><time>2026-05-02T15:24:55.025Z</time></trkpt><trkpt lat="44.0078766" lon="11.9492287"><ele>224.0</ele><time>2026-05-02T15:24:56.025Z</time></trkpt><trkpt lat="44.0079137" lon="11.9493801"><ele>224.0</ele><time>2026-05-02T15:24:57.025Z</time></trkpt><trkpt lat="44.007951" lon="11.9495272"><ele>224.2</ele><time>2026-05-02T15:24:58.024Z</time></trkpt><trkpt lat="44.0079947" lon="11.9496701"><ele>224.39999999999998</ele><time>2026-05-02T15:24:59.024Z</time></trkpt><trkpt lat="44.0080366" lon="11.9498045"><ele>224.6</ele><time>2026-05-02T15:25:00.024Z</time></trkpt><trkpt lat="44.0080767" lon="11.9499367"><ele>224.8</ele><time>2026-05-02T15:25:01.025Z</time></trkpt><trkpt lat="44.0081225" lon="11.9500686"><ele>225.0</ele><time>2026-05-02T15:25:02.024Z</time></trkpt><trkpt lat="44.0081751" lon="11.950198"><ele>225.2</ele><time>2026-05-02T15:25:03.024Z</time></trkpt><trkpt lat="44.0082321" lon="11.9503303"><ele>225.4</ele><time>2026-05-02T15:25:04.024Z</time></trkpt><trkpt lat="44.008293" lon="11.95046"><ele>225.60000000000002</ele><time>2026-05-02T15:25:05.024Z</time></trkpt><trkpt lat="44.0083598" lon="11.9505892"><ele>225.8</ele><time>2026-05-02T15:25:06.025Z</time></trkpt><trkpt lat="44.008421" lon="11.9507095"><ele>226.0</ele><time>2026-05-02T15:25:07.024Z</time></trkpt><trkpt lat="44.0084835" lon="11.9508362"><ele>225.4</ele><time>2026-05-02T15:25:08.024Z</time></trkpt><trkpt lat="44.0085451" lon="11.9509553"><ele>224.8</ele><time>2026-05-02T15:25:09.024Z</time></trkpt><trkpt lat="44.0086144" lon="11.9510679"><ele>224.20000000000002</ele><time>2026-05-02T15:25:10.024Z</time></trkpt><trkpt lat="44.0086827" lon="11.95118"><ele>223.60000000000002</ele><time>2026-05-02T15:25:11.025Z</time></trkpt><trkpt lat="44.0087567" lon="11.9512848"><ele>223.0</ele><time>2026-05-02T15:25:12.025Z</time></trkpt><trkpt lat="44.0088203" lon="11.9513739"><ele>223.0</ele><time>2026-05-02T15:25:13.024Z</time></trkpt><trkpt lat="44.0088765" lon="11.951429"><ele>223.0</ele><time>2026-05-02T15:25:14.025Z</time></trkpt><trkpt lat="44.0089664" lon="11.9514444"><ele>223.0</ele><time>2026-05-02T15:25:16.024Z</time></trkpt><trkpt lat="44.0090798" lon="11.9513423"><ele>223.0</ele><time>2026-05-02T15:25:18.024Z</time></trkpt><trkpt lat="44.009163" lon="11.9512743"><ele>223.0</ele><time>2026-05-02T15:25:19.024Z</time></trkpt><trkpt lat="44.0092629" lon="11.9511983"><ele>221.8</ele><time>2026-05-02T15:25:20.024Z</time></trkpt><trkpt lat="44.0093678" lon="11.9511321"><ele>220.60000000000002</ele><time>2026-05-02T15:25:21.024Z</time></trkpt><trkpt lat="44.0094642" lon="11.9510649"><ele>219.39999999999998</ele><time>2026-05-02T15:25:22.025Z</time></trkpt><trkpt lat="44.009553" lon="11.9509983"><ele>218.2</ele><time>2026-05-02T15:25:23.024Z</time></trkpt><trkpt lat="44.009641" lon="11.9509376"><ele>217.0</ele><time>2026-05-02T15:25:24.025Z</time></trkpt><trkpt lat="44.0097226" lon="11.9508855"><ele>217.0</ele><time>2026-05-02T15:25:25.024Z</time></trkpt><trkpt lat="44.0097992" lon="11.9508399"><ele>217.0</ele><time>2026-05-02T15:25:26.024Z</time></trkpt><trkpt lat="44.0098633" lon="11.9508253"><ele>217.0</ele><time>2026-05-02T15:25:27.024Z</time></trkpt><trkpt lat="44.0099691" lon="11.9509366"><ele>217.0</ele><time>2026-05-02T15:25:29.024Z</time></trkpt><trkpt lat="44.0100233" lon="11.9510577"><ele>217.0</ele><time>2026-05-02T15:25:30.024Z</time></trkpt><trkpt lat="44.0100794" lon="11.9512224"><ele>215.66666666666666</ele><time>2026-05-02T15:25:31.024Z</time></trkpt><trkpt lat="44.0101484" lon="11.951426"><ele>214.33333333333331</ele><time>2026-05-02T15:25:32.024Z</time></trkpt><trkpt lat="44.0102256" lon="11.9516346"><ele>213.0</ele><time>2026-05-02T15:25:33.024Z</time></trkpt><trkpt lat="44.0103034" lon="11.9518365"><ele>213.0</ele><time>2026-05-02T15:25:34.024Z</time></trkpt><trkpt lat="44.0103799" lon="11.9520299"><ele>213.0</ele><time>2026-05-02T15:25:35.024Z</time></trkpt><trkpt lat="44.0104567" lon="11.9522164"><ele>213.0</ele><time>2026-05-02T15:25:36.024Z</time></trkpt><trkpt lat="44.0105287" lon="11.9523923"><ele>214.0</ele><time>2026-05-02T15:25:37.024Z</time></trkpt><trkpt lat="44.0106009" lon="11.9525611"><ele>215.0</ele><time>2026-05-02T15:25:38.025Z</time></trkpt><trkpt lat="44.0106705" lon="11.9527197"><ele>216.0</ele><time>2026-05-02T15:25:39.024Z</time></trkpt><trkpt lat="44.010727" lon="11.9528722"><ele>217.0</ele><time>2026-05-02T15:25:40.025Z</time></trkpt><trkpt lat="44.0107849" lon="11.9530137"><ele>213.8</ele><time>2026-05-02T15:25:41.024Z</time></trkpt><trkpt lat="44.0108387" lon="11.9531604"><ele>210.6</ele><time>2026-05-02T15:25:42.024Z</time></trkpt><trkpt lat="44.0108937" lon="11.9533035"><ele>207.4</ele><time>2026-05-02T15:25:43.024Z</time></trkpt><trkpt lat="44.0109495" lon="11.953435"><ele>204.20000000000002</ele><time>2026-05-02T15:25:44.025Z</time></trkpt><trkpt lat="44.0110016" lon="11.9535609"><ele>201.0</ele><time>2026-05-02T15:25:45.024Z</time></trkpt><trkpt lat="44.0110472" lon="11.9536676"><ele>201.0</ele><time>2026-05-02T15:25:46.024Z</time></trkpt><trkpt lat="44.0110886" lon="11.953751"><ele>201.0</ele><time>2026-05-02T15:25:47.024Z</time></trkpt><trkpt lat="44.0111438" lon="11.9537963"><ele>201.0</ele><time>2026-05-02T15:25:48.025Z</time></trkpt><trkpt lat="44.0112093" lon="11.9538074"><ele>201.0</ele><time>2026-05-02T15:25:49.025Z</time></trkpt><trkpt lat="44.0112747" lon="11.9537761"><ele>201.0</ele><time>2026-05-02T15:25:50.024Z</time></trkpt><trkpt lat="44.01136" lon="11.9537391"><ele>201.0</ele><time>2026-05-02T15:25:51.024Z</time></trkpt><trkpt lat="44.0114391" lon="11.9536696"><ele>201.0</ele><time>2026-05-02T15:25:52.024Z</time></trkpt><trkpt lat="44.0115131" lon="11.9536259"><ele>201.0</ele><time>2026-05-02T15:25:53.024Z</time></trkpt><trkpt lat="44.0115827" lon="11.9535824"><ele>201.0</ele><time>2026-05-02T15:25:54.024Z</time></trkpt><trkpt lat="44.011686" lon="11.9535371"><ele>201.0</ele><time>2026-05-02T15:25:56.024Z</time></trkpt><trkpt lat="44.0117613" lon="11.9535301"><ele>201.0</ele><time>2026-05-02T15:25:59.024Z</time></trkpt><trkpt lat="44.0118309" lon="11.9535067"><ele>201.0</ele><time>2026-05-02T15:26:02.024Z</time></trkpt><trkpt lat="44.0118922" lon="11.953471"><ele>199.16666666666666</ele><time>2026-05-02T15:26:04.024Z</time></trkpt><trkpt lat="44.0119564" lon="11.9534283"><ele>197.33333333333334</ele><time>2026-05-02T15:26:06.024Z</time></trkpt><trkpt lat="44.0120221" lon="11.9534157"><ele>195.5</ele><time>2026-05-02T15:26:08.024Z</time></trkpt><trkpt lat="44.0120784" lon="11.9534893"><ele>193.66666666666669</ele><time>2026-05-02T15:26:11.024Z</time></trkpt><trkpt lat="44.0120626" lon="11.9536097"><ele>191.83333333333334</ele><time>2026-05-02T15:26:13.024Z</time></trkpt><trkpt lat="44.0120539" lon="11.9537248"><ele>190.0</ele><time>2026-05-02T15:26:15.024Z</time></trkpt><trkpt lat="44.0120827" lon="11.9538764"><ele>190.0</ele><time>2026-05-02T15:26:17.024Z</time></trkpt><trkpt lat="44.0121088" lon="11.9539689"><ele>190.0</ele><time>2026-05-02T15:26:18.024Z</time></trkpt><trkpt lat="44.0121538" lon="11.9540822"><ele>190.0</ele><time>2026-05-02T15:26:20.024Z</time></trkpt><trkpt lat="44.0121794" lon="11.9541896"><ele>190.0</ele><time>2026-05-02T15:26:22.025Z</time></trkpt><trkpt lat="44.0121986" lon="11.95431"><ele>190.0</ele><time>2026-05-02T15:26:24.025Z</time></trkpt><trkpt lat="44.0122299" lon="11.9544207"><ele>190.0</ele><time>2026-05-02T15:26:26.025Z</time></trkpt><trkpt lat="44.0122528" lon="11.9545252"><ele>190.5</ele><time>2026-05-02T15:26:28.025Z</time></trkpt><trkpt lat="44.0122685" lon="11.954636"><ele>191.0</ele><time>2026-05-02T15:26:30.024Z</time></trkpt><trkpt lat="44.0122886" lon="11.9547513"><ele>191.5</ele><time>2026-05-02T15:26:32.024Z</time></trkpt><trkpt lat="44.0123132" lon="11.954859"><ele>192.0</ele><time>2026-05-02T15:26:34.024Z</time></trkpt><trkpt lat="44.0123327" lon="11.9549644"><ele>192.49999999999997</ele><time>2026-05-02T15:26:36.024Z</time></trkpt><trkpt lat="44.0123487" lon="11.9550602"><ele>193.0</ele><time>2026-05-02T15:26:38.025Z</time></trkpt><trkpt lat="44.0123698" lon="11.9551713"><ele>193.00000000000003</ele><time>2026-05-02T15:26:41.025Z</time></trkpt><trkpt lat="44.0123886" lon="11.9552587"><ele>193.0</ele><time>2026-05-02T15:26:45.024Z</time></trkpt><trkpt lat="44.0124036" lon="11.955363"><ele>193.0</ele><time>2026-05-02T15:26:50.024Z</time></trkpt><trkpt lat="44.0124171" lon="11.9554502"><ele>193.0</ele><time>2026-05-02T15:26:54.024Z</time></trkpt><trkpt lat="44.0124358" lon="11.9555394"><ele>193.0</ele><time>2026-05-02T15:26:57.024Z</time></trkpt><trkpt lat="44.0124548" lon="11.9556531"><ele>193.00000000000003</ele><time>2026-05-02T15:27:00.024Z</time></trkpt><trkpt lat="44.0124795" lon="11.955759"><ele>193.0</ele><time>2026-05-02T15:27:03.024Z</time></trkpt><trkpt lat="44.0124982" lon="11.9558688"><ele>191.42857142857144</ele><time>2026-05-02T15:27:06.024Z</time></trkpt><trkpt lat="44.0125205" lon="11.9559704"><ele>189.85714285714286</ele><time>2026-05-02T15:27:09.024Z</time></trkpt><trkpt lat="44.0125342" lon="11.9560594"><ele>188.28571428571428</ele><time>2026-05-02T15:27:12.024Z</time></trkpt><trkpt lat="44.0125701" lon="11.9561668"><ele>186.71428571428572</ele><time>2026-05-02T15:27:15.024Z</time></trkpt><trkpt lat="44.0125888" lon="11.9562509"><ele>185.14285714285714</ele><time>2026-05-02T15:27:17.024Z</time></trkpt><trkpt lat="44.0126054" lon="11.9563398"><ele>183.57142857142858</ele><time>2026-05-02T15:27:19.024Z</time></trkpt><trkpt lat="44.0126219" lon="11.9564321"><ele>182.0</ele><time>2026-05-02T15:27:21.024Z</time></trkpt><trkpt lat="44.0126401" lon="11.9565312"><ele>182.0</ele><time>2026-05-02T15:27:24.024Z</time></trkpt><trkpt lat="44.0126375" lon="11.9566441"><ele>182.0</ele><time>2026-05-02T15:27:37.025Z</time></trkpt><trkpt lat="44.0126771" lon="11.9565278"><ele>182.0</ele><time>2026-05-02T15:31:28.024Z</time></trkpt><trkpt lat="44.0127136" lon="11.9564387"><ele>182.0</ele><time>2026-05-02T15:31:30.024Z</time></trkpt><trkpt lat="44.0127535" lon="11.9563622"><ele>182.0</ele><time>2026-05-02T15:31:32.024Z</time></trkpt><trkpt lat="44.0128264" lon="11.956287"><ele>182.0</ele><time>2026-05-02T15:31:35.024Z</time></trkpt><trkpt lat="44.0128912" lon="11.9562654"><ele>182.0</ele><time>2026-05-02T15:31:37.024Z</time></trkpt><trkpt lat="44.0129589" lon="11.956253"><ele>182.0</ele><time>2026-05-02T15:31:40.024Z</time></trkpt><trkpt lat="44.0130136" lon="11.9561853"><ele>182.0</ele><time>2026-05-02T15:31:46.024Z</time></trkpt><trkpt lat="44.0129592" lon="11.9562463"><ele>182.0</ele><time>2026-05-02T15:31:51.024Z</time></trkpt><trkpt lat="44.0128837" lon="11.9562717"><ele>182.0</ele><time>2026-05-02T15:32:13.024Z</time></trkpt><trkpt lat="44.0127744" lon="11.9563421"><ele>182.0</ele><time>2026-05-02T15:32:15.024Z</time></trkpt><trkpt lat="44.0127093" lon="11.9564514"><ele>182.0</ele><time>2026-05-02T15:32:17.024Z</time></trkpt><trkpt lat="44.0126566" lon="11.9565343"><ele>182.0</ele><time>2026-05-02T15:32:19.024Z</time></trkpt><trkpt lat="44.012616" lon="11.9564313"><ele>182.0</ele><time>2026-05-02T15:32:23.025Z</time></trkpt><trkpt lat="44.0125914" lon="11.956286"><ele>182.0</ele><time>2026-05-02T15:32:25.024Z</time></trkpt><trkpt lat="44.0125693" lon="11.9561505"><ele>182.0</ele><time>2026-05-02T15:32:27.024Z</time></trkpt><trkpt lat="44.0125442" lon="11.9560159"><ele>182.0</ele><time>2026-05-02T15:32:29.025Z</time></trkpt><trkpt lat="44.012525" lon="11.9559157"><ele>182.0</ele><time>2026-05-02T15:32:30.024Z</time></trkpt><trkpt lat="44.0124997" lon="11.9558031"><ele>182.0</ele><time>2026-05-02T15:32:31.024Z</time></trkpt><trkpt lat="44.0124813" lon="11.9556996"><ele>182.0</ele><time>2026-05-02T15:32:32.024Z</time></trkpt><trkpt lat="44.0124639" lon="11.9556005"><ele>182.0</ele><time>2026-05-02T15:32:33.024Z</time></trkpt><trkpt lat="44.0124494" lon="11.9555103"><ele>182.0</ele><time>2026-05-02T15:32:34.024Z</time></trkpt><trkpt lat="44.0124204" lon="11.9553396"><ele>183.83333333333331</ele><time>2026-05-02T15:32:36.024Z</time></trkpt><trkpt lat="44.0123902" lon="11.955168"><ele>185.66666666666666</ele><time>2026-05-02T15:32:38.023Z</time></trkpt><trkpt lat="44.0123749" lon="11.9550795"><ele>187.5</ele><time>2026-05-02T15:32:39.024Z</time></trkpt><trkpt lat="44.0123587" lon="11.9549876"><ele>189.33333333333331</ele><time>2026-05-02T15:32:40.023Z</time></trkpt><trkpt lat="44.0123418" lon="11.9548985"><ele>191.16666666666666</ele><time>2026-05-02T15:32:41.023Z</time></trkpt><trkpt lat="44.0123256" lon="11.9548024"><ele>193.0</ele><time>2026-05-02T15:32:42.024Z</time></trkpt><trkpt lat="44.0123066" lon="11.9547154"><ele>192.99999999999997</ele><time>2026-05-02T15:32:43.023Z</time></trkpt><trkpt lat="44.0122909" lon="11.9546273"><ele>193.0</ele><time>2026-05-02T15:32:44.023Z</time></trkpt><trkpt lat="44.0122599" lon="11.9544529"><ele>193.0</ele><time>2026-05-02T15:32:46.023Z</time></trkpt><trkpt lat="44.0122332" lon="11.9543002"><ele>193.0</ele><time>2026-05-02T15:32:48.023Z</time></trkpt><trkpt lat="44.0122166" lon="11.9542051"><ele>192.99999999999997</ele><time>2026-05-02T15:32:50.023Z</time></trkpt><trkpt lat="44.0121982" lon="11.9541192"><ele>193.0</ele><time>2026-05-02T15:32:52.023Z</time></trkpt><trkpt lat="44.0121517" lon="11.9540415"><ele>192.4</ele><time>2026-05-02T15:32:54.023Z</time></trkpt><trkpt lat="44.012081" lon="11.9538947"><ele>191.8</ele><time>2026-05-02T15:32:56.023Z</time></trkpt><trkpt lat="44.0120539" lon="11.9537925"><ele>191.2</ele><time>2026-05-02T15:32:57.023Z</time></trkpt><trkpt lat="44.0120394" lon="11.9536298"><ele>190.6</ele><time>2026-05-02T15:32:59.024Z</time></trkpt><trkpt lat="44.0120674" lon="11.9534832"><ele>190.0</ele><time>2026-05-02T15:33:01.023Z</time></trkpt><trkpt lat="44.012049" lon="11.9533857"><ele>190.0</ele><time>2026-05-02T15:33:04.023Z</time></trkpt><trkpt lat="44.0119839" lon="11.953396"><ele>190.0</ele><time>2026-05-02T15:33:06.024Z</time></trkpt><trkpt lat="44.0118815" lon="11.9534451"><ele>190.0</ele><time>2026-05-02T15:33:08.023Z</time></trkpt><trkpt lat="44.0118164" lon="11.9535076"><ele>190.0</ele><time>2026-05-02T15:33:11.024Z</time></trkpt><trkpt lat="44.0118379" lon="11.9536249"><ele>190.0</ele><time>2026-05-02T15:33:13.023Z</time></trkpt><trkpt lat="44.0118708" lon="11.9537214"><ele>190.0</ele><time>2026-05-02T15:33:14.023Z</time></trkpt><trkpt lat="44.0119041" lon="11.9538332"><ele>190.0</ele><time>2026-05-02T15:33:15.023Z</time></trkpt><trkpt lat="44.0119426" lon="11.9539622"><ele>190.0</ele><time>2026-05-02T15:33:16.023Z</time></trkpt><trkpt lat="44.0119885" lon="11.9540982"><ele>190.0</ele><time>2026-05-02T15:33:17.023Z</time></trkpt><trkpt lat="44.0120382" lon="11.9542484"><ele>190.0</ele><time>2026-05-02T15:33:18.023Z</time></trkpt><trkpt lat="44.0120815" lon="11.9544095"><ele>190.75</ele><time>2026-05-02T15:33:19.023Z</time></trkpt><trkpt lat="44.0121174" lon="11.9545698"><ele>191.5</ele><time>2026-05-02T15:33:20.023Z</time></trkpt><trkpt lat="44.0121518" lon="11.9547306"><ele>192.25</ele><time>2026-05-02T15:33:21.023Z</time></trkpt><trkpt lat="44.0121834" lon="11.9548932"><ele>193.0</ele><time>2026-05-02T15:33:22.023Z</time></trkpt><trkpt lat="44.0122155" lon="11.9550593"><ele>193.0</ele><time>2026-05-02T15:33:23.023Z</time></trkpt><trkpt lat="44.012247" lon="11.9552298"><ele>193.0</ele><time>2026-05-02T15:33:24.023Z</time></trkpt><trkpt lat="44.0122793" lon="11.955402"><ele>193.0</ele><time>2026-05-02T15:33:25.023Z</time></trkpt><trkpt lat="44.0123145" lon="11.9556086"><ele>193.0</ele><time>2026-05-02T15:33:26.024Z</time></trkpt><trkpt lat="44.0123512" lon="11.955837"><ele>193.25</ele><time>2026-05-02T15:33:27.024Z</time></trkpt><trkpt lat="44.0123868" lon="11.9560547"><ele>193.5</ele><time>2026-05-02T15:33:28.024Z</time></trkpt><trkpt lat="44.0124142" lon="11.9562557"><ele>193.75</ele><time>2026-05-02T15:33:29.024Z</time></trkpt><trkpt lat="44.0124404" lon="11.9564416"><ele>194.0</ele><time>2026-05-02T15:33:30.023Z</time></trkpt><trkpt lat="44.0124695" lon="11.9566152"><ele>191.5</ele><time>2026-05-02T15:33:31.023Z</time></trkpt><trkpt lat="44.0124953" lon="11.956782"><ele>189.0</ele><time>2026-05-02T15:33:32.023Z</time></trkpt><trkpt lat="44.012517" lon="11.9569513"><ele>186.5</ele><time>2026-05-02T15:33:33.024Z</time></trkpt><trkpt lat="44.0125432" lon="11.9571143"><ele>184.0</ele><time>2026-05-02T15:33:34.024Z</time></trkpt><trkpt lat="44.0125696" lon="11.9572766"><ele>184.0</ele><time>2026-05-02T15:33:35.024Z</time></trkpt><trkpt lat="44.0125896" lon="11.957438"><ele>184.0</ele><time>2026-05-02T15:33:36.023Z</time></trkpt><trkpt lat="44.012609" lon="11.9575781"><ele>184.0</ele><time>2026-05-02T15:33:37.023Z</time></trkpt><trkpt lat="44.012634" lon="11.9577138"><ele>184.0</ele><time>2026-05-02T15:33:38.023Z</time></trkpt><trkpt lat="44.0126498" lon="11.9578413"><ele>184.0</ele><time>2026-05-02T15:33:39.023Z</time></trkpt><trkpt lat="44.0126592" lon="11.9579549"><ele>184.16666666666669</ele><time>2026-05-02T15:33:40.023Z</time></trkpt><trkpt lat="44.0126727" lon="11.9580618"><ele>184.33333333333334</ele><time>2026-05-02T15:33:41.023Z</time></trkpt><trkpt lat="44.0126877" lon="11.9581665"><ele>184.5</ele><time>2026-05-02T15:33:42.024Z</time></trkpt><trkpt lat="44.0127041" lon="11.9582681"><ele>184.66666666666666</ele><time>2026-05-02T15:33:43.023Z</time></trkpt><trkpt lat="44.0127167" lon="11.9583686"><ele>184.83333333333331</ele><time>2026-05-02T15:33:44.024Z</time></trkpt><trkpt lat="44.0127353" lon="11.9584571"><ele>185.0</ele><time>2026-05-02T15:33:45.023Z</time></trkpt><trkpt lat="44.0128044" lon="11.9585716"><ele>185.0</ele><time>2026-05-02T15:33:47.023Z</time></trkpt><trkpt lat="44.0128919" lon="11.9585671"><ele>185.0</ele><time>2026-05-02T15:33:49.023Z</time></trkpt><trkpt lat="44.0129719" lon="11.958452"><ele>185.0</ele><time>2026-05-02T15:33:51.024Z</time></trkpt><trkpt lat="44.0129812" lon="11.9582867"><ele>185.0</ele><time>2026-05-02T15:33:53.023Z</time></trkpt><trkpt lat="44.0129436" lon="11.9581888"><ele>185.0</ele><time>2026-05-02T15:33:54.023Z</time></trkpt><trkpt lat="44.0128981" lon="11.958079"><ele>185.0</ele><time>2026-05-02T15:33:55.023Z</time></trkpt><trkpt lat="44.0128455" lon="11.9579554"><ele>185.0</ele><time>2026-05-02T15:33:56.023Z</time></trkpt><trkpt lat="44.0127962" lon="11.9578106"><ele>185.0</ele><time>2026-05-02T15:33:57.023Z</time></trkpt><trkpt lat="44.0127623" lon="11.9576542"><ele>185.0</ele><time>2026-05-02T15:33:58.024Z</time></trkpt><trkpt lat="44.0127362" lon="11.9574866"><ele>184.8</ele><time>2026-05-02T15:33:59.023Z</time></trkpt><trkpt lat="44.0127069" lon="11.9573227"><ele>184.6</ele><time>2026-05-02T15:34:00.024Z</time></trkpt><trkpt lat="44.0126817" lon="11.9571689"><ele>184.39999999999998</ele><time>2026-05-02T15:34:01.023Z</time></trkpt><trkpt lat="44.0126662" lon="11.9570329"><ele>184.2</ele><time>2026-05-02T15:34:02.024Z</time></trkpt><trkpt lat="44.0126631" lon="11.9569082"><ele>184.0</ele><time>2026-05-02T15:34:03.023Z</time></trkpt><trkpt lat="44.012678" lon="11.9567965"><ele>183.71428571428572</ele><time>2026-05-02T15:34:04.023Z</time></trkpt><trkpt lat="44.0127094" lon="11.9566964"><ele>183.42857142857142</ele><time>2026-05-02T15:34:05.023Z</time></trkpt><trkpt lat="44.0127481" lon="11.9566122"><ele>183.14285714285714</ele><time>2026-05-02T15:34:06.023Z</time></trkpt><trkpt lat="44.0127856" lon="11.9565327"><ele>182.85714285714286</ele><time>2026-05-02T15:34:07.023Z</time></trkpt><trkpt lat="44.0128313" lon="11.9564722"><ele>182.57142857142856</ele><time>2026-05-02T15:34:08.024Z</time></trkpt><trkpt lat="44.0128949" lon="11.9564459"><ele>182.28571428571428</ele><time>2026-05-02T15:34:09.023Z</time></trkpt><trkpt lat="44.0129595" lon="11.9564572"><ele>182.0</ele><time>2026-05-02T15:34:10.023Z</time></trkpt><trkpt lat="44.0130283" lon="11.9565008"><ele>182.0</ele><time>2026-05-02T15:34:11.024Z</time></trkpt><trkpt lat="44.0130921" lon="11.9565577"><ele>182.0</ele><time>2026-05-02T15:34:12.023Z</time></trkpt><trkpt lat="44.0131607" lon="11.9566321"><ele>182.0</ele><time>2026-05-02T15:34:13.023Z</time></trkpt><trkpt lat="44.0132267" lon="11.9567142"><ele>182.0</ele><time>2026-05-02T15:34:14.023Z</time></trkpt><trkpt lat="44.013276" lon="11.9568199"><ele>182.0</ele><time>2026-05-02T15:34:15.023Z</time></trkpt><trkpt lat="44.0133143" lon="11.9569383"><ele>182.0</ele><time>2026-05-02T15:34:16.023Z</time></trkpt><trkpt lat="44.0133402" lon="11.9570672"><ele>182.39999999999998</ele><time>2026-05-02T15:34:17.023Z</time></trkpt><trkpt lat="44.0133397" lon="11.9572048"><ele>182.79999999999998</ele><time>2026-05-02T15:34:18.023Z</time></trkpt><trkpt lat="44.013327" lon="11.9573399"><ele>183.2</ele><time>2026-05-02T15:34:19.023Z</time></trkpt><trkpt lat="44.0133052" lon="11.9574791"><ele>183.6</ele><time>2026-05-02T15:34:20.023Z</time></trkpt><trkpt lat="44.0132917" lon="11.9576276"><ele>184.0</ele><time>2026-05-02T15:34:21.023Z</time></trkpt><trkpt lat="44.0132821" lon="11.9577662"><ele>184.16666666666669</ele><time>2026-05-02T15:34:22.024Z</time></trkpt><trkpt lat="44.0132728" lon="11.9579002"><ele>184.33333333333334</ele><time>2026-05-02T15:34:23.023Z</time></trkpt><trkpt lat="44.0132611" lon="11.9580282"><ele>184.5</ele><time>2026-05-02T15:34:24.023Z</time></trkpt><trkpt lat="44.0132577" lon="11.9581535"><ele>184.66666666666666</ele><time>2026-05-02T15:34:25.023Z</time></trkpt><trkpt lat="44.0132632" lon="11.9582686"><ele>184.83333333333331</ele><time>2026-05-02T15:34:26.023Z</time></trkpt><trkpt lat="44.0132772" lon="11.9583687"><ele>185.0</ele><time>2026-05-02T15:34:27.023Z</time></trkpt><trkpt lat="44.0132991" lon="11.9584558"><ele>182.2</ele><time>2026-05-02T15:34:28.023Z</time></trkpt><trkpt lat="44.0133852" lon="11.9585499"><ele>179.4</ele><time>2026-05-02T15:34:30.023Z</time></trkpt><trkpt lat="44.013454" lon="11.9585897"><ele>176.60000000000002</ele><time>2026-05-02T15:34:31.024Z</time></trkpt><trkpt lat="44.0135352" lon="11.9586327"><ele>173.8</ele><time>2026-05-02T15:34:32.023Z</time></trkpt><trkpt lat="44.0136193" lon="11.9586757"><ele>171.0</ele><time>2026-05-02T15:34:33.023Z</time></trkpt><trkpt lat="44.0137108" lon="11.9587372"><ele>171.0</ele><time>2026-05-02T15:34:34.023Z</time></trkpt><trkpt lat="44.0137953" lon="11.9587934"><ele>171.0</ele><time>2026-05-02T15:34:35.023Z</time></trkpt><trkpt lat="44.0138765" lon="11.9588439"><ele>171.0</ele><time>2026-05-02T15:34:36.023Z</time></trkpt><trkpt lat="44.0139481" lon="11.9588892"><ele>171.0</ele><time>2026-05-02T15:34:37.024Z</time></trkpt><trkpt lat="44.014015" lon="11.9589346"><ele>171.0</ele><time>2026-05-02T15:34:38.023Z</time></trkpt><trkpt lat="44.0140776" lon="11.9589813"><ele>171.0</ele><time>2026-05-02T15:34:39.023Z</time></trkpt><trkpt lat="44.0141395" lon="11.9590404"><ele>169.33333333333334</ele><time>2026-05-02T15:34:40.024Z</time></trkpt><trkpt lat="44.0141951" lon="11.9591183"><ele>167.66666666666666</ele><time>2026-05-02T15:34:41.023Z</time></trkpt><trkpt lat="44.0142447" lon="11.9592141"><ele>166.0</ele><time>2026-05-02T15:34:42.023Z</time></trkpt><trkpt lat="44.0142898" lon="11.9593212"><ele>164.33333333333331</ele><time>2026-05-02T15:34:43.024Z</time></trkpt><trkpt lat="44.0143332" lon="11.9594314"><ele>162.66666666666666</ele><time>2026-05-02T15:34:44.023Z</time></trkpt><trkpt lat="44.0143783" lon="11.9595475"><ele>161.0</ele><time>2026-05-02T15:34:45.023Z</time></trkpt><trkpt lat="44.014421" lon="11.9596714"><ele>160.60000000000002</ele><time>2026-05-02T15:34:46.023Z</time></trkpt><trkpt lat="44.0144638" lon="11.9598018"><ele>160.20000000000002</ele><time>2026-05-02T15:34:47.023Z</time></trkpt><trkpt lat="44.0145028" lon="11.9599308"><ele>159.8</ele><time>2026-05-02T15:34:48.024Z</time></trkpt><trkpt lat="44.0145445" lon="11.9600542"><ele>159.4</ele><time>2026-05-02T15:34:49.023Z</time></trkpt><trkpt lat="44.0145853" lon="11.9601791"><ele>159.0</ele><time>2026-05-02T15:34:50.024Z</time></trkpt><trkpt lat="44.0146244" lon="11.9603058"><ele>159.0</ele><time>2026-05-02T15:34:51.023Z</time></trkpt><trkpt lat="44.0146624" lon="11.9604245"><ele>159.0</ele><time>2026-05-02T15:34:52.024Z</time></trkpt><trkpt lat="44.0147106" lon="11.9605325"><ele>159.0</ele><time>2026-05-02T15:34:53.023Z</time></trkpt><trkpt lat="44.0147748" lon="11.9606389"><ele>159.0</ele><time>2026-05-02T15:34:54.023Z</time></trkpt><trkpt lat="44.0148475" lon="11.9607301"><ele>159.0</ele><time>2026-05-02T15:34:55.024Z</time></trkpt><trkpt lat="44.0149292" lon="11.9608043"><ele>158.6</ele><time>2026-05-02T15:34:56.023Z</time></trkpt><trkpt lat="44.0150159" lon="11.960872"><ele>158.2</ele><time>2026-05-02T15:34:57.023Z</time></trkpt><trkpt lat="44.0151048" lon="11.9609429"><ele>157.79999999999998</ele><time>2026-05-02T15:34:58.023Z</time></trkpt><trkpt lat="44.0151887" lon="11.961012"><ele>157.4</ele><time>2026-05-02T15:34:59.023Z</time></trkpt><trkpt lat="44.0152754" lon="11.9610767"><ele>157.0</ele><time>2026-05-02T15:35:00.024Z</time></trkpt><trkpt lat="44.015367" lon="11.961142"><ele>157.0</ele><time>2026-05-02T15:35:01.023Z</time></trkpt><trkpt lat="44.0154648" lon="11.9612131"><ele>157.0</ele><time>2026-05-02T15:35:02.023Z</time></trkpt><trkpt lat="44.0155623" lon="11.9612976"><ele>157.0</ele><time>2026-05-02T15:35:03.023Z</time></trkpt><trkpt lat="44.0156607" lon="11.9613789"><ele>157.0</ele><time>2026-05-02T15:35:04.024Z</time></trkpt><trkpt lat="44.0157629" lon="11.9614609"><ele>156.75</ele><time>2026-05-02T15:35:05.023Z</time></trkpt><trkpt lat="44.0158646" lon="11.9615605"><ele>156.5</ele><time>2026-05-02T15:35:06.023Z</time></trkpt><trkpt lat="44.0159621" lon="11.9616552"><ele>156.25</ele><time>2026-05-02T15:35:07.023Z</time></trkpt><trkpt lat="44.0160543" lon="11.9617545"><ele>156.0</ele><time>2026-05-02T15:35:08.024Z</time></trkpt><trkpt lat="44.0161477" lon="11.9618456"><ele>156.0</ele><time>2026-05-02T15:35:09.023Z</time></trkpt><trkpt lat="44.0162371" lon="11.961937"><ele>156.0</ele><time>2026-05-02T15:35:10.024Z</time></trkpt><trkpt lat="44.016322" lon="11.9620252"><ele>156.0</ele><time>2026-05-02T15:35:11.023Z</time></trkpt><trkpt lat="44.0164091" lon="11.9621093"><ele>156.0</ele><time>2026-05-02T15:35:12.023Z</time></trkpt><trkpt lat="44.0164935" lon="11.962185"><ele>156.0</ele><time>2026-05-02T15:35:13.023Z</time></trkpt><trkpt lat="44.0165806" lon="11.9622567"><ele>156.2</ele><time>2026-05-02T15:35:14.023Z</time></trkpt><trkpt lat="44.0166693" lon="11.9623308"><ele>156.39999999999998</ele><time>2026-05-02T15:35:15.023Z</time></trkpt><trkpt lat="44.0167565" lon="11.9624126"><ele>156.6</ele><time>2026-05-02T15:35:16.023Z</time></trkpt><trkpt lat="44.0168461" lon="11.9624951"><ele>156.79999999999998</ele><time>2026-05-02T15:35:17.023Z</time></trkpt><trkpt lat="44.0169355" lon="11.9625696"><ele>157.0</ele><time>2026-05-02T15:35:18.023Z</time></trkpt><trkpt lat="44.0170206" lon="11.9626345"><ele>157.0</ele><time>2026-05-02T15:35:19.023Z</time></trkpt><trkpt lat="44.0171021" lon="11.9626789"><ele>157.0</ele><time>2026-05-02T15:35:20.024Z</time></trkpt><trkpt lat="44.0171913" lon="11.9626972"><ele>157.0</ele><time>2026-05-02T15:35:21.023Z</time></trkpt><trkpt lat="44.0172851" lon="11.9627019"><ele>157.0</ele><time>2026-05-02T15:35:22.023Z</time></trkpt><trkpt lat="44.0173828" lon="11.962696"><ele>157.0</ele><time>2026-05-02T15:35:23.022Z</time></trkpt><trkpt lat="44.0174783" lon="11.9626852"><ele>158.66666666666669</ele><time>2026-05-02T15:35:24.022Z</time></trkpt><trkpt lat="44.0175704" lon="11.9626782"><ele>160.33333333333334</ele><time>2026-05-02T15:35:25.023Z</time></trkpt><trkpt lat="44.0176524" lon="11.9626732"><ele>162.0</ele><time>2026-05-02T15:35:26.023Z</time></trkpt><trkpt lat="44.0177261" lon="11.962667"><ele>163.66666666666666</ele><time>2026-05-02T15:35:27.023Z</time></trkpt><trkpt lat="44.0177982" lon="11.9626587"><ele>165.33333333333331</ele><time>2026-05-02T15:35:28.022Z</time></trkpt><trkpt lat="44.0178663" lon="11.9626541"><ele>167.0</ele><time>2026-05-02T15:35:29.022Z</time></trkpt><trkpt lat="44.0179308" lon="11.9626502"><ele>167.0</ele><time>2026-05-02T15:35:30.022Z</time></trkpt><trkpt lat="44.0180484" lon="11.9626454"><ele>167.0</ele><time>2026-05-02T15:35:32.023Z</time></trkpt><trkpt lat="44.0181493" lon="11.9626247"><ele>167.0</ele><time>2026-05-02T15:35:34.022Z</time></trkpt><trkpt lat="44.0182439" lon="11.9626201"><ele>167.0</ele><time>2026-05-02T15:35:36.023Z</time></trkpt><trkpt lat="44.0183296" lon="11.9626168"><ele>167.0</ele><time>2026-05-02T15:35:38.023Z</time></trkpt><trkpt lat="44.0184173" lon="11.962619"><ele>169.16666666666666</ele><time>2026-05-02T15:35:40.022Z</time></trkpt><trkpt lat="44.0185021" lon="11.9626168"><ele>171.33333333333331</ele><time>2026-05-02T15:35:42.022Z</time></trkpt><trkpt lat="44.0185861" lon="11.9626604"><ele>173.5</ele><time>2026-05-02T15:35:44.023Z</time></trkpt><trkpt lat="44.0186307" lon="11.9627564"><ele>175.66666666666666</ele><time>2026-05-02T15:35:46.022Z</time></trkpt><trkpt lat="44.0186439" lon="11.962869"><ele>177.83333333333334</ele><time>2026-05-02T15:35:48.022Z</time></trkpt><trkpt lat="44.0186562" lon="11.9630127"><ele>180.0</ele><time>2026-05-02T15:35:50.022Z</time></trkpt><trkpt lat="44.0186802" lon="11.9631419"><ele>180.0</ele><time>2026-05-02T15:35:52.022Z</time></trkpt><trkpt lat="44.0187396" lon="11.9632171"><ele>180.0</ele><time>2026-05-02T15:35:54.023Z</time></trkpt><trkpt lat="44.0188363" lon="11.9632841"><ele>180.0</ele><time>2026-05-02T15:35:56.022Z</time></trkpt><trkpt lat="44.01889" lon="11.9633371"><ele>180.0</ele><time>2026-05-02T15:35:57.022Z</time></trkpt><trkpt lat="44.0189489" lon="11.9633969"><ele>180.0</ele><time>2026-05-02T15:35:58.022Z</time></trkpt><trkpt lat="44.01901" lon="11.963468"><ele>180.0</ele><time>2026-05-02T15:35:59.022Z</time></trkpt><trkpt lat="44.0190761" lon="11.9635358"><ele>179.83333333333334</ele><time>2026-05-02T15:36:00.022Z</time></trkpt><trkpt lat="44.0191365" lon="11.9636085"><ele>179.66666666666666</ele><time>2026-05-02T15:36:01.022Z</time></trkpt><trkpt lat="44.019202" lon="11.9636818"><ele>179.5</ele><time>2026-05-02T15:36:02.022Z</time></trkpt><trkpt lat="44.0192717" lon="11.9637538"><ele>179.33333333333331</ele><time>2026-05-02T15:36:03.022Z</time></trkpt><trkpt lat="44.0193452" lon="11.963836"><ele>179.16666666666666</ele><time>2026-05-02T15:36:04.022Z</time></trkpt><trkpt lat="44.0194193" lon="11.9639208"><ele>179.0</ele><time>2026-05-02T15:36:05.023Z</time></trkpt><trkpt lat="44.0194894" lon="11.9640061"><ele>179.0</ele><time>2026-05-02T15:36:06.023Z</time></trkpt><trkpt lat="44.0195616" lon="11.96409"><ele>179.0</ele><time>2026-05-02T15:36:07.022Z</time></trkpt><trkpt lat="44.0196309" lon="11.9641745"><ele>179.0</ele><time>2026-05-02T15:36:08.022Z</time></trkpt><trkpt lat="44.0197055" lon="11.9642555"><ele>179.0</ele><time>2026-05-02T15:36:09.022Z</time></trkpt><trkpt lat="44.0197821" lon="11.9643304"><ele>179.0</ele><time>2026-05-02T15:36:10.022Z</time></trkpt><trkpt lat="44.0198622" lon="11.9644044"><ele>178.39999999999998</ele><time>2026-05-02T15:36:11.022Z</time></trkpt><trkpt lat="44.0199465" lon="11.9644653"><ele>177.8</ele><time>2026-05-02T15:36:12.023Z</time></trkpt><trkpt lat="44.0200335" lon="11.9645074"><ele>177.2</ele><time>2026-05-02T15:36:13.022Z</time></trkpt><trkpt lat="44.0201261" lon="11.9645398"><ele>176.60000000000002</ele><time>2026-05-02T15:36:14.023Z</time></trkpt><trkpt lat="44.0202197" lon="11.9645674"><ele>176.0</ele><time>2026-05-02T15:36:15.022Z</time></trkpt><trkpt lat="44.0203148" lon="11.9645953"><ele>176.0</ele><time>2026-05-02T15:36:16.022Z</time></trkpt><trkpt lat="44.0204114" lon="11.9646148"><ele>176.0</ele><time>2026-05-02T15:36:17.022Z</time></trkpt><trkpt lat="44.0205068" lon="11.9646375"><ele>176.0</ele><time>2026-05-02T15:36:18.022Z</time></trkpt><trkpt lat="44.0206023" lon="11.9646636"><ele>176.0</ele><time>2026-05-02T15:36:19.022Z</time></trkpt><trkpt lat="44.0206961" lon="11.9646854"><ele>176.0</ele><time>2026-05-02T15:36:20.022Z</time></trkpt><trkpt lat="44.0207846" lon="11.9647103"><ele>175.8</ele><time>2026-05-02T15:36:21.022Z</time></trkpt><trkpt lat="44.0208733" lon="11.964739"><ele>175.60000000000002</ele><time>2026-05-02T15:36:22.022Z</time></trkpt><trkpt lat="44.0209646" lon="11.9647645"><ele>175.4</ele><time>2026-05-02T15:36:23.022Z</time></trkpt><trkpt lat="44.0210549" lon="11.9647917"><ele>175.2</ele><time>2026-05-02T15:36:24.022Z</time></trkpt><trkpt lat="44.0211463" lon="11.9648235"><ele>175.0</ele><time>2026-05-02T15:36:25.022Z</time></trkpt><trkpt lat="44.0212385" lon="11.9648539"><ele>175.0</ele><time>2026-05-02T15:36:26.022Z</time></trkpt><trkpt lat="44.0213318" lon="11.9648873"><ele>175.0</ele><time>2026-05-02T15:36:27.022Z</time></trkpt><trkpt lat="44.0214188" lon="11.9649373"><ele>175.0</ele><time>2026-05-02T15:36:28.022Z</time></trkpt><trkpt lat="44.0215061" lon="11.9649959"><ele>175.0</ele><time>2026-05-02T15:36:29.022Z</time></trkpt><trkpt lat="44.0215924" lon="11.9650536"><ele>175.0</ele><time>2026-05-02T15:36:30.022Z</time></trkpt><trkpt lat="44.021677" lon="11.9651174"><ele>174.83333333333334</ele><time>2026-05-02T15:36:31.023Z</time></trkpt><trkpt lat="44.0217575" lon="11.9651811"><ele>174.66666666666669</ele><time>2026-05-02T15:36:32.022Z</time></trkpt><trkpt lat="44.0218368" lon="11.9652428"><ele>174.5</ele><time>2026-05-02T15:36:33.022Z</time></trkpt><trkpt lat="44.0219168" lon="11.9653034"><ele>174.33333333333334</ele><time>2026-05-02T15:36:34.022Z</time></trkpt><trkpt lat="44.0219924" lon="11.9653637"><ele>174.16666666666666</ele><time>2026-05-02T15:36:35.023Z</time></trkpt><trkpt lat="44.0220635" lon="11.9654264"><ele>174.0</ele><time>2026-05-02T15:36:36.023Z</time></trkpt><trkpt lat="44.0221271" lon="11.9654884"><ele>174.0</ele><time>2026-05-02T15:36:37.023Z</time></trkpt><trkpt lat="44.0221843" lon="11.9655445"><ele>174.0</ele><time>2026-05-02T15:36:38.022Z</time></trkpt><trkpt lat="44.0222274" lon="11.9656098"><ele>174.0</ele><time>2026-05-02T15:36:39.022Z</time></trkpt><trkpt lat="44.0222573" lon="11.9656873"><ele>174.0</ele><time>2026-05-02T15:36:40.022Z</time></trkpt><trkpt lat="44.0223227" lon="11.9658223"><ele>174.0</ele><time>2026-05-02T15:36:42.022Z</time></trkpt><trkpt lat="44.0224156" lon="11.9659068"><ele>174.0</ele><time>2026-05-02T15:36:44.022Z</time></trkpt><trkpt lat="44.0225247" lon="11.96597"><ele>173.66666666666666</ele><time>2026-05-02T15:36:46.022Z</time></trkpt><trkpt lat="44.0226228" lon="11.9660664"><ele>173.33333333333334</ele><time>2026-05-02T15:36:48.022Z</time></trkpt><trkpt lat="44.022676" lon="11.9661157"><ele>173.0</ele><time>2026-05-02T15:36:49.022Z</time></trkpt><trkpt lat="44.0227353" lon="11.9661708"><ele>172.66666666666669</ele><time>2026-05-02T15:36:50.022Z</time></trkpt><trkpt lat="44.0227932" lon="11.9662275"><ele>172.33333333333334</ele><time>2026-05-02T15:36:51.022Z</time></trkpt><trkpt lat="44.0228533" lon="11.9662864"><ele>172.0</ele><time>2026-05-02T15:36:52.023Z</time></trkpt><trkpt lat="44.0229123" lon="11.9663434"><ele>172.0</ele><time>2026-05-02T15:36:53.022Z</time></trkpt><trkpt lat="44.0229724" lon="11.9664055"><ele>172.0</ele><time>2026-05-02T15:36:54.022Z</time></trkpt><trkpt lat="44.023042" lon="11.9664702"><ele>172.0</ele><time>2026-05-02T15:36:55.022Z</time></trkpt><trkpt lat="44.0231181" lon="11.966543"><ele>172.0</ele><time>2026-05-02T15:36:56.022Z</time></trkpt><trkpt lat="44.023205" lon="11.9666142"><ele>172.0</ele><time>2026-05-02T15:36:57.022Z</time></trkpt><trkpt lat="44.0233041" lon="11.9666944"><ele>171.25</ele><time>2026-05-02T15:36:58.022Z</time></trkpt><trkpt lat="44.02341" lon="11.9667788"><ele>170.5</ele><time>2026-05-02T15:36:59.022Z</time></trkpt><trkpt lat="44.0235168" lon="11.9668682"><ele>169.75</ele><time>2026-05-02T15:37:00.022Z</time></trkpt><trkpt lat="44.0236234" lon="11.9669644"><ele>169.0</ele><time>2026-05-02T15:37:01.022Z</time></trkpt><trkpt lat="44.0237231" lon="11.9670716"><ele>169.0</ele><time>2026-05-02T15:37:02.022Z</time></trkpt><trkpt lat="44.0238195" lon="11.9671861"><ele>169.0</ele><time>2026-05-02T15:37:03.023Z</time></trkpt><trkpt lat="44.0239115" lon="11.9673012"><ele>169.0</ele><time>2026-05-02T15:37:04.022Z</time></trkpt><trkpt lat="44.0240017" lon="11.9674166"><ele>169.0</ele><time>2026-05-02T15:37:05.022Z</time></trkpt><trkpt lat="44.0240882" lon="11.9675329"><ele>169.25</ele><time>2026-05-02T15:37:06.022Z</time></trkpt><trkpt lat="44.0241717" lon="11.967652"><ele>169.5</ele><time>2026-05-02T15:37:07.022Z</time></trkpt><trkpt lat="44.0242566" lon="11.9677684"><ele>169.75</ele><time>2026-05-02T15:37:08.022Z</time></trkpt><trkpt lat="44.0243426" lon="11.9678852"><ele>170.0</ele><time>2026-05-02T15:37:09.023Z</time></trkpt><trkpt lat="44.0244214" lon="11.9680062"><ele>170.0</ele><time>2026-05-02T15:37:10.023Z</time></trkpt><trkpt lat="44.0245016" lon="11.9681301"><ele>170.0</ele><time>2026-05-02T15:37:11.022Z</time></trkpt><trkpt lat="44.024582" lon="11.9682473"><ele>170.0</ele><time>2026-05-02T15:37:12.023Z</time></trkpt><trkpt lat="44.0246594" lon="11.968364"><ele>170.0</ele><time>2026-05-02T15:37:13.022Z</time></trkpt><trkpt lat="44.0247366" lon="11.9684791"><ele>170.4</ele><time>2026-05-02T15:37:14.023Z</time></trkpt><trkpt lat="44.0248141" lon="11.9685909"><ele>170.8</ele><time>2026-05-02T15:37:15.022Z</time></trkpt><trkpt lat="44.0248909" lon="11.9687057"><ele>171.2</ele><time>2026-05-02T15:37:16.022Z</time></trkpt><trkpt lat="44.0249666" lon="11.9688106"><ele>171.6</ele><time>2026-05-02T15:37:17.022Z</time></trkpt><trkpt lat="44.0250379" lon="11.968911"><ele>172.0</ele><time>2026-05-02T15:37:18.022Z</time></trkpt><trkpt lat="44.0251096" lon="11.9690049"><ele>172.0</ele><time>2026-05-02T15:37:19.022Z</time></trkpt><trkpt lat="44.0251715" lon="11.9690897"><ele>172.0</ele><time>2026-05-02T15:37:20.023Z</time></trkpt><trkpt lat="44.025226" lon="11.9691818"><ele>172.0</ele><time>2026-05-02T15:37:21.023Z</time></trkpt><trkpt lat="44.0252805" lon="11.9692699"><ele>172.0</ele><time>2026-05-02T15:37:22.023Z</time></trkpt><trkpt lat="44.0253342" lon="11.9693574"><ele>172.0</ele><time>2026-05-02T15:37:23.022Z</time></trkpt><trkpt lat="44.0253896" lon="11.9694415"><ele>172.0</ele><time>2026-05-02T15:37:24.022Z</time></trkpt><trkpt lat="44.0254396" lon="11.9695205"><ele>171.0</ele><time>2026-05-02T15:37:25.022Z</time></trkpt><trkpt lat="44.0254884" lon="11.9695959"><ele>170.0</ele><time>2026-05-02T15:37:26.022Z</time></trkpt><trkpt lat="44.0255312" lon="11.969668"><ele>169.0</ele><time>2026-05-02T15:37:27.023Z</time></trkpt><trkpt lat="44.0256127" lon="11.9697953"><ele>168.0</ele><time>2026-05-02T15:37:29.022Z</time></trkpt><trkpt lat="44.0256586" lon="11.9698615"><ele>167.0</ele><time>2026-05-02T15:37:30.022Z</time></trkpt><trkpt lat="44.0257096" lon="11.9699289"><ele>166.0</ele><time>2026-05-02T15:37:31.022Z</time></trkpt><trkpt lat="44.0257703" lon="11.9699946"><ele>164.83333333333334</ele><time>2026-05-02T15:37:32.022Z</time></trkpt><trkpt lat="44.0258343" lon="11.9700702"><ele>163.66666666666669</ele><time>2026-05-02T15:37:33.022Z</time></trkpt><trkpt lat="44.0259022" lon="11.9701495"><ele>162.5</ele><time>2026-05-02T15:37:34.022Z</time></trkpt><trkpt lat="44.0259654" lon="11.9702292"><ele>161.33333333333334</ele><time>2026-05-02T15:37:35.022Z</time></trkpt><trkpt lat="44.0260289" lon="11.9703033"><ele>160.16666666666666</ele><time>2026-05-02T15:37:36.022Z</time></trkpt><trkpt lat="44.0260888" lon="11.9703703"><ele>159.0</ele><time>2026-05-02T15:37:37.022Z</time></trkpt><trkpt lat="44.0261469" lon="11.9704371"><ele>159.0</ele><time>2026-05-02T15:37:38.022Z</time></trkpt><trkpt lat="44.0262051" lon="11.9705062"><ele>159.0</ele><time>2026-05-02T15:37:39.023Z</time></trkpt><trkpt lat="44.0262617" lon="11.9705755"><ele>159.0</ele><time>2026-05-02T15:37:40.023Z</time></trkpt><trkpt lat="44.0263221" lon="11.9706478"><ele>159.0</ele><time>2026-05-02T15:37:41.023Z</time></trkpt><trkpt lat="44.0263798" lon="11.9707174"><ele>159.0</ele><time>2026-05-02T15:37:42.022Z</time></trkpt><trkpt lat="44.0264357" lon="11.9707878"><ele>159.0</ele><time>2026-05-02T15:37:43.023Z</time></trkpt><trkpt lat="44.026487" lon="11.9708571"><ele>158.33333333333334</ele><time>2026-05-02T15:37:44.022Z</time></trkpt><trkpt lat="44.0265357" lon="11.9709246"><ele>157.66666666666666</ele><time>2026-05-02T15:37:45.023Z</time></trkpt><trkpt lat="44.0265811" lon="11.9709907"><ele>157.0</ele><time>2026-05-02T15:37:46.022Z</time></trkpt><trkpt lat="44.0266595" lon="11.9710967"><ele>156.33333333333331</ele><time>2026-05-02T15:37:48.023Z</time></trkpt><trkpt lat="44.0267196" lon="11.9711933"><ele>155.66666666666666</ele><time>2026-05-02T15:37:50.022Z</time></trkpt><trkpt lat="44.0268037" lon="11.9712707"><ele>155.0</ele><time>2026-05-02T15:37:52.022Z</time></trkpt><trkpt lat="44.0269043" lon="11.9713287"><ele>155.0</ele><time>2026-05-02T15:37:54.022Z</time></trkpt><trkpt lat="44.026981" lon="11.9713624"><ele>155.0</ele><time>2026-05-02T15:37:56.022Z</time></trkpt><trkpt lat="44.0270504" lon="11.9714018"><ele>155.0</ele><time>2026-05-02T15:37:59.022Z</time></trkpt><trkpt lat="44.0271365" lon="11.9714109"><ele>155.0</ele><time>2026-05-02T15:38:03.022Z</time></trkpt><trkpt lat="44.0272158" lon="11.971421"><ele>155.0</ele><time>2026-05-02T15:38:06.022Z</time></trkpt><trkpt lat="44.027289" lon="11.9714669"><ele>155.0</ele><time>2026-05-02T15:38:08.022Z</time></trkpt><trkpt lat="44.0273738" lon="11.9715524"><ele>155.0</ele><time>2026-05-02T15:38:10.022Z</time></trkpt><trkpt lat="44.0274448" lon="11.9716492"><ele>155.0</ele><time>2026-05-02T15:38:12.022Z</time></trkpt><trkpt lat="44.0275114" lon="11.9717478"><ele>155.0</ele><time>2026-05-02T15:38:14.022Z</time></trkpt><trkpt lat="44.0275838" lon="11.9717775"><ele>155.0</ele><time>2026-05-02T15:38:17.022Z</time></trkpt><trkpt lat="44.0276526" lon="11.9717231"><ele>155.0</ele><time>2026-05-02T15:38:19.022Z</time></trkpt><trkpt lat="44.0277303" lon="11.9716727"><ele>155.0</ele><time>2026-05-02T15:38:21.022Z</time></trkpt><trkpt lat="44.0277897" lon="11.9716382"><ele>157.85714285714286</ele><time>2026-05-02T15:38:23.022Z</time></trkpt><trkpt lat="44.027857" lon="11.9716042"><ele>160.71428571428572</ele><time>2026-05-02T15:38:25.022Z</time></trkpt><trkpt lat="44.0279252" lon="11.9715673"><ele>163.57142857142856</ele><time>2026-05-02T15:38:27.022Z</time></trkpt><trkpt lat="44.0280016" lon="11.9715162"><ele>166.42857142857144</ele><time>2026-05-02T15:38:29.022Z</time></trkpt><trkpt lat="44.0280604" lon="11.9714729"><ele>169.28571428571428</ele><time>2026-05-02T15:38:31.022Z</time></trkpt><trkpt lat="44.0281081" lon="11.9714148"><ele>172.14285714285714</ele><time>2026-05-02T15:38:34.022Z</time></trkpt><trkpt lat="44.0281938" lon="11.9713937"><ele>175.0</ele><time>2026-05-02T15:38:39.022Z</time></trkpt><trkpt lat="44.0282851" lon="11.9713641"><ele>176.0</ele><time>2026-05-02T15:38:41.023Z</time></trkpt><trkpt lat="44.0283753" lon="11.9712978"><ele>177.0</ele><time>2026-05-02T15:38:43.022Z</time></trkpt><trkpt lat="44.0284679" lon="11.9712706"><ele>178.0</ele><time>2026-05-02T15:38:45.022Z</time></trkpt><trkpt lat="44.028559" lon="11.9712879"><ele>179.0</ele><time>2026-05-02T15:38:47.022Z</time></trkpt><trkpt lat="44.0286336" lon="11.9713171"><ele>180.0</ele><time>2026-05-02T15:38:49.023Z</time></trkpt><trkpt lat="44.0287036" lon="11.9713248"><ele>181.0</ele><time>2026-05-02T15:38:51.022Z</time></trkpt><trkpt lat="44.0287742" lon="11.971319"><ele>181.0</ele><time>2026-05-02T15:38:53.022Z</time></trkpt><trkpt lat="44.0288432" lon="11.9713309"><ele>181.0</ele><time>2026-05-02T15:38:55.022Z</time></trkpt><trkpt lat="44.0289251" lon="11.9713556"><ele>181.0</ele><time>2026-05-02T15:38:58.022Z</time></trkpt><trkpt lat="44.0290245" lon="11.9713466"><ele>181.0</ele><time>2026-05-02T15:39:01.022Z</time></trkpt><trkpt lat="44.0290992" lon="11.971338"><ele>181.0</ele><time>2026-05-02T15:39:03.022Z</time></trkpt><trkpt lat="44.0291886" lon="11.9713125"><ele>181.0</ele><time>2026-05-02T15:39:06.021Z</time></trkpt><trkpt lat="44.029255" lon="11.9713161"><ele>181.0</ele><time>2026-05-02T15:39:09.022Z</time></trkpt><trkpt lat="44.029243" lon="11.971434"><ele>181.0</ele><time>2026-05-02T15:39:12.022Z</time></trkpt><trkpt lat="44.0291886" lon="11.9715106"><ele>181.0</ele><time>2026-05-02T15:39:14.021Z</time></trkpt><trkpt lat="44.029132" lon="11.9715871"><ele>181.0</ele><time>2026-05-02T15:39:16.021Z</time></trkpt><trkpt lat="44.0290766" lon="11.9716507"><ele>181.0</ele><time>2026-05-02T15:39:18.078Z</time></trkpt><trkpt lat="44.0290752" lon="11.9717549"><ele>181.0</ele><time>2026-05-02T15:39:21.059Z</time></trkpt><trkpt lat="44.0291136" lon="11.971831"><ele>189.20000000000002</ele><time>2026-05-02T15:39:23.976Z</time></trkpt><trkpt lat="44.0291894" lon="11.9718567"><ele>197.4</ele><time>2026-05-02T15:39:26.095Z</time></trkpt><trkpt lat="44.029319" lon="11.9718764"><ele>205.6</ele><time>2026-05-02T15:39:28.021Z</time></trkpt><trkpt lat="44.0293812" lon="11.9719324"><ele>213.8</ele><time>2026-05-02T15:39:31.022Z</time></trkpt><trkpt lat="44.0294489" lon="11.9720053"><ele>222.0</ele><time>2026-05-02T15:39:33.027Z</time></trkpt><trkpt lat="44.0294332" lon="11.9721409"><ele>222.0</ele><time>2026-05-02T15:39:35.047Z</time></trkpt><trkpt lat="44.0293408" lon="11.972269"><ele>222.0</ele><time>2026-05-02T15:39:37.021Z</time></trkpt><trkpt lat="44.0293104" lon="11.9723488"><ele>222.0</ele><time>2026-05-02T15:39:39.022Z</time></trkpt><trkpt lat="44.0293732" lon="11.972415"><ele>222.0</ele><time>2026-05-02T15:39:42.021Z</time></trkpt><trkpt lat="44.0294388" lon="11.972432"><ele>222.0</ele><time>2026-05-02T15:39:44.021Z</time></trkpt><trkpt lat="44.0295051" lon="11.9724701"><ele>222.0</ele><time>2026-05-02T15:39:46.021Z</time></trkpt><trkpt lat="44.0295497" lon="11.9725372"><ele>224.2</ele><time>2026-05-02T15:39:48.022Z</time></trkpt><trkpt lat="44.029578" lon="11.9726228"><ele>226.39999999999998</ele><time>2026-05-02T15:39:50.021Z</time></trkpt><trkpt lat="44.0295899" lon="11.9727509"><ele>228.60000000000002</ele><time>2026-05-02T15:39:53.022Z</time></trkpt><trkpt lat="44.0295407" lon="11.9728488"><ele>230.8</ele><time>2026-05-02T15:39:55.021Z</time></trkpt><trkpt lat="44.0294653" lon="11.9729819"><ele>233.0</ele><time>2026-05-02T15:39:57.021Z</time></trkpt><trkpt lat="44.029416" lon="11.9731255"><ele>233.00000000000003</ele><time>2026-05-02T15:39:59.021Z</time></trkpt><trkpt lat="44.029368" lon="11.9732613"><ele>233.0</ele><time>2026-05-02T15:40:01.021Z</time></trkpt><trkpt lat="44.0293113" lon="11.9733741"><ele>233.0</ele><time>2026-05-02T15:40:03.021Z</time></trkpt><trkpt lat="44.0292425" lon="11.9734472"><ele>233.0</ele><time>2026-05-02T15:40:05.021Z</time></trkpt><trkpt lat="44.0292195" lon="11.9735294"><ele>233.00000000000003</ele><time>2026-05-02T15:40:07.021Z</time></trkpt><trkpt lat="44.0292402" lon="11.9736461"><ele>233.0</ele><time>2026-05-02T15:40:09.021Z</time></trkpt><trkpt lat="44.0292751" lon="11.9737992"><ele>232.4</ele><time>2026-05-02T15:40:11.022Z</time></trkpt><trkpt lat="44.0293089" lon="11.973964"><ele>231.8</ele><time>2026-05-02T15:40:13.021Z</time></trkpt><trkpt lat="44.0293397" lon="11.9741117"><ele>231.2</ele><time>2026-05-02T15:40:15.021Z</time></trkpt><trkpt lat="44.0293749" lon="11.9742185"><ele>230.6</ele><time>2026-05-02T15:40:17.021Z</time></trkpt><trkpt lat="44.0294275" lon="11.9742963"><ele>230.0</ele><time>2026-05-02T15:40:19.021Z</time></trkpt><trkpt lat="44.0294791" lon="11.9743735"><ele>227.16666666666669</ele><time>2026-05-02T15:40:21.021Z</time></trkpt><trkpt lat="44.0295262" lon="11.974473"><ele>224.33333333333334</ele><time>2026-05-02T15:40:24.021Z</time></trkpt><trkpt lat="44.0296013" lon="11.9745491"><ele>221.5</ele><time>2026-05-02T15:40:27.022Z</time></trkpt><trkpt lat="44.0296684" lon="11.9746088"><ele>218.66666666666669</ele><time>2026-05-02T15:40:30.021Z</time></trkpt><trkpt lat="44.0296694" lon="11.9747513"><ele>215.83333333333334</ele><time>2026-05-02T15:40:33.022Z</time></trkpt><trkpt lat="44.0296639" lon="11.9748418"><ele>213.0</ele><time>2026-05-02T15:40:35.022Z</time></trkpt><trkpt lat="44.0296907" lon="11.9749842"><ele>210.4</ele><time>2026-05-02T15:40:37.021Z</time></trkpt><trkpt lat="44.0297088" lon="11.975072"><ele>207.8</ele><time>2026-05-02T15:40:38.021Z</time></trkpt><trkpt lat="44.029738" lon="11.9752156"><ele>205.2</ele><time>2026-05-02T15:40:40.021Z</time></trkpt><trkpt lat="44.0298015" lon="11.9753329"><ele>202.6</ele><time>2026-05-02T15:40:42.021Z</time></trkpt><trkpt lat="44.0298647" lon="11.9754597"><ele>200.0</ele><time>2026-05-02T15:40:44.021Z</time></trkpt><trkpt lat="44.0299323" lon="11.9755412"><ele>207.6</ele><time>2026-05-02T15:40:46.021Z</time></trkpt><trkpt lat="44.0300201" lon="11.9756195"><ele>215.2</ele><time>2026-05-02T15:40:48.022Z</time></trkpt><trkpt lat="44.0300911" lon="11.9756854"><ele>222.8</ele><time>2026-05-02T15:40:50.022Z</time></trkpt><trkpt lat="44.0301685" lon="11.9757333"><ele>230.4</ele><time>2026-05-02T15:40:53.021Z</time></trkpt><trkpt lat="44.0302339" lon="11.9757625"><ele>238.0</ele><time>2026-05-02T15:40:57.021Z</time></trkpt><trkpt lat="44.030416" lon="11.9757696"><ele>237.99999999999997</ele><time>2026-05-02T15:41:26.022Z</time></trkpt><trkpt lat="44.0304849" lon="11.975769"><ele>238.0</ele><time>2026-05-02T15:41:28.021Z</time></trkpt><trkpt lat="44.0305587" lon="11.9757509"><ele>238.0</ele><time>2026-05-02T15:41:30.021Z</time></trkpt><trkpt lat="44.0306458" lon="11.9757422"><ele>238.0</ele><time>2026-05-02T15:41:32.022Z</time></trkpt><trkpt lat="44.0307552" lon="11.9757084"><ele>237.99999999999997</ele><time>2026-05-02T15:41:34.021Z</time></trkpt><trkpt lat="44.0308591" lon="11.9756919"><ele>238.0</ele><time>2026-05-02T15:41:36.022Z</time></trkpt><trkpt lat="44.0309421" lon="11.9756633"><ele>237.2</ele><time>2026-05-02T15:41:38.021Z</time></trkpt><trkpt lat="44.031024" lon="11.9756107"><ele>236.4</ele><time>2026-05-02T15:41:40.021Z</time></trkpt><trkpt lat="44.031125" lon="11.9755602"><ele>235.59999999999997</ele><time>2026-05-02T15:41:42.022Z</time></trkpt><trkpt lat="44.0312368" lon="11.9755318"><ele>234.79999999999998</ele><time>2026-05-02T15:41:44.021Z</time></trkpt><trkpt lat="44.031342" lon="11.9755178"><ele>234.0</ele><time>2026-05-02T15:41:46.022Z</time></trkpt><trkpt lat="44.0314298" lon="11.9755149"><ele>234.0</ele><time>2026-05-02T15:41:48.021Z</time></trkpt><trkpt lat="44.0315031" lon="11.9754981"><ele>234.0</ele><time>2026-05-02T15:41:50.021Z</time></trkpt><trkpt lat="44.0315776" lon="11.9755195"><ele>234.0</ele><time>2026-05-02T15:41:52.021Z</time></trkpt><trkpt lat="44.0316638" lon="11.9755561"><ele>234.0</ele><time>2026-05-02T15:41:55.021Z</time></trkpt><trkpt lat="44.031742" lon="11.9756127"><ele>234.0</ele><time>2026-05-02T15:41:58.021Z</time></trkpt><trkpt lat="44.0317925" lon="11.9757108"><ele>234.0</ele><time>2026-05-02T15:42:01.021Z</time></trkpt><trkpt lat="44.0318761" lon="11.9759467"><ele>232.0</ele><time>2026-05-02T15:42:22.021Z</time></trkpt><trkpt lat="44.0318232" lon="11.9760743"><ele>229.99999999999997</ele><time>2026-05-02T15:42:24.022Z</time></trkpt><trkpt lat="44.0317655" lon="11.9761767"><ele>227.99999999999997</ele><time>2026-05-02T15:42:26.021Z</time></trkpt><trkpt lat="44.0317225" lon="11.976289"><ele>226.0</ele><time>2026-05-02T15:42:28.021Z</time></trkpt><trkpt lat="44.0316822" lon="11.9764331"><ele>224.0</ele><time>2026-05-02T15:42:30.021Z</time></trkpt><trkpt lat="44.0316603" lon="11.9765818"><ele>220.39999999999998</ele><time>2026-05-02T15:42:32.022Z</time></trkpt><trkpt lat="44.0316104" lon="11.9766999"><ele>216.79999999999998</ele><time>2026-05-02T15:42:34.021Z</time></trkpt><trkpt lat="44.0315689" lon="11.9768001"><ele>213.2</ele><time>2026-05-02T15:42:36.022Z</time></trkpt><trkpt lat="44.031513" lon="11.976902"><ele>209.60000000000002</ele><time>2026-05-02T15:42:38.021Z</time></trkpt><trkpt lat="44.0314759" lon="11.9770233"><ele>206.0</ele><time>2026-05-02T15:42:40.021Z</time></trkpt><trkpt lat="44.0314497" lon="11.9771323"><ele>206.00000000000003</ele><time>2026-05-02T15:42:42.021Z</time></trkpt><trkpt lat="44.0314234" lon="11.9772173"><ele>206.0</ele><time>2026-05-02T15:42:44.021Z</time></trkpt><trkpt lat="44.0313942" lon="11.9773322"><ele>206.0</ele><time>2026-05-02T15:42:46.022Z</time></trkpt><trkpt lat="44.0313673" lon="11.9774562"><ele>206.0</ele><time>2026-05-02T15:42:48.021Z</time></trkpt><trkpt lat="44.0313275" lon="11.9775594"><ele>206.00000000000003</ele><time>2026-05-02T15:42:50.022Z</time></trkpt><trkpt lat="44.0312681" lon="11.9776511"><ele>206.0</ele><time>2026-05-02T15:42:52.021Z</time></trkpt><trkpt lat="44.0311937" lon="11.9777025"><ele>205.50000000000003</ele><time>2026-05-02T15:42:54.022Z</time></trkpt><trkpt lat="44.0310943" lon="11.9777138"><ele>205.0</ele><time>2026-05-02T15:42:56.021Z</time></trkpt><trkpt lat="44.0310092" lon="11.9777546"><ele>204.5</ele><time>2026-05-02T15:42:58.021Z</time></trkpt><trkpt lat="44.0309718" lon="11.9778571"><ele>204.0</ele><time>2026-05-02T15:43:01.021Z</time></trkpt><trkpt lat="44.0310204" lon="11.977966"><ele>203.50000000000003</ele><time>2026-05-02T15:43:04.021Z</time></trkpt><trkpt lat="44.0310683" lon="11.978023"><ele>203.0</ele><time>2026-05-02T15:43:06.021Z</time></trkpt><trkpt lat="44.0311338" lon="11.9780899"><ele>203.0</ele><time>2026-05-02T15:43:08.021Z</time></trkpt><trkpt lat="44.0312088" lon="11.9781555"><ele>203.0</ele><time>2026-05-02T15:43:10.021Z</time></trkpt><trkpt lat="44.0313194" lon="11.9782313"><ele>203.0</ele><time>2026-05-02T15:43:12.021Z</time></trkpt><trkpt lat="44.031376" lon="11.9782704"><ele>203.0</ele><time>2026-05-02T15:43:13.021Z</time></trkpt><trkpt lat="44.0314873" lon="11.9783739"><ele>203.0</ele><time>2026-05-02T15:43:15.021Z</time></trkpt><trkpt lat="44.0315367" lon="11.9784519"><ele>202.60000000000002</ele><time>2026-05-02T15:43:16.021Z</time></trkpt><trkpt lat="44.0315819" lon="11.9785467"><ele>202.20000000000002</ele><time>2026-05-02T15:43:17.021Z</time></trkpt><trkpt lat="44.0316127" lon="11.9786354"><ele>201.8</ele><time>2026-05-02T15:43:18.022Z</time></trkpt><trkpt lat="44.0316713" lon="11.9787858"><ele>201.4</ele><time>2026-05-02T15:43:20.021Z</time></trkpt><trkpt lat="44.0317259" lon="11.9789139"><ele>201.0</ele><time>2026-05-02T15:43:22.021Z</time></trkpt><trkpt lat="44.0317892" lon="11.9790266"><ele>201.0</ele><time>2026-05-02T15:43:24.021Z</time></trkpt><trkpt lat="44.0318636" lon="11.9791463"><ele>201.0</ele><time>2026-05-02T15:43:26.021Z</time></trkpt><trkpt lat="44.031938" lon="11.9792647"><ele>201.0</ele><time>2026-05-02T15:43:28.022Z</time></trkpt><trkpt lat="44.0320089" lon="11.9793619"><ele>201.0</ele><time>2026-05-02T15:43:30.021Z</time></trkpt><trkpt lat="44.0320947" lon="11.9794511"><ele>201.0</ele><time>2026-05-02T15:43:32.02Z</time></trkpt><trkpt lat="44.0321732" lon="11.9795223"><ele>200.60000000000002</ele><time>2026-05-02T15:43:34.02Z</time></trkpt><trkpt lat="44.0322771" lon="11.9795288"><ele>200.2</ele><time>2026-05-02T15:43:36.02Z</time></trkpt><trkpt lat="44.0323965" lon="11.9795291"><ele>199.8</ele><time>2026-05-02T15:43:38.02Z</time></trkpt><trkpt lat="44.0324986" lon="11.9795468"><ele>199.39999999999998</ele><time>2026-05-02T15:43:40.021Z</time></trkpt><trkpt lat="44.0325792" lon="11.9795925"><ele>199.0</ele><time>2026-05-02T15:43:42.02Z</time></trkpt><trkpt lat="44.0326784" lon="11.979622"><ele>198.99999999999997</ele><time>2026-05-02T15:43:44.02Z</time></trkpt><trkpt lat="44.0327831" lon="11.9796362"><ele>199.0</ele><time>2026-05-02T15:43:46.02Z</time></trkpt><trkpt lat="44.0328499" lon="11.9796822"><ele>199.0</ele><time>2026-05-02T15:43:48.02Z</time></trkpt><trkpt lat="44.0328209" lon="11.9798064"><ele>199.0</ele><time>2026-05-02T15:43:50.02Z</time></trkpt><trkpt lat="44.0327478" lon="11.9799084"><ele>198.99999999999997</ele><time>2026-05-02T15:43:51.02Z</time></trkpt><trkpt lat="44.0327052" lon="11.9799793"><ele>199.0</ele><time>2026-05-02T15:43:52.02Z</time></trkpt><trkpt lat="44.0327078" lon="11.9800681"><ele>199.0</ele><time>2026-05-02T15:43:54.02Z</time></trkpt><trkpt lat="44.0327892" lon="11.9800358"><ele>199.0</ele><time>2026-05-02T15:43:57.021Z</time></trkpt><trkpt lat="44.0328562" lon="11.9799953"><ele>199.0</ele><time>2026-05-02T15:43:59.02Z</time></trkpt><trkpt lat="44.0329565" lon="11.9799115"><ele>199.0</ele><time>2026-05-02T15:44:01.02Z</time></trkpt><trkpt lat="44.033017" lon="11.979868"><ele>199.0</ele><time>2026-05-02T15:44:02.02Z</time></trkpt><trkpt lat="44.0331163" lon="11.9797812"><ele>199.0</ele><time>2026-05-02T15:44:04.02Z</time></trkpt><trkpt lat="44.0332158" lon="11.9797061"><ele>199.0</ele><time>2026-05-02T15:44:06.021Z</time></trkpt><trkpt lat="44.03331" lon="11.9797198"><ele>199.0</ele><time>2026-05-02T15:44:08.021Z</time></trkpt><trkpt lat="44.0333839" lon="11.9798641"><ele>199.0</ele><time>2026-05-02T15:44:17.02Z</time></trkpt><trkpt lat="44.0334258" lon="11.9799337"><ele>199.0</ele><time>2026-05-02T15:44:18.02Z</time></trkpt><trkpt lat="44.0335113" lon="11.9800376"><ele>198.99999999999997</ele><time>2026-05-02T15:44:20.02Z</time></trkpt><trkpt lat="44.03359" lon="11.9801045"><ele>199.0</ele><time>2026-05-02T15:44:22.02Z</time></trkpt><trkpt lat="44.0336956" lon="11.9801804"><ele>199.0</ele><time>2026-05-02T15:44:24.02Z</time></trkpt><trkpt lat="44.0337498" lon="11.9802387"><ele>199.0</ele><time>2026-05-02T15:44:25.02Z</time></trkpt><trkpt lat="44.0337977" lon="11.9803174"><ele>198.99999999999997</ele><time>2026-05-02T15:44:26.02Z</time></trkpt><trkpt lat="44.0338606" lon="11.9804143"><ele>199.0</ele><time>2026-05-02T15:44:27.021Z</time></trkpt><trkpt lat="44.0339262" lon="11.9805172"><ele>199.0</ele><time>2026-05-02T15:44:28.02Z</time></trkpt><trkpt lat="44.0339839" lon="11.9806313"><ele>199.0</ele><time>2026-05-02T15:44:29.02Z</time></trkpt><trkpt lat="44.0340477" lon="11.9807424"><ele>199.0</ele><time>2026-05-02T15:44:30.02Z</time></trkpt><trkpt lat="44.0341033" lon="11.980853"><ele>199.0</ele><time>2026-05-02T15:44:31.02Z</time></trkpt><trkpt lat="44.0341611" lon="11.9809667"><ele>199.0</ele><time>2026-05-02T15:44:32.02Z</time></trkpt><trkpt lat="44.0342215" lon="11.9810818"><ele>199.6</ele><time>2026-05-02T15:44:33.02Z</time></trkpt><trkpt lat="44.0342812" lon="11.9812001"><ele>200.2</ele><time>2026-05-02T15:44:34.02Z</time></trkpt><trkpt lat="44.0343364" lon="11.9813068"><ele>200.79999999999998</ele><time>2026-05-02T15:44:35.02Z</time></trkpt><trkpt lat="44.0343884" lon="11.9814057"><ele>201.39999999999998</ele><time>2026-05-02T15:44:36.02Z</time></trkpt><trkpt lat="44.0344461" lon="11.9814932"><ele>202.0</ele><time>2026-05-02T15:44:37.021Z</time></trkpt><trkpt lat="44.0344899" lon="11.9815859"><ele>202.0</ele><time>2026-05-02T15:44:38.02Z</time></trkpt><trkpt lat="44.0345351" lon="11.9816709"><ele>202.0</ele><time>2026-05-02T15:44:39.02Z</time></trkpt><trkpt lat="44.0345756" lon="11.981746"><ele>202.0</ele><time>2026-05-02T15:44:40.021Z</time></trkpt><trkpt lat="44.034617" lon="11.9818165"><ele>202.0</ele><time>2026-05-02T15:44:41.02Z</time></trkpt><trkpt lat="44.0346549" lon="11.9818892"><ele>202.0</ele><time>2026-05-02T15:44:42.02Z</time></trkpt><trkpt lat="44.0346959" lon="11.9819645"><ele>202.0</ele><time>2026-05-02T15:44:43.02Z</time></trkpt><trkpt lat="44.0347539" lon="11.9820687"><ele>202.0</ele><time>2026-05-02T15:44:45.02Z</time></trkpt><trkpt lat="44.0348046" lon="11.9821503"><ele>202.33333333333331</ele><time>2026-05-02T15:44:47.02Z</time></trkpt><trkpt lat="44.0348652" lon="11.9822227"><ele>202.66666666666666</ele><time>2026-05-02T15:44:48.02Z</time></trkpt><trkpt lat="44.0349191" lon="11.9822918"><ele>203.0</ele><time>2026-05-02T15:44:49.02Z</time></trkpt><trkpt lat="44.0349712" lon="11.9823478"><ele>203.33333333333331</ele><time>2026-05-02T15:44:50.02Z</time></trkpt><trkpt lat="44.0350292" lon="11.9823856"><ele>203.66666666666666</ele><time>2026-05-02T15:44:51.02Z</time></trkpt><trkpt lat="44.0350964" lon="11.9824066"><ele>204.0</ele><time>2026-05-02T15:44:52.02Z</time></trkpt><trkpt lat="44.0352035" lon="11.9824097"><ele>204.0</ele><time>2026-05-02T15:44:53.021Z</time></trkpt><trkpt lat="44.0353143" lon="11.9823974"><ele>204.0</ele><time>2026-05-02T15:44:54.02Z</time></trkpt><trkpt lat="44.035411" lon="11.9823889"><ele>204.0</ele><time>2026-05-02T15:44:55.021Z</time></trkpt><trkpt lat="44.0354966" lon="11.9823623"><ele>204.0</ele><time>2026-05-02T15:44:56.02Z</time></trkpt><trkpt lat="44.0355761" lon="11.9822954"><ele>204.0</ele><time>2026-05-02T15:44:57.02Z</time></trkpt><trkpt lat="44.0356723" lon="11.982212"><ele>204.0</ele><time>2026-05-02T15:44:58.02Z</time></trkpt><trkpt lat="44.035772" lon="11.9821308"><ele>204.0</ele><time>2026-05-02T15:44:59.02Z</time></trkpt><trkpt lat="44.0358581" lon="11.9820759"><ele>204.0</ele><time>2026-05-02T15:45:00.021Z</time></trkpt><trkpt lat="44.0359362" lon="11.9820152"><ele>204.0</ele><time>2026-05-02T15:45:01.021Z</time></trkpt><trkpt lat="44.036012" lon="11.9819529"><ele>204.0</ele><time>2026-05-02T15:45:02.02Z</time></trkpt><trkpt lat="44.0360752" lon="11.9818882"><ele>203.33333333333334</ele><time>2026-05-02T15:45:03.02Z</time></trkpt><trkpt lat="44.0361366" lon="11.9818154"><ele>202.66666666666669</ele><time>2026-05-02T15:45:04.02Z</time></trkpt><trkpt lat="44.0361882" lon="11.9817197"><ele>202.0</ele><time>2026-05-02T15:45:05.02Z</time></trkpt><trkpt lat="44.0362393" lon="11.981637"><ele>201.33333333333334</ele><time>2026-05-02T15:45:06.02Z</time></trkpt><trkpt lat="44.0363004" lon="11.9815829"><ele>200.66666666666669</ele><time>2026-05-02T15:45:07.02Z</time></trkpt><trkpt lat="44.0363799" lon="11.9815534"><ele>200.0</ele><time>2026-05-02T15:45:08.021Z</time></trkpt><trkpt lat="44.0364738" lon="11.9815214"><ele>201.00000000000003</ele><time>2026-05-02T15:45:09.02Z</time></trkpt><trkpt lat="44.0365644" lon="11.981504"><ele>202.0</ele><time>2026-05-02T15:45:10.02Z</time></trkpt><trkpt lat="44.0366344" lon="11.9814823"><ele>203.0</ele><time>2026-05-02T15:45:11.021Z</time></trkpt><trkpt lat="44.0367307" lon="11.9814098"><ele>204.0</ele><time>2026-05-02T15:45:13.02Z</time></trkpt><trkpt lat="44.0367828" lon="11.9813407"><ele>205.00000000000003</ele><time>2026-05-02T15:45:15.02Z</time></trkpt><trkpt lat="44.036824" lon="11.9812516"><ele>206.0</ele><time>2026-05-02T15:45:17.021Z</time></trkpt><trkpt lat="44.0369065" lon="11.9812685"><ele>206.0</ele><time>2026-05-02T15:45:20.02Z</time></trkpt><trkpt lat="44.0369856" lon="11.9813055"><ele>206.0</ele><time>2026-05-02T15:45:22.02Z</time></trkpt><trkpt lat="44.0370982" lon="11.9812978"><ele>206.0</ele><time>2026-05-02T15:45:24.02Z</time></trkpt><trkpt lat="44.0372147" lon="11.9812716"><ele>206.0</ele><time>2026-05-02T15:45:26.02Z</time></trkpt><trkpt lat="44.0373378" lon="11.9812351"><ele>206.0</ele><time>2026-05-02T15:45:28.02Z</time></trkpt><trkpt lat="44.0374056" lon="11.981236"><ele>205.25</ele><time>2026-05-02T15:45:29.02Z</time></trkpt><trkpt lat="44.0375273" lon="11.9812456"><ele>204.5</ele><time>2026-05-02T15:45:31.021Z</time></trkpt><trkpt lat="44.0376322" lon="11.9812799"><ele>203.75</ele><time>2026-05-02T15:45:33.02Z</time></trkpt><trkpt lat="44.0376679" lon="11.9814138"><ele>203.0</ele><time>2026-05-02T15:45:35.02Z</time></trkpt><trkpt lat="44.0375722" lon="11.9815316"><ele>203.00000000000003</ele><time>2026-05-02T15:45:37.02Z</time></trkpt><trkpt lat="44.0374966" lon="11.9815746"><ele>203.0</ele><time>2026-05-02T15:45:38.02Z</time></trkpt><trkpt lat="44.037425" lon="11.9816227"><ele>203.0</ele><time>2026-05-02T15:45:39.02Z</time></trkpt><trkpt lat="44.037362" lon="11.9816834"><ele>203.0</ele><time>2026-05-02T15:45:40.02Z</time></trkpt><trkpt lat="44.037306" lon="11.98178"><ele>203.00000000000003</ele><time>2026-05-02T15:45:41.021Z</time></trkpt><trkpt lat="44.037249" lon="11.9818847"><ele>203.0</ele><time>2026-05-02T15:45:42.02Z</time></trkpt><trkpt lat="44.0371945" lon="11.9819922"><ele>201.4</ele><time>2026-05-02T15:45:43.02Z</time></trkpt><trkpt lat="44.0371316" lon="11.9820905"><ele>199.8</ele><time>2026-05-02T15:45:44.02Z</time></trkpt><trkpt lat="44.0370725" lon="11.982182"><ele>198.2</ele><time>2026-05-02T15:45:45.02Z</time></trkpt><trkpt lat="44.0370124" lon="11.9822754"><ele>196.6</ele><time>2026-05-02T15:45:46.021Z</time></trkpt><trkpt lat="44.0369437" lon="11.9823578"><ele>195.0</ele><time>2026-05-02T15:45:47.02Z</time></trkpt><trkpt lat="44.0368698" lon="11.9824203"><ele>195.0</ele><time>2026-05-02T15:45:48.02Z</time></trkpt><trkpt lat="44.0367909" lon="11.9824908"><ele>195.0</ele><time>2026-05-02T15:45:49.02Z</time></trkpt><trkpt lat="44.0367231" lon="11.9825814"><ele>195.0</ele><time>2026-05-02T15:45:50.02Z</time></trkpt><trkpt lat="44.0366542" lon="11.9826791"><ele>195.0</ele><time>2026-05-02T15:45:51.02Z</time></trkpt><trkpt lat="44.0365807" lon="11.9827909"><ele>195.0</ele><time>2026-05-02T15:45:52.02Z</time></trkpt><trkpt lat="44.0364986" lon="11.9829036"><ele>193.8</ele><time>2026-05-02T15:45:53.02Z</time></trkpt><trkpt lat="44.0364126" lon="11.983014"><ele>192.6</ele><time>2026-05-02T15:45:54.02Z</time></trkpt><trkpt lat="44.0363261" lon="11.9831138"><ele>191.39999999999998</ele><time>2026-05-02T15:45:55.02Z</time></trkpt><trkpt lat="44.0362303" lon="11.9831929"><ele>190.2</ele><time>2026-05-02T15:45:56.02Z</time></trkpt><trkpt lat="44.0361425" lon="11.9832564"><ele>189.0</ele><time>2026-05-02T15:45:57.02Z</time></trkpt><trkpt lat="44.0360494" lon="11.9833083"><ele>189.33333333333334</ele><time>2026-05-02T15:45:58.02Z</time></trkpt><trkpt lat="44.0359664" lon="11.9833513"><ele>189.66666666666666</ele><time>2026-05-02T15:45:59.02Z</time></trkpt><trkpt lat="44.0358767" lon="11.983385"><ele>190.0</ele><time>2026-05-02T15:46:00.021Z</time></trkpt><trkpt lat="44.0357886" lon="11.9834274"><ele>190.33333333333331</ele><time>2026-05-02T15:46:01.02Z</time></trkpt><trkpt lat="44.0357051" lon="11.9834802"><ele>190.66666666666666</ele><time>2026-05-02T15:46:02.021Z</time></trkpt><trkpt lat="44.0356395" lon="11.983538"><ele>191.0</ele><time>2026-05-02T15:46:03.021Z</time></trkpt><trkpt lat="44.0355822" lon="11.9836457"><ele>185.5</ele><time>2026-05-02T15:46:05.02Z</time></trkpt><trkpt lat="44.0355253" lon="11.9837916"><ele>180.0</ele><time>2026-05-02T15:46:07.02Z</time></trkpt><trkpt lat="44.0354819" lon="11.983866"><ele>174.5</ele><time>2026-05-02T15:46:08.02Z</time></trkpt><trkpt lat="44.0354466" lon="11.9839655"><ele>169.0</ele><time>2026-05-02T15:46:09.021Z</time></trkpt><trkpt lat="44.0354273" lon="11.9840862"><ele>163.5</ele><time>2026-05-02T15:46:10.02Z</time></trkpt><trkpt lat="44.0354258" lon="11.9842145"><ele>158.0</ele><time>2026-05-02T15:46:11.02Z</time></trkpt><trkpt lat="44.0354336" lon="11.9843391"><ele>156.66666666666666</ele><time>2026-05-02T15:46:12.02Z</time></trkpt><trkpt lat="44.0354426" lon="11.9844631"><ele>155.33333333333331</ele><time>2026-05-02T15:46:13.02Z</time></trkpt><trkpt lat="44.0354535" lon="11.9845881"><ele>154.0</ele><time>2026-05-02T15:46:14.02Z</time></trkpt><trkpt lat="44.0354637" lon="11.9847139"><ele>152.66666666666666</ele><time>2026-05-02T15:46:15.021Z</time></trkpt><trkpt lat="44.0354722" lon="11.9848346"><ele>151.33333333333334</ele><time>2026-05-02T15:46:16.02Z</time></trkpt><trkpt lat="44.0354785" lon="11.9849572"><ele>150.0</ele><time>2026-05-02T15:46:17.02Z</time></trkpt><trkpt lat="44.0354958" lon="11.9850801"><ele>148.66666666666666</ele><time>2026-05-02T15:46:18.02Z</time></trkpt><trkpt lat="44.035513" lon="11.9851939"><ele>147.33333333333334</ele><time>2026-05-02T15:46:19.02Z</time></trkpt><trkpt lat="44.0355073" lon="11.985311"><ele>146.0</ele><time>2026-05-02T15:46:20.02Z</time></trkpt><trkpt lat="44.0354994" lon="11.9854255"><ele>144.66666666666669</ele><time>2026-05-02T15:46:21.02Z</time></trkpt><trkpt lat="44.035496" lon="11.9855441"><ele>143.33333333333334</ele><time>2026-05-02T15:46:22.02Z</time></trkpt><trkpt lat="44.035509" lon="11.9856628"><ele>142.0</ele><time>2026-05-02T15:46:23.02Z</time></trkpt><trkpt lat="44.0355374" lon="11.9857914"><ele>140.5</ele><time>2026-05-02T15:46:24.02Z</time></trkpt><trkpt lat="44.0356012" lon="11.9859597"><ele>139.0</ele><time>2026-05-02T15:46:25.021Z</time></trkpt><trkpt lat="44.0356738" lon="11.9861496"><ele>137.5</ele><time>2026-05-02T15:46:26.02Z</time></trkpt><trkpt lat="44.0357342" lon="11.9863475"><ele>136.0</ele><time>2026-05-02T15:46:27.02Z</time></trkpt><trkpt lat="44.0357802" lon="11.9865136"><ele>139.25</ele><time>2026-05-02T15:46:28.02Z</time></trkpt><trkpt lat="44.0358303" lon="11.9866523"><ele>142.5</ele><time>2026-05-02T15:46:29.02Z</time></trkpt><trkpt lat="44.0358903" lon="11.9867815"><ele>145.75</ele><time>2026-05-02T15:46:30.021Z</time></trkpt><trkpt lat="44.0359717" lon="11.9869167"><ele>149.0</ele><time>2026-05-02T15:46:31.02Z</time></trkpt><trkpt lat="44.0360715" lon="11.9870597"><ele>149.0</ele><time>2026-05-02T15:46:32.02Z</time></trkpt><trkpt lat="44.0362046" lon="11.9872087"><ele>149.0</ele><time>2026-05-02T15:46:33.02Z</time></trkpt><trkpt lat="44.036343" lon="11.987373"><ele>149.0</ele><time>2026-05-02T15:46:34.02Z</time></trkpt><trkpt lat="44.0364639" lon="11.9875257"><ele>151.0</ele><time>2026-05-02T15:46:35.02Z</time></trkpt><trkpt lat="44.0365768" lon="11.9876641"><ele>153.0</ele><time>2026-05-02T15:46:36.02Z</time></trkpt><trkpt lat="44.0366778" lon="11.9877869"><ele>155.0</ele><time>2026-05-02T15:46:37.02Z</time></trkpt><trkpt lat="44.0367755" lon="11.9878931"><ele>157.0</ele><time>2026-05-02T15:46:38.02Z</time></trkpt><trkpt lat="44.0368645" lon="11.9880055"><ele>157.0</ele><time>2026-05-02T15:46:39.02Z</time></trkpt><trkpt lat="44.0369449" lon="11.9881106"><ele>157.0</ele><time>2026-05-02T15:46:40.02Z</time></trkpt><trkpt lat="44.0370202" lon="11.9882015"><ele>157.0</ele><time>2026-05-02T15:46:41.02Z</time></trkpt><trkpt lat="44.0370892" lon="11.9882797"><ele>157.0</ele><time>2026-05-02T15:46:42.02Z</time></trkpt><trkpt lat="44.0371468" lon="11.9883612"><ele>157.0</ele><time>2026-05-02T15:46:43.021Z</time></trkpt><trkpt lat="44.0371956" lon="11.9884431"><ele>155.16666666666669</ele><time>2026-05-02T15:46:44.02Z</time></trkpt><trkpt lat="44.0372303" lon="11.9885255"><ele>153.33333333333334</ele><time>2026-05-02T15:46:45.02Z</time></trkpt><trkpt lat="44.0372916" lon="11.9886447"><ele>151.5</ele><time>2026-05-02T15:46:47.02Z</time></trkpt><trkpt lat="44.0373395" lon="11.9887438"><ele>149.66666666666666</ele><time>2026-05-02T15:46:49.02Z</time></trkpt><trkpt lat="44.0373684" lon="11.9888276"><ele>147.83333333333331</ele><time>2026-05-02T15:46:51.021Z</time></trkpt><trkpt lat="44.0373923" lon="11.9889218"><ele>146.0</ele><time>2026-05-02T15:46:54.02Z</time></trkpt><trkpt lat="44.0374218" lon="11.9890093"><ele>145.8</ele><time>2026-05-02T15:46:57.021Z</time></trkpt><trkpt lat="44.0374985" lon="11.9891221"><ele>145.6</ele><time>2026-05-02T15:46:59.02Z</time></trkpt><trkpt lat="44.0375858" lon="11.989245"><ele>145.4</ele><time>2026-05-02T15:47:01.02Z</time></trkpt><trkpt lat="44.0376603" lon="11.9893346"><ele>145.2</ele><time>2026-05-02T15:47:03.02Z</time></trkpt><trkpt lat="44.037748" lon="11.9894258"><ele>145.0</ele><time>2026-05-02T15:47:05.02Z</time></trkpt><trkpt lat="44.0378055" lon="11.9894738"><ele>145.0</ele><time>2026-05-02T15:47:06.02Z</time></trkpt><trkpt lat="44.0378647" lon="11.9895292"><ele>145.0</ele><time>2026-05-02T15:47:07.02Z</time></trkpt><trkpt lat="44.037923" lon="11.9895845"><ele>145.0</ele><time>2026-05-02T15:47:08.02Z</time></trkpt><trkpt lat="44.0380011" lon="11.9896498"><ele>145.0</ele><time>2026-05-02T15:47:09.02Z</time></trkpt><trkpt lat="44.0380846" lon="11.9897279"><ele>145.0</ele><time>2026-05-02T15:47:10.02Z</time></trkpt><trkpt lat="44.0381534" lon="11.9897952"><ele>145.0</ele><time>2026-05-02T15:47:11.02Z</time></trkpt><trkpt lat="44.0382158" lon="11.989863"><ele>145.0</ele><time>2026-05-02T15:47:13.02Z</time></trkpt><trkpt lat="44.038112" lon="11.9897521"><ele>145.0</ele><time>2026-05-02T15:47:20.02Z</time></trkpt><trkpt lat="44.0380287" lon="11.9896737"><ele>145.0</ele><time>2026-05-02T15:47:21.02Z</time></trkpt><trkpt lat="44.0379477" lon="11.9895902"><ele>145.0</ele><time>2026-05-02T15:47:22.02Z</time></trkpt><trkpt lat="44.0378738" lon="11.9895191"><ele>145.0</ele><time>2026-05-02T15:47:23.02Z</time></trkpt><trkpt lat="44.0378053" lon="11.9894473"><ele>145.0</ele><time>2026-05-02T15:47:24.02Z</time></trkpt><trkpt lat="44.0377361" lon="11.9893829"><ele>145.0</ele><time>2026-05-02T15:47:25.02Z</time></trkpt><trkpt lat="44.0376701" lon="11.9893207"><ele>145.0</ele><time>2026-05-02T15:47:26.02Z</time></trkpt><trkpt lat="44.0376128" lon="11.9892695"><ele>145.0</ele><time>2026-05-02T15:47:27.02Z</time></trkpt><trkpt lat="44.0375268" lon="11.9891764"><ele>145.0</ele><time>2026-05-02T15:47:29.021Z</time></trkpt><trkpt lat="44.0374789" lon="11.9891035"><ele>145.0</ele><time>2026-05-02T15:47:31.02Z</time></trkpt><trkpt lat="44.0374294" lon="11.9890492"><ele>145.0</ele><time>2026-05-02T15:47:35.02Z</time></trkpt><trkpt lat="44.0374375" lon="11.9891659"><ele>145.0</ele><time>2026-05-02T15:47:38.021Z</time></trkpt><trkpt lat="44.0374675" lon="11.9892739"><ele>145.0</ele><time>2026-05-02T15:47:41.021Z</time></trkpt><trkpt lat="44.0374995" lon="11.989355"><ele>145.0</ele><time>2026-05-02T15:47:43.02Z</time></trkpt><trkpt lat="44.0375383" lon="11.9894625"><ele>145.0</ele><time>2026-05-02T15:47:46.02Z</time></trkpt><trkpt lat="44.0375768" lon="11.9895446"><ele>145.0</ele><time>2026-05-02T15:47:50.02Z</time></trkpt><trkpt lat="44.0375422" lon="11.9894387"><ele>145.0</ele><time>2026-05-02T15:47:58.02Z</time></trkpt><trkpt lat="44.0374789" lon="11.9892878"><ele>145.0</ele><time>2026-05-02T15:48:00.02Z</time></trkpt><trkpt lat="44.0374445" lon="11.9891989"><ele>145.0</ele><time>2026-05-02T15:48:01.02Z</time></trkpt><trkpt lat="44.0374075" lon="11.9890662"><ele>145.0</ele><time>2026-05-02T15:48:03.02Z</time></trkpt><trkpt lat="44.0373868" lon="11.9889356"><ele>145.0</ele><time>2026-05-02T15:48:05.02Z</time></trkpt><trkpt lat="44.0373503" lon="11.988801"><ele>145.16666666666669</ele><time>2026-05-02T15:48:07.02Z</time></trkpt><trkpt lat="44.0372958" lon="11.9886628"><ele>145.33333333333334</ele><time>2026-05-02T15:48:09.02Z</time></trkpt><trkpt lat="44.037242" lon="11.9885648"><ele>145.5</ele><time>2026-05-02T15:48:11.02Z</time></trkpt><trkpt lat="44.0371842" lon="11.9885167"><ele>145.66666666666666</ele><time>2026-05-02T15:48:13.021Z</time></trkpt><trkpt lat="44.0371163" lon="11.9885489"><ele>145.83333333333331</ele><time>2026-05-02T15:48:15.02Z</time></trkpt><trkpt lat="44.0370414" lon="11.9886578"><ele>146.0</ele><time>2026-05-02T15:48:17.019Z</time></trkpt><trkpt lat="44.0370821" lon="11.9888285"><ele>146.0</ele><time>2026-05-02T15:48:19.019Z</time></trkpt><trkpt lat="44.037139" lon="11.9889202"><ele>146.0</ele><time>2026-05-02T15:48:20.02Z</time></trkpt><trkpt lat="44.0372082" lon="11.9890206"><ele>146.0</ele><time>2026-05-02T15:48:21.02Z</time></trkpt><trkpt lat="44.0372841" lon="11.9891342"><ele>146.0</ele><time>2026-05-02T15:48:22.019Z</time></trkpt><trkpt lat="44.0373496" lon="11.989241"><ele>146.0</ele><time>2026-05-02T15:48:23.019Z</time></trkpt><trkpt lat="44.0374096" lon="11.989354"><ele>145.83333333333331</ele><time>2026-05-02T15:48:24.019Z</time></trkpt><trkpt lat="44.0374575" lon="11.9894711"><ele>145.66666666666666</ele><time>2026-05-02T15:48:25.019Z</time></trkpt><trkpt lat="44.0375001" lon="11.9895812"><ele>145.5</ele><time>2026-05-02T15:48:26.019Z</time></trkpt><trkpt lat="44.037541" lon="11.9896844"><ele>145.33333333333334</ele><time>2026-05-02T15:48:27.019Z</time></trkpt><trkpt lat="44.037589" lon="11.9897823"><ele>145.16666666666669</ele><time>2026-05-02T15:48:28.019Z</time></trkpt><trkpt lat="44.0376331" lon="11.989875"><ele>145.0</ele><time>2026-05-02T15:48:29.019Z</time></trkpt><trkpt lat="44.0376764" lon="11.9899646"><ele>143.0</ele><time>2026-05-02T15:48:30.019Z</time></trkpt><trkpt lat="44.0377206" lon="11.990055"><ele>141.0</ele><time>2026-05-02T15:48:31.019Z</time></trkpt><trkpt lat="44.0377611" lon="11.9901374"><ele>139.0</ele><time>2026-05-02T15:48:32.019Z</time></trkpt><trkpt lat="44.0377983" lon="11.990217"><ele>137.0</ele><time>2026-05-02T15:48:33.019Z</time></trkpt><trkpt lat="44.0378541" lon="11.9903388"><ele>135.0</ele><time>2026-05-02T15:48:35.02Z</time></trkpt><trkpt lat="44.0379225" lon="11.9903829"><ele>133.0</ele><time>2026-05-02T15:48:37.019Z</time></trkpt><trkpt lat="44.0379897" lon="11.9903774"><ele>133.0</ele><time>2026-05-02T15:48:39.02Z</time></trkpt><trkpt lat="44.0380561" lon="11.9903631"><ele>133.0</ele><time>2026-05-02T15:48:41.019Z</time></trkpt><trkpt lat="44.0381277" lon="11.9903465"><ele>133.0</ele><time>2026-05-02T15:48:44.021Z</time></trkpt><trkpt lat="44.038265" lon="11.9903822"><ele>133.0</ele><time>2026-05-02T15:49:17.019Z</time></trkpt><trkpt lat="44.0382135" lon="11.990491"><ele>133.0</ele><time>2026-05-02T15:49:21.019Z</time></trkpt><trkpt lat="44.0381541" lon="11.9905594"><ele>133.0</ele><time>2026-05-02T15:49:23.019Z</time></trkpt><trkpt lat="44.0380901" lon="11.990626"><ele>133.0</ele><time>2026-05-02T15:49:25.02Z</time></trkpt><trkpt lat="44.0380141" lon="11.990758"><ele>133.0</ele><time>2026-05-02T15:49:27.019Z</time></trkpt><trkpt lat="44.0379798" lon="11.9908377"><ele>133.0</ele><time>2026-05-02T15:49:28.019Z</time></trkpt><trkpt lat="44.0379064" lon="11.9909679"><ele>133.0</ele><time>2026-05-02T15:49:30.019Z</time></trkpt><trkpt lat="44.0378433" lon="11.9910843"><ele>132.20000000000002</ele><time>2026-05-02T15:49:32.019Z</time></trkpt><trkpt lat="44.0377743" lon="11.9911986"><ele>131.4</ele><time>2026-05-02T15:49:34.019Z</time></trkpt><trkpt lat="44.0376956" lon="11.9912862"><ele>130.60000000000002</ele><time>2026-05-02T15:49:36.02Z</time></trkpt><trkpt lat="44.037621" lon="11.9913569"><ele>129.8</ele><time>2026-05-02T15:49:38.02Z</time></trkpt><trkpt lat="44.0376214" lon="11.991456"><ele>129.0</ele><time>2026-05-02T15:49:40.02Z</time></trkpt><trkpt lat="44.0376701" lon="11.9915692"><ele>128.6</ele><time>2026-05-02T15:49:42.019Z</time></trkpt><trkpt lat="44.0376789" lon="11.9916761"><ele>128.2</ele><time>2026-05-02T15:49:44.019Z</time></trkpt><trkpt lat="44.0376133" lon="11.9917731"><ele>127.79999999999998</ele><time>2026-05-02T15:49:46.019Z</time></trkpt><trkpt lat="44.0375191" lon="11.9918837"><ele>127.39999999999999</ele><time>2026-05-02T15:49:48.02Z</time></trkpt><trkpt lat="44.0374732" lon="11.9919479"><ele>127.0</ele><time>2026-05-02T15:49:49.019Z</time></trkpt><trkpt lat="44.0374309" lon="11.9920923"><ele>127.0</ele><time>2026-05-02T15:49:51.02Z</time></trkpt><trkpt lat="44.0374809" lon="11.9922578"><ele>127.0</ele><time>2026-05-02T15:49:53.019Z</time></trkpt><trkpt lat="44.0375426" lon="11.9923387"><ele>127.0</ele><time>2026-05-02T15:49:54.019Z</time></trkpt><trkpt lat="44.0376463" lon="11.9924445"><ele>127.0</ele><time>2026-05-02T15:49:55.02Z</time></trkpt><trkpt lat="44.0377689" lon="11.992567"><ele>128.5</ele><time>2026-05-02T15:49:56.02Z</time></trkpt><trkpt lat="44.0378822" lon="11.9926831"><ele>130.0</ele><time>2026-05-02T15:49:57.019Z</time></trkpt><trkpt lat="44.0379854" lon="11.9927856"><ele>131.5</ele><time>2026-05-02T15:49:58.019Z</time></trkpt><trkpt lat="44.0380785" lon="11.992878"><ele>133.0</ele><time>2026-05-02T15:49:59.019Z</time></trkpt><trkpt lat="44.0381686" lon="11.9929644"><ele>133.0</ele><time>2026-05-02T15:50:00.019Z</time></trkpt><trkpt lat="44.0382474" lon="11.9930395"><ele>133.0</ele><time>2026-05-02T15:50:01.019Z</time></trkpt><trkpt lat="44.0383264" lon="11.993111"><ele>133.0</ele><time>2026-05-02T15:50:02.019Z</time></trkpt><trkpt lat="44.0384133" lon="11.9931708"><ele>133.0</ele><time>2026-05-02T15:50:03.019Z</time></trkpt><trkpt lat="44.0385048" lon="11.9932225"><ele>133.0</ele><time>2026-05-02T15:50:04.019Z</time></trkpt><trkpt lat="44.038593" lon="11.9932715"><ele>133.0</ele><time>2026-05-02T15:50:05.019Z</time></trkpt><trkpt lat="44.0386792" lon="11.9933205"><ele>133.0</ele><time>2026-05-02T15:50:06.019Z</time></trkpt><trkpt lat="44.038761" lon="11.9933589"><ele>133.0</ele><time>2026-05-02T15:50:07.02Z</time></trkpt><trkpt lat="44.0388457" lon="11.9933974"><ele>133.0</ele><time>2026-05-02T15:50:08.019Z</time></trkpt><trkpt lat="44.03893" lon="11.9934319"><ele>133.0</ele><time>2026-05-02T15:50:09.019Z</time></trkpt><trkpt lat="44.0390248" lon="11.9934733"><ele>133.0</ele><time>2026-05-02T15:50:10.019Z</time></trkpt><trkpt lat="44.039126" lon="11.9935153"><ele>133.0</ele><time>2026-05-02T15:50:11.019Z</time></trkpt><trkpt lat="44.0392389" lon="11.9935694"><ele>133.0</ele><time>2026-05-02T15:50:12.019Z</time></trkpt><trkpt lat="44.0393478" lon="11.9936255"><ele>133.0</ele><time>2026-05-02T15:50:13.02Z</time></trkpt><trkpt lat="44.0394543" lon="11.9936759"><ele>130.75</ele><time>2026-05-02T15:50:14.019Z</time></trkpt><trkpt lat="44.0395584" lon="11.9937181"><ele>128.5</ele><time>2026-05-02T15:50:15.019Z</time></trkpt><trkpt lat="44.0396602" lon="11.9937568"><ele>126.25</ele><time>2026-05-02T15:50:16.02Z</time></trkpt><trkpt lat="44.0397759" lon="11.9937914"><ele>124.0</ele><time>2026-05-02T15:50:17.019Z</time></trkpt><trkpt lat="44.0398952" lon="11.9938171"><ele>124.50000000000001</ele><time>2026-05-02T15:50:18.019Z</time></trkpt><trkpt lat="44.0399999" lon="11.9938469"><ele>125.0</ele><time>2026-05-02T15:50:19.02Z</time></trkpt><trkpt lat="44.0400917" lon="11.9938595"><ele>125.5</ele><time>2026-05-02T15:50:20.019Z</time></trkpt><trkpt lat="44.0401784" lon="11.9938765"><ele>126.0</ele><time>2026-05-02T15:50:21.019Z</time></trkpt><trkpt lat="44.0402555" lon="11.9938896"><ele>126.50000000000001</ele><time>2026-05-02T15:50:22.02Z</time></trkpt><trkpt lat="44.0403263" lon="11.9939041"><ele>127.0</ele><time>2026-05-02T15:50:23.02Z</time></trkpt><trkpt lat="44.0404454" lon="11.9939473"><ele>127.00000000000001</ele><time>2026-05-02T15:50:25.02Z</time></trkpt><trkpt lat="44.0405051" lon="11.9939911"><ele>127.0</ele><time>2026-05-02T15:50:26.019Z</time></trkpt><trkpt lat="44.0405568" lon="11.9940444"><ele>127.0</ele><time>2026-05-02T15:50:27.02Z</time></trkpt><trkpt lat="44.0405997" lon="11.9941099"><ele>127.0</ele><time>2026-05-02T15:50:28.019Z</time></trkpt><trkpt lat="44.0406533" lon="11.9942644"><ele>127.00000000000001</ele><time>2026-05-02T15:50:30.019Z</time></trkpt><trkpt lat="44.040668" lon="11.9943582"><ele>127.0</ele><time>2026-05-02T15:50:31.019Z</time></trkpt><trkpt lat="44.0406782" lon="11.9944578"><ele>126.85714285714286</ele><time>2026-05-02T15:50:32.019Z</time></trkpt><trkpt lat="44.0406827" lon="11.9945565"><ele>126.71428571428571</ele><time>2026-05-02T15:50:33.019Z</time></trkpt><trkpt lat="44.0406812" lon="11.994657"><ele>126.57142857142857</ele><time>2026-05-02T15:50:34.019Z</time></trkpt><trkpt lat="44.0406774" lon="11.9947578"><ele>126.42857142857143</ele><time>2026-05-02T15:50:35.019Z</time></trkpt><trkpt lat="44.0406634" lon="11.9948649"><ele>126.28571428571428</ele><time>2026-05-02T15:50:36.019Z</time></trkpt><trkpt lat="44.0406442" lon="11.994964"><ele>126.14285714285714</ele><time>2026-05-02T15:50:37.02Z</time></trkpt><trkpt lat="44.0406289" lon="11.9950615"><ele>126.0</ele><time>2026-05-02T15:50:38.02Z</time></trkpt><trkpt lat="44.0406128" lon="11.9951573"><ele>126.0</ele><time>2026-05-02T15:50:39.019Z</time></trkpt><trkpt lat="44.0405981" lon="11.9952562"><ele>126.0</ele><time>2026-05-02T15:50:40.019Z</time></trkpt><trkpt lat="44.0405818" lon="11.995369"><ele>126.0</ele><time>2026-05-02T15:50:41.02Z</time></trkpt><trkpt lat="44.0405641" lon="11.9954844"><ele>126.0</ele><time>2026-05-02T15:50:42.019Z</time></trkpt><trkpt lat="44.0405449" lon="11.9955991"><ele>126.0</ele><time>2026-05-02T15:50:43.019Z</time></trkpt><trkpt lat="44.0405167" lon="11.9957179"><ele>126.0</ele><time>2026-05-02T15:50:44.019Z</time></trkpt><trkpt lat="44.0404917" lon="11.9958319"><ele>125.83333333333333</ele><time>2026-05-02T15:50:45.019Z</time></trkpt><trkpt lat="44.0404586" lon="11.9959471"><ele>125.66666666666666</ele><time>2026-05-02T15:50:46.02Z</time></trkpt><trkpt lat="44.0404199" lon="11.996059"><ele>125.5</ele><time>2026-05-02T15:50:47.02Z</time></trkpt><trkpt lat="44.0403783" lon="11.9961654"><ele>125.33333333333333</ele><time>2026-05-02T15:50:48.019Z</time></trkpt><trkpt lat="44.0403391" lon="11.9962731"><ele>125.16666666666666</ele><time>2026-05-02T15:50:49.019Z</time></trkpt><trkpt lat="44.0402978" lon="11.9963778"><ele>125.0</ele><time>2026-05-02T15:50:50.019Z</time></trkpt><trkpt lat="44.0402529" lon="11.9964856"><ele>124.99999999999999</ele><time>2026-05-02T15:50:51.019Z</time></trkpt><trkpt lat="44.0402062" lon="11.9965894"><ele>125.0</ele><time>2026-05-02T15:50:52.019Z</time></trkpt><trkpt lat="44.040155" lon="11.9966874"><ele>125.0</ele><time>2026-05-02T15:50:53.019Z</time></trkpt><trkpt lat="44.0401099" lon="11.9967838"><ele>125.0</ele><time>2026-05-02T15:50:54.019Z</time></trkpt><trkpt lat="44.0400611" lon="11.9968851"><ele>124.99999999999999</ele><time>2026-05-02T15:50:55.019Z</time></trkpt><trkpt lat="44.0400073" lon="11.996981"><ele>125.0</ele><time>2026-05-02T15:50:56.019Z</time></trkpt><trkpt lat="44.0399573" lon="11.9970815"><ele>124.33333333333333</ele><time>2026-05-02T15:50:57.019Z</time></trkpt><trkpt lat="44.0399086" lon="11.9971759"><ele>123.66666666666666</ele><time>2026-05-02T15:50:58.02Z</time></trkpt><trkpt lat="44.0398591" lon="11.997268"><ele>123.0</ele><time>2026-05-02T15:50:59.019Z</time></trkpt><trkpt lat="44.039815" lon="11.9973538"><ele>122.33333333333334</ele><time>2026-05-02T15:51:00.019Z</time></trkpt><trkpt lat="44.0397681" lon="11.9974413"><ele>121.66666666666667</ele><time>2026-05-02T15:51:01.019Z</time></trkpt><trkpt lat="44.0397257" lon="11.9975247"><ele>121.0</ele><time>2026-05-02T15:51:02.019Z</time></trkpt><trkpt lat="44.0396894" lon="11.997599"><ele>121.0</ele><time>2026-05-02T15:51:03.019Z</time></trkpt><trkpt lat="44.0396286" lon="11.9977093"><ele>120.99999999999999</ele><time>2026-05-02T15:51:05.019Z</time></trkpt><trkpt lat="44.039593" lon="11.9977821"><ele>121.0</ele><time>2026-05-02T15:51:08.019Z</time></trkpt><trkpt lat="44.0395463" lon="11.9978422"><ele>121.0</ele><time>2026-05-02T15:51:22.019Z</time></trkpt><trkpt lat="44.0395025" lon="11.9979145"><ele>120.99999999999999</ele><time>2026-05-02T15:51:24.019Z</time></trkpt><trkpt lat="44.03946" lon="11.9979864"><ele>121.0</ele><time>2026-05-02T15:51:25.019Z</time></trkpt><trkpt lat="44.0394116" lon="11.9980688"><ele>121.0</ele><time>2026-05-02T15:51:26.019Z</time></trkpt><trkpt lat="44.0393602" lon="11.998161"><ele>121.00000000000001</ele><time>2026-05-02T15:51:27.02Z</time></trkpt><trkpt lat="44.0393129" lon="11.9982521"><ele>121.0</ele><time>2026-05-02T15:51:28.019Z</time></trkpt><trkpt lat="44.039258" lon="11.9983407"><ele>121.0</ele><time>2026-05-02T15:51:29.019Z</time></trkpt><trkpt lat="44.0392117" lon="11.9984351"><ele>121.0</ele><time>2026-05-02T15:51:30.019Z</time></trkpt><trkpt lat="44.0391637" lon="11.9985266"><ele>121.00000000000001</ele><time>2026-05-02T15:51:31.019Z</time></trkpt><trkpt lat="44.0391183" lon="11.9986141"><ele>121.0</ele><time>2026-05-02T15:51:32.019Z</time></trkpt><trkpt lat="44.0390714" lon="11.9986972"><ele>120.8</ele><time>2026-05-02T15:51:33.02Z</time></trkpt><trkpt lat="44.0390323" lon="11.9987728"><ele>120.6</ele><time>2026-05-02T15:51:34.02Z</time></trkpt><trkpt lat="44.0389673" lon="11.9989073"><ele>120.4</ele><time>2026-05-02T15:51:36.019Z</time></trkpt><trkpt lat="44.0389071" lon="11.9990336"><ele>120.2</ele><time>2026-05-02T15:51:38.02Z</time></trkpt><trkpt lat="44.0388353" lon="11.9991595"><ele>120.0</ele><time>2026-05-02T15:51:40.019Z</time></trkpt><trkpt lat="44.0387758" lon="11.9992666"><ele>120.0</ele><time>2026-05-02T15:51:42.019Z</time></trkpt><trkpt lat="44.0387423" lon="11.999343"><ele>120.0</ele><time>2026-05-02T15:51:44.019Z</time></trkpt><trkpt lat="44.038753" lon="11.9994815"><ele>120.0</ele><time>2026-05-02T15:51:56.019Z</time></trkpt><trkpt lat="44.0387311" lon="11.9995866"><ele>120.0</ele><time>2026-05-02T15:51:58.019Z</time></trkpt><trkpt lat="44.0386868" lon="11.9996721"><ele>120.0</ele><time>2026-05-02T15:52:01.019Z</time></trkpt></trkseg></trk></gpx>